<?xml version="1.0" encoding="UTF-8" standalone="no" ?>
<gpx xmlns="http://www.topografix.com/GPX/1/1" xmlns:xsi="http://www.w3.org/2001/XMLSchema-instance" xsi:schemaLocation="http://www.topografix.com/GPX/1/1 http://www.topografix.com/GPX/1/1/gpx.xsd" version="1.1" creator="VisuGPX - https://www.visugpx.com">
  <metadata>
    <name>Grenoble Trail - Fractionne-2021-09-16</name>
  </metadata>
  <trk>
    <name><![CDATA[Grenoble - Fractionne-000]]></name>
    <trkseg>
      <trkpt lat="45.19662" lon="5.73956">
        <ele>213.39999389648</ele>
        <time>2021-09-16T03:12:19.000Z</time>
      </trkpt>
      <trkpt lat="45.19662" lon="5.73958">
        <ele>213.39999389648</ele>
        <time>2021-09-16T03:12:22.000Z</time>
      </trkpt>
      <trkpt lat="45.19658" lon="5.73963">
        <ele>213.39999389648</ele>
        <time>2021-09-16T03:12:25.000Z</time>
      </trkpt>
      <trkpt lat="45.1965" lon="5.73967">
        <ele>213.39999389648</ele>
        <time>2021-09-16T03:12:29.000Z</time>
      </trkpt>
      <trkpt lat="45.19647" lon="5.7397">
        <ele>213.39999389648</ele>
        <time>2021-09-16T03:12:31.000Z</time>
      </trkpt>
      <trkpt lat="45.19643" lon="5.73974">
        <ele>213.39999389648</ele>
        <time>2021-09-16T03:12:36.000Z</time>
      </trkpt>
      <trkpt lat="45.19643" lon="5.73975">
        <ele>213.60000610352</ele>
        <time>2021-09-16T03:12:37.000Z</time>
      </trkpt>
      <trkpt lat="45.19642" lon="5.73975">
        <ele>213.60000610352</ele>
        <time>2021-09-16T03:12:39.000Z</time>
      </trkpt>
      <trkpt lat="45.19642" lon="5.73974">
        <ele>213.60000610352</ele>
        <time>2021-09-16T03:12:42.000Z</time>
      </trkpt>
      <trkpt lat="45.19641" lon="5.73975">
        <ele>213</ele>
        <time>2021-09-16T03:12:46.000Z</time>
      </trkpt>
      <trkpt lat="45.1964" lon="5.73975">
        <ele>212.39999389648</ele>
        <time>2021-09-16T03:12:47.000Z</time>
      </trkpt>
      <trkpt lat="45.19641" lon="5.73977">
        <ele>212.19999694824</ele>
        <time>2021-09-16T03:12:48.000Z</time>
      </trkpt>
      <trkpt lat="45.19642" lon="5.7398">
        <ele>211.80000305176</ele>
        <time>2021-09-16T03:12:49.000Z</time>
      </trkpt>
      <trkpt lat="45.19642" lon="5.73984">
        <ele>211.19999694824</ele>
        <time>2021-09-16T03:12:51.000Z</time>
      </trkpt>
      <trkpt lat="45.19642" lon="5.73984">
        <ele>211</ele>
        <time>2021-09-16T03:12:53.000Z</time>
      </trkpt>
      <trkpt lat="45.19643" lon="5.73984">
        <ele>211</ele>
        <time>2021-09-16T03:12:54.000Z</time>
      </trkpt>
      <trkpt lat="45.19641" lon="5.73982">
        <ele>210.19999694824</ele>
        <time>2021-09-16T03:12:57.000Z</time>
      </trkpt>
      <trkpt lat="45.19636" lon="5.73975">
        <ele>209</ele>
        <time>2021-09-16T03:13:00.000Z</time>
      </trkpt>
      <trkpt lat="45.19636" lon="5.73973">
        <ele>208.80000305176</ele>
        <time>2021-09-16T03:13:01.000Z</time>
      </trkpt>
      <trkpt lat="45.19637" lon="5.73972">
        <ele>208.39999389648</ele>
        <time>2021-09-16T03:13:03.000Z</time>
      </trkpt>
      <trkpt lat="45.19637" lon="5.73972">
        <ele>208.39999389648</ele>
        <time>2021-09-16T03:13:04.000Z</time>
      </trkpt>
      <trkpt lat="45.19637" lon="5.73971">
        <ele>208.39999389648</ele>
        <time>2021-09-16T03:13:05.000Z</time>
      </trkpt>
      <trkpt lat="45.19637" lon="5.73972">
        <ele>207.80000305176</ele>
        <time>2021-09-16T03:13:07.000Z</time>
      </trkpt>
      <trkpt lat="45.19636" lon="5.73972">
        <ele>207.39999389648</ele>
        <time>2021-09-16T03:13:08.000Z</time>
      </trkpt>
      <trkpt lat="45.19636" lon="5.73972">
        <ele>206.60000610352</ele>
        <time>2021-09-16T03:13:10.000Z</time>
      </trkpt>
      <trkpt lat="45.19635" lon="5.73972">
        <ele>206</ele>
        <time>2021-09-16T03:13:12.000Z</time>
      </trkpt>
      <trkpt lat="45.19636" lon="5.73973">
        <ele>205.80000305176</ele>
        <time>2021-09-16T03:13:13.000Z</time>
      </trkpt>
      <trkpt lat="45.19638" lon="5.73973">
        <ele>205.60000610352</ele>
        <time>2021-09-16T03:13:15.000Z</time>
      </trkpt>
      <trkpt lat="45.19638" lon="5.73973">
        <ele>205.60000610352</ele>
        <time>2021-09-16T03:13:17.000Z</time>
      </trkpt>
      <trkpt lat="45.19644" lon="5.73975">
        <ele>205.60000610352</ele>
        <time>2021-09-16T03:13:20.000Z</time>
      </trkpt>
      <trkpt lat="45.19646" lon="5.73976">
        <ele>205.80000305176</ele>
        <time>2021-09-16T03:13:22.000Z</time>
      </trkpt>
      <trkpt lat="45.19646" lon="5.73975">
        <ele>205.80000305176</ele>
        <time>2021-09-16T03:13:23.000Z</time>
      </trkpt>
      <trkpt lat="45.19644" lon="5.73969">
        <ele>205.80000305176</ele>
        <time>2021-09-16T03:13:27.000Z</time>
      </trkpt>
      <trkpt lat="45.19645" lon="5.73967">
        <ele>205.80000305176</ele>
        <time>2021-09-16T03:13:28.000Z</time>
      </trkpt>
      <trkpt lat="45.19651" lon="5.73962">
        <ele>205.80000305176</ele>
        <time>2021-09-16T03:13:30.000Z</time>
      </trkpt>
      <trkpt lat="45.1966" lon="5.73955">
        <ele>205.80000305176</ele>
        <time>2021-09-16T03:13:34.000Z</time>
      </trkpt>
      <trkpt lat="45.19661" lon="5.73954">
        <ele>205.80000305176</ele>
        <time>2021-09-16T03:13:36.000Z</time>
      </trkpt>
      <trkpt lat="45.19662" lon="5.73954">
        <ele>205.80000305176</ele>
        <time>2021-09-16T03:13:37.000Z</time>
      </trkpt>
      <trkpt lat="45.19664" lon="5.73961">
        <ele>205.80000305176</ele>
        <time>2021-09-16T03:13:41.000Z</time>
      </trkpt>
      <trkpt lat="45.19662" lon="5.73968">
        <ele>205.80000305176</ele>
        <time>2021-09-16T03:13:44.000Z</time>
      </trkpt>
      <trkpt lat="45.19665" lon="5.73976">
        <ele>205.80000305176</ele>
        <time>2021-09-16T03:13:47.000Z</time>
      </trkpt>
      <trkpt lat="45.19667" lon="5.73981">
        <ele>205.80000305176</ele>
        <time>2021-09-16T03:13:49.000Z</time>
      </trkpt>
      <trkpt lat="45.1967" lon="5.73986">
        <ele>205.80000305176</ele>
        <time>2021-09-16T03:13:51.000Z</time>
      </trkpt>
      <trkpt lat="45.19671" lon="5.73988">
        <ele>205.80000305176</ele>
        <time>2021-09-16T03:13:52.000Z</time>
      </trkpt>
      <trkpt lat="45.19675" lon="5.73995">
        <ele>205.80000305176</ele>
        <time>2021-09-16T03:13:55.000Z</time>
      </trkpt>
      <trkpt lat="45.19676" lon="5.73997">
        <ele>206</ele>
        <time>2021-09-16T03:13:56.000Z</time>
      </trkpt>
      <trkpt lat="45.19676" lon="5.74">
        <ele>206</ele>
        <time>2021-09-16T03:13:57.000Z</time>
      </trkpt>
      <trkpt lat="45.19677" lon="5.74001">
        <ele>206</ele>
        <time>2021-09-16T03:13:58.000Z</time>
      </trkpt>
      <trkpt lat="45.1968" lon="5.74005">
        <ele>205.80000305176</ele>
        <time>2021-09-16T03:14:00.000Z</time>
      </trkpt>
      <trkpt lat="45.19682" lon="5.74008">
        <ele>205.80000305176</ele>
        <time>2021-09-16T03:14:02.000Z</time>
      </trkpt>
      <trkpt lat="45.19691" lon="5.74021">
        <ele>205.80000305176</ele>
        <time>2021-09-16T03:14:07.000Z</time>
      </trkpt>
      <trkpt lat="45.197" lon="5.74037">
        <ele>206</ele>
        <time>2021-09-16T03:14:13.000Z</time>
      </trkpt>
      <trkpt lat="45.19701" lon="5.74055">
        <ele>206</ele>
        <time>2021-09-16T03:14:19.000Z</time>
      </trkpt>
      <trkpt lat="45.197" lon="5.74058">
        <ele>206</ele>
        <time>2021-09-16T03:14:20.000Z</time>
      </trkpt>
      <trkpt lat="45.19699" lon="5.74063">
        <ele>206</ele>
        <time>2021-09-16T03:14:21.000Z</time>
      </trkpt>
      <trkpt lat="45.19699" lon="5.74072">
        <ele>206</ele>
        <time>2021-09-16T03:14:24.000Z</time>
      </trkpt>
      <trkpt lat="45.19706" lon="5.74095">
        <ele>206</ele>
        <time>2021-09-16T03:14:30.000Z</time>
      </trkpt>
      <trkpt lat="45.19707" lon="5.74099">
        <ele>206</ele>
        <time>2021-09-16T03:14:31.000Z</time>
      </trkpt>
      <trkpt lat="45.19712" lon="5.74109">
        <ele>205.80000305176</ele>
        <time>2021-09-16T03:14:34.000Z</time>
      </trkpt>
      <trkpt lat="45.19715" lon="5.74125">
        <ele>205.80000305176</ele>
        <time>2021-09-16T03:14:39.000Z</time>
      </trkpt>
      <trkpt lat="45.19721" lon="5.7414">
        <ele>206</ele>
        <time>2021-09-16T03:14:43.000Z</time>
      </trkpt>
      <trkpt lat="45.19722" lon="5.74144">
        <ele>206</ele>
        <time>2021-09-16T03:14:44.000Z</time>
      </trkpt>
      <trkpt lat="45.19721" lon="5.74151">
        <ele>206.19999694824</ele>
        <time>2021-09-16T03:14:46.000Z</time>
      </trkpt>
      <trkpt lat="45.19721" lon="5.74157">
        <ele>206.19999694824</ele>
        <time>2021-09-16T03:14:48.000Z</time>
      </trkpt>
      <trkpt lat="45.19729" lon="5.74181">
        <ele>206</ele>
        <time>2021-09-16T03:14:55.000Z</time>
      </trkpt>
      <trkpt lat="45.19733" lon="5.74193">
        <ele>206</ele>
        <time>2021-09-16T03:14:58.000Z</time>
      </trkpt>
      <trkpt lat="45.19734" lon="5.74201">
        <ele>206.19999694824</ele>
        <time>2021-09-16T03:15:01.000Z</time>
      </trkpt>
      <trkpt lat="45.19734" lon="5.74212">
        <ele>206.39999389648</ele>
        <time>2021-09-16T03:15:04.000Z</time>
      </trkpt>
      <trkpt lat="45.19736" lon="5.74218">
        <ele>206.39999389648</ele>
        <time>2021-09-16T03:15:06.000Z</time>
      </trkpt>
      <trkpt lat="45.19737" lon="5.74231">
        <ele>206.39999389648</ele>
        <time>2021-09-16T03:15:10.000Z</time>
      </trkpt>
      <trkpt lat="45.19731" lon="5.74234">
        <ele>206.39999389648</ele>
        <time>2021-09-16T03:15:12.000Z</time>
      </trkpt>
      <trkpt lat="45.19728" lon="5.74236">
        <ele>206.60000610352</ele>
        <time>2021-09-16T03:15:13.000Z</time>
      </trkpt>
      <trkpt lat="45.19713" lon="5.74241">
        <ele>207</ele>
        <time>2021-09-16T03:15:18.000Z</time>
      </trkpt>
      <trkpt lat="45.1971" lon="5.74241">
        <ele>206.80000305176</ele>
        <time>2021-09-16T03:15:19.000Z</time>
      </trkpt>
      <trkpt lat="45.19691" lon="5.74242">
        <ele>206.60000610352</ele>
        <time>2021-09-16T03:15:26.000Z</time>
      </trkpt>
      <trkpt lat="45.19683" lon="5.74244">
        <ele>206.60000610352</ele>
        <time>2021-09-16T03:15:28.000Z</time>
      </trkpt>
      <trkpt lat="45.19667" lon="5.74242">
        <ele>206.19999694824</ele>
        <time>2021-09-16T03:15:33.000Z</time>
      </trkpt>
      <trkpt lat="45.19661" lon="5.74241">
        <ele>206.39999389648</ele>
        <time>2021-09-16T03:15:35.000Z</time>
      </trkpt>
      <trkpt lat="45.19658" lon="5.74241">
        <ele>206.39999389648</ele>
        <time>2021-09-16T03:15:36.000Z</time>
      </trkpt>
      <trkpt lat="45.19638" lon="5.74241">
        <ele>206.80000305176</ele>
        <time>2021-09-16T03:15:43.000Z</time>
      </trkpt>
      <trkpt lat="45.1962" lon="5.74238">
        <ele>207.19999694824</ele>
        <time>2021-09-16T03:15:50.000Z</time>
      </trkpt>
      <trkpt lat="45.19618" lon="5.74239">
        <ele>207.19999694824</ele>
        <time>2021-09-16T03:15:51.000Z</time>
      </trkpt>
      <trkpt lat="45.19598" lon="5.74238">
        <ele>207.39999389648</ele>
        <time>2021-09-16T03:15:58.000Z</time>
      </trkpt>
      <trkpt lat="45.19595" lon="5.74237">
        <ele>207.39999389648</ele>
        <time>2021-09-16T03:15:59.000Z</time>
      </trkpt>
      <trkpt lat="45.19577" lon="5.7423">
        <ele>207.39999389648</ele>
        <time>2021-09-16T03:16:06.000Z</time>
      </trkpt>
      <trkpt lat="45.19562" lon="5.74229">
        <ele>207.60000610352</ele>
        <time>2021-09-16T03:16:11.000Z</time>
      </trkpt>
      <trkpt lat="45.19559" lon="5.74228">
        <ele>207.60000610352</ele>
        <time>2021-09-16T03:16:12.000Z</time>
      </trkpt>
      <trkpt lat="45.19545" lon="5.74223">
        <ele>207.60000610352</ele>
        <time>2021-09-16T03:16:18.000Z</time>
      </trkpt>
      <trkpt lat="45.19529" lon="5.74221">
        <ele>207.80000305176</ele>
        <time>2021-09-16T03:16:24.000Z</time>
      </trkpt>
      <trkpt lat="45.19525" lon="5.74219">
        <ele>208</ele>
        <time>2021-09-16T03:16:26.000Z</time>
      </trkpt>
      <trkpt lat="45.19513" lon="5.74216">
        <ele>208.19999694824</ele>
        <time>2021-09-16T03:16:30.000Z</time>
      </trkpt>
      <trkpt lat="45.19498" lon="5.74211">
        <ele>208.80000305176</ele>
        <time>2021-09-16T03:16:36.000Z</time>
      </trkpt>
      <trkpt lat="45.19495" lon="5.7421">
        <ele>208.80000305176</ele>
        <time>2021-09-16T03:16:37.000Z</time>
      </trkpt>
      <trkpt lat="45.19487" lon="5.74207">
        <ele>209</ele>
        <time>2021-09-16T03:16:40.000Z</time>
      </trkpt>
      <trkpt lat="45.19478" lon="5.74202">
        <ele>209</ele>
        <time>2021-09-16T03:16:44.000Z</time>
      </trkpt>
      <trkpt lat="45.19461" lon="5.74196">
        <ele>209.39999389648</ele>
        <time>2021-09-16T03:16:51.000Z</time>
      </trkpt>
      <trkpt lat="45.19445" lon="5.74189">
        <ele>209.39999389648</ele>
        <time>2021-09-16T03:16:58.000Z</time>
      </trkpt>
      <trkpt lat="45.19442" lon="5.74187">
        <ele>209.60000610352</ele>
        <time>2021-09-16T03:16:59.000Z</time>
      </trkpt>
      <trkpt lat="45.19437" lon="5.74185">
        <ele>209.80000305176</ele>
        <time>2021-09-16T03:17:01.000Z</time>
      </trkpt>
      <trkpt lat="45.19425" lon="5.7418">
        <ele>210</ele>
        <time>2021-09-16T03:17:06.000Z</time>
      </trkpt>
      <trkpt lat="45.19407" lon="5.74173">
        <ele>209.80000305176</ele>
        <time>2021-09-16T03:17:13.000Z</time>
      </trkpt>
      <trkpt lat="45.1939" lon="5.7417">
        <ele>210</ele>
        <time>2021-09-16T03:17:19.000Z</time>
      </trkpt>
      <trkpt lat="45.19377" lon="5.74165">
        <ele>209.60000610352</ele>
        <time>2021-09-16T03:17:24.000Z</time>
      </trkpt>
      <trkpt lat="45.19364" lon="5.74163">
        <ele>209.80000305176</ele>
        <time>2021-09-16T03:17:29.000Z</time>
      </trkpt>
      <trkpt lat="45.19355" lon="5.74162">
        <ele>210.19999694824</ele>
        <time>2021-09-16T03:17:32.000Z</time>
      </trkpt>
      <trkpt lat="45.19337" lon="5.7416">
        <ele>209.80000305176</ele>
        <time>2021-09-16T03:17:39.000Z</time>
      </trkpt>
      <trkpt lat="45.19318" lon="5.74157">
        <ele>210</ele>
        <time>2021-09-16T03:17:46.000Z</time>
      </trkpt>
      <trkpt lat="45.19299" lon="5.74152">
        <ele>210</ele>
        <time>2021-09-16T03:17:53.000Z</time>
      </trkpt>
      <trkpt lat="45.19296" lon="5.74151">
        <ele>210</ele>
        <time>2021-09-16T03:17:54.000Z</time>
      </trkpt>
      <trkpt lat="45.19291" lon="5.74149">
        <ele>210</ele>
        <time>2021-09-16T03:17:56.000Z</time>
      </trkpt>
      <trkpt lat="45.19284" lon="5.74149">
        <ele>210.19999694824</ele>
        <time>2021-09-16T03:17:59.000Z</time>
      </trkpt>
      <trkpt lat="45.19266" lon="5.74144">
        <ele>210</ele>
        <time>2021-09-16T03:18:06.000Z</time>
      </trkpt>
      <trkpt lat="45.19261" lon="5.74143">
        <ele>210</ele>
        <time>2021-09-16T03:18:08.000Z</time>
      </trkpt>
      <trkpt lat="45.19249" lon="5.74141">
        <ele>210.39999389648</ele>
        <time>2021-09-16T03:18:12.000Z</time>
      </trkpt>
      <trkpt lat="45.1923" lon="5.74138">
        <ele>210</ele>
        <time>2021-09-16T03:18:19.000Z</time>
      </trkpt>
      <trkpt lat="45.19227" lon="5.74138">
        <ele>210</ele>
        <time>2021-09-16T03:18:20.000Z</time>
      </trkpt>
      <trkpt lat="45.19209" lon="5.74137">
        <ele>210.19999694824</ele>
        <time>2021-09-16T03:18:27.000Z</time>
      </trkpt>
      <trkpt lat="45.19206" lon="5.74136">
        <ele>210.19999694824</ele>
        <time>2021-09-16T03:18:28.000Z</time>
      </trkpt>
      <trkpt lat="45.1919" lon="5.74137">
        <ele>209.80000305176</ele>
        <time>2021-09-16T03:18:33.000Z</time>
      </trkpt>
      <trkpt lat="45.19172" lon="5.74138">
        <ele>208.80000305176</ele>
        <time>2021-09-16T03:18:39.000Z</time>
      </trkpt>
      <trkpt lat="45.1917" lon="5.7414">
        <ele>208.80000305176</ele>
        <time>2021-09-16T03:18:40.000Z</time>
      </trkpt>
      <trkpt lat="45.19168" lon="5.74142">
        <ele>208.60000610352</ele>
        <time>2021-09-16T03:18:41.000Z</time>
      </trkpt>
      <trkpt lat="45.19163" lon="5.74143">
        <ele>208.39999389648</ele>
        <time>2021-09-16T03:18:43.000Z</time>
      </trkpt>
      <trkpt lat="45.19143" lon="5.74144">
        <ele>209</ele>
        <time>2021-09-16T03:18:49.000Z</time>
      </trkpt>
      <trkpt lat="45.1914" lon="5.74144">
        <ele>209</ele>
        <time>2021-09-16T03:18:50.000Z</time>
      </trkpt>
      <trkpt lat="45.19136" lon="5.74143">
        <ele>209.19999694824</ele>
        <time>2021-09-16T03:18:51.000Z</time>
      </trkpt>
      <trkpt lat="45.19122" lon="5.74143">
        <ele>210</ele>
        <time>2021-09-16T03:18:56.000Z</time>
      </trkpt>
      <trkpt lat="45.19109" lon="5.74144">
        <ele>210.39999389648</ele>
        <time>2021-09-16T03:19:01.000Z</time>
      </trkpt>
      <trkpt lat="45.19093" lon="5.74152">
        <ele>210.80000305176</ele>
        <time>2021-09-16T03:19:07.000Z</time>
      </trkpt>
      <trkpt lat="45.19079" lon="5.74156">
        <ele>210.60000610352</ele>
        <time>2021-09-16T03:19:12.000Z</time>
      </trkpt>
      <trkpt lat="45.19074" lon="5.74158">
        <ele>210.60000610352</ele>
        <time>2021-09-16T03:19:14.000Z</time>
      </trkpt>
      <trkpt lat="45.19064" lon="5.74164">
        <ele>210.19999694824</ele>
        <time>2021-09-16T03:19:18.000Z</time>
      </trkpt>
      <trkpt lat="45.19061" lon="5.74167">
        <ele>210.60000610352</ele>
        <time>2021-09-16T03:19:19.000Z</time>
      </trkpt>
      <trkpt lat="45.19058" lon="5.74169">
        <ele>210.60000610352</ele>
        <time>2021-09-16T03:19:20.000Z</time>
      </trkpt>
      <trkpt lat="45.19046" lon="5.74177">
        <ele>210.60000610352</ele>
        <time>2021-09-16T03:19:25.000Z</time>
      </trkpt>
      <trkpt lat="45.19044" lon="5.74179">
        <ele>210.60000610352</ele>
        <time>2021-09-16T03:19:26.000Z</time>
      </trkpt>
      <trkpt lat="45.19039" lon="5.74182">
        <ele>210.60000610352</ele>
        <time>2021-09-16T03:19:28.000Z</time>
      </trkpt>
      <trkpt lat="45.19037" lon="5.74183">
        <ele>210.39999389648</ele>
        <time>2021-09-16T03:19:29.000Z</time>
      </trkpt>
      <trkpt lat="45.19019" lon="5.74192">
        <ele>210.39999389648</ele>
        <time>2021-09-16T03:19:35.000Z</time>
      </trkpt>
      <trkpt lat="45.19016" lon="5.74193">
        <ele>210.39999389648</ele>
        <time>2021-09-16T03:19:36.000Z</time>
      </trkpt>
      <trkpt lat="45.19014" lon="5.74194">
        <ele>210.60000610352</ele>
        <time>2021-09-16T03:19:37.000Z</time>
      </trkpt>
      <trkpt lat="45.18995" lon="5.74206">
        <ele>210.39999389648</ele>
        <time>2021-09-16T03:19:44.000Z</time>
      </trkpt>
      <trkpt lat="45.18979" lon="5.74224">
        <ele>210.19999694824</ele>
        <time>2021-09-16T03:19:51.000Z</time>
      </trkpt>
      <trkpt lat="45.18976" lon="5.74226">
        <ele>209.80000305176</ele>
        <time>2021-09-16T03:19:52.000Z</time>
      </trkpt>
      <trkpt lat="45.1897" lon="5.74243">
        <ele>209.60000610352</ele>
        <time>2021-09-16T03:19:58.000Z</time>
      </trkpt>
      <trkpt lat="45.18967" lon="5.74244">
        <ele>210</ele>
        <time>2021-09-16T03:19:59.000Z</time>
      </trkpt>
      <trkpt lat="45.18965" lon="5.74246">
        <ele>210</ele>
        <time>2021-09-16T03:20:00.000Z</time>
      </trkpt>
      <trkpt lat="45.18957" lon="5.74254">
        <ele>210</ele>
        <time>2021-09-16T03:20:04.000Z</time>
      </trkpt>
      <trkpt lat="45.18945" lon="5.74276">
        <ele>210.39999389648</ele>
        <time>2021-09-16T03:20:10.000Z</time>
      </trkpt>
      <trkpt lat="45.18938" lon="5.74294">
        <ele>210.60000610352</ele>
        <time>2021-09-16T03:20:14.000Z</time>
      </trkpt>
      <trkpt lat="45.18934" lon="5.74303">
        <ele>210.80000305176</ele>
        <time>2021-09-16T03:20:16.000Z</time>
      </trkpt>
      <trkpt lat="45.18929" lon="5.74316">
        <ele>210.80000305176</ele>
        <time>2021-09-16T03:20:19.000Z</time>
      </trkpt>
      <trkpt lat="45.18923" lon="5.74333">
        <ele>210.60000610352</ele>
        <time>2021-09-16T03:20:23.000Z</time>
      </trkpt>
      <trkpt lat="45.18913" lon="5.74356">
        <ele>210.80000305176</ele>
        <time>2021-09-16T03:20:29.000Z</time>
      </trkpt>
      <trkpt lat="45.18906" lon="5.74381">
        <ele>211</ele>
        <time>2021-09-16T03:20:35.000Z</time>
      </trkpt>
      <trkpt lat="45.18903" lon="5.74388">
        <ele>211</ele>
        <time>2021-09-16T03:20:37.000Z</time>
      </trkpt>
      <trkpt lat="45.18896" lon="5.74409">
        <ele>211.19999694824</ele>
        <time>2021-09-16T03:20:43.000Z</time>
      </trkpt>
      <trkpt lat="45.1889" lon="5.74425">
        <ele>210.80000305176</ele>
        <time>2021-09-16T03:20:48.000Z</time>
      </trkpt>
      <trkpt lat="45.18884" lon="5.7444">
        <ele>210.60000610352</ele>
        <time>2021-09-16T03:20:53.000Z</time>
      </trkpt>
      <trkpt lat="45.1888" lon="5.74454">
        <ele>210.60000610352</ele>
        <time>2021-09-16T03:20:57.000Z</time>
      </trkpt>
      <trkpt lat="45.18878" lon="5.74461">
        <ele>211</ele>
        <time>2021-09-16T03:20:59.000Z</time>
      </trkpt>
      <trkpt lat="45.18876" lon="5.74464">
        <ele>211</ele>
        <time>2021-09-16T03:21:00.000Z</time>
      </trkpt>
      <trkpt lat="45.18873" lon="5.74478">
        <ele>211.19999694824</ele>
        <time>2021-09-16T03:21:04.000Z</time>
      </trkpt>
      <trkpt lat="45.18868" lon="5.74498">
        <ele>211.39999389648</ele>
        <time>2021-09-16T03:21:09.000Z</time>
      </trkpt>
      <trkpt lat="45.18866" lon="5.74509">
        <ele>211.19999694824</ele>
        <time>2021-09-16T03:21:12.000Z</time>
      </trkpt>
      <trkpt lat="45.18863" lon="5.74517">
        <ele>211.19999694824</ele>
        <time>2021-09-16T03:21:14.000Z</time>
      </trkpt>
      <trkpt lat="45.18855" lon="5.74542">
        <ele>211.39999389648</ele>
        <time>2021-09-16T03:21:21.000Z</time>
      </trkpt>
      <trkpt lat="45.18852" lon="5.74554">
        <ele>211.60000610352</ele>
        <time>2021-09-16T03:21:25.000Z</time>
      </trkpt>
      <trkpt lat="45.18852" lon="5.74556">
        <ele>211.39999389648</ele>
        <time>2021-09-16T03:21:26.000Z</time>
      </trkpt>
      <trkpt lat="45.18849" lon="5.74572">
        <ele>211</ele>
        <time>2021-09-16T03:21:30.000Z</time>
      </trkpt>
      <trkpt lat="45.18848" lon="5.74575">
        <ele>211</ele>
        <time>2021-09-16T03:21:31.000Z</time>
      </trkpt>
      <trkpt lat="45.1884" lon="5.74598">
        <ele>210.80000305176</ele>
        <time>2021-09-16T03:21:37.000Z</time>
      </trkpt>
      <trkpt lat="45.1884" lon="5.74616">
        <ele>211.39999389648</ele>
        <time>2021-09-16T03:21:42.000Z</time>
      </trkpt>
      <trkpt lat="45.18841" lon="5.74617">
        <ele>211.39999389648</ele>
        <time>2021-09-16T03:21:43.000Z</time>
      </trkpt>
      <trkpt lat="45.18841" lon="5.74618">
        <ele>211.60000610352</ele>
        <time>2021-09-16T03:21:44.000Z</time>
      </trkpt>
      <trkpt lat="45.18839" lon="5.74616">
        <ele>211.60000610352</ele>
        <time>2021-09-16T03:21:46.000Z</time>
      </trkpt>
      <trkpt lat="45.18839" lon="5.74611">
        <ele>211.80000305176</ele>
        <time>2021-09-16T03:21:48.000Z</time>
      </trkpt>
      <trkpt lat="45.1884" lon="5.74601">
        <ele>211.80000305176</ele>
        <time>2021-09-16T03:21:52.000Z</time>
      </trkpt>
      <trkpt lat="45.18843" lon="5.74577">
        <ele>211.60000610352</ele>
        <time>2021-09-16T03:22:00.000Z</time>
      </trkpt>
      <trkpt lat="45.18844" lon="5.74574">
        <ele>211.60000610352</ele>
        <time>2021-09-16T03:22:01.000Z</time>
      </trkpt>
      <trkpt lat="45.18844" lon="5.74565">
        <ele>211.60000610352</ele>
        <time>2021-09-16T03:22:03.000Z</time>
      </trkpt>
      <trkpt lat="45.18844" lon="5.74552">
        <ele>211.60000610352</ele>
        <time>2021-09-16T03:22:06.000Z</time>
      </trkpt>
      <trkpt lat="45.18845" lon="5.74539">
        <ele>211.80000305176</ele>
        <time>2021-09-16T03:22:10.000Z</time>
      </trkpt>
      <trkpt lat="45.18846" lon="5.74532">
        <ele>211.60000610352</ele>
        <time>2021-09-16T03:22:13.000Z</time>
      </trkpt>
      <trkpt lat="45.18853" lon="5.74505">
        <ele>211</ele>
        <time>2021-09-16T03:22:19.000Z</time>
      </trkpt>
      <trkpt lat="45.18855" lon="5.74499">
        <ele>210.80000305176</ele>
        <time>2021-09-16T03:22:21.000Z</time>
      </trkpt>
      <trkpt lat="45.18858" lon="5.74486">
        <ele>211</ele>
        <time>2021-09-16T03:22:24.000Z</time>
      </trkpt>
      <trkpt lat="45.18859" lon="5.74482">
        <ele>211</ele>
        <time>2021-09-16T03:22:25.000Z</time>
      </trkpt>
      <trkpt lat="45.18864" lon="5.74469">
        <ele>211</ele>
        <time>2021-09-16T03:22:29.000Z</time>
      </trkpt>
      <trkpt lat="45.18864" lon="5.74466">
        <ele>211</ele>
        <time>2021-09-16T03:22:30.000Z</time>
      </trkpt>
      <trkpt lat="45.18867" lon="5.74459">
        <ele>211</ele>
        <time>2021-09-16T03:22:32.000Z</time>
      </trkpt>
      <trkpt lat="45.18871" lon="5.74445">
        <ele>211</ele>
        <time>2021-09-16T03:22:35.000Z</time>
      </trkpt>
      <trkpt lat="45.18876" lon="5.74431">
        <ele>211</ele>
        <time>2021-09-16T03:22:38.000Z</time>
      </trkpt>
      <trkpt lat="45.18877" lon="5.74411">
        <ele>211</ele>
        <time>2021-09-16T03:22:44.000Z</time>
      </trkpt>
      <trkpt lat="45.18878" lon="5.74407">
        <ele>210.80000305176</ele>
        <time>2021-09-16T03:22:45.000Z</time>
      </trkpt>
      <trkpt lat="45.18884" lon="5.74382">
        <ele>211</ele>
        <time>2021-09-16T03:22:49.000Z</time>
      </trkpt>
      <trkpt lat="45.18886" lon="5.74378">
        <ele>211</ele>
        <time>2021-09-16T03:22:50.000Z</time>
      </trkpt>
      <trkpt lat="45.18888" lon="5.74374">
        <ele>211</ele>
        <time>2021-09-16T03:22:51.000Z</time>
      </trkpt>
      <trkpt lat="45.18892" lon="5.74366">
        <ele>211</ele>
        <time>2021-09-16T03:22:53.000Z</time>
      </trkpt>
      <trkpt lat="45.18896" lon="5.74359">
        <ele>210.80000305176</ele>
        <time>2021-09-16T03:22:55.000Z</time>
      </trkpt>
      <trkpt lat="45.18899" lon="5.74351">
        <ele>210.80000305176</ele>
        <time>2021-09-16T03:22:57.000Z</time>
      </trkpt>
      <trkpt lat="45.18902" lon="5.74344">
        <ele>211</ele>
        <time>2021-09-16T03:22:59.000Z</time>
      </trkpt>
      <trkpt lat="45.18914" lon="5.74319">
        <ele>211</ele>
        <time>2021-09-16T03:23:05.000Z</time>
      </trkpt>
      <trkpt lat="45.18919" lon="5.74304">
        <ele>211</ele>
        <time>2021-09-16T03:23:08.000Z</time>
      </trkpt>
      <trkpt lat="45.18924" lon="5.74296">
        <ele>211</ele>
        <time>2021-09-16T03:23:10.000Z</time>
      </trkpt>
      <trkpt lat="45.18934" lon="5.74274">
        <ele>211</ele>
        <time>2021-09-16T03:23:16.000Z</time>
      </trkpt>
      <trkpt lat="45.1894" lon="5.74257">
        <ele>211</ele>
        <time>2021-09-16T03:23:20.000Z</time>
      </trkpt>
      <trkpt lat="45.1895" lon="5.74238">
        <ele>210.60000610352</ele>
        <time>2021-09-16T03:23:26.000Z</time>
      </trkpt>
      <trkpt lat="45.18952" lon="5.74236">
        <ele>210.39999389648</ele>
        <time>2021-09-16T03:23:28.000Z</time>
      </trkpt>
      <trkpt lat="45.1898" lon="5.74208">
        <ele>210.60000610352</ele>
        <time>2021-09-16T03:23:37.000Z</time>
      </trkpt>
      <trkpt lat="45.18986" lon="5.74197">
        <ele>210.80000305176</ele>
        <time>2021-09-16T03:23:40.000Z</time>
      </trkpt>
      <trkpt lat="45.18996" lon="5.74183">
        <ele>210.80000305176</ele>
        <time>2021-09-16T03:23:44.000Z</time>
      </trkpt>
      <trkpt lat="45.19003" lon="5.74175">
        <ele>211</ele>
        <time>2021-09-16T03:23:47.000Z</time>
      </trkpt>
      <trkpt lat="45.19005" lon="5.74172">
        <ele>211</ele>
        <time>2021-09-16T03:23:48.000Z</time>
      </trkpt>
      <trkpt lat="45.19018" lon="5.74164">
        <ele>210.60000610352</ele>
        <time>2021-09-16T03:23:53.000Z</time>
      </trkpt>
      <trkpt lat="45.19028" lon="5.74158">
        <ele>210.80000305176</ele>
        <time>2021-09-16T03:23:57.000Z</time>
      </trkpt>
      <trkpt lat="45.19038" lon="5.74152">
        <ele>211.19999694824</ele>
        <time>2021-09-16T03:24:01.000Z</time>
      </trkpt>
      <trkpt lat="45.19047" lon="5.74148">
        <ele>211</ele>
        <time>2021-09-16T03:24:04.000Z</time>
      </trkpt>
      <trkpt lat="45.19052" lon="5.74146">
        <ele>210.80000305176</ele>
        <time>2021-09-16T03:24:06.000Z</time>
      </trkpt>
      <trkpt lat="45.1907" lon="5.74137">
        <ele>211</ele>
        <time>2021-09-16T03:24:12.000Z</time>
      </trkpt>
      <trkpt lat="45.19073" lon="5.74137">
        <ele>211</ele>
        <time>2021-09-16T03:24:13.000Z</time>
      </trkpt>
      <trkpt lat="45.19076" lon="5.74136">
        <ele>211</ele>
        <time>2021-09-16T03:24:14.000Z</time>
      </trkpt>
      <trkpt lat="45.19094" lon="5.74132">
        <ele>211.19999694824</ele>
        <time>2021-09-16T03:24:21.000Z</time>
      </trkpt>
      <trkpt lat="45.19098" lon="5.74132">
        <ele>211.19999694824</ele>
        <time>2021-09-16T03:24:23.000Z</time>
      </trkpt>
      <trkpt lat="45.19111" lon="5.74131">
        <ele>211.19999694824</ele>
        <time>2021-09-16T03:24:29.000Z</time>
      </trkpt>
      <trkpt lat="45.19115" lon="5.7413">
        <ele>210.80000305176</ele>
        <time>2021-09-16T03:24:31.000Z</time>
      </trkpt>
      <trkpt lat="45.19128" lon="5.74125">
        <ele>210.39999389648</ele>
        <time>2021-09-16T03:24:35.000Z</time>
      </trkpt>
      <trkpt lat="45.19132" lon="5.74124">
        <ele>210.19999694824</ele>
        <time>2021-09-16T03:24:36.000Z</time>
      </trkpt>
      <trkpt lat="45.19144" lon="5.74122">
        <ele>209.80000305176</ele>
        <time>2021-09-16T03:24:40.000Z</time>
      </trkpt>
      <trkpt lat="45.19145" lon="5.74122">
        <ele>209.80000305176</ele>
        <time>2021-09-16T03:24:41.000Z</time>
      </trkpt>
      <trkpt lat="45.19145" lon="5.74122">
        <ele>209.60000610352</ele>
        <time>2021-09-16T03:24:42.000Z</time>
      </trkpt>
      <trkpt lat="45.19145" lon="5.74122">
        <ele>209.60000610352</ele>
        <time>2021-09-16T03:24:43.000Z</time>
      </trkpt>
      <trkpt lat="45.19158" lon="5.74118">
        <ele>209.39999389648</ele>
        <time>2021-09-16T03:24:47.000Z</time>
      </trkpt>
      <trkpt lat="45.19178" lon="5.74117">
        <ele>210.19999694824</ele>
        <time>2021-09-16T03:24:53.000Z</time>
      </trkpt>
      <trkpt lat="45.19184" lon="5.74117">
        <ele>210.19999694824</ele>
        <time>2021-09-16T03:24:55.000Z</time>
      </trkpt>
      <trkpt lat="45.19202" lon="5.74118">
        <ele>211.19999694824</ele>
        <time>2021-09-16T03:25:00.000Z</time>
      </trkpt>
      <trkpt lat="45.19206" lon="5.74119">
        <ele>211.19999694824</ele>
        <time>2021-09-16T03:25:01.000Z</time>
      </trkpt>
      <trkpt lat="45.19225" lon="5.74122">
        <ele>211</ele>
        <time>2021-09-16T03:25:06.000Z</time>
      </trkpt>
      <trkpt lat="45.19244" lon="5.74123">
        <ele>211.19999694824</ele>
        <time>2021-09-16T03:25:11.000Z</time>
      </trkpt>
      <trkpt lat="45.19247" lon="5.74124">
        <ele>210</ele>
        <time>2021-09-16T03:25:12.000Z</time>
      </trkpt>
      <trkpt lat="45.19258" lon="5.74129">
        <ele>210</ele>
        <time>2021-09-16T03:25:16.000Z</time>
      </trkpt>
      <trkpt lat="45.19269" lon="5.7413">
        <ele>210.19999694824</ele>
        <time>2021-09-16T03:25:20.000Z</time>
      </trkpt>
      <trkpt lat="45.19287" lon="5.74134">
        <ele>210.19999694824</ele>
        <time>2021-09-16T03:25:26.000Z</time>
      </trkpt>
      <trkpt lat="45.19302" lon="5.74138">
        <ele>211.19999694824</ele>
        <time>2021-09-16T03:25:31.000Z</time>
      </trkpt>
      <trkpt lat="45.19311" lon="5.74141">
        <ele>211.39999389648</ele>
        <time>2021-09-16T03:25:34.000Z</time>
      </trkpt>
      <trkpt lat="45.19323" lon="5.74143">
        <ele>211.39999389648</ele>
        <time>2021-09-16T03:25:38.000Z</time>
      </trkpt>
      <trkpt lat="45.19329" lon="5.74145">
        <ele>211.19999694824</ele>
        <time>2021-09-16T03:25:40.000Z</time>
      </trkpt>
      <trkpt lat="45.19337" lon="5.74147">
        <ele>211.39999389648</ele>
        <time>2021-09-16T03:25:43.000Z</time>
      </trkpt>
      <trkpt lat="45.19356" lon="5.7415">
        <ele>210.80000305176</ele>
        <time>2021-09-16T03:25:49.000Z</time>
      </trkpt>
      <trkpt lat="45.19368" lon="5.74153">
        <ele>210.80000305176</ele>
        <time>2021-09-16T03:25:53.000Z</time>
      </trkpt>
      <trkpt lat="45.19376" lon="5.74154">
        <ele>210</ele>
        <time>2021-09-16T03:25:56.000Z</time>
      </trkpt>
      <trkpt lat="45.19396" lon="5.7416">
        <ele>210</ele>
        <time>2021-09-16T03:26:03.000Z</time>
      </trkpt>
      <trkpt lat="45.19407" lon="5.74163">
        <ele>210</ele>
        <time>2021-09-16T03:26:07.000Z</time>
      </trkpt>
      <trkpt lat="45.19419" lon="5.74168">
        <ele>210.19999694824</ele>
        <time>2021-09-16T03:26:12.000Z</time>
      </trkpt>
      <trkpt lat="45.19438" lon="5.7417">
        <ele>210</ele>
        <time>2021-09-16T03:26:19.000Z</time>
      </trkpt>
      <trkpt lat="45.19441" lon="5.74172">
        <ele>210</ele>
        <time>2021-09-16T03:26:20.000Z</time>
      </trkpt>
      <trkpt lat="45.19451" lon="5.74174">
        <ele>210.39999389648</ele>
        <time>2021-09-16T03:26:24.000Z</time>
      </trkpt>
      <trkpt lat="45.19465" lon="5.7418">
        <ele>209</ele>
        <time>2021-09-16T03:26:29.000Z</time>
      </trkpt>
      <trkpt lat="45.19484" lon="5.74188">
        <ele>209.80000305176</ele>
        <time>2021-09-16T03:26:35.000Z</time>
      </trkpt>
      <trkpt lat="45.19487" lon="5.74189">
        <ele>209.80000305176</ele>
        <time>2021-09-16T03:26:36.000Z</time>
      </trkpt>
      <trkpt lat="45.19505" lon="5.74197">
        <ele>209.80000305176</ele>
        <time>2021-09-16T03:26:42.000Z</time>
      </trkpt>
      <trkpt lat="45.19512" lon="5.742">
        <ele>209.80000305176</ele>
        <time>2021-09-16T03:26:44.000Z</time>
      </trkpt>
      <trkpt lat="45.19524" lon="5.74207">
        <ele>209</ele>
        <time>2021-09-16T03:26:49.000Z</time>
      </trkpt>
      <trkpt lat="45.19532" lon="5.7421">
        <ele>208.80000305176</ele>
        <time>2021-09-16T03:26:52.000Z</time>
      </trkpt>
      <trkpt lat="45.1954" lon="5.74213">
        <ele>208.80000305176</ele>
        <time>2021-09-16T03:26:55.000Z</time>
      </trkpt>
      <trkpt lat="45.1956" lon="5.74218">
        <ele>208.80000305176</ele>
        <time>2021-09-16T03:27:02.000Z</time>
      </trkpt>
      <trkpt lat="45.19575" lon="5.74216">
        <ele>208.80000305176</ele>
        <time>2021-09-16T03:27:08.000Z</time>
      </trkpt>
      <trkpt lat="45.19594" lon="5.74219">
        <ele>208.80000305176</ele>
        <time>2021-09-16T03:27:15.000Z</time>
      </trkpt>
      <trkpt lat="45.19601" lon="5.74222">
        <ele>209</ele>
        <time>2021-09-16T03:27:17.000Z</time>
      </trkpt>
      <trkpt lat="45.19621" lon="5.74224">
        <ele>209</ele>
        <time>2021-09-16T03:27:24.000Z</time>
      </trkpt>
      <trkpt lat="45.19627" lon="5.74226">
        <ele>209</ele>
        <time>2021-09-16T03:27:26.000Z</time>
      </trkpt>
      <trkpt lat="45.19647" lon="5.7423">
        <ele>209.39999389648</ele>
        <time>2021-09-16T03:27:33.000Z</time>
      </trkpt>
      <trkpt lat="45.1965" lon="5.74232">
        <ele>209.19999694824</ele>
        <time>2021-09-16T03:27:34.000Z</time>
      </trkpt>
      <trkpt lat="45.1967" lon="5.74232">
        <ele>209.19999694824</ele>
        <time>2021-09-16T03:27:42.000Z</time>
      </trkpt>
      <trkpt lat="45.19673" lon="5.74232">
        <ele>209.19999694824</ele>
        <time>2021-09-16T03:27:43.000Z</time>
      </trkpt>
      <trkpt lat="45.19694" lon="5.74238">
        <ele>209.19999694824</ele>
        <time>2021-09-16T03:27:50.000Z</time>
      </trkpt>
      <trkpt lat="45.19714" lon="5.74236">
        <ele>209.39999389648</ele>
        <time>2021-09-16T03:27:57.000Z</time>
      </trkpt>
      <trkpt lat="45.19726" lon="5.74234">
        <ele>209.19999694824</ele>
        <time>2021-09-16T03:28:01.000Z</time>
      </trkpt>
      <trkpt lat="45.1974" lon="5.74231">
        <ele>209</ele>
        <time>2021-09-16T03:28:06.000Z</time>
      </trkpt>
      <trkpt lat="45.19759" lon="5.74227">
        <ele>208.80000305176</ele>
        <time>2021-09-16T03:28:13.000Z</time>
      </trkpt>
      <trkpt lat="45.19762" lon="5.74226">
        <ele>209</ele>
        <time>2021-09-16T03:28:14.000Z</time>
      </trkpt>
      <trkpt lat="45.1978" lon="5.74226">
        <ele>209.39999389648</ele>
        <time>2021-09-16T03:28:20.000Z</time>
      </trkpt>
      <trkpt lat="45.19785" lon="5.74228">
        <ele>209.39999389648</ele>
        <time>2021-09-16T03:28:22.000Z</time>
      </trkpt>
      <trkpt lat="45.19804" lon="5.74224">
        <ele>209.39999389648</ele>
        <time>2021-09-16T03:28:31.000Z</time>
      </trkpt>
      <trkpt lat="45.19807" lon="5.74222">
        <ele>209.39999389648</ele>
        <time>2021-09-16T03:28:32.000Z</time>
      </trkpt>
      <trkpt lat="45.19828" lon="5.74217">
        <ele>209.39999389648</ele>
        <time>2021-09-16T03:28:38.000Z</time>
      </trkpt>
      <trkpt lat="45.19832" lon="5.74216">
        <ele>209.19999694824</ele>
        <time>2021-09-16T03:28:39.000Z</time>
      </trkpt>
      <trkpt lat="45.19847" lon="5.7421">
        <ele>209.60000610352</ele>
        <time>2021-09-16T03:28:44.000Z</time>
      </trkpt>
      <trkpt lat="45.19852" lon="5.74207">
        <ele>209.60000610352</ele>
        <time>2021-09-16T03:28:46.000Z</time>
      </trkpt>
      <trkpt lat="45.1987" lon="5.74198">
        <ele>209.60000610352</ele>
        <time>2021-09-16T03:28:52.000Z</time>
      </trkpt>
      <trkpt lat="45.19875" lon="5.74196">
        <ele>209.60000610352</ele>
        <time>2021-09-16T03:28:54.000Z</time>
      </trkpt>
      <trkpt lat="45.19892" lon="5.74184">
        <ele>209.39999389648</ele>
        <time>2021-09-16T03:29:00.000Z</time>
      </trkpt>
      <trkpt lat="45.19898" lon="5.74182">
        <ele>209.60000610352</ele>
        <time>2021-09-16T03:29:02.000Z</time>
      </trkpt>
      <trkpt lat="45.19908" lon="5.74179">
        <ele>209.80000305176</ele>
        <time>2021-09-16T03:29:06.000Z</time>
      </trkpt>
      <trkpt lat="45.19916" lon="5.7417">
        <ele>209.60000610352</ele>
        <time>2021-09-16T03:29:09.000Z</time>
      </trkpt>
      <trkpt lat="45.19924" lon="5.74167">
        <ele>209.60000610352</ele>
        <time>2021-09-16T03:29:12.000Z</time>
      </trkpt>
      <trkpt lat="45.19937" lon="5.74161">
        <ele>209.39999389648</ele>
        <time>2021-09-16T03:29:17.000Z</time>
      </trkpt>
      <trkpt lat="45.19952" lon="5.7415">
        <ele>209.60000610352</ele>
        <time>2021-09-16T03:29:23.000Z</time>
      </trkpt>
      <trkpt lat="45.19965" lon="5.74138">
        <ele>209.80000305176</ele>
        <time>2021-09-16T03:29:28.000Z</time>
      </trkpt>
      <trkpt lat="45.19979" lon="5.74121">
        <ele>209.80000305176</ele>
        <time>2021-09-16T03:29:34.000Z</time>
      </trkpt>
      <trkpt lat="45.19981" lon="5.74119">
        <ele>209.80000305176</ele>
        <time>2021-09-16T03:29:35.000Z</time>
      </trkpt>
      <trkpt lat="45.19996" lon="5.74104">
        <ele>208.60000610352</ele>
        <time>2021-09-16T03:29:42.000Z</time>
      </trkpt>
      <trkpt lat="45.20006" lon="5.74093">
        <ele>208</ele>
        <time>2021-09-16T03:29:47.000Z</time>
      </trkpt>
      <trkpt lat="45.20012" lon="5.74086">
        <ele>207.60000610352</ele>
        <time>2021-09-16T03:29:50.000Z</time>
      </trkpt>
      <trkpt lat="45.20014" lon="5.74085">
        <ele>207.80000305176</ele>
        <time>2021-09-16T03:29:51.000Z</time>
      </trkpt>
      <trkpt lat="45.20016" lon="5.74089">
        <ele>207.60000610352</ele>
        <time>2021-09-16T03:29:52.000Z</time>
      </trkpt>
      <trkpt lat="45.20017" lon="5.74098">
        <ele>207.60000610352</ele>
        <time>2021-09-16T03:29:53.000Z</time>
      </trkpt>
      <trkpt lat="45.20031" lon="5.7404">
        <ele>207.19999694824</ele>
        <time>2021-09-16T03:30:02.000Z</time>
      </trkpt>
      <trkpt lat="45.20041" lon="5.74037">
        <ele>208</ele>
        <time>2021-09-16T03:30:06.000Z</time>
      </trkpt>
      <trkpt lat="45.20044" lon="5.74028">
        <ele>208.80000305176</ele>
        <time>2021-09-16T03:30:09.000Z</time>
      </trkpt>
      <trkpt lat="45.20046" lon="5.74025">
        <ele>209</ele>
        <time>2021-09-16T03:30:11.000Z</time>
      </trkpt>
      <trkpt lat="45.20047" lon="5.74023">
        <ele>209.19999694824</ele>
        <time>2021-09-16T03:30:12.000Z</time>
      </trkpt>
      <trkpt lat="45.20051" lon="5.74015">
        <ele>209.80000305176</ele>
        <time>2021-09-16T03:30:16.000Z</time>
      </trkpt>
      <trkpt lat="45.2005" lon="5.74014">
        <ele>210</ele>
        <time>2021-09-16T03:30:18.000Z</time>
      </trkpt>
      <trkpt lat="45.2005" lon="5.74014">
        <ele>210.19999694824</ele>
        <time>2021-09-16T03:30:19.000Z</time>
      </trkpt>
      <trkpt lat="45.2005" lon="5.74016">
        <ele>210.19999694824</ele>
        <time>2021-09-16T03:30:20.000Z</time>
      </trkpt>
      <trkpt lat="45.20047" lon="5.7402">
        <ele>210.60000610352</ele>
        <time>2021-09-16T03:30:22.000Z</time>
      </trkpt>
      <trkpt lat="45.20044" lon="5.74024">
        <ele>211</ele>
        <time>2021-09-16T03:30:24.000Z</time>
      </trkpt>
      <trkpt lat="45.20041" lon="5.74028">
        <ele>211.39999389648</ele>
        <time>2021-09-16T03:30:26.000Z</time>
      </trkpt>
      <trkpt lat="45.20038" lon="5.74036">
        <ele>212</ele>
        <time>2021-09-16T03:30:29.000Z</time>
      </trkpt>
      <trkpt lat="45.20034" lon="5.74042">
        <ele>212.39999389648</ele>
        <time>2021-09-16T03:30:32.000Z</time>
      </trkpt>
      <trkpt lat="45.20033" lon="5.74045">
        <ele>212.60000610352</ele>
        <time>2021-09-16T03:30:33.000Z</time>
      </trkpt>
      <trkpt lat="45.20031" lon="5.74056">
        <ele>213.39999389648</ele>
        <time>2021-09-16T03:30:37.000Z</time>
      </trkpt>
      <trkpt lat="45.20032" lon="5.74062">
        <ele>213.39999389648</ele>
        <time>2021-09-16T03:30:39.000Z</time>
      </trkpt>
      <trkpt lat="45.20034" lon="5.74072">
        <ele>213.60000610352</ele>
        <time>2021-09-16T03:30:42.000Z</time>
      </trkpt>
      <trkpt lat="45.2005" lon="5.74085">
        <ele>214.19999694824</ele>
        <time>2021-09-16T03:30:48.000Z</time>
      </trkpt>
      <trkpt lat="45.20067" lon="5.741">
        <ele>214</ele>
        <time>2021-09-16T03:30:54.000Z</time>
      </trkpt>
      <trkpt lat="45.20069" lon="5.74103">
        <ele>213.80000305176</ele>
        <time>2021-09-16T03:30:55.000Z</time>
      </trkpt>
      <trkpt lat="45.20085" lon="5.74122">
        <ele>214.19999694824</ele>
        <time>2021-09-16T03:31:02.000Z</time>
      </trkpt>
      <trkpt lat="45.20088" lon="5.74124">
        <ele>214.19999694824</ele>
        <time>2021-09-16T03:31:03.000Z</time>
      </trkpt>
      <trkpt lat="45.20103" lon="5.74142">
        <ele>214</ele>
        <time>2021-09-16T03:31:09.000Z</time>
      </trkpt>
      <trkpt lat="45.2011" lon="5.74152">
        <ele>214.19999694824</ele>
        <time>2021-09-16T03:31:13.000Z</time>
      </trkpt>
      <trkpt lat="45.20117" lon="5.74162">
        <ele>213.80000305176</ele>
        <time>2021-09-16T03:31:18.000Z</time>
      </trkpt>
      <trkpt lat="45.20118" lon="5.74161">
        <ele>213.80000305176</ele>
        <time>2021-09-16T03:31:19.000Z</time>
      </trkpt>
      <trkpt lat="45.20122" lon="5.74153">
        <ele>213.60000610352</ele>
        <time>2021-09-16T03:31:22.000Z</time>
      </trkpt>
      <trkpt lat="45.2013" lon="5.74128">
        <ele>212.60000610352</ele>
        <time>2021-09-16T03:31:28.000Z</time>
      </trkpt>
      <trkpt lat="45.20131" lon="5.74124">
        <ele>212.39999389648</ele>
        <time>2021-09-16T03:31:29.000Z</time>
      </trkpt>
      <trkpt lat="45.20141" lon="5.74108">
        <ele>211.19999694824</ele>
        <time>2021-09-16T03:31:34.000Z</time>
      </trkpt>
      <trkpt lat="45.20147" lon="5.74099">
        <ele>210.80000305176</ele>
        <time>2021-09-16T03:31:37.000Z</time>
      </trkpt>
      <trkpt lat="45.20153" lon="5.74085">
        <ele>210.19999694824</ele>
        <time>2021-09-16T03:31:41.000Z</time>
      </trkpt>
      <trkpt lat="45.20157" lon="5.74074">
        <ele>209.80000305176</ele>
        <time>2021-09-16T03:31:44.000Z</time>
      </trkpt>
      <trkpt lat="45.20167" lon="5.7405">
        <ele>209.19999694824</ele>
        <time>2021-09-16T03:31:50.000Z</time>
      </trkpt>
      <trkpt lat="45.20169" lon="5.74047">
        <ele>209</ele>
        <time>2021-09-16T03:31:51.000Z</time>
      </trkpt>
      <trkpt lat="45.2017" lon="5.74044">
        <ele>209.19999694824</ele>
        <time>2021-09-16T03:31:52.000Z</time>
      </trkpt>
      <trkpt lat="45.20181" lon="5.74024">
        <ele>209</ele>
        <time>2021-09-16T03:31:58.000Z</time>
      </trkpt>
      <trkpt lat="45.20188" lon="5.74009">
        <ele>208.60000610352</ele>
        <time>2021-09-16T03:32:02.000Z</time>
      </trkpt>
      <trkpt lat="45.202" lon="5.73985">
        <ele>208.80000305176</ele>
        <time>2021-09-16T03:32:09.000Z</time>
      </trkpt>
      <trkpt lat="45.20203" lon="5.73979">
        <ele>208.80000305176</ele>
        <time>2021-09-16T03:32:11.000Z</time>
      </trkpt>
      <trkpt lat="45.2021" lon="5.73962">
        <ele>209</ele>
        <time>2021-09-16T03:32:16.000Z</time>
      </trkpt>
      <trkpt lat="45.20213" lon="5.73952">
        <ele>208.80000305176</ele>
        <time>2021-09-16T03:32:19.000Z</time>
      </trkpt>
      <trkpt lat="45.20222" lon="5.73927">
        <ele>208.80000305176</ele>
        <time>2021-09-16T03:32:26.000Z</time>
      </trkpt>
      <trkpt lat="45.20226" lon="5.73911">
        <ele>208.80000305176</ele>
        <time>2021-09-16T03:32:30.000Z</time>
      </trkpt>
      <trkpt lat="45.20232" lon="5.73889">
        <ele>209.19999694824</ele>
        <time>2021-09-16T03:32:36.000Z</time>
      </trkpt>
      <trkpt lat="45.20233" lon="5.73885">
        <ele>209</ele>
        <time>2021-09-16T03:32:37.000Z</time>
      </trkpt>
      <trkpt lat="45.20238" lon="5.7386">
        <ele>209.19999694824</ele>
        <time>2021-09-16T03:32:44.000Z</time>
      </trkpt>
      <trkpt lat="45.20239" lon="5.73852">
        <ele>209</ele>
        <time>2021-09-16T03:32:46.000Z</time>
      </trkpt>
      <trkpt lat="45.20245" lon="5.73826">
        <ele>208.60000610352</ele>
        <time>2021-09-16T03:32:52.000Z</time>
      </trkpt>
      <trkpt lat="45.20248" lon="5.73812">
        <ele>209.19999694824</ele>
        <time>2021-09-16T03:32:55.000Z</time>
      </trkpt>
      <trkpt lat="45.20252" lon="5.73787">
        <ele>209</ele>
        <time>2021-09-16T03:33:01.000Z</time>
      </trkpt>
      <trkpt lat="45.20256" lon="5.73763">
        <ele>208.80000305176</ele>
        <time>2021-09-16T03:33:07.000Z</time>
      </trkpt>
      <trkpt lat="45.20256" lon="5.73748">
        <ele>208.80000305176</ele>
        <time>2021-09-16T03:33:12.000Z</time>
      </trkpt>
      <trkpt lat="45.20256" lon="5.73737">
        <ele>208.60000610352</ele>
        <time>2021-09-16T03:33:15.000Z</time>
      </trkpt>
      <trkpt lat="45.20254" lon="5.73727">
        <ele>208.60000610352</ele>
        <time>2021-09-16T03:33:18.000Z</time>
      </trkpt>
      <trkpt lat="45.20253" lon="5.73721">
        <ele>208.60000610352</ele>
        <time>2021-09-16T03:33:20.000Z</time>
      </trkpt>
      <trkpt lat="45.2025" lon="5.73705">
        <ele>208.60000610352</ele>
        <time>2021-09-16T03:33:24.000Z</time>
      </trkpt>
      <trkpt lat="45.20248" lon="5.7368">
        <ele>208.60000610352</ele>
        <time>2021-09-16T03:33:31.000Z</time>
      </trkpt>
      <trkpt lat="45.20243" lon="5.73656">
        <ele>208.60000610352</ele>
        <time>2021-09-16T03:33:37.000Z</time>
      </trkpt>
      <trkpt lat="45.20242" lon="5.73652">
        <ele>208.60000610352</ele>
        <time>2021-09-16T03:33:38.000Z</time>
      </trkpt>
      <trkpt lat="45.20234" lon="5.73625">
        <ele>208.39999389648</ele>
        <time>2021-09-16T03:33:45.000Z</time>
      </trkpt>
      <trkpt lat="45.20227" lon="5.73604">
        <ele>208.19999694824</ele>
        <time>2021-09-16T03:33:51.000Z</time>
      </trkpt>
      <trkpt lat="45.20227" lon="5.73597">
        <ele>208.39999389648</ele>
        <time>2021-09-16T03:33:53.000Z</time>
      </trkpt>
      <trkpt lat="45.20236" lon="5.73576">
        <ele>209</ele>
        <time>2021-09-16T03:33:58.000Z</time>
      </trkpt>
      <trkpt lat="45.20239" lon="5.73574">
        <ele>209</ele>
        <time>2021-09-16T03:33:59.000Z</time>
      </trkpt>
      <trkpt lat="45.20246" lon="5.73571">
        <ele>209.19999694824</ele>
        <time>2021-09-16T03:34:01.000Z</time>
      </trkpt>
      <trkpt lat="45.20263" lon="5.73565">
        <ele>210.19999694824</ele>
        <time>2021-09-16T03:34:06.000Z</time>
      </trkpt>
      <trkpt lat="45.20271" lon="5.73562">
        <ele>211.60000610352</ele>
        <time>2021-09-16T03:34:10.000Z</time>
      </trkpt>
      <trkpt lat="45.20281" lon="5.7356">
        <ele>212.80000305176</ele>
        <time>2021-09-16T03:34:15.000Z</time>
      </trkpt>
      <trkpt lat="45.20282" lon="5.73559">
        <ele>213</ele>
        <time>2021-09-16T03:34:16.000Z</time>
      </trkpt>
      <trkpt lat="45.20278" lon="5.73558">
        <ele>213.39999389648</ele>
        <time>2021-09-16T03:34:20.000Z</time>
      </trkpt>
      <trkpt lat="45.20274" lon="5.73554">
        <ele>213.39999389648</ele>
        <time>2021-09-16T03:34:22.000Z</time>
      </trkpt>
      <trkpt lat="45.20269" lon="5.73548">
        <ele>213.19999694824</ele>
        <time>2021-09-16T03:34:24.000Z</time>
      </trkpt>
      <trkpt lat="45.20256" lon="5.73526">
        <ele>212.60000610352</ele>
        <time>2021-09-16T03:34:30.000Z</time>
      </trkpt>
      <trkpt lat="45.20254" lon="5.73523">
        <ele>212.60000610352</ele>
        <time>2021-09-16T03:34:31.000Z</time>
      </trkpt>
      <trkpt lat="45.20242" lon="5.73503">
        <ele>212.19999694824</ele>
        <time>2021-09-16T03:34:36.000Z</time>
      </trkpt>
      <trkpt lat="45.20239" lon="5.73499">
        <ele>212.19999694824</ele>
        <time>2021-09-16T03:34:37.000Z</time>
      </trkpt>
      <trkpt lat="45.20227" lon="5.73481">
        <ele>211.80000305176</ele>
        <time>2021-09-16T03:34:42.000Z</time>
      </trkpt>
      <trkpt lat="45.20224" lon="5.73476">
        <ele>211.60000610352</ele>
        <time>2021-09-16T03:34:43.000Z</time>
      </trkpt>
      <trkpt lat="45.20212" lon="5.73457">
        <ele>211.39999389648</ele>
        <time>2021-09-16T03:34:48.000Z</time>
      </trkpt>
      <trkpt lat="45.20205" lon="5.73448">
        <ele>211.39999389648</ele>
        <time>2021-09-16T03:34:51.000Z</time>
      </trkpt>
      <trkpt lat="45.20192" lon="5.73435">
        <ele>211.39999389648</ele>
        <time>2021-09-16T03:34:56.000Z</time>
      </trkpt>
      <trkpt lat="45.20174" lon="5.73424">
        <ele>211.39999389648</ele>
        <time>2021-09-16T03:35:02.000Z</time>
      </trkpt>
      <trkpt lat="45.20171" lon="5.7342">
        <ele>211.19999694824</ele>
        <time>2021-09-16T03:35:04.000Z</time>
      </trkpt>
      <trkpt lat="45.2017" lon="5.73417">
        <ele>211.19999694824</ele>
        <time>2021-09-16T03:35:06.000Z</time>
      </trkpt>
      <trkpt lat="45.20169" lon="5.73414">
        <ele>211.19999694824</ele>
        <time>2021-09-16T03:35:08.000Z</time>
      </trkpt>
      <trkpt lat="45.20154" lon="5.73406">
        <ele>210.80000305176</ele>
        <time>2021-09-16T03:35:15.000Z</time>
      </trkpt>
      <trkpt lat="45.20139" lon="5.73401">
        <ele>210.60000610352</ele>
        <time>2021-09-16T03:35:20.000Z</time>
      </trkpt>
      <trkpt lat="45.20137" lon="5.734">
        <ele>210.39999389648</ele>
        <time>2021-09-16T03:35:21.000Z</time>
      </trkpt>
      <trkpt lat="45.20126" lon="5.73396">
        <ele>210.19999694824</ele>
        <time>2021-09-16T03:35:25.000Z</time>
      </trkpt>
      <trkpt lat="45.2012" lon="5.73395">
        <ele>210.19999694824</ele>
        <time>2021-09-16T03:35:27.000Z</time>
      </trkpt>
      <trkpt lat="45.20101" lon="5.73394">
        <ele>210</ele>
        <time>2021-09-16T03:35:33.000Z</time>
      </trkpt>
      <trkpt lat="45.20098" lon="5.73393">
        <ele>210</ele>
        <time>2021-09-16T03:35:34.000Z</time>
      </trkpt>
      <trkpt lat="45.2008" lon="5.73389">
        <ele>210</ele>
        <time>2021-09-16T03:35:39.000Z</time>
      </trkpt>
      <trkpt lat="45.20074" lon="5.73387">
        <ele>210</ele>
        <time>2021-09-16T03:35:41.000Z</time>
      </trkpt>
      <trkpt lat="45.20059" lon="5.73382">
        <ele>209.80000305176</ele>
        <time>2021-09-16T03:35:46.000Z</time>
      </trkpt>
      <trkpt lat="45.20045" lon="5.73372">
        <ele>210.19999694824</ele>
        <time>2021-09-16T03:35:52.000Z</time>
      </trkpt>
      <trkpt lat="45.20027" lon="5.73363">
        <ele>210</ele>
        <time>2021-09-16T03:35:58.000Z</time>
      </trkpt>
      <trkpt lat="45.20015" lon="5.7336">
        <ele>210.39999389648</ele>
        <time>2021-09-16T03:36:02.000Z</time>
      </trkpt>
      <trkpt lat="45.20001" lon="5.7335">
        <ele>210.80000305176</ele>
        <time>2021-09-16T03:36:08.000Z</time>
      </trkpt>
      <trkpt lat="45.19999" lon="5.73348">
        <ele>210.80000305176</ele>
        <time>2021-09-16T03:36:09.000Z</time>
      </trkpt>
      <trkpt lat="45.1999" lon="5.73346">
        <ele>211</ele>
        <time>2021-09-16T03:36:12.000Z</time>
      </trkpt>
      <trkpt lat="45.19978" lon="5.73341">
        <ele>211</ele>
        <time>2021-09-16T03:36:16.000Z</time>
      </trkpt>
      <trkpt lat="45.19972" lon="5.73339">
        <ele>211</ele>
        <time>2021-09-16T03:36:18.000Z</time>
      </trkpt>
      <trkpt lat="45.19952" lon="5.73335">
        <ele>211.39999389648</ele>
        <time>2021-09-16T03:36:24.000Z</time>
      </trkpt>
      <trkpt lat="45.19939" lon="5.73331">
        <ele>211.39999389648</ele>
        <time>2021-09-16T03:36:29.000Z</time>
      </trkpt>
      <trkpt lat="45.19928" lon="5.73329">
        <ele>211.60000610352</ele>
        <time>2021-09-16T03:36:33.000Z</time>
      </trkpt>
      <trkpt lat="45.19925" lon="5.73328">
        <ele>211.80000305176</ele>
        <time>2021-09-16T03:36:34.000Z</time>
      </trkpt>
      <trkpt lat="45.1991" lon="5.73326">
        <ele>211.80000305176</ele>
        <time>2021-09-16T03:36:40.000Z</time>
      </trkpt>
      <trkpt lat="45.1989" lon="5.73316">
        <ele>211.60000610352</ele>
        <time>2021-09-16T03:36:47.000Z</time>
      </trkpt>
      <trkpt lat="45.19875" lon="5.73307">
        <ele>211.60000610352</ele>
        <time>2021-09-16T03:36:52.000Z</time>
      </trkpt>
      <trkpt lat="45.19865" lon="5.73301">
        <ele>211.39999389648</ele>
        <time>2021-09-16T03:36:56.000Z</time>
      </trkpt>
      <trkpt lat="45.19864" lon="5.73299">
        <ele>211.39999389648</ele>
        <time>2021-09-16T03:36:57.000Z</time>
      </trkpt>
      <trkpt lat="45.19851" lon="5.73291">
        <ele>211.60000610352</ele>
        <time>2021-09-16T03:37:03.000Z</time>
      </trkpt>
      <trkpt lat="45.19837" lon="5.73284">
        <ele>211.60000610352</ele>
        <time>2021-09-16T03:37:08.000Z</time>
      </trkpt>
      <trkpt lat="45.19824" lon="5.73281">
        <ele>211.60000610352</ele>
        <time>2021-09-16T03:37:12.000Z</time>
      </trkpt>
      <trkpt lat="45.19816" lon="5.73279">
        <ele>211.39999389648</ele>
        <time>2021-09-16T03:37:14.000Z</time>
      </trkpt>
      <trkpt lat="45.19797" lon="5.73275">
        <ele>211.60000610352</ele>
        <time>2021-09-16T03:37:19.000Z</time>
      </trkpt>
      <trkpt lat="45.19792" lon="5.73274">
        <ele>211.39999389648</ele>
        <time>2021-09-16T03:37:20.000Z</time>
      </trkpt>
      <trkpt lat="45.19775" lon="5.73268">
        <ele>211.39999389648</ele>
        <time>2021-09-16T03:37:24.000Z</time>
      </trkpt>
      <trkpt lat="45.19771" lon="5.73267">
        <ele>211.39999389648</ele>
        <time>2021-09-16T03:37:25.000Z</time>
      </trkpt>
      <trkpt lat="45.19767" lon="5.73264">
        <ele>211.39999389648</ele>
        <time>2021-09-16T03:37:26.000Z</time>
      </trkpt>
      <trkpt lat="45.19764" lon="5.73256">
        <ele>211.39999389648</ele>
        <time>2021-09-16T03:37:28.000Z</time>
      </trkpt>
      <trkpt lat="45.19766" lon="5.73251">
        <ele>211.39999389648</ele>
        <time>2021-09-16T03:37:29.000Z</time>
      </trkpt>
      <trkpt lat="45.19775" lon="5.73225">
        <ele>211</ele>
        <time>2021-09-16T03:37:34.000Z</time>
      </trkpt>
      <trkpt lat="45.19775" lon="5.73221">
        <ele>211</ele>
        <time>2021-09-16T03:37:35.000Z</time>
      </trkpt>
      <trkpt lat="45.19774" lon="5.73214">
        <ele>211</ele>
        <time>2021-09-16T03:37:37.000Z</time>
      </trkpt>
      <trkpt lat="45.19773" lon="5.7321">
        <ele>211</ele>
        <time>2021-09-16T03:37:38.000Z</time>
      </trkpt>
      <trkpt lat="45.19771" lon="5.73189">
        <ele>211</ele>
        <time>2021-09-16T03:37:44.000Z</time>
      </trkpt>
      <trkpt lat="45.1977" lon="5.73181">
        <ele>211</ele>
        <time>2021-09-16T03:37:47.000Z</time>
      </trkpt>
      <trkpt lat="45.19771" lon="5.73178">
        <ele>211</ele>
        <time>2021-09-16T03:37:48.000Z</time>
      </trkpt>
      <trkpt lat="45.19771" lon="5.73169">
        <ele>212</ele>
        <time>2021-09-16T03:37:52.000Z</time>
      </trkpt>
      <trkpt lat="45.19771" lon="5.73167">
        <ele>212.60000610352</ele>
        <time>2021-09-16T03:37:53.000Z</time>
      </trkpt>
      <trkpt lat="45.19771" lon="5.73163">
        <ele>213</ele>
        <time>2021-09-16T03:37:54.000Z</time>
      </trkpt>
      <trkpt lat="45.19775" lon="5.73157">
        <ele>213.60000610352</ele>
        <time>2021-09-16T03:37:56.000Z</time>
      </trkpt>
      <trkpt lat="45.19777" lon="5.73154">
        <ele>214</ele>
        <time>2021-09-16T03:37:57.000Z</time>
      </trkpt>
      <trkpt lat="45.19784" lon="5.73146">
        <ele>215.19999694824</ele>
        <time>2021-09-16T03:38:00.000Z</time>
      </trkpt>
      <trkpt lat="45.19789" lon="5.73141">
        <ele>216</ele>
        <time>2021-09-16T03:38:02.000Z</time>
      </trkpt>
      <trkpt lat="45.19792" lon="5.7314">
        <ele>216.19999694824</ele>
        <time>2021-09-16T03:38:03.000Z</time>
      </trkpt>
      <trkpt lat="45.19799" lon="5.73138">
        <ele>217.60000610352</ele>
        <time>2021-09-16T03:38:07.000Z</time>
      </trkpt>
      <trkpt lat="45.19796" lon="5.73135">
        <ele>218.80000305176</ele>
        <time>2021-09-16T03:38:11.000Z</time>
      </trkpt>
      <trkpt lat="45.19731" lon="5.73144">
        <ele>222.39999389648</ele>
        <time>2021-09-16T03:38:24.000Z</time>
      </trkpt>
      <trkpt lat="45.19739" lon="5.73125">
        <ele>223</ele>
        <time>2021-09-16T03:38:26.000Z</time>
      </trkpt>
      <trkpt lat="45.19741" lon="5.7311">
        <ele>223.39999389648</ele>
        <time>2021-09-16T03:38:28.000Z</time>
      </trkpt>
      <trkpt lat="45.19744" lon="5.73102">
        <ele>224.19999694824</ele>
        <time>2021-09-16T03:38:30.000Z</time>
      </trkpt>
      <trkpt lat="45.19745" lon="5.73103">
        <ele>224.60000610352</ele>
        <time>2021-09-16T03:38:31.000Z</time>
      </trkpt>
      <trkpt lat="45.19754" lon="5.73099">
        <ele>225.19999694824</ele>
        <time>2021-09-16T03:38:34.000Z</time>
      </trkpt>
      <trkpt lat="45.19759" lon="5.73097">
        <ele>225.39999389648</ele>
        <time>2021-09-16T03:38:36.000Z</time>
      </trkpt>
      <trkpt lat="45.19762" lon="5.73099">
        <ele>225.80000305176</ele>
        <time>2021-09-16T03:38:38.000Z</time>
      </trkpt>
      <trkpt lat="45.19766" lon="5.73099">
        <ele>226.39999389648</ele>
        <time>2021-09-16T03:38:40.000Z</time>
      </trkpt>
      <trkpt lat="45.19771" lon="5.73097">
        <ele>227</ele>
        <time>2021-09-16T03:38:42.000Z</time>
      </trkpt>
      <trkpt lat="45.19779" lon="5.73096">
        <ele>227.60000610352</ele>
        <time>2021-09-16T03:38:46.000Z</time>
      </trkpt>
      <trkpt lat="45.19781" lon="5.73097">
        <ele>228.19999694824</ele>
        <time>2021-09-16T03:38:48.000Z</time>
      </trkpt>
      <trkpt lat="45.19787" lon="5.73096">
        <ele>229.19999694824</ele>
        <time>2021-09-16T03:38:52.000Z</time>
      </trkpt>
      <trkpt lat="45.19787" lon="5.73094">
        <ele>229.39999389648</ele>
        <time>2021-09-16T03:38:53.000Z</time>
      </trkpt>
      <trkpt lat="45.19787" lon="5.73093">
        <ele>229.60000610352</ele>
        <time>2021-09-16T03:38:54.000Z</time>
      </trkpt>
      <trkpt lat="45.19784" lon="5.73093">
        <ele>229.80000305176</ele>
        <time>2021-09-16T03:38:56.000Z</time>
      </trkpt>
      <trkpt lat="45.19781" lon="5.73093">
        <ele>230.39999389648</ele>
        <time>2021-09-16T03:38:58.000Z</time>
      </trkpt>
      <trkpt lat="45.1978" lon="5.73092">
        <ele>230.39999389648</ele>
        <time>2021-09-16T03:38:59.000Z</time>
      </trkpt>
      <trkpt lat="45.19777" lon="5.73089">
        <ele>230.80000305176</ele>
        <time>2021-09-16T03:39:01.000Z</time>
      </trkpt>
      <trkpt lat="45.19775" lon="5.73088">
        <ele>231.19999694824</ele>
        <time>2021-09-16T03:39:02.000Z</time>
      </trkpt>
      <trkpt lat="45.19773" lon="5.73085">
        <ele>231.39999389648</ele>
        <time>2021-09-16T03:39:04.000Z</time>
      </trkpt>
      <trkpt lat="45.1977" lon="5.73084">
        <ele>232</ele>
        <time>2021-09-16T03:39:05.000Z</time>
      </trkpt>
      <trkpt lat="45.19764" lon="5.73082">
        <ele>232.80000305176</ele>
        <time>2021-09-16T03:39:08.000Z</time>
      </trkpt>
      <trkpt lat="45.1976" lon="5.7308">
        <ele>233.39999389648</ele>
        <time>2021-09-16T03:39:10.000Z</time>
      </trkpt>
      <trkpt lat="45.19759" lon="5.73079">
        <ele>233.80000305176</ele>
        <time>2021-09-16T03:39:11.000Z</time>
      </trkpt>
      <trkpt lat="45.19757" lon="5.73079">
        <ele>234.19999694824</ele>
        <time>2021-09-16T03:39:12.000Z</time>
      </trkpt>
      <trkpt lat="45.19752" lon="5.73079">
        <ele>235</ele>
        <time>2021-09-16T03:39:14.000Z</time>
      </trkpt>
      <trkpt lat="45.19744" lon="5.7307">
        <ele>235.80000305176</ele>
        <time>2021-09-16T03:39:18.000Z</time>
      </trkpt>
      <trkpt lat="45.19745" lon="5.73067">
        <ele>236.19999694824</ele>
        <time>2021-09-16T03:39:19.000Z</time>
      </trkpt>
      <trkpt lat="45.19751" lon="5.73065">
        <ele>237.39999389648</ele>
        <time>2021-09-16T03:39:22.000Z</time>
      </trkpt>
      <trkpt lat="45.19754" lon="5.73067">
        <ele>237.80000305176</ele>
        <time>2021-09-16T03:39:24.000Z</time>
      </trkpt>
      <trkpt lat="45.19756" lon="5.73067">
        <ele>238.19999694824</ele>
        <time>2021-09-16T03:39:26.000Z</time>
      </trkpt>
      <trkpt lat="45.19757" lon="5.73068">
        <ele>238.60000610352</ele>
        <time>2021-09-16T03:39:27.000Z</time>
      </trkpt>
      <trkpt lat="45.19758" lon="5.73068">
        <ele>238.80000305176</ele>
        <time>2021-09-16T03:39:28.000Z</time>
      </trkpt>
      <trkpt lat="45.19759" lon="5.73069">
        <ele>239</ele>
        <time>2021-09-16T03:39:29.000Z</time>
      </trkpt>
      <trkpt lat="45.19764" lon="5.7307">
        <ele>239.80000305176</ele>
        <time>2021-09-16T03:39:32.000Z</time>
      </trkpt>
      <trkpt lat="45.19769" lon="5.73069">
        <ele>240</ele>
        <time>2021-09-16T03:39:35.000Z</time>
      </trkpt>
      <trkpt lat="45.19777" lon="5.73068">
        <ele>240.80000305176</ele>
        <time>2021-09-16T03:39:38.000Z</time>
      </trkpt>
      <trkpt lat="45.19782" lon="5.73065">
        <ele>241.60000610352</ele>
        <time>2021-09-16T03:39:41.000Z</time>
      </trkpt>
      <trkpt lat="45.19782" lon="5.73063">
        <ele>242</ele>
        <time>2021-09-16T03:39:43.000Z</time>
      </trkpt>
      <trkpt lat="45.19781" lon="5.73062">
        <ele>242.19999694824</ele>
        <time>2021-09-16T03:39:44.000Z</time>
      </trkpt>
      <trkpt lat="45.19775" lon="5.73062">
        <ele>243</ele>
        <time>2021-09-16T03:39:48.000Z</time>
      </trkpt>
      <trkpt lat="45.19772" lon="5.73063">
        <ele>243.19999694824</ele>
        <time>2021-09-16T03:39:49.000Z</time>
      </trkpt>
      <trkpt lat="45.19769" lon="5.73064">
        <ele>243.60000610352</ele>
        <time>2021-09-16T03:39:50.000Z</time>
      </trkpt>
      <trkpt lat="45.19763" lon="5.73062">
        <ele>244.39999389648</ele>
        <time>2021-09-16T03:39:55.000Z</time>
      </trkpt>
      <trkpt lat="45.19761" lon="5.7306">
        <ele>244.80000305176</ele>
        <time>2021-09-16T03:39:56.000Z</time>
      </trkpt>
      <trkpt lat="45.19756" lon="5.73057">
        <ele>245.39999389648</ele>
        <time>2021-09-16T03:39:59.000Z</time>
      </trkpt>
      <trkpt lat="45.19753" lon="5.73054">
        <ele>246</ele>
        <time>2021-09-16T03:40:01.000Z</time>
      </trkpt>
      <trkpt lat="45.19749" lon="5.73052">
        <ele>246.60000610352</ele>
        <time>2021-09-16T03:40:03.000Z</time>
      </trkpt>
      <trkpt lat="45.19745" lon="5.73048">
        <ele>247.19999694824</ele>
        <time>2021-09-16T03:40:06.000Z</time>
      </trkpt>
      <trkpt lat="45.19745" lon="5.73046">
        <ele>247.80000305176</ele>
        <time>2021-09-16T03:40:07.000Z</time>
      </trkpt>
      <trkpt lat="45.19746" lon="5.73045">
        <ele>248.19999694824</ele>
        <time>2021-09-16T03:40:08.000Z</time>
      </trkpt>
      <trkpt lat="45.1975" lon="5.73044">
        <ele>248.80000305176</ele>
        <time>2021-09-16T03:40:10.000Z</time>
      </trkpt>
      <trkpt lat="45.19753" lon="5.73044">
        <ele>249</ele>
        <time>2021-09-16T03:40:11.000Z</time>
      </trkpt>
      <trkpt lat="45.19759" lon="5.73047">
        <ele>249.60000610352</ele>
        <time>2021-09-16T03:40:14.000Z</time>
      </trkpt>
      <trkpt lat="45.19763" lon="5.73048">
        <ele>250</ele>
        <time>2021-09-16T03:40:16.000Z</time>
      </trkpt>
      <trkpt lat="45.19765" lon="5.73047">
        <ele>250.39999389648</ele>
        <time>2021-09-16T03:40:17.000Z</time>
      </trkpt>
      <trkpt lat="45.19774" lon="5.73043">
        <ele>251.39999389648</ele>
        <time>2021-09-16T03:40:20.000Z</time>
      </trkpt>
      <trkpt lat="45.19778" lon="5.73046">
        <ele>252.60000610352</ele>
        <time>2021-09-16T03:40:24.000Z</time>
      </trkpt>
      <trkpt lat="45.19779" lon="5.73047">
        <ele>252.80000305176</ele>
        <time>2021-09-16T03:40:25.000Z</time>
      </trkpt>
      <trkpt lat="45.19779" lon="5.73048">
        <ele>253.39999389648</ele>
        <time>2021-09-16T03:40:26.000Z</time>
      </trkpt>
      <trkpt lat="45.1978" lon="5.7305">
        <ele>253.80000305176</ele>
        <time>2021-09-16T03:40:28.000Z</time>
      </trkpt>
      <trkpt lat="45.19781" lon="5.73047">
        <ele>254.60000610352</ele>
        <time>2021-09-16T03:40:30.000Z</time>
      </trkpt>
      <trkpt lat="45.1978" lon="5.73045">
        <ele>254.80000305176</ele>
        <time>2021-09-16T03:40:32.000Z</time>
      </trkpt>
      <trkpt lat="45.19779" lon="5.73043">
        <ele>255</ele>
        <time>2021-09-16T03:40:34.000Z</time>
      </trkpt>
      <trkpt lat="45.19778" lon="5.73042">
        <ele>255.39999389648</ele>
        <time>2021-09-16T03:40:35.000Z</time>
      </trkpt>
      <trkpt lat="45.19777" lon="5.73039">
        <ele>255.60000610352</ele>
        <time>2021-09-16T03:40:37.000Z</time>
      </trkpt>
      <trkpt lat="45.19775" lon="5.7304">
        <ele>256</ele>
        <time>2021-09-16T03:40:39.000Z</time>
      </trkpt>
      <trkpt lat="45.19775" lon="5.73038">
        <ele>256.20001220703</ele>
        <time>2021-09-16T03:40:40.000Z</time>
      </trkpt>
      <trkpt lat="45.1977" lon="5.73034">
        <ele>256.60000610352</ele>
        <time>2021-09-16T03:40:43.000Z</time>
      </trkpt>
      <trkpt lat="45.19765" lon="5.73032">
        <ele>257.20001220703</ele>
        <time>2021-09-16T03:40:46.000Z</time>
      </trkpt>
      <trkpt lat="45.19763" lon="5.7303">
        <ele>257.60000610352</ele>
        <time>2021-09-16T03:40:48.000Z</time>
      </trkpt>
      <trkpt lat="45.19757" lon="5.73029">
        <ele>258.39999389648</ele>
        <time>2021-09-16T03:40:51.000Z</time>
      </trkpt>
      <trkpt lat="45.19755" lon="5.73021">
        <ele>259</ele>
        <time>2021-09-16T03:40:54.000Z</time>
      </trkpt>
      <trkpt lat="45.19756" lon="5.73017">
        <ele>259.20001220703</ele>
        <time>2021-09-16T03:40:56.000Z</time>
      </trkpt>
      <trkpt lat="45.19757" lon="5.73016">
        <ele>259.60000610352</ele>
        <time>2021-09-16T03:40:57.000Z</time>
      </trkpt>
      <trkpt lat="45.19759" lon="5.73018">
        <ele>259.79998779297</ele>
        <time>2021-09-16T03:40:58.000Z</time>
      </trkpt>
      <trkpt lat="45.19764" lon="5.73019">
        <ele>260.60000610352</ele>
        <time>2021-09-16T03:41:01.000Z</time>
      </trkpt>
      <trkpt lat="45.19766" lon="5.73021">
        <ele>261</ele>
        <time>2021-09-16T03:41:02.000Z</time>
      </trkpt>
      <trkpt lat="45.19774" lon="5.73027">
        <ele>262.20001220703</ele>
        <time>2021-09-16T03:41:06.000Z</time>
      </trkpt>
      <trkpt lat="45.19779" lon="5.73028">
        <ele>262.60000610352</ele>
        <time>2021-09-16T03:41:08.000Z</time>
      </trkpt>
      <trkpt lat="45.19784" lon="5.73033">
        <ele>263.39999389648</ele>
        <time>2021-09-16T03:41:11.000Z</time>
      </trkpt>
      <trkpt lat="45.19789" lon="5.73036">
        <ele>264</ele>
        <time>2021-09-16T03:41:14.000Z</time>
      </trkpt>
      <trkpt lat="45.19788" lon="5.73033">
        <ele>264.39999389648</ele>
        <time>2021-09-16T03:41:16.000Z</time>
      </trkpt>
      <trkpt lat="45.19788" lon="5.73031">
        <ele>265</ele>
        <time>2021-09-16T03:41:17.000Z</time>
      </trkpt>
      <trkpt lat="45.1978" lon="5.73029">
        <ele>265.60000610352</ele>
        <time>2021-09-16T03:41:20.000Z</time>
      </trkpt>
      <trkpt lat="45.19777" lon="5.73028">
        <ele>266</ele>
        <time>2021-09-16T03:41:21.000Z</time>
      </trkpt>
      <trkpt lat="45.19769" lon="5.73024">
        <ele>267</ele>
        <time>2021-09-16T03:41:25.000Z</time>
      </trkpt>
      <trkpt lat="45.19767" lon="5.73022">
        <ele>267.20001220703</ele>
        <time>2021-09-16T03:41:26.000Z</time>
      </trkpt>
      <trkpt lat="45.19763" lon="5.73015">
        <ele>268</ele>
        <time>2021-09-16T03:41:29.000Z</time>
      </trkpt>
      <trkpt lat="45.19761" lon="5.73013">
        <ele>268.39999389648</ele>
        <time>2021-09-16T03:41:30.000Z</time>
      </trkpt>
      <trkpt lat="45.19757" lon="5.73008">
        <ele>268.79998779297</ele>
        <time>2021-09-16T03:41:33.000Z</time>
      </trkpt>
      <trkpt lat="45.19755" lon="5.73007">
        <ele>269.20001220703</ele>
        <time>2021-09-16T03:41:34.000Z</time>
      </trkpt>
      <trkpt lat="45.19753" lon="5.73006">
        <ele>269.39999389648</ele>
        <time>2021-09-16T03:41:35.000Z</time>
      </trkpt>
      <trkpt lat="45.19748" lon="5.72994">
        <ele>270.39999389648</ele>
        <time>2021-09-16T03:41:40.000Z</time>
      </trkpt>
      <trkpt lat="45.19747" lon="5.72992">
        <ele>270.60000610352</ele>
        <time>2021-09-16T03:41:41.000Z</time>
      </trkpt>
      <trkpt lat="45.19742" lon="5.72983">
        <ele>271.39999389648</ele>
        <time>2021-09-16T03:41:46.000Z</time>
      </trkpt>
      <trkpt lat="45.1974" lon="5.72982">
        <ele>271.79998779297</ele>
        <time>2021-09-16T03:41:47.000Z</time>
      </trkpt>
      <trkpt lat="45.19737" lon="5.72977">
        <ele>272.20001220703</ele>
        <time>2021-09-16T03:41:49.000Z</time>
      </trkpt>
      <trkpt lat="45.19735" lon="5.72973">
        <ele>272.60000610352</ele>
        <time>2021-09-16T03:41:51.000Z</time>
      </trkpt>
      <trkpt lat="45.19734" lon="5.72972">
        <ele>272.79998779297</ele>
        <time>2021-09-16T03:41:52.000Z</time>
      </trkpt>
      <trkpt lat="45.19727" lon="5.72965">
        <ele>273.79998779297</ele>
        <time>2021-09-16T03:41:56.000Z</time>
      </trkpt>
      <trkpt lat="45.19725" lon="5.72961">
        <ele>274</ele>
        <time>2021-09-16T03:41:58.000Z</time>
      </trkpt>
      <trkpt lat="45.19722" lon="5.72956">
        <ele>274.39999389648</ele>
        <time>2021-09-16T03:42:00.000Z</time>
      </trkpt>
      <trkpt lat="45.19719" lon="5.72951">
        <ele>275.20001220703</ele>
        <time>2021-09-16T03:42:02.000Z</time>
      </trkpt>
      <trkpt lat="45.19718" lon="5.72948">
        <ele>275.39999389648</ele>
        <time>2021-09-16T03:42:03.000Z</time>
      </trkpt>
      <trkpt lat="45.19717" lon="5.72941">
        <ele>275.79998779297</ele>
        <time>2021-09-16T03:42:05.000Z</time>
      </trkpt>
      <trkpt lat="45.19713" lon="5.72934">
        <ele>276.39999389648</ele>
        <time>2021-09-16T03:42:07.000Z</time>
      </trkpt>
      <trkpt lat="45.19705" lon="5.72921">
        <ele>277.60000610352</ele>
        <time>2021-09-16T03:42:11.000Z</time>
      </trkpt>
      <trkpt lat="45.19704" lon="5.72919">
        <ele>278</ele>
        <time>2021-09-16T03:42:12.000Z</time>
      </trkpt>
      <trkpt lat="45.19699" lon="5.7291">
        <ele>278.79998779297</ele>
        <time>2021-09-16T03:42:15.000Z</time>
      </trkpt>
      <trkpt lat="45.19695" lon="5.72904">
        <ele>279.39999389648</ele>
        <time>2021-09-16T03:42:17.000Z</time>
      </trkpt>
      <trkpt lat="45.19692" lon="5.72899">
        <ele>279.79998779297</ele>
        <time>2021-09-16T03:42:19.000Z</time>
      </trkpt>
      <trkpt lat="45.19685" lon="5.7289">
        <ele>280.79998779297</ele>
        <time>2021-09-16T03:42:22.000Z</time>
      </trkpt>
      <trkpt lat="45.19683" lon="5.72888">
        <ele>281</ele>
        <time>2021-09-16T03:42:23.000Z</time>
      </trkpt>
      <trkpt lat="45.19677" lon="5.72878">
        <ele>282.20001220703</ele>
        <time>2021-09-16T03:42:26.000Z</time>
      </trkpt>
      <trkpt lat="45.19675" lon="5.72871">
        <ele>282.79998779297</ele>
        <time>2021-09-16T03:42:28.000Z</time>
      </trkpt>
      <trkpt lat="45.19675" lon="5.72868">
        <ele>283.20001220703</ele>
        <time>2021-09-16T03:42:29.000Z</time>
      </trkpt>
      <trkpt lat="45.19676" lon="5.72866">
        <ele>283.39999389648</ele>
        <time>2021-09-16T03:42:30.000Z</time>
      </trkpt>
      <trkpt lat="45.19681" lon="5.72868">
        <ele>284</ele>
        <time>2021-09-16T03:42:33.000Z</time>
      </trkpt>
      <trkpt lat="45.19685" lon="5.72871">
        <ele>284.60000610352</ele>
        <time>2021-09-16T03:42:36.000Z</time>
      </trkpt>
      <trkpt lat="45.19687" lon="5.72874">
        <ele>285</ele>
        <time>2021-09-16T03:42:38.000Z</time>
      </trkpt>
      <trkpt lat="45.19689" lon="5.72876">
        <ele>285.20001220703</ele>
        <time>2021-09-16T03:42:39.000Z</time>
      </trkpt>
      <trkpt lat="45.19693" lon="5.72879">
        <ele>285.60000610352</ele>
        <time>2021-09-16T03:42:42.000Z</time>
      </trkpt>
      <trkpt lat="45.19698" lon="5.72879">
        <ele>286</ele>
        <time>2021-09-16T03:42:44.000Z</time>
      </trkpt>
      <trkpt lat="45.19703" lon="5.72878">
        <ele>286.60000610352</ele>
        <time>2021-09-16T03:42:46.000Z</time>
      </trkpt>
      <trkpt lat="45.19705" lon="5.72879">
        <ele>286.79998779297</ele>
        <time>2021-09-16T03:42:47.000Z</time>
      </trkpt>
      <trkpt lat="45.19708" lon="5.72881">
        <ele>287.39999389648</ele>
        <time>2021-09-16T03:42:49.000Z</time>
      </trkpt>
      <trkpt lat="45.19715" lon="5.72882">
        <ele>287.79998779297</ele>
        <time>2021-09-16T03:42:53.000Z</time>
      </trkpt>
      <trkpt lat="45.19716" lon="5.72882">
        <ele>288.20001220703</ele>
        <time>2021-09-16T03:42:54.000Z</time>
      </trkpt>
      <trkpt lat="45.19717" lon="5.72882">
        <ele>288.20001220703</ele>
        <time>2021-09-16T03:42:55.000Z</time>
      </trkpt>
      <trkpt lat="45.19718" lon="5.72882">
        <ele>288.60000610352</ele>
        <time>2021-09-16T03:42:56.000Z</time>
      </trkpt>
      <trkpt lat="45.19719" lon="5.72882">
        <ele>289</ele>
        <time>2021-09-16T03:42:57.000Z</time>
      </trkpt>
      <trkpt lat="45.19724" lon="5.72883">
        <ele>289.20001220703</ele>
        <time>2021-09-16T03:42:59.000Z</time>
      </trkpt>
      <trkpt lat="45.19728" lon="5.72884">
        <ele>289.79998779297</ele>
        <time>2021-09-16T03:43:01.000Z</time>
      </trkpt>
      <trkpt lat="45.19731" lon="5.72885">
        <ele>290.20001220703</ele>
        <time>2021-09-16T03:43:02.000Z</time>
      </trkpt>
      <trkpt lat="45.19737" lon="5.72893">
        <ele>291.39999389648</ele>
        <time>2021-09-16T03:43:05.000Z</time>
      </trkpt>
      <trkpt lat="45.19739" lon="5.72894">
        <ele>291.79998779297</ele>
        <time>2021-09-16T03:43:06.000Z</time>
      </trkpt>
      <trkpt lat="45.19744" lon="5.72897">
        <ele>292.39999389648</ele>
        <time>2021-09-16T03:43:08.000Z</time>
      </trkpt>
      <trkpt lat="45.19747" lon="5.72898">
        <ele>292.60000610352</ele>
        <time>2021-09-16T03:43:09.000Z</time>
      </trkpt>
      <trkpt lat="45.19751" lon="5.72904">
        <ele>293.39999389648</ele>
        <time>2021-09-16T03:43:11.000Z</time>
      </trkpt>
      <trkpt lat="45.19753" lon="5.72908">
        <ele>293.60000610352</ele>
        <time>2021-09-16T03:43:12.000Z</time>
      </trkpt>
      <trkpt lat="45.19757" lon="5.72913">
        <ele>294.79998779297</ele>
        <time>2021-09-16T03:43:15.000Z</time>
      </trkpt>
      <trkpt lat="45.19761" lon="5.72915">
        <ele>295.39999389648</ele>
        <time>2021-09-16T03:43:17.000Z</time>
      </trkpt>
      <trkpt lat="45.19767" lon="5.72916">
        <ele>296</ele>
        <time>2021-09-16T03:43:19.000Z</time>
      </trkpt>
      <trkpt lat="45.19775" lon="5.72917">
        <ele>296.79998779297</ele>
        <time>2021-09-16T03:43:22.000Z</time>
      </trkpt>
      <trkpt lat="45.19776" lon="5.72918">
        <ele>297.20001220703</ele>
        <time>2021-09-16T03:43:23.000Z</time>
      </trkpt>
      <trkpt lat="45.19775" lon="5.72918">
        <ele>297.60000610352</ele>
        <time>2021-09-16T03:43:25.000Z</time>
      </trkpt>
      <trkpt lat="45.19774" lon="5.72918">
        <ele>298</ele>
        <time>2021-09-16T03:43:26.000Z</time>
      </trkpt>
      <trkpt lat="45.19773" lon="5.72917">
        <ele>298.20001220703</ele>
        <time>2021-09-16T03:43:27.000Z</time>
      </trkpt>
      <trkpt lat="45.19771" lon="5.72917">
        <ele>298.60000610352</ele>
        <time>2021-09-16T03:43:28.000Z</time>
      </trkpt>
      <trkpt lat="45.19769" lon="5.72915">
        <ele>299</ele>
        <time>2021-09-16T03:43:30.000Z</time>
      </trkpt>
      <trkpt lat="45.19768" lon="5.72914">
        <ele>299.20001220703</ele>
        <time>2021-09-16T03:43:31.000Z</time>
      </trkpt>
      <trkpt lat="45.19766" lon="5.72912">
        <ele>299.60000610352</ele>
        <time>2021-09-16T03:43:33.000Z</time>
      </trkpt>
      <trkpt lat="45.19762" lon="5.7291">
        <ele>300.20001220703</ele>
        <time>2021-09-16T03:43:35.000Z</time>
      </trkpt>
      <trkpt lat="45.19761" lon="5.72908">
        <ele>300.39999389648</ele>
        <time>2021-09-16T03:43:36.000Z</time>
      </trkpt>
      <trkpt lat="45.1976" lon="5.72908">
        <ele>300.39999389648</ele>
        <time>2021-09-16T03:43:37.000Z</time>
      </trkpt>
      <trkpt lat="45.19757" lon="5.72906">
        <ele>301</ele>
        <time>2021-09-16T03:43:40.000Z</time>
      </trkpt>
      <trkpt lat="45.19756" lon="5.72904">
        <ele>301.60000610352</ele>
        <time>2021-09-16T03:43:42.000Z</time>
      </trkpt>
      <trkpt lat="45.19755" lon="5.729">
        <ele>302</ele>
        <time>2021-09-16T03:43:44.000Z</time>
      </trkpt>
      <trkpt lat="45.19754" lon="5.72896">
        <ele>302.20001220703</ele>
        <time>2021-09-16T03:43:46.000Z</time>
      </trkpt>
      <trkpt lat="45.19751" lon="5.72894">
        <ele>302.60000610352</ele>
        <time>2021-09-16T03:43:48.000Z</time>
      </trkpt>
      <trkpt lat="45.19749" lon="5.72894">
        <ele>302.79998779297</ele>
        <time>2021-09-16T03:43:49.000Z</time>
      </trkpt>
      <trkpt lat="45.19748" lon="5.72893">
        <ele>303.20001220703</ele>
        <time>2021-09-16T03:43:50.000Z</time>
      </trkpt>
      <trkpt lat="45.19748" lon="5.72884">
        <ele>303.79998779297</ele>
        <time>2021-09-16T03:43:53.000Z</time>
      </trkpt>
      <trkpt lat="45.19744" lon="5.72878">
        <ele>304.60000610352</ele>
        <time>2021-09-16T03:43:56.000Z</time>
      </trkpt>
      <trkpt lat="45.19742" lon="5.72874">
        <ele>305</ele>
        <time>2021-09-16T03:43:58.000Z</time>
      </trkpt>
      <trkpt lat="45.1974" lon="5.72873">
        <ele>305.20001220703</ele>
        <time>2021-09-16T03:43:59.000Z</time>
      </trkpt>
      <trkpt lat="45.19738" lon="5.72869">
        <ele>305.79998779297</ele>
        <time>2021-09-16T03:44:01.000Z</time>
      </trkpt>
      <trkpt lat="45.19736" lon="5.72867">
        <ele>306.20001220703</ele>
        <time>2021-09-16T03:44:02.000Z</time>
      </trkpt>
      <trkpt lat="45.19733" lon="5.72862">
        <ele>307</ele>
        <time>2021-09-16T03:44:04.000Z</time>
      </trkpt>
      <trkpt lat="45.19732" lon="5.72859">
        <ele>307.39999389648</ele>
        <time>2021-09-16T03:44:05.000Z</time>
      </trkpt>
      <trkpt lat="45.19731" lon="5.72858">
        <ele>307.60000610352</ele>
        <time>2021-09-16T03:44:06.000Z</time>
      </trkpt>
      <trkpt lat="45.19732" lon="5.72862">
        <ele>308.39999389648</ele>
        <time>2021-09-16T03:44:09.000Z</time>
      </trkpt>
      <trkpt lat="45.19734" lon="5.72863">
        <ele>308.79998779297</ele>
        <time>2021-09-16T03:44:10.000Z</time>
      </trkpt>
      <trkpt lat="45.19738" lon="5.72867">
        <ele>309.60000610352</ele>
        <time>2021-09-16T03:44:13.000Z</time>
      </trkpt>
      <trkpt lat="45.19742" lon="5.72868">
        <ele>310.20001220703</ele>
        <time>2021-09-16T03:44:15.000Z</time>
      </trkpt>
      <trkpt lat="45.19745" lon="5.72868">
        <ele>310.60000610352</ele>
        <time>2021-09-16T03:44:16.000Z</time>
      </trkpt>
      <trkpt lat="45.19747" lon="5.72868">
        <ele>310.60000610352</ele>
        <time>2021-09-16T03:44:17.000Z</time>
      </trkpt>
      <trkpt lat="45.19753" lon="5.72874">
        <ele>311.60000610352</ele>
        <time>2021-09-16T03:44:20.000Z</time>
      </trkpt>
      <trkpt lat="45.19754" lon="5.72877">
        <ele>312</ele>
        <time>2021-09-16T03:44:21.000Z</time>
      </trkpt>
      <trkpt lat="45.19761" lon="5.72885">
        <ele>313.20001220703</ele>
        <time>2021-09-16T03:44:25.000Z</time>
      </trkpt>
      <trkpt lat="45.19763" lon="5.72887">
        <ele>313.39999389648</ele>
        <time>2021-09-16T03:44:26.000Z</time>
      </trkpt>
      <trkpt lat="45.19764" lon="5.7289">
        <ele>313.79998779297</ele>
        <time>2021-09-16T03:44:27.000Z</time>
      </trkpt>
      <trkpt lat="45.19767" lon="5.72893">
        <ele>314.39999389648</ele>
        <time>2021-09-16T03:44:29.000Z</time>
      </trkpt>
      <trkpt lat="45.19776" lon="5.72899">
        <ele>315.60000610352</ele>
        <time>2021-09-16T03:44:33.000Z</time>
      </trkpt>
      <trkpt lat="45.19785" lon="5.72896">
        <ele>316.39999389648</ele>
        <time>2021-09-16T03:44:38.000Z</time>
      </trkpt>
      <trkpt lat="45.19784" lon="5.72896">
        <ele>316.79998779297</ele>
        <time>2021-09-16T03:44:39.000Z</time>
      </trkpt>
      <trkpt lat="45.19783" lon="5.72896">
        <ele>317</ele>
        <time>2021-09-16T03:44:40.000Z</time>
      </trkpt>
      <trkpt lat="45.1978" lon="5.72892">
        <ele>317.60000610352</ele>
        <time>2021-09-16T03:44:43.000Z</time>
      </trkpt>
      <trkpt lat="45.19779" lon="5.72892">
        <ele>318</ele>
        <time>2021-09-16T03:44:44.000Z</time>
      </trkpt>
      <trkpt lat="45.19777" lon="5.72891">
        <ele>318</ele>
        <time>2021-09-16T03:44:45.000Z</time>
      </trkpt>
      <trkpt lat="45.19775" lon="5.72889">
        <ele>318.39999389648</ele>
        <time>2021-09-16T03:44:47.000Z</time>
      </trkpt>
      <trkpt lat="45.19774" lon="5.72888">
        <ele>318.60000610352</ele>
        <time>2021-09-16T03:44:48.000Z</time>
      </trkpt>
      <trkpt lat="45.19771" lon="5.72887">
        <ele>319.20001220703</ele>
        <time>2021-09-16T03:44:50.000Z</time>
      </trkpt>
      <trkpt lat="45.19766" lon="5.72881">
        <ele>320</ele>
        <time>2021-09-16T03:44:54.000Z</time>
      </trkpt>
      <trkpt lat="45.19765" lon="5.7288">
        <ele>320.20001220703</ele>
        <time>2021-09-16T03:44:55.000Z</time>
      </trkpt>
      <trkpt lat="45.19764" lon="5.72878">
        <ele>320.39999389648</ele>
        <time>2021-09-16T03:44:56.000Z</time>
      </trkpt>
      <trkpt lat="45.19763" lon="5.72875">
        <ele>320.79998779297</ele>
        <time>2021-09-16T03:44:58.000Z</time>
      </trkpt>
      <trkpt lat="45.19762" lon="5.72872">
        <ele>321.20001220703</ele>
        <time>2021-09-16T03:44:59.000Z</time>
      </trkpt>
      <trkpt lat="45.19761" lon="5.7287">
        <ele>321.79998779297</ele>
        <time>2021-09-16T03:45:00.000Z</time>
      </trkpt>
      <trkpt lat="45.19757" lon="5.7286">
        <ele>323</ele>
        <time>2021-09-16T03:45:03.000Z</time>
      </trkpt>
      <trkpt lat="45.19753" lon="5.72849">
        <ele>324</ele>
        <time>2021-09-16T03:45:06.000Z</time>
      </trkpt>
      <trkpt lat="45.19751" lon="5.72846">
        <ele>324.20001220703</ele>
        <time>2021-09-16T03:45:07.000Z</time>
      </trkpt>
      <trkpt lat="45.19742" lon="5.72839">
        <ele>325.39999389648</ele>
        <time>2021-09-16T03:45:11.000Z</time>
      </trkpt>
      <trkpt lat="45.1974" lon="5.72837">
        <ele>325.60000610352</ele>
        <time>2021-09-16T03:45:12.000Z</time>
      </trkpt>
      <trkpt lat="45.19737" lon="5.72833">
        <ele>326.39999389648</ele>
        <time>2021-09-16T03:45:15.000Z</time>
      </trkpt>
      <trkpt lat="45.19737" lon="5.72834">
        <ele>326.60000610352</ele>
        <time>2021-09-16T03:45:16.000Z</time>
      </trkpt>
      <trkpt lat="45.19744" lon="5.72839">
        <ele>327.79998779297</ele>
        <time>2021-09-16T03:45:20.000Z</time>
      </trkpt>
      <trkpt lat="45.19749" lon="5.72838">
        <ele>328.39999389648</ele>
        <time>2021-09-16T03:45:22.000Z</time>
      </trkpt>
      <trkpt lat="45.19751" lon="5.7284">
        <ele>329</ele>
        <time>2021-09-16T03:45:24.000Z</time>
      </trkpt>
      <trkpt lat="45.19753" lon="5.72844">
        <ele>329.60000610352</ele>
        <time>2021-09-16T03:45:26.000Z</time>
      </trkpt>
      <trkpt lat="45.19755" lon="5.72846">
        <ele>330</ele>
        <time>2021-09-16T03:45:27.000Z</time>
      </trkpt>
      <trkpt lat="45.19758" lon="5.7285">
        <ele>330.39999389648</ele>
        <time>2021-09-16T03:45:29.000Z</time>
      </trkpt>
      <trkpt lat="45.1976" lon="5.72853">
        <ele>330.79998779297</ele>
        <time>2021-09-16T03:45:31.000Z</time>
      </trkpt>
      <trkpt lat="45.19761" lon="5.72854">
        <ele>331</ele>
        <time>2021-09-16T03:45:32.000Z</time>
      </trkpt>
      <trkpt lat="45.19763" lon="5.72855">
        <ele>331.39999389648</ele>
        <time>2021-09-16T03:45:33.000Z</time>
      </trkpt>
      <trkpt lat="45.19768" lon="5.72856">
        <ele>331.60000610352</ele>
        <time>2021-09-16T03:45:35.000Z</time>
      </trkpt>
      <trkpt lat="45.19773" lon="5.72857">
        <ele>332</ele>
        <time>2021-09-16T03:45:37.000Z</time>
      </trkpt>
      <trkpt lat="45.19776" lon="5.72855">
        <ele>332.20001220703</ele>
        <time>2021-09-16T03:45:38.000Z</time>
      </trkpt>
      <trkpt lat="45.1978" lon="5.72853">
        <ele>332.39999389648</ele>
        <time>2021-09-16T03:45:39.000Z</time>
      </trkpt>
      <trkpt lat="45.19792" lon="5.72853">
        <ele>333.39999389648</ele>
        <time>2021-09-16T03:45:43.000Z</time>
      </trkpt>
      <trkpt lat="45.19803" lon="5.72858">
        <ele>334.60000610352</ele>
        <time>2021-09-16T03:45:49.000Z</time>
      </trkpt>
      <trkpt lat="45.19804" lon="5.72858">
        <ele>334.79998779297</ele>
        <time>2021-09-16T03:45:50.000Z</time>
      </trkpt>
      <trkpt lat="45.19802" lon="5.72856">
        <ele>335</ele>
        <time>2021-09-16T03:45:52.000Z</time>
      </trkpt>
      <trkpt lat="45.19799" lon="5.72854">
        <ele>335.60000610352</ele>
        <time>2021-09-16T03:45:54.000Z</time>
      </trkpt>
      <trkpt lat="45.19797" lon="5.72852">
        <ele>335.79998779297</ele>
        <time>2021-09-16T03:45:55.000Z</time>
      </trkpt>
      <trkpt lat="45.19796" lon="5.72851">
        <ele>335.79998779297</ele>
        <time>2021-09-16T03:45:56.000Z</time>
      </trkpt>
      <trkpt lat="45.19794" lon="5.7285">
        <ele>336</ele>
        <time>2021-09-16T03:45:57.000Z</time>
      </trkpt>
      <trkpt lat="45.19787" lon="5.72845">
        <ele>336.60000610352</ele>
        <time>2021-09-16T03:46:00.000Z</time>
      </trkpt>
      <trkpt lat="45.19783" lon="5.7284">
        <ele>337.20001220703</ele>
        <time>2021-09-16T03:46:02.000Z</time>
      </trkpt>
      <trkpt lat="45.19779" lon="5.72828">
        <ele>338</ele>
        <time>2021-09-16T03:46:06.000Z</time>
      </trkpt>
      <trkpt lat="45.19779" lon="5.72827">
        <ele>338.20001220703</ele>
        <time>2021-09-16T03:46:07.000Z</time>
      </trkpt>
      <trkpt lat="45.1978" lon="5.72828">
        <ele>338.79998779297</ele>
        <time>2021-09-16T03:46:09.000Z</time>
      </trkpt>
      <trkpt lat="45.1978" lon="5.72831">
        <ele>338.79998779297</ele>
        <time>2021-09-16T03:46:10.000Z</time>
      </trkpt>
      <trkpt lat="45.19781" lon="5.72833">
        <ele>339</ele>
        <time>2021-09-16T03:46:11.000Z</time>
      </trkpt>
      <trkpt lat="45.19785" lon="5.72841">
        <ele>339.79998779297</ele>
        <time>2021-09-16T03:46:14.000Z</time>
      </trkpt>
      <trkpt lat="45.19787" lon="5.72844">
        <ele>340.39999389648</ele>
        <time>2021-09-16T03:46:15.000Z</time>
      </trkpt>
      <trkpt lat="45.19798" lon="5.72849">
        <ele>341.60000610352</ele>
        <time>2021-09-16T03:46:19.000Z</time>
      </trkpt>
      <trkpt lat="45.19804" lon="5.72855">
        <ele>342.60000610352</ele>
        <time>2021-09-16T03:46:22.000Z</time>
      </trkpt>
      <trkpt lat="45.19806" lon="5.72857">
        <ele>342.79998779297</ele>
        <time>2021-09-16T03:46:23.000Z</time>
      </trkpt>
      <trkpt lat="45.19809" lon="5.72858">
        <ele>343</ele>
        <time>2021-09-16T03:46:24.000Z</time>
      </trkpt>
      <trkpt lat="45.1981" lon="5.72858">
        <ele>343.39999389648</ele>
        <time>2021-09-16T03:46:26.000Z</time>
      </trkpt>
      <trkpt lat="45.1981" lon="5.72858">
        <ele>344</ele>
        <time>2021-09-16T03:46:27.000Z</time>
      </trkpt>
      <trkpt lat="45.19805" lon="5.72851">
        <ele>344.79998779297</ele>
        <time>2021-09-16T03:46:31.000Z</time>
      </trkpt>
      <trkpt lat="45.19802" lon="5.72846">
        <ele>345</ele>
        <time>2021-09-16T03:46:34.000Z</time>
      </trkpt>
      <trkpt lat="45.198" lon="5.72841">
        <ele>345.39999389648</ele>
        <time>2021-09-16T03:46:36.000Z</time>
      </trkpt>
      <trkpt lat="45.19804" lon="5.72833">
        <ele>345.79998779297</ele>
        <time>2021-09-16T03:46:38.000Z</time>
      </trkpt>
      <trkpt lat="45.19806" lon="5.72832">
        <ele>346</ele>
        <time>2021-09-16T03:46:39.000Z</time>
      </trkpt>
      <trkpt lat="45.1981" lon="5.72833">
        <ele>346.39999389648</ele>
        <time>2021-09-16T03:46:41.000Z</time>
      </trkpt>
      <trkpt lat="45.19815" lon="5.72834">
        <ele>347</ele>
        <time>2021-09-16T03:46:44.000Z</time>
      </trkpt>
      <trkpt lat="45.19818" lon="5.72834">
        <ele>347.20001220703</ele>
        <time>2021-09-16T03:46:45.000Z</time>
      </trkpt>
      <trkpt lat="45.19827" lon="5.72841">
        <ele>348.39999389648</ele>
        <time>2021-09-16T03:46:50.000Z</time>
      </trkpt>
      <trkpt lat="45.19828" lon="5.72842">
        <ele>348.60000610352</ele>
        <time>2021-09-16T03:46:51.000Z</time>
      </trkpt>
      <trkpt lat="45.19833" lon="5.72842">
        <ele>349.20001220703</ele>
        <time>2021-09-16T03:46:54.000Z</time>
      </trkpt>
      <trkpt lat="45.19834" lon="5.7284">
        <ele>349.39999389648</ele>
        <time>2021-09-16T03:46:55.000Z</time>
      </trkpt>
      <trkpt lat="45.19834" lon="5.72837">
        <ele>349.60000610352</ele>
        <time>2021-09-16T03:46:56.000Z</time>
      </trkpt>
      <trkpt lat="45.19832" lon="5.72833">
        <ele>350</ele>
        <time>2021-09-16T03:46:58.000Z</time>
      </trkpt>
      <trkpt lat="45.1983" lon="5.7283">
        <ele>350.60000610352</ele>
        <time>2021-09-16T03:47:00.000Z</time>
      </trkpt>
      <trkpt lat="45.19829" lon="5.72828">
        <ele>350.79998779297</ele>
        <time>2021-09-16T03:47:01.000Z</time>
      </trkpt>
      <trkpt lat="45.19821" lon="5.72821">
        <ele>351.79998779297</ele>
        <time>2021-09-16T03:47:06.000Z</time>
      </trkpt>
      <trkpt lat="45.19819" lon="5.72819">
        <ele>352.20001220703</ele>
        <time>2021-09-16T03:47:07.000Z</time>
      </trkpt>
      <trkpt lat="45.19815" lon="5.72813">
        <ele>353</ele>
        <time>2021-09-16T03:47:10.000Z</time>
      </trkpt>
      <trkpt lat="45.19814" lon="5.72811">
        <ele>353.39999389648</ele>
        <time>2021-09-16T03:47:11.000Z</time>
      </trkpt>
      <trkpt lat="45.19811" lon="5.72808">
        <ele>353.60000610352</ele>
        <time>2021-09-16T03:47:13.000Z</time>
      </trkpt>
      <trkpt lat="45.19807" lon="5.72805">
        <ele>354.20001220703</ele>
        <time>2021-09-16T03:47:15.000Z</time>
      </trkpt>
      <trkpt lat="45.19797" lon="5.72798">
        <ele>355.20001220703</ele>
        <time>2021-09-16T03:47:20.000Z</time>
      </trkpt>
      <trkpt lat="45.19789" lon="5.72789">
        <ele>356.39999389648</ele>
        <time>2021-09-16T03:47:25.000Z</time>
      </trkpt>
      <trkpt lat="45.1979" lon="5.72788">
        <ele>356.79998779297</ele>
        <time>2021-09-16T03:47:26.000Z</time>
      </trkpt>
      <trkpt lat="45.19794" lon="5.72787">
        <ele>357.39999389648</ele>
        <time>2021-09-16T03:47:29.000Z</time>
      </trkpt>
      <trkpt lat="45.19797" lon="5.7279">
        <ele>357.60000610352</ele>
        <time>2021-09-16T03:47:31.000Z</time>
      </trkpt>
      <trkpt lat="45.19798" lon="5.72792">
        <ele>358</ele>
        <time>2021-09-16T03:47:32.000Z</time>
      </trkpt>
      <trkpt lat="45.19801" lon="5.72795">
        <ele>358.60000610352</ele>
        <time>2021-09-16T03:47:34.000Z</time>
      </trkpt>
      <trkpt lat="45.19809" lon="5.72802">
        <ele>359.79998779297</ele>
        <time>2021-09-16T03:47:39.000Z</time>
      </trkpt>
      <trkpt lat="45.19811" lon="5.72804">
        <ele>360</ele>
        <time>2021-09-16T03:47:40.000Z</time>
      </trkpt>
      <trkpt lat="45.19822" lon="5.72806">
        <ele>361</ele>
        <time>2021-09-16T03:47:44.000Z</time>
      </trkpt>
      <trkpt lat="45.19828" lon="5.72808">
        <ele>361.79998779297</ele>
        <time>2021-09-16T03:47:47.000Z</time>
      </trkpt>
      <trkpt lat="45.19831" lon="5.72808">
        <ele>362</ele>
        <time>2021-09-16T03:47:48.000Z</time>
      </trkpt>
      <trkpt lat="45.19835" lon="5.72806">
        <ele>362.60000610352</ele>
        <time>2021-09-16T03:47:50.000Z</time>
      </trkpt>
      <trkpt lat="45.19835" lon="5.72805">
        <ele>362.60000610352</ele>
        <time>2021-09-16T03:47:51.000Z</time>
      </trkpt>
      <trkpt lat="45.19832" lon="5.72803">
        <ele>363</ele>
        <time>2021-09-16T03:47:53.000Z</time>
      </trkpt>
      <trkpt lat="45.19828" lon="5.72798">
        <ele>363.79998779297</ele>
        <time>2021-09-16T03:47:56.000Z</time>
      </trkpt>
      <trkpt lat="45.19826" lon="5.72796">
        <ele>364.20001220703</ele>
        <time>2021-09-16T03:47:57.000Z</time>
      </trkpt>
      <trkpt lat="45.19818" lon="5.72791">
        <ele>365.39999389648</ele>
        <time>2021-09-16T03:48:01.000Z</time>
      </trkpt>
      <trkpt lat="45.19809" lon="5.72784">
        <ele>366.60000610352</ele>
        <time>2021-09-16T03:48:06.000Z</time>
      </trkpt>
      <trkpt lat="45.19808" lon="5.72782">
        <ele>367</ele>
        <time>2021-09-16T03:48:07.000Z</time>
      </trkpt>
      <trkpt lat="45.19804" lon="5.72777">
        <ele>367.60000610352</ele>
        <time>2021-09-16T03:48:10.000Z</time>
      </trkpt>
      <trkpt lat="45.19797" lon="5.72773">
        <ele>368.60000610352</ele>
        <time>2021-09-16T03:48:13.000Z</time>
      </trkpt>
      <trkpt lat="45.19793" lon="5.7277">
        <ele>368.79998779297</ele>
        <time>2021-09-16T03:48:15.000Z</time>
      </trkpt>
      <trkpt lat="45.19791" lon="5.72767">
        <ele>369.79998779297</ele>
        <time>2021-09-16T03:48:17.000Z</time>
      </trkpt>
      <trkpt lat="45.19789" lon="5.72766">
        <ele>370.20001220703</ele>
        <time>2021-09-16T03:48:18.000Z</time>
      </trkpt>
      <trkpt lat="45.19787" lon="5.72765">
        <ele>370.39999389648</ele>
        <time>2021-09-16T03:48:19.000Z</time>
      </trkpt>
      <trkpt lat="45.19784" lon="5.72761">
        <ele>371</ele>
        <time>2021-09-16T03:48:21.000Z</time>
      </trkpt>
      <trkpt lat="45.19783" lon="5.72759">
        <ele>371.20001220703</ele>
        <time>2021-09-16T03:48:22.000Z</time>
      </trkpt>
      <trkpt lat="45.19778" lon="5.72755">
        <ele>371.60000610352</ele>
        <time>2021-09-16T03:48:24.000Z</time>
      </trkpt>
      <trkpt lat="45.19779" lon="5.72749">
        <ele>372</ele>
        <time>2021-09-16T03:48:26.000Z</time>
      </trkpt>
      <trkpt lat="45.19781" lon="5.72748">
        <ele>372.39999389648</ele>
        <time>2021-09-16T03:48:29.000Z</time>
      </trkpt>
      <trkpt lat="45.19783" lon="5.72749">
        <ele>373</ele>
        <time>2021-09-16T03:48:30.000Z</time>
      </trkpt>
      <trkpt lat="45.19784" lon="5.7275">
        <ele>373.20001220703</ele>
        <time>2021-09-16T03:48:31.000Z</time>
      </trkpt>
      <trkpt lat="45.19794" lon="5.72752">
        <ele>374.39999389648</ele>
        <time>2021-09-16T03:48:35.000Z</time>
      </trkpt>
      <trkpt lat="45.19797" lon="5.72752">
        <ele>374.60000610352</ele>
        <time>2021-09-16T03:48:36.000Z</time>
      </trkpt>
      <trkpt lat="45.19806" lon="5.72757">
        <ele>375.39999389648</ele>
        <time>2021-09-16T03:48:40.000Z</time>
      </trkpt>
      <trkpt lat="45.1981" lon="5.72761">
        <ele>375.79998779297</ele>
        <time>2021-09-16T03:48:42.000Z</time>
      </trkpt>
      <trkpt lat="45.19816" lon="5.72766">
        <ele>376.20001220703</ele>
        <time>2021-09-16T03:48:45.000Z</time>
      </trkpt>
      <trkpt lat="45.19819" lon="5.72772">
        <ele>376.60000610352</ele>
        <time>2021-09-16T03:48:47.000Z</time>
      </trkpt>
      <trkpt lat="45.19824" lon="5.72778">
        <ele>377.39999389648</ele>
        <time>2021-09-16T03:48:50.000Z</time>
      </trkpt>
      <trkpt lat="45.19829" lon="5.72779">
        <ele>378</ele>
        <time>2021-09-16T03:48:52.000Z</time>
      </trkpt>
      <trkpt lat="45.19834" lon="5.72782">
        <ele>378.60000610352</ele>
        <time>2021-09-16T03:48:54.000Z</time>
      </trkpt>
      <trkpt lat="45.19836" lon="5.72784">
        <ele>378.79998779297</ele>
        <time>2021-09-16T03:48:55.000Z</time>
      </trkpt>
      <trkpt lat="45.1984" lon="5.72786">
        <ele>379</ele>
        <time>2021-09-16T03:48:57.000Z</time>
      </trkpt>
      <trkpt lat="45.19843" lon="5.72786">
        <ele>379.20001220703</ele>
        <time>2021-09-16T03:48:58.000Z</time>
      </trkpt>
      <trkpt lat="45.19845" lon="5.72785">
        <ele>379.60000610352</ele>
        <time>2021-09-16T03:49:00.000Z</time>
      </trkpt>
      <trkpt lat="45.19843" lon="5.72784">
        <ele>379.79998779297</ele>
        <time>2021-09-16T03:49:01.000Z</time>
      </trkpt>
      <trkpt lat="45.19842" lon="5.72783">
        <ele>380</ele>
        <time>2021-09-16T03:49:02.000Z</time>
      </trkpt>
      <trkpt lat="45.19838" lon="5.72775">
        <ele>381</ele>
        <time>2021-09-16T03:49:07.000Z</time>
      </trkpt>
      <trkpt lat="45.19839" lon="5.72775">
        <ele>381.20001220703</ele>
        <time>2021-09-16T03:49:08.000Z</time>
      </trkpt>
      <trkpt lat="45.19839" lon="5.72774">
        <ele>381.60000610352</ele>
        <time>2021-09-16T03:49:09.000Z</time>
      </trkpt>
      <trkpt lat="45.19841" lon="5.72773">
        <ele>382</ele>
        <time>2021-09-16T03:49:11.000Z</time>
      </trkpt>
      <trkpt lat="45.19842" lon="5.72772">
        <ele>382.39999389648</ele>
        <time>2021-09-16T03:49:12.000Z</time>
      </trkpt>
      <trkpt lat="45.19844" lon="5.72771">
        <ele>383.60000610352</ele>
        <time>2021-09-16T03:49:14.000Z</time>
      </trkpt>
      <trkpt lat="45.19846" lon="5.72771">
        <ele>384</ele>
        <time>2021-09-16T03:49:15.000Z</time>
      </trkpt>
      <trkpt lat="45.19848" lon="5.72774">
        <ele>384.79998779297</ele>
        <time>2021-09-16T03:49:17.000Z</time>
      </trkpt>
      <trkpt lat="45.19849" lon="5.72774">
        <ele>385.60000610352</ele>
        <time>2021-09-16T03:49:20.000Z</time>
      </trkpt>
      <trkpt lat="45.19849" lon="5.72773">
        <ele>385.79998779297</ele>
        <time>2021-09-16T03:49:21.000Z</time>
      </trkpt>
      <trkpt lat="45.19849" lon="5.72772">
        <ele>386.39999389648</ele>
        <time>2021-09-16T03:49:22.000Z</time>
      </trkpt>
      <trkpt lat="45.19858" lon="5.72756">
        <ele>400.20001220703</ele>
        <time>2021-09-16T03:50:01.000Z</time>
      </trkpt>
      <trkpt lat="45.19859" lon="5.72753">
        <ele>400.60000610352</ele>
        <time>2021-09-16T03:50:02.000Z</time>
      </trkpt>
      <trkpt lat="45.19858" lon="5.72761">
        <ele>401.60000610352</ele>
        <time>2021-09-16T03:50:04.000Z</time>
      </trkpt>
      <trkpt lat="45.19859" lon="5.7276">
        <ele>402.20001220703</ele>
        <time>2021-09-16T03:50:05.000Z</time>
      </trkpt>
      <trkpt lat="45.19857" lon="5.7276">
        <ele>403.39999389648</ele>
        <time>2021-09-16T03:50:07.000Z</time>
      </trkpt>
      <trkpt lat="45.19857" lon="5.72758">
        <ele>403.60000610352</ele>
        <time>2021-09-16T03:50:08.000Z</time>
      </trkpt>
      <trkpt lat="45.19854" lon="5.72753">
        <ele>404.60000610352</ele>
        <time>2021-09-16T03:50:11.000Z</time>
      </trkpt>
      <trkpt lat="45.19854" lon="5.72749">
        <ele>405</ele>
        <time>2021-09-16T03:50:13.000Z</time>
      </trkpt>
      <trkpt lat="45.19857" lon="5.72744">
        <ele>405.79998779297</ele>
        <time>2021-09-16T03:50:17.000Z</time>
      </trkpt>
      <trkpt lat="45.19822" lon="5.72728">
        <ele>409.20001220703</ele>
        <time>2021-09-16T03:50:37.000Z</time>
      </trkpt>
      <trkpt lat="45.19808" lon="5.72715">
        <ele>409</ele>
        <time>2021-09-16T03:50:43.000Z</time>
      </trkpt>
      <trkpt lat="45.19791" lon="5.72704">
        <ele>408.60000610352</ele>
        <time>2021-09-16T03:50:50.000Z</time>
      </trkpt>
      <trkpt lat="45.19781" lon="5.72693">
        <ele>408.60000610352</ele>
        <time>2021-09-16T03:50:55.000Z</time>
      </trkpt>
      <trkpt lat="45.19779" lon="5.72691">
        <ele>408.60000610352</ele>
        <time>2021-09-16T03:50:56.000Z</time>
      </trkpt>
      <trkpt lat="45.1977" lon="5.7268">
        <ele>408.20001220703</ele>
        <time>2021-09-16T03:51:00.000Z</time>
      </trkpt>
      <trkpt lat="45.19763" lon="5.72673">
        <ele>408.20001220703</ele>
        <time>2021-09-16T03:51:02.000Z</time>
      </trkpt>
      <trkpt lat="45.19757" lon="5.72667">
        <ele>408</ele>
        <time>2021-09-16T03:51:04.000Z</time>
      </trkpt>
      <trkpt lat="45.19749" lon="5.72651">
        <ele>408</ele>
        <time>2021-09-16T03:51:08.000Z</time>
      </trkpt>
      <trkpt lat="45.19744" lon="5.7263">
        <ele>408.20001220703</ele>
        <time>2021-09-16T03:51:13.000Z</time>
      </trkpt>
      <trkpt lat="45.19741" lon="5.72625">
        <ele>408</ele>
        <time>2021-09-16T03:51:15.000Z</time>
      </trkpt>
      <trkpt lat="45.19739" lon="5.72617">
        <ele>407.79998779297</ele>
        <time>2021-09-16T03:51:17.000Z</time>
      </trkpt>
      <trkpt lat="45.19736" lon="5.7259">
        <ele>408</ele>
        <time>2021-09-16T03:51:22.000Z</time>
      </trkpt>
      <trkpt lat="45.19736" lon="5.72585">
        <ele>408</ele>
        <time>2021-09-16T03:51:23.000Z</time>
      </trkpt>
      <trkpt lat="45.19736" lon="5.72569">
        <ele>408</ele>
        <time>2021-09-16T03:51:26.000Z</time>
      </trkpt>
      <trkpt lat="45.19738" lon="5.72553">
        <ele>408</ele>
        <time>2021-09-16T03:51:29.000Z</time>
      </trkpt>
      <trkpt lat="45.19741" lon="5.72541">
        <ele>407.79998779297</ele>
        <time>2021-09-16T03:51:32.000Z</time>
      </trkpt>
      <trkpt lat="45.19743" lon="5.72538">
        <ele>407.79998779297</ele>
        <time>2021-09-16T03:51:33.000Z</time>
      </trkpt>
      <trkpt lat="45.19745" lon="5.72533">
        <ele>407.79998779297</ele>
        <time>2021-09-16T03:51:35.000Z</time>
      </trkpt>
      <trkpt lat="45.19747" lon="5.72529">
        <ele>407.79998779297</ele>
        <time>2021-09-16T03:51:36.000Z</time>
      </trkpt>
      <trkpt lat="45.1975" lon="5.72521">
        <ele>407.79998779297</ele>
        <time>2021-09-16T03:51:38.000Z</time>
      </trkpt>
      <trkpt lat="45.19763" lon="5.72502">
        <ele>408.20001220703</ele>
        <time>2021-09-16T03:51:45.000Z</time>
      </trkpt>
      <trkpt lat="45.1977" lon="5.72496">
        <ele>409.20001220703</ele>
        <time>2021-09-16T03:51:49.000Z</time>
      </trkpt>
      <trkpt lat="45.19771" lon="5.72496">
        <ele>409.39999389648</ele>
        <time>2021-09-16T03:51:50.000Z</time>
      </trkpt>
      <trkpt lat="45.19772" lon="5.72498">
        <ele>409.79998779297</ele>
        <time>2021-09-16T03:51:51.000Z</time>
      </trkpt>
      <trkpt lat="45.19771" lon="5.72503">
        <ele>410.39999389648</ele>
        <time>2021-09-16T03:51:53.000Z</time>
      </trkpt>
      <trkpt lat="45.19768" lon="5.7251">
        <ele>411</ele>
        <time>2021-09-16T03:51:56.000Z</time>
      </trkpt>
      <trkpt lat="45.19765" lon="5.72521">
        <ele>411.60000610352</ele>
        <time>2021-09-16T03:52:00.000Z</time>
      </trkpt>
      <trkpt lat="45.19761" lon="5.72533">
        <ele>412.39999389648</ele>
        <time>2021-09-16T03:52:03.000Z</time>
      </trkpt>
      <trkpt lat="45.1976" lon="5.72537">
        <ele>412.79998779297</ele>
        <time>2021-09-16T03:52:04.000Z</time>
      </trkpt>
      <trkpt lat="45.19759" lon="5.7255">
        <ele>413.60000610352</ele>
        <time>2021-09-16T03:52:07.000Z</time>
      </trkpt>
      <trkpt lat="45.19759" lon="5.72555">
        <ele>413.79998779297</ele>
        <time>2021-09-16T03:52:08.000Z</time>
      </trkpt>
      <trkpt lat="45.19758" lon="5.72573">
        <ele>415</ele>
        <time>2021-09-16T03:52:12.000Z</time>
      </trkpt>
      <trkpt lat="45.19758" lon="5.72584">
        <ele>416.20001220703</ele>
        <time>2021-09-16T03:52:15.000Z</time>
      </trkpt>
      <trkpt lat="45.1976" lon="5.72584">
        <ele>416.39999389648</ele>
        <time>2021-09-16T03:52:16.000Z</time>
      </trkpt>
      <trkpt lat="45.19761" lon="5.72583">
        <ele>416.79998779297</ele>
        <time>2021-09-16T03:52:17.000Z</time>
      </trkpt>
      <trkpt lat="45.19766" lon="5.72578">
        <ele>417.60000610352</ele>
        <time>2021-09-16T03:52:19.000Z</time>
      </trkpt>
      <trkpt lat="45.19767" lon="5.72575">
        <ele>417.79998779297</ele>
        <time>2021-09-16T03:52:20.000Z</time>
      </trkpt>
      <trkpt lat="45.19769" lon="5.72569">
        <ele>418.20001220703</ele>
        <time>2021-09-16T03:52:22.000Z</time>
      </trkpt>
      <trkpt lat="45.19768" lon="5.72566">
        <ele>418.39999389648</ele>
        <time>2021-09-16T03:52:23.000Z</time>
      </trkpt>
      <trkpt lat="45.19769" lon="5.72563">
        <ele>418.60000610352</ele>
        <time>2021-09-16T03:52:24.000Z</time>
      </trkpt>
      <trkpt lat="45.19769" lon="5.72556">
        <ele>419</ele>
        <time>2021-09-16T03:52:26.000Z</time>
      </trkpt>
      <trkpt lat="45.1977" lon="5.72548">
        <ele>419.60000610352</ele>
        <time>2021-09-16T03:52:28.000Z</time>
      </trkpt>
      <trkpt lat="45.19773" lon="5.72537">
        <ele>420.20001220703</ele>
        <time>2021-09-16T03:52:31.000Z</time>
      </trkpt>
      <trkpt lat="45.19774" lon="5.72534">
        <ele>420.39999389648</ele>
        <time>2021-09-16T03:52:32.000Z</time>
      </trkpt>
      <trkpt lat="45.19777" lon="5.7253">
        <ele>420.60000610352</ele>
        <time>2021-09-16T03:52:34.000Z</time>
      </trkpt>
      <trkpt lat="45.19781" lon="5.72528">
        <ele>421</ele>
        <time>2021-09-16T03:52:36.000Z</time>
      </trkpt>
      <trkpt lat="45.19782" lon="5.72529">
        <ele>421.20001220703</ele>
        <time>2021-09-16T03:52:37.000Z</time>
      </trkpt>
      <trkpt lat="45.19785" lon="5.72534">
        <ele>421.60000610352</ele>
        <time>2021-09-16T03:52:39.000Z</time>
      </trkpt>
      <trkpt lat="45.19787" lon="5.72537">
        <ele>421.79998779297</ele>
        <time>2021-09-16T03:52:40.000Z</time>
      </trkpt>
      <trkpt lat="45.19791" lon="5.72548">
        <ele>422.60000610352</ele>
        <time>2021-09-16T03:52:44.000Z</time>
      </trkpt>
      <trkpt lat="45.19792" lon="5.72551">
        <ele>422.79998779297</ele>
        <time>2021-09-16T03:52:45.000Z</time>
      </trkpt>
      <trkpt lat="45.19792" lon="5.72555">
        <ele>423</ele>
        <time>2021-09-16T03:52:46.000Z</time>
      </trkpt>
      <trkpt lat="45.19792" lon="5.7257">
        <ele>423.79998779297</ele>
        <time>2021-09-16T03:52:51.000Z</time>
      </trkpt>
      <trkpt lat="45.19793" lon="5.72573">
        <ele>424</ele>
        <time>2021-09-16T03:52:52.000Z</time>
      </trkpt>
      <trkpt lat="45.19792" lon="5.72584">
        <ele>424.79998779297</ele>
        <time>2021-09-16T03:52:56.000Z</time>
      </trkpt>
      <trkpt lat="45.19791" lon="5.72587">
        <ele>425</ele>
        <time>2021-09-16T03:52:57.000Z</time>
      </trkpt>
      <trkpt lat="45.1979" lon="5.72596">
        <ele>425.60000610352</ele>
        <time>2021-09-16T03:53:00.000Z</time>
      </trkpt>
      <trkpt lat="45.19791" lon="5.72603">
        <ele>426</ele>
        <time>2021-09-16T03:53:02.000Z</time>
      </trkpt>
      <trkpt lat="45.19792" lon="5.72614">
        <ele>427.20001220703</ele>
        <time>2021-09-16T03:53:05.000Z</time>
      </trkpt>
      <trkpt lat="45.19793" lon="5.72617">
        <ele>427.39999389648</ele>
        <time>2021-09-16T03:53:06.000Z</time>
      </trkpt>
      <trkpt lat="45.19797" lon="5.72624">
        <ele>428.20001220703</ele>
        <time>2021-09-16T03:53:09.000Z</time>
      </trkpt>
      <trkpt lat="45.198" lon="5.7263">
        <ele>428.79998779297</ele>
        <time>2021-09-16T03:53:11.000Z</time>
      </trkpt>
      <trkpt lat="45.19803" lon="5.72635">
        <ele>429.20001220703</ele>
        <time>2021-09-16T03:53:13.000Z</time>
      </trkpt>
      <trkpt lat="45.19807" lon="5.72642">
        <ele>430</ele>
        <time>2021-09-16T03:53:16.000Z</time>
      </trkpt>
      <trkpt lat="45.1981" lon="5.72646">
        <ele>430.39999389648</ele>
        <time>2021-09-16T03:53:18.000Z</time>
      </trkpt>
      <trkpt lat="45.19815" lon="5.72654">
        <ele>431.60000610352</ele>
        <time>2021-09-16T03:53:21.000Z</time>
      </trkpt>
      <trkpt lat="45.19821" lon="5.72667">
        <ele>432.79998779297</ele>
        <time>2021-09-16T03:53:25.000Z</time>
      </trkpt>
      <trkpt lat="45.19823" lon="5.72669">
        <ele>432.79998779297</ele>
        <time>2021-09-16T03:53:26.000Z</time>
      </trkpt>
      <trkpt lat="45.19833" lon="5.72675">
        <ele>433.79998779297</ele>
        <time>2021-09-16T03:53:30.000Z</time>
      </trkpt>
      <trkpt lat="45.19844" lon="5.72681">
        <ele>434.79998779297</ele>
        <time>2021-09-16T03:53:36.000Z</time>
      </trkpt>
      <trkpt lat="45.1985" lon="5.72689">
        <ele>435.39999389648</ele>
        <time>2021-09-16T03:53:41.000Z</time>
      </trkpt>
      <trkpt lat="45.19853" lon="5.72691">
        <ele>435.60000610352</ele>
        <time>2021-09-16T03:53:43.000Z</time>
      </trkpt>
      <trkpt lat="45.19854" lon="5.7269">
        <ele>435.79998779297</ele>
        <time>2021-09-16T03:53:44.000Z</time>
      </trkpt>
      <trkpt lat="45.19854" lon="5.72686">
        <ele>436.20001220703</ele>
        <time>2021-09-16T03:53:46.000Z</time>
      </trkpt>
      <trkpt lat="45.19854" lon="5.72685">
        <ele>436.20001220703</ele>
        <time>2021-09-16T03:53:47.000Z</time>
      </trkpt>
      <trkpt lat="45.1985" lon="5.72681">
        <ele>436.79998779297</ele>
        <time>2021-09-16T03:53:50.000Z</time>
      </trkpt>
      <trkpt lat="45.19849" lon="5.7268">
        <ele>437</ele>
        <time>2021-09-16T03:53:51.000Z</time>
      </trkpt>
      <trkpt lat="45.19843" lon="5.72674">
        <ele>438.20001220703</ele>
        <time>2021-09-16T03:53:56.000Z</time>
      </trkpt>
      <trkpt lat="45.19836" lon="5.72661">
        <ele>439</ele>
        <time>2021-09-16T03:54:01.000Z</time>
      </trkpt>
      <trkpt lat="45.19835" lon="5.72658">
        <ele>439.39999389648</ele>
        <time>2021-09-16T03:54:02.000Z</time>
      </trkpt>
      <trkpt lat="45.19828" lon="5.72643">
        <ele>440.39999389648</ele>
        <time>2021-09-16T03:54:07.000Z</time>
      </trkpt>
      <trkpt lat="45.19824" lon="5.72632">
        <ele>441.60000610352</ele>
        <time>2021-09-16T03:54:10.000Z</time>
      </trkpt>
      <trkpt lat="45.19823" lon="5.72624">
        <ele>441.79998779297</ele>
        <time>2021-09-16T03:54:12.000Z</time>
      </trkpt>
      <trkpt lat="45.19821" lon="5.72608">
        <ele>442.60000610352</ele>
        <time>2021-09-16T03:54:16.000Z</time>
      </trkpt>
      <trkpt lat="45.1982" lon="5.72594">
        <ele>443</ele>
        <time>2021-09-16T03:54:19.000Z</time>
      </trkpt>
      <trkpt lat="45.19817" lon="5.72581">
        <ele>443.79998779297</ele>
        <time>2021-09-16T03:54:22.000Z</time>
      </trkpt>
      <trkpt lat="45.19816" lon="5.7257">
        <ele>444.79998779297</ele>
        <time>2021-09-16T03:54:25.000Z</time>
      </trkpt>
      <trkpt lat="45.19816" lon="5.72567">
        <ele>445.20001220703</ele>
        <time>2021-09-16T03:54:26.000Z</time>
      </trkpt>
      <trkpt lat="45.19815" lon="5.72561">
        <ele>446</ele>
        <time>2021-09-16T03:54:28.000Z</time>
      </trkpt>
      <trkpt lat="45.19814" lon="5.72547">
        <ele>446.79998779297</ele>
        <time>2021-09-16T03:54:33.000Z</time>
      </trkpt>
      <trkpt lat="45.19814" lon="5.72544">
        <ele>447</ele>
        <time>2021-09-16T03:54:34.000Z</time>
      </trkpt>
      <trkpt lat="45.19816" lon="5.72527">
        <ele>448</ele>
        <time>2021-09-16T03:54:40.000Z</time>
      </trkpt>
      <trkpt lat="45.19818" lon="5.72518">
        <ele>448.60000610352</ele>
        <time>2021-09-16T03:54:43.000Z</time>
      </trkpt>
      <trkpt lat="45.1982" lon="5.72509">
        <ele>449.20001220703</ele>
        <time>2021-09-16T03:54:46.000Z</time>
      </trkpt>
      <trkpt lat="45.19821" lon="5.72503">
        <ele>449.79998779297</ele>
        <time>2021-09-16T03:54:48.000Z</time>
      </trkpt>
      <trkpt lat="45.19823" lon="5.72495">
        <ele>450.39999389648</ele>
        <time>2021-09-16T03:54:51.000Z</time>
      </trkpt>
      <trkpt lat="45.19827" lon="5.72482">
        <ele>451.60000610352</ele>
        <time>2021-09-16T03:54:56.000Z</time>
      </trkpt>
      <trkpt lat="45.19832" lon="5.72463">
        <ele>453</ele>
        <time>2021-09-16T03:55:02.000Z</time>
      </trkpt>
      <trkpt lat="45.19834" lon="5.72456">
        <ele>453.60000610352</ele>
        <time>2021-09-16T03:55:04.000Z</time>
      </trkpt>
      <trkpt lat="45.19835" lon="5.72448">
        <ele>454.20001220703</ele>
        <time>2021-09-16T03:55:06.000Z</time>
      </trkpt>
      <trkpt lat="45.1984" lon="5.72439">
        <ele>454.79998779297</ele>
        <time>2021-09-16T03:55:09.000Z</time>
      </trkpt>
      <trkpt lat="45.19842" lon="5.72438">
        <ele>455.20001220703</ele>
        <time>2021-09-16T03:55:10.000Z</time>
      </trkpt>
      <trkpt lat="45.19843" lon="5.72439">
        <ele>455.60000610352</ele>
        <time>2021-09-16T03:55:11.000Z</time>
      </trkpt>
      <trkpt lat="45.19844" lon="5.72445">
        <ele>456.20001220703</ele>
        <time>2021-09-16T03:55:13.000Z</time>
      </trkpt>
      <trkpt lat="45.19844" lon="5.72449">
        <ele>456.60000610352</ele>
        <time>2021-09-16T03:55:14.000Z</time>
      </trkpt>
      <trkpt lat="45.19848" lon="5.72466">
        <ele>457.60000610352</ele>
        <time>2021-09-16T03:55:18.000Z</time>
      </trkpt>
      <trkpt lat="45.19848" lon="5.72469">
        <ele>457.79998779297</ele>
        <time>2021-09-16T03:55:19.000Z</time>
      </trkpt>
      <trkpt lat="45.19849" lon="5.72484">
        <ele>459</ele>
        <time>2021-09-16T03:55:23.000Z</time>
      </trkpt>
      <trkpt lat="45.19846" lon="5.72499">
        <ele>460</ele>
        <time>2021-09-16T03:55:26.000Z</time>
      </trkpt>
      <trkpt lat="45.19848" lon="5.72511">
        <ele>461.20001220703</ele>
        <time>2021-09-16T03:55:30.000Z</time>
      </trkpt>
      <trkpt lat="45.19851" lon="5.72522">
        <ele>461.60000610352</ele>
        <time>2021-09-16T03:55:34.000Z</time>
      </trkpt>
      <trkpt lat="45.19851" lon="5.72528">
        <ele>462</ele>
        <time>2021-09-16T03:55:36.000Z</time>
      </trkpt>
      <trkpt lat="45.19851" lon="5.72532">
        <ele>462.20001220703</ele>
        <time>2021-09-16T03:55:37.000Z</time>
      </trkpt>
      <trkpt lat="45.19853" lon="5.72552">
        <ele>463.20001220703</ele>
        <time>2021-09-16T03:55:43.000Z</time>
      </trkpt>
      <trkpt lat="45.19854" lon="5.72555">
        <ele>463.39999389648</ele>
        <time>2021-09-16T03:55:44.000Z</time>
      </trkpt>
      <trkpt lat="45.19856" lon="5.72561">
        <ele>464</ele>
        <time>2021-09-16T03:55:48.000Z</time>
      </trkpt>
      <trkpt lat="45.19856" lon="5.72557">
        <ele>464.39999389648</ele>
        <time>2021-09-16T03:55:50.000Z</time>
      </trkpt>
      <trkpt lat="45.19855" lon="5.72555">
        <ele>464.60000610352</ele>
        <time>2021-09-16T03:55:51.000Z</time>
      </trkpt>
      <trkpt lat="45.19851" lon="5.72546">
        <ele>465.60000610352</ele>
        <time>2021-09-16T03:55:55.000Z</time>
      </trkpt>
      <trkpt lat="45.19851" lon="5.72543">
        <ele>465.60000610352</ele>
        <time>2021-09-16T03:55:56.000Z</time>
      </trkpt>
      <trkpt lat="45.19849" lon="5.72527">
        <ele>467</ele>
        <time>2021-09-16T03:56:01.000Z</time>
      </trkpt>
      <trkpt lat="45.19851" lon="5.725">
        <ele>468</ele>
        <time>2021-09-16T03:56:06.000Z</time>
      </trkpt>
      <trkpt lat="45.19852" lon="5.72497">
        <ele>468.20001220703</ele>
        <time>2021-09-16T03:56:07.000Z</time>
      </trkpt>
      <trkpt lat="45.19866" lon="5.72483">
        <ele>468.60000610352</ele>
        <time>2021-09-16T03:56:12.000Z</time>
      </trkpt>
      <trkpt lat="45.19877" lon="5.7248">
        <ele>469.20001220703</ele>
        <time>2021-09-16T03:56:15.000Z</time>
      </trkpt>
      <trkpt lat="45.19881" lon="5.72477">
        <ele>469.60000610352</ele>
        <time>2021-09-16T03:56:17.000Z</time>
      </trkpt>
      <trkpt lat="45.19886" lon="5.72472">
        <ele>469.39999389648</ele>
        <time>2021-09-16T03:56:19.000Z</time>
      </trkpt>
      <trkpt lat="45.19888" lon="5.72458">
        <ele>469.20001220703</ele>
        <time>2021-09-16T03:56:23.000Z</time>
      </trkpt>
      <trkpt lat="45.19888" lon="5.72454">
        <ele>469.20001220703</ele>
        <time>2021-09-16T03:56:24.000Z</time>
      </trkpt>
      <trkpt lat="45.19888" lon="5.72447">
        <ele>469</ele>
        <time>2021-09-16T03:56:26.000Z</time>
      </trkpt>
      <trkpt lat="45.19889" lon="5.72444">
        <ele>468.79998779297</ele>
        <time>2021-09-16T03:56:27.000Z</time>
      </trkpt>
      <trkpt lat="45.19897" lon="5.72435">
        <ele>468</ele>
        <time>2021-09-16T03:56:30.000Z</time>
      </trkpt>
      <trkpt lat="45.19904" lon="5.72432">
        <ele>467</ele>
        <time>2021-09-16T03:56:33.000Z</time>
      </trkpt>
      <trkpt lat="45.19908" lon="5.72432">
        <ele>466.79998779297</ele>
        <time>2021-09-16T03:56:34.000Z</time>
      </trkpt>
      <trkpt lat="45.19918" lon="5.7243">
        <ele>466</ele>
        <time>2021-09-16T03:56:37.000Z</time>
      </trkpt>
      <trkpt lat="45.19921" lon="5.72423">
        <ele>466</ele>
        <time>2021-09-16T03:56:38.000Z</time>
      </trkpt>
      <trkpt lat="45.19923" lon="5.72418">
        <ele>465.79998779297</ele>
        <time>2021-09-16T03:56:39.000Z</time>
      </trkpt>
      <trkpt lat="45.19926" lon="5.72413">
        <ele>465.60000610352</ele>
        <time>2021-09-16T03:56:40.000Z</time>
      </trkpt>
      <trkpt lat="45.19938" lon="5.72405">
        <ele>464.79998779297</ele>
        <time>2021-09-16T03:56:44.000Z</time>
      </trkpt>
      <trkpt lat="45.19942" lon="5.72404">
        <ele>464.79998779297</ele>
        <time>2021-09-16T03:56:45.000Z</time>
      </trkpt>
      <trkpt lat="45.19961" lon="5.72404">
        <ele>465.39999389648</ele>
        <time>2021-09-16T03:56:51.000Z</time>
      </trkpt>
      <trkpt lat="45.19967" lon="5.72407">
        <ele>466</ele>
        <time>2021-09-16T03:56:54.000Z</time>
      </trkpt>
      <trkpt lat="45.19974" lon="5.72409">
        <ele>466.20001220703</ele>
        <time>2021-09-16T03:56:56.000Z</time>
      </trkpt>
      <trkpt lat="45.19984" lon="5.7242">
        <ele>466.79998779297</ele>
        <time>2021-09-16T03:57:00.000Z</time>
      </trkpt>
      <trkpt lat="45.19987" lon="5.72421">
        <ele>467</ele>
        <time>2021-09-16T03:57:01.000Z</time>
      </trkpt>
      <trkpt lat="45.19998" lon="5.72422">
        <ele>468</ele>
        <time>2021-09-16T03:57:05.000Z</time>
      </trkpt>
      <trkpt lat="45.20003" lon="5.72423">
        <ele>468.79998779297</ele>
        <time>2021-09-16T03:57:07.000Z</time>
      </trkpt>
      <trkpt lat="45.20005" lon="5.72423">
        <ele>469.20001220703</ele>
        <time>2021-09-16T03:57:08.000Z</time>
      </trkpt>
      <trkpt lat="45.20008" lon="5.72423">
        <ele>469.60000610352</ele>
        <time>2021-09-16T03:57:09.000Z</time>
      </trkpt>
      <trkpt lat="45.20013" lon="5.72423">
        <ele>470.60000610352</ele>
        <time>2021-09-16T03:57:11.000Z</time>
      </trkpt>
      <trkpt lat="45.20019" lon="5.72424">
        <ele>471</ele>
        <time>2021-09-16T03:57:13.000Z</time>
      </trkpt>
      <trkpt lat="45.20021" lon="5.72424">
        <ele>471.20001220703</ele>
        <time>2021-09-16T03:57:14.000Z</time>
      </trkpt>
      <trkpt lat="45.20025" lon="5.72425">
        <ele>471.60000610352</ele>
        <time>2021-09-16T03:57:15.000Z</time>
      </trkpt>
      <trkpt lat="45.20039" lon="5.72425">
        <ele>472.39999389648</ele>
        <time>2021-09-16T03:57:20.000Z</time>
      </trkpt>
      <trkpt lat="45.20041" lon="5.72425">
        <ele>472.79998779297</ele>
        <time>2021-09-16T03:57:21.000Z</time>
      </trkpt>
      <trkpt lat="45.20051" lon="5.72425">
        <ele>474</ele>
        <time>2021-09-16T03:57:25.000Z</time>
      </trkpt>
      <trkpt lat="45.20054" lon="5.72425">
        <ele>474.60000610352</ele>
        <time>2021-09-16T03:57:26.000Z</time>
      </trkpt>
      <trkpt lat="45.20059" lon="5.72426">
        <ele>475.20001220703</ele>
        <time>2021-09-16T03:57:28.000Z</time>
      </trkpt>
      <trkpt lat="45.20066" lon="5.72428">
        <ele>476.20001220703</ele>
        <time>2021-09-16T03:57:31.000Z</time>
      </trkpt>
      <trkpt lat="45.20068" lon="5.72429">
        <ele>476.60000610352</ele>
        <time>2021-09-16T03:57:32.000Z</time>
      </trkpt>
      <trkpt lat="45.20071" lon="5.72435">
        <ele>477.39999389648</ele>
        <time>2021-09-16T03:57:35.000Z</time>
      </trkpt>
      <trkpt lat="45.20074" lon="5.72442">
        <ele>478.20001220703</ele>
        <time>2021-09-16T03:57:38.000Z</time>
      </trkpt>
      <trkpt lat="45.20075" lon="5.72448">
        <ele>478.60000610352</ele>
        <time>2021-09-16T03:57:40.000Z</time>
      </trkpt>
      <trkpt lat="45.20077" lon="5.72463">
        <ele>479.60000610352</ele>
        <time>2021-09-16T03:57:45.000Z</time>
      </trkpt>
      <trkpt lat="45.20078" lon="5.72466">
        <ele>479.79998779297</ele>
        <time>2021-09-16T03:57:46.000Z</time>
      </trkpt>
      <trkpt lat="45.2008" lon="5.72481">
        <ele>480.79998779297</ele>
        <time>2021-09-16T03:57:51.000Z</time>
      </trkpt>
      <trkpt lat="45.20079" lon="5.72485">
        <ele>481</ele>
        <time>2021-09-16T03:57:52.000Z</time>
      </trkpt>
      <trkpt lat="45.20079" lon="5.72488">
        <ele>481.20001220703</ele>
        <time>2021-09-16T03:57:53.000Z</time>
      </trkpt>
      <trkpt lat="45.20077" lon="5.72498">
        <ele>481.60000610352</ele>
        <time>2021-09-16T03:57:56.000Z</time>
      </trkpt>
      <trkpt lat="45.20075" lon="5.72508">
        <ele>481.79998779297</ele>
        <time>2021-09-16T03:57:59.000Z</time>
      </trkpt>
      <trkpt lat="45.20074" lon="5.72512">
        <ele>481.79998779297</ele>
        <time>2021-09-16T03:58:00.000Z</time>
      </trkpt>
      <trkpt lat="45.20074" lon="5.72528">
        <ele>482.39999389648</ele>
        <time>2021-09-16T03:58:04.000Z</time>
      </trkpt>
      <trkpt lat="45.20076" lon="5.72531">
        <ele>482.20001220703</ele>
        <time>2021-09-16T03:58:05.000Z</time>
      </trkpt>
      <trkpt lat="45.20082" lon="5.72539">
        <ele>482.20001220703</ele>
        <time>2021-09-16T03:58:08.000Z</time>
      </trkpt>
      <trkpt lat="45.20091" lon="5.72542">
        <ele>483.20001220703</ele>
        <time>2021-09-16T03:58:12.000Z</time>
      </trkpt>
      <trkpt lat="45.20093" lon="5.72542">
        <ele>483.39999389648</ele>
        <time>2021-09-16T03:58:13.000Z</time>
      </trkpt>
      <trkpt lat="45.20098" lon="5.72545">
        <ele>484.60000610352</ele>
        <time>2021-09-16T03:58:15.000Z</time>
      </trkpt>
      <trkpt lat="45.20104" lon="5.72545">
        <ele>485.79998779297</ele>
        <time>2021-09-16T03:58:18.000Z</time>
      </trkpt>
      <trkpt lat="45.20108" lon="5.72545">
        <ele>487.39999389648</ele>
        <time>2021-09-16T03:58:21.000Z</time>
      </trkpt>
      <trkpt lat="45.2011" lon="5.72544">
        <ele>487.79998779297</ele>
        <time>2021-09-16T03:58:22.000Z</time>
      </trkpt>
      <trkpt lat="45.20113" lon="5.72544">
        <ele>488.60000610352</ele>
        <time>2021-09-16T03:58:24.000Z</time>
      </trkpt>
      <trkpt lat="45.20117" lon="5.72546">
        <ele>489.20001220703</ele>
        <time>2021-09-16T03:58:26.000Z</time>
      </trkpt>
      <trkpt lat="45.20118" lon="5.72546">
        <ele>489.60000610352</ele>
        <time>2021-09-16T03:58:27.000Z</time>
      </trkpt>
      <trkpt lat="45.20117" lon="5.72544">
        <ele>490.39999389648</ele>
        <time>2021-09-16T03:58:29.000Z</time>
      </trkpt>
      <trkpt lat="45.20116" lon="5.72542">
        <ele>490.60000610352</ele>
        <time>2021-09-16T03:58:30.000Z</time>
      </trkpt>
      <trkpt lat="45.20115" lon="5.7254">
        <ele>491</ele>
        <time>2021-09-16T03:58:31.000Z</time>
      </trkpt>
      <trkpt lat="45.20113" lon="5.72537">
        <ele>491.39999389648</ele>
        <time>2021-09-16T03:58:33.000Z</time>
      </trkpt>
      <trkpt lat="45.20109" lon="5.72532">
        <ele>492</ele>
        <time>2021-09-16T03:58:36.000Z</time>
      </trkpt>
      <trkpt lat="45.20109" lon="5.7253">
        <ele>492.20001220703</ele>
        <time>2021-09-16T03:58:37.000Z</time>
      </trkpt>
      <trkpt lat="45.20109" lon="5.72527">
        <ele>492.39999389648</ele>
        <time>2021-09-16T03:58:38.000Z</time>
      </trkpt>
      <trkpt lat="45.2011" lon="5.7252">
        <ele>493.20001220703</ele>
        <time>2021-09-16T03:58:41.000Z</time>
      </trkpt>
      <trkpt lat="45.20113" lon="5.72511">
        <ele>494.39999389648</ele>
        <time>2021-09-16T03:58:46.000Z</time>
      </trkpt>
      <trkpt lat="45.20115" lon="5.72508">
        <ele>495.20001220703</ele>
        <time>2021-09-16T03:58:48.000Z</time>
      </trkpt>
      <trkpt lat="45.20116" lon="5.72506">
        <ele>495.60000610352</ele>
        <time>2021-09-16T03:58:49.000Z</time>
      </trkpt>
      <trkpt lat="45.2012" lon="5.72501">
        <ele>496.39999389648</ele>
        <time>2021-09-16T03:58:53.000Z</time>
      </trkpt>
      <trkpt lat="45.20121" lon="5.72499">
        <ele>496.79998779297</ele>
        <time>2021-09-16T03:58:54.000Z</time>
      </trkpt>
      <trkpt lat="45.20122" lon="5.72496">
        <ele>497.39999389648</ele>
        <time>2021-09-16T03:58:56.000Z</time>
      </trkpt>
      <trkpt lat="45.20126" lon="5.72493">
        <ele>498.20001220703</ele>
        <time>2021-09-16T03:58:59.000Z</time>
      </trkpt>
      <trkpt lat="45.20127" lon="5.72492">
        <ele>498.39999389648</ele>
        <time>2021-09-16T03:59:00.000Z</time>
      </trkpt>
      <trkpt lat="45.20129" lon="5.72488">
        <ele>499.39999389648</ele>
        <time>2021-09-16T03:59:02.000Z</time>
      </trkpt>
      <trkpt lat="45.20131" lon="5.72483">
        <ele>500</ele>
        <time>2021-09-16T03:59:04.000Z</time>
      </trkpt>
      <trkpt lat="45.20131" lon="5.72482">
        <ele>500.39999389648</ele>
        <time>2021-09-16T03:59:05.000Z</time>
      </trkpt>
      <trkpt lat="45.20133" lon="5.72474">
        <ele>502</ele>
        <time>2021-09-16T03:59:09.000Z</time>
      </trkpt>
      <trkpt lat="45.20134" lon="5.72469">
        <ele>503.20001220703</ele>
        <time>2021-09-16T03:59:12.000Z</time>
      </trkpt>
      <trkpt lat="45.20135" lon="5.72467">
        <ele>503.60000610352</ele>
        <time>2021-09-16T03:59:13.000Z</time>
      </trkpt>
      <trkpt lat="45.20137" lon="5.72465">
        <ele>504.60000610352</ele>
        <time>2021-09-16T03:59:15.000Z</time>
      </trkpt>
      <trkpt lat="45.20138" lon="5.72464">
        <ele>505.20001220703</ele>
        <time>2021-09-16T03:59:17.000Z</time>
      </trkpt>
      <trkpt lat="45.20139" lon="5.72462">
        <ele>506</ele>
        <time>2021-09-16T03:59:19.000Z</time>
      </trkpt>
      <trkpt lat="45.20141" lon="5.72461">
        <ele>506.20001220703</ele>
        <time>2021-09-16T03:59:20.000Z</time>
      </trkpt>
      <trkpt lat="45.20142" lon="5.72461">
        <ele>506.60000610352</ele>
        <time>2021-09-16T03:59:21.000Z</time>
      </trkpt>
      <trkpt lat="45.20142" lon="5.7246">
        <ele>507</ele>
        <time>2021-09-16T03:59:22.000Z</time>
      </trkpt>
      <trkpt lat="45.20144" lon="5.72456">
        <ele>508.20001220703</ele>
        <time>2021-09-16T03:59:25.000Z</time>
      </trkpt>
      <trkpt lat="45.20145" lon="5.72455">
        <ele>508.39999389648</ele>
        <time>2021-09-16T03:59:26.000Z</time>
      </trkpt>
      <trkpt lat="45.20146" lon="5.72455">
        <ele>509</ele>
        <time>2021-09-16T03:59:27.000Z</time>
      </trkpt>
      <trkpt lat="45.20146" lon="5.72456">
        <ele>509.39999389648</ele>
        <time>2021-09-16T03:59:28.000Z</time>
      </trkpt>
      <trkpt lat="45.20147" lon="5.72457">
        <ele>510</ele>
        <time>2021-09-16T03:59:29.000Z</time>
      </trkpt>
      <trkpt lat="45.20148" lon="5.72458">
        <ele>510.39999389648</ele>
        <time>2021-09-16T03:59:31.000Z</time>
      </trkpt>
      <trkpt lat="45.20149" lon="5.72457">
        <ele>510.60000610352</ele>
        <time>2021-09-16T03:59:32.000Z</time>
      </trkpt>
      <trkpt lat="45.2015" lon="5.72458">
        <ele>511.20001220703</ele>
        <time>2021-09-16T03:59:33.000Z</time>
      </trkpt>
      <trkpt lat="45.20151" lon="5.72458">
        <ele>511.39999389648</ele>
        <time>2021-09-16T03:59:34.000Z</time>
      </trkpt>
      <trkpt lat="45.20152" lon="5.72459">
        <ele>511.60000610352</ele>
        <time>2021-09-16T03:59:35.000Z</time>
      </trkpt>
      <trkpt lat="45.20153" lon="5.7246">
        <ele>511.79998779297</ele>
        <time>2021-09-16T03:59:36.000Z</time>
      </trkpt>
      <trkpt lat="45.20154" lon="5.72462">
        <ele>513.20001220703</ele>
        <time>2021-09-16T03:59:40.000Z</time>
      </trkpt>
      <trkpt lat="45.20157" lon="5.72465">
        <ele>514.59997558594</ele>
        <time>2021-09-16T03:59:44.000Z</time>
      </trkpt>
      <trkpt lat="45.20159" lon="5.72468">
        <ele>515.79998779297</ele>
        <time>2021-09-16T03:59:48.000Z</time>
      </trkpt>
      <trkpt lat="45.2016" lon="5.72469">
        <ele>516.40002441406</ele>
        <time>2021-09-16T03:59:50.000Z</time>
      </trkpt>
      <trkpt lat="45.20162" lon="5.7247">
        <ele>517</ele>
        <time>2021-09-16T03:59:52.000Z</time>
      </trkpt>
      <trkpt lat="45.20164" lon="5.7247">
        <ele>518</ele>
        <time>2021-09-16T03:59:55.000Z</time>
      </trkpt>
      <trkpt lat="45.20165" lon="5.72471">
        <ele>518.40002441406</ele>
        <time>2021-09-16T03:59:56.000Z</time>
      </trkpt>
      <trkpt lat="45.20167" lon="5.72472">
        <ele>519.20001220703</ele>
        <time>2021-09-16T04:00:00.000Z</time>
      </trkpt>
      <trkpt lat="45.20168" lon="5.72474">
        <ele>519.79998779297</ele>
        <time>2021-09-16T04:00:02.000Z</time>
      </trkpt>
      <trkpt lat="45.20168" lon="5.72475">
        <ele>520.40002441406</ele>
        <time>2021-09-16T04:00:04.000Z</time>
      </trkpt>
      <trkpt lat="45.20169" lon="5.72478">
        <ele>521.20001220703</ele>
        <time>2021-09-16T04:00:07.000Z</time>
      </trkpt>
      <trkpt lat="45.2017" lon="5.72479">
        <ele>521.59997558594</ele>
        <time>2021-09-16T04:00:08.000Z</time>
      </trkpt>
      <trkpt lat="45.20174" lon="5.72482">
        <ele>522.79998779297</ele>
        <time>2021-09-16T04:00:12.000Z</time>
      </trkpt>
      <trkpt lat="45.20174" lon="5.72483">
        <ele>523</ele>
        <time>2021-09-16T04:00:13.000Z</time>
      </trkpt>
      <trkpt lat="45.20178" lon="5.72487">
        <ele>523.79998779297</ele>
        <time>2021-09-16T04:00:17.000Z</time>
      </trkpt>
      <trkpt lat="45.20181" lon="5.72487">
        <ele>524.59997558594</ele>
        <time>2021-09-16T04:00:20.000Z</time>
      </trkpt>
      <trkpt lat="45.20182" lon="5.72488">
        <ele>525.20001220703</ele>
        <time>2021-09-16T04:00:22.000Z</time>
      </trkpt>
      <trkpt lat="45.20187" lon="5.72494">
        <ele>526.20001220703</ele>
        <time>2021-09-16T04:00:27.000Z</time>
      </trkpt>
      <trkpt lat="45.20188" lon="5.72497">
        <ele>526.40002441406</ele>
        <time>2021-09-16T04:00:28.000Z</time>
      </trkpt>
      <trkpt lat="45.20191" lon="5.725">
        <ele>527.20001220703</ele>
        <time>2021-09-16T04:00:33.000Z</time>
      </trkpt>
      <trkpt lat="45.20191" lon="5.72501">
        <ele>527.40002441406</ele>
        <time>2021-09-16T04:00:34.000Z</time>
      </trkpt>
      <trkpt lat="45.20192" lon="5.72502">
        <ele>527.59997558594</ele>
        <time>2021-09-16T04:00:35.000Z</time>
      </trkpt>
      <trkpt lat="45.20193" lon="5.72502">
        <ele>528.20001220703</ele>
        <time>2021-09-16T04:00:37.000Z</time>
      </trkpt>
      <trkpt lat="45.20194" lon="5.72504">
        <ele>528.59997558594</ele>
        <time>2021-09-16T04:00:40.000Z</time>
      </trkpt>
      <trkpt lat="45.20198" lon="5.72507">
        <ele>529.40002441406</ele>
        <time>2021-09-16T04:00:44.000Z</time>
      </trkpt>
      <trkpt lat="45.202" lon="5.72508">
        <ele>529.79998779297</ele>
        <time>2021-09-16T04:00:46.000Z</time>
      </trkpt>
      <trkpt lat="45.20204" lon="5.72513">
        <ele>530.79998779297</ele>
        <time>2021-09-16T04:00:50.000Z</time>
      </trkpt>
      <trkpt lat="45.20208" lon="5.72517">
        <ele>531.59997558594</ele>
        <time>2021-09-16T04:00:54.000Z</time>
      </trkpt>
      <trkpt lat="45.20211" lon="5.72518">
        <ele>532.20001220703</ele>
        <time>2021-09-16T04:00:56.000Z</time>
      </trkpt>
      <trkpt lat="45.20212" lon="5.7252">
        <ele>533</ele>
        <time>2021-09-16T04:00:59.000Z</time>
      </trkpt>
      <trkpt lat="45.20213" lon="5.72521">
        <ele>533.20001220703</ele>
        <time>2021-09-16T04:01:00.000Z</time>
      </trkpt>
      <trkpt lat="45.20214" lon="5.72522">
        <ele>533.59997558594</ele>
        <time>2021-09-16T04:01:01.000Z</time>
      </trkpt>
      <trkpt lat="45.20215" lon="5.72522">
        <ele>534.40002441406</ele>
        <time>2021-09-16T04:01:03.000Z</time>
      </trkpt>
      <trkpt lat="45.2022" lon="5.72521">
        <ele>535.59997558594</ele>
        <time>2021-09-16T04:01:07.000Z</time>
      </trkpt>
      <trkpt lat="45.20221" lon="5.72521">
        <ele>536.20001220703</ele>
        <time>2021-09-16T04:01:09.000Z</time>
      </trkpt>
      <trkpt lat="45.20222" lon="5.72522">
        <ele>536.79998779297</ele>
        <time>2021-09-16T04:01:11.000Z</time>
      </trkpt>
      <trkpt lat="45.20224" lon="5.72522">
        <ele>537.20001220703</ele>
        <time>2021-09-16T04:01:13.000Z</time>
      </trkpt>
      <trkpt lat="45.20227" lon="5.72522">
        <ele>537.79998779297</ele>
        <time>2021-09-16T04:01:15.000Z</time>
      </trkpt>
      <trkpt lat="45.20228" lon="5.72521">
        <ele>538.20001220703</ele>
        <time>2021-09-16T04:01:16.000Z</time>
      </trkpt>
      <trkpt lat="45.2023" lon="5.72517">
        <ele>539.20001220703</ele>
        <time>2021-09-16T04:01:19.000Z</time>
      </trkpt>
      <trkpt lat="45.20233" lon="5.72517">
        <ele>539.79998779297</ele>
        <time>2021-09-16T04:01:21.000Z</time>
      </trkpt>
      <trkpt lat="45.20235" lon="5.72518">
        <ele>540.20001220703</ele>
        <time>2021-09-16T04:01:23.000Z</time>
      </trkpt>
      <trkpt lat="45.20238" lon="5.72519">
        <ele>541.40002441406</ele>
        <time>2021-09-16T04:01:26.000Z</time>
      </trkpt>
      <trkpt lat="45.20239" lon="5.72519">
        <ele>541.59997558594</ele>
        <time>2021-09-16T04:01:27.000Z</time>
      </trkpt>
      <trkpt lat="45.2024" lon="5.72519">
        <ele>542.20001220703</ele>
        <time>2021-09-16T04:01:29.000Z</time>
      </trkpt>
      <trkpt lat="45.20241" lon="5.7252">
        <ele>542.59997558594</ele>
        <time>2021-09-16T04:01:30.000Z</time>
      </trkpt>
      <trkpt lat="45.20243" lon="5.72521">
        <ele>543.20001220703</ele>
        <time>2021-09-16T04:01:32.000Z</time>
      </trkpt>
      <trkpt lat="45.20245" lon="5.72521">
        <ele>543.59997558594</ele>
        <time>2021-09-16T04:01:33.000Z</time>
      </trkpt>
      <trkpt lat="45.20248" lon="5.72519">
        <ele>544.59997558594</ele>
        <time>2021-09-16T04:01:36.000Z</time>
      </trkpt>
      <trkpt lat="45.2025" lon="5.72518">
        <ele>545</ele>
        <time>2021-09-16T04:01:37.000Z</time>
      </trkpt>
      <trkpt lat="45.20251" lon="5.72518">
        <ele>545.59997558594</ele>
        <time>2021-09-16T04:01:38.000Z</time>
      </trkpt>
      <trkpt lat="45.20252" lon="5.72518">
        <ele>546.20001220703</ele>
        <time>2021-09-16T04:01:40.000Z</time>
      </trkpt>
      <trkpt lat="45.20253" lon="5.72518">
        <ele>546.40002441406</ele>
        <time>2021-09-16T04:01:41.000Z</time>
      </trkpt>
      <trkpt lat="45.20254" lon="5.72518">
        <ele>546.59997558594</ele>
        <time>2021-09-16T04:01:42.000Z</time>
      </trkpt>
      <trkpt lat="45.20257" lon="5.72518">
        <ele>547.20001220703</ele>
        <time>2021-09-16T04:01:44.000Z</time>
      </trkpt>
      <trkpt lat="45.20259" lon="5.72518">
        <ele>547.40002441406</ele>
        <time>2021-09-16T04:01:45.000Z</time>
      </trkpt>
      <trkpt lat="45.20261" lon="5.72516">
        <ele>547.59997558594</ele>
        <time>2021-09-16T04:01:47.000Z</time>
      </trkpt>
      <trkpt lat="45.20262" lon="5.72516">
        <ele>548.40002441406</ele>
        <time>2021-09-16T04:01:49.000Z</time>
      </trkpt>
      <trkpt lat="45.20263" lon="5.72516">
        <ele>549</ele>
        <time>2021-09-16T04:01:51.000Z</time>
      </trkpt>
      <trkpt lat="45.20266" lon="5.72514">
        <ele>549.59997558594</ele>
        <time>2021-09-16T04:01:54.000Z</time>
      </trkpt>
      <trkpt lat="45.20268" lon="5.72514">
        <ele>550.40002441406</ele>
        <time>2021-09-16T04:01:56.000Z</time>
      </trkpt>
      <trkpt lat="45.20268" lon="5.72514">
        <ele>550.59997558594</ele>
        <time>2021-09-16T04:01:57.000Z</time>
      </trkpt>
      <trkpt lat="45.20269" lon="5.72515">
        <ele>551</ele>
        <time>2021-09-16T04:01:58.000Z</time>
      </trkpt>
      <trkpt lat="45.20271" lon="5.72515">
        <ele>551</ele>
        <time>2021-09-16T04:01:59.000Z</time>
      </trkpt>
      <trkpt lat="45.20272" lon="5.72515">
        <ele>551.20001220703</ele>
        <time>2021-09-16T04:02:00.000Z</time>
      </trkpt>
      <trkpt lat="45.20275" lon="5.72515">
        <ele>551.79998779297</ele>
        <time>2021-09-16T04:02:02.000Z</time>
      </trkpt>
      <trkpt lat="45.20281" lon="5.72513">
        <ele>552.79998779297</ele>
        <time>2021-09-16T04:02:06.000Z</time>
      </trkpt>
      <trkpt lat="45.20283" lon="5.72512">
        <ele>552.79998779297</ele>
        <time>2021-09-16T04:02:07.000Z</time>
      </trkpt>
      <trkpt lat="45.20291" lon="5.72512">
        <ele>554.20001220703</ele>
        <time>2021-09-16T04:02:13.000Z</time>
      </trkpt>
      <trkpt lat="45.20296" lon="5.72512">
        <ele>554.79998779297</ele>
        <time>2021-09-16T04:02:17.000Z</time>
      </trkpt>
      <trkpt lat="45.20298" lon="5.72512">
        <ele>555.59997558594</ele>
        <time>2021-09-16T04:02:19.000Z</time>
      </trkpt>
      <trkpt lat="45.20304" lon="5.72513">
        <ele>556.59997558594</ele>
        <time>2021-09-16T04:02:23.000Z</time>
      </trkpt>
      <trkpt lat="45.20306" lon="5.72512">
        <ele>557.20001220703</ele>
        <time>2021-09-16T04:02:25.000Z</time>
      </trkpt>
      <trkpt lat="45.20307" lon="5.72513">
        <ele>557.59997558594</ele>
        <time>2021-09-16T04:02:26.000Z</time>
      </trkpt>
      <trkpt lat="45.20313" lon="5.72513">
        <ele>558.79998779297</ele>
        <time>2021-09-16T04:02:31.000Z</time>
      </trkpt>
      <trkpt lat="45.20315" lon="5.72514">
        <ele>559.79998779297</ele>
        <time>2021-09-16T04:02:33.000Z</time>
      </trkpt>
      <trkpt lat="45.20316" lon="5.72514">
        <ele>560</ele>
        <time>2021-09-16T04:02:34.000Z</time>
      </trkpt>
      <trkpt lat="45.20316" lon="5.72514">
        <ele>560.20001220703</ele>
        <time>2021-09-16T04:02:35.000Z</time>
      </trkpt>
      <trkpt lat="45.20317" lon="5.72514">
        <ele>560.79998779297</ele>
        <time>2021-09-16T04:02:37.000Z</time>
      </trkpt>
      <trkpt lat="45.20318" lon="5.72514">
        <ele>561.20001220703</ele>
        <time>2021-09-16T04:02:38.000Z</time>
      </trkpt>
      <trkpt lat="45.2032" lon="5.72513">
        <ele>561.59997558594</ele>
        <time>2021-09-16T04:02:39.000Z</time>
      </trkpt>
      <trkpt lat="45.20322" lon="5.72512">
        <ele>562.59997558594</ele>
        <time>2021-09-16T04:02:42.000Z</time>
      </trkpt>
      <trkpt lat="45.20324" lon="5.72513">
        <ele>563.20001220703</ele>
        <time>2021-09-16T04:02:44.000Z</time>
      </trkpt>
      <trkpt lat="45.20325" lon="5.72513">
        <ele>563.59997558594</ele>
        <time>2021-09-16T04:02:46.000Z</time>
      </trkpt>
      <trkpt lat="45.20326" lon="5.72513">
        <ele>564</ele>
        <time>2021-09-16T04:02:47.000Z</time>
      </trkpt>
      <trkpt lat="45.20327" lon="5.72513">
        <ele>564.59997558594</ele>
        <time>2021-09-16T04:02:48.000Z</time>
      </trkpt>
      <trkpt lat="45.20328" lon="5.72512">
        <ele>564.79998779297</ele>
        <time>2021-09-16T04:02:49.000Z</time>
      </trkpt>
      <trkpt lat="45.2033" lon="5.72511">
        <ele>565.40002441406</ele>
        <time>2021-09-16T04:02:51.000Z</time>
      </trkpt>
      <trkpt lat="45.20331" lon="5.72512">
        <ele>565.79998779297</ele>
        <time>2021-09-16T04:02:52.000Z</time>
      </trkpt>
      <trkpt lat="45.20334" lon="5.72511">
        <ele>566.79998779297</ele>
        <time>2021-09-16T04:02:55.000Z</time>
      </trkpt>
      <trkpt lat="45.20336" lon="5.72511">
        <ele>567</ele>
        <time>2021-09-16T04:02:56.000Z</time>
      </trkpt>
      <trkpt lat="45.20337" lon="5.72513">
        <ele>567.59997558594</ele>
        <time>2021-09-16T04:02:58.000Z</time>
      </trkpt>
      <trkpt lat="45.20338" lon="5.72513">
        <ele>568</ele>
        <time>2021-09-16T04:03:00.000Z</time>
      </trkpt>
      <trkpt lat="45.20338" lon="5.72512">
        <ele>568.79998779297</ele>
        <time>2021-09-16T04:03:02.000Z</time>
      </trkpt>
      <trkpt lat="45.20339" lon="5.72511">
        <ele>569</ele>
        <time>2021-09-16T04:03:03.000Z</time>
      </trkpt>
      <trkpt lat="45.20339" lon="5.72511">
        <ele>569.40002441406</ele>
        <time>2021-09-16T04:03:04.000Z</time>
      </trkpt>
      <trkpt lat="45.20342" lon="5.72513">
        <ele>570.40002441406</ele>
        <time>2021-09-16T04:03:08.000Z</time>
      </trkpt>
      <trkpt lat="45.20343" lon="5.72514">
        <ele>570.59997558594</ele>
        <time>2021-09-16T04:03:09.000Z</time>
      </trkpt>
      <trkpt lat="45.20343" lon="5.72515">
        <ele>570.79998779297</ele>
        <time>2021-09-16T04:03:10.000Z</time>
      </trkpt>
      <trkpt lat="45.20345" lon="5.72517">
        <ele>571.20001220703</ele>
        <time>2021-09-16T04:03:13.000Z</time>
      </trkpt>
      <trkpt lat="45.20345" lon="5.72518">
        <ele>571.59997558594</ele>
        <time>2021-09-16T04:03:14.000Z</time>
      </trkpt>
      <trkpt lat="45.20345" lon="5.72519">
        <ele>571.79998779297</ele>
        <time>2021-09-16T04:03:15.000Z</time>
      </trkpt>
      <trkpt lat="45.20346" lon="5.72519">
        <ele>572.40002441406</ele>
        <time>2021-09-16T04:03:17.000Z</time>
      </trkpt>
      <trkpt lat="45.20346" lon="5.72519">
        <ele>572.59997558594</ele>
        <time>2021-09-16T04:03:18.000Z</time>
      </trkpt>
      <trkpt lat="45.20347" lon="5.7252">
        <ele>572.79998779297</ele>
        <time>2021-09-16T04:03:19.000Z</time>
      </trkpt>
      <trkpt lat="45.20348" lon="5.7252">
        <ele>573.79998779297</ele>
        <time>2021-09-16T04:03:21.000Z</time>
      </trkpt>
      <trkpt lat="45.2035" lon="5.72517">
        <ele>574.59997558594</ele>
        <time>2021-09-16T04:03:24.000Z</time>
      </trkpt>
      <trkpt lat="45.2035" lon="5.72516">
        <ele>574.79998779297</ele>
        <time>2021-09-16T04:03:25.000Z</time>
      </trkpt>
      <trkpt lat="45.20352" lon="5.72517">
        <ele>575.79998779297</ele>
        <time>2021-09-16T04:03:28.000Z</time>
      </trkpt>
      <trkpt lat="45.20354" lon="5.72518">
        <ele>576.40002441406</ele>
        <time>2021-09-16T04:03:31.000Z</time>
      </trkpt>
      <trkpt lat="45.20354" lon="5.72519">
        <ele>576.79998779297</ele>
        <time>2021-09-16T04:03:32.000Z</time>
      </trkpt>
      <trkpt lat="45.20355" lon="5.72519">
        <ele>576.79998779297</ele>
        <time>2021-09-16T04:03:33.000Z</time>
      </trkpt>
      <trkpt lat="45.20359" lon="5.7252">
        <ele>578</ele>
        <time>2021-09-16T04:03:36.000Z</time>
      </trkpt>
      <trkpt lat="45.20362" lon="5.72519">
        <ele>578.40002441406</ele>
        <time>2021-09-16T04:03:38.000Z</time>
      </trkpt>
      <trkpt lat="45.20362" lon="5.72519">
        <ele>578.59997558594</ele>
        <time>2021-09-16T04:03:39.000Z</time>
      </trkpt>
      <trkpt lat="45.20365" lon="5.72521">
        <ele>579.20001220703</ele>
        <time>2021-09-16T04:03:42.000Z</time>
      </trkpt>
      <trkpt lat="45.20367" lon="5.72521">
        <ele>579.40002441406</ele>
        <time>2021-09-16T04:03:43.000Z</time>
      </trkpt>
      <trkpt lat="45.2037" lon="5.72522">
        <ele>579.79998779297</ele>
        <time>2021-09-16T04:03:45.000Z</time>
      </trkpt>
      <trkpt lat="45.20371" lon="5.72523">
        <ele>580.20001220703</ele>
        <time>2021-09-16T04:03:47.000Z</time>
      </trkpt>
      <trkpt lat="45.20373" lon="5.72524">
        <ele>580.40002441406</ele>
        <time>2021-09-16T04:03:48.000Z</time>
      </trkpt>
      <trkpt lat="45.20375" lon="5.72525">
        <ele>581</ele>
        <time>2021-09-16T04:03:50.000Z</time>
      </trkpt>
      <trkpt lat="45.20375" lon="5.72525">
        <ele>581.20001220703</ele>
        <time>2021-09-16T04:03:51.000Z</time>
      </trkpt>
      <trkpt lat="45.20375" lon="5.72524">
        <ele>582.40002441406</ele>
        <time>2021-09-16T04:03:54.000Z</time>
      </trkpt>
      <trkpt lat="45.20376" lon="5.72525">
        <ele>582.79998779297</ele>
        <time>2021-09-16T04:03:56.000Z</time>
      </trkpt>
      <trkpt lat="45.20377" lon="5.72525">
        <ele>583</ele>
        <time>2021-09-16T04:03:57.000Z</time>
      </trkpt>
      <trkpt lat="45.20377" lon="5.72526">
        <ele>583.40002441406</ele>
        <time>2021-09-16T04:03:58.000Z</time>
      </trkpt>
      <trkpt lat="45.20377" lon="5.72526">
        <ele>583.79998779297</ele>
        <time>2021-09-16T04:03:59.000Z</time>
      </trkpt>
      <trkpt lat="45.20378" lon="5.72527">
        <ele>584.40002441406</ele>
        <time>2021-09-16T04:04:01.000Z</time>
      </trkpt>
      <trkpt lat="45.20379" lon="5.72528">
        <ele>584.59997558594</ele>
        <time>2021-09-16T04:04:02.000Z</time>
      </trkpt>
      <trkpt lat="45.2038" lon="5.72528">
        <ele>585</ele>
        <time>2021-09-16T04:04:04.000Z</time>
      </trkpt>
      <trkpt lat="45.20383" lon="5.72532">
        <ele>585.79998779297</ele>
        <time>2021-09-16T04:04:07.000Z</time>
      </trkpt>
      <trkpt lat="45.20385" lon="5.72534">
        <ele>586.40002441406</ele>
        <time>2021-09-16T04:04:10.000Z</time>
      </trkpt>
      <trkpt lat="45.20386" lon="5.72534">
        <ele>586.40002441406</ele>
        <time>2021-09-16T04:04:11.000Z</time>
      </trkpt>
      <trkpt lat="45.20388" lon="5.72533">
        <ele>587</ele>
        <time>2021-09-16T04:04:13.000Z</time>
      </trkpt>
      <trkpt lat="45.20389" lon="5.72532">
        <ele>588.20001220703</ele>
        <time>2021-09-16T04:04:16.000Z</time>
      </trkpt>
      <trkpt lat="45.20391" lon="5.72532">
        <ele>589</ele>
        <time>2021-09-16T04:04:18.000Z</time>
      </trkpt>
      <trkpt lat="45.20392" lon="5.72532">
        <ele>589.40002441406</ele>
        <time>2021-09-16T04:04:19.000Z</time>
      </trkpt>
      <trkpt lat="45.20393" lon="5.72532">
        <ele>589.79998779297</ele>
        <time>2021-09-16T04:04:20.000Z</time>
      </trkpt>
      <trkpt lat="45.20396" lon="5.72534">
        <ele>590.79998779297</ele>
        <time>2021-09-16T04:04:23.000Z</time>
      </trkpt>
      <trkpt lat="45.20398" lon="5.72534">
        <ele>591</ele>
        <time>2021-09-16T04:04:25.000Z</time>
      </trkpt>
      <trkpt lat="45.204" lon="5.72535">
        <ele>591.59997558594</ele>
        <time>2021-09-16T04:04:27.000Z</time>
      </trkpt>
      <trkpt lat="45.204" lon="5.72535">
        <ele>591.79998779297</ele>
        <time>2021-09-16T04:04:28.000Z</time>
      </trkpt>
      <trkpt lat="45.20401" lon="5.72535">
        <ele>592</ele>
        <time>2021-09-16T04:04:29.000Z</time>
      </trkpt>
      <trkpt lat="45.20403" lon="5.72534">
        <ele>592.79998779297</ele>
        <time>2021-09-16T04:04:32.000Z</time>
      </trkpt>
      <trkpt lat="45.20404" lon="5.72532">
        <ele>593.40002441406</ele>
        <time>2021-09-16T04:04:33.000Z</time>
      </trkpt>
      <trkpt lat="45.20407" lon="5.72531">
        <ele>594</ele>
        <time>2021-09-16T04:04:35.000Z</time>
      </trkpt>
      <trkpt lat="45.20407" lon="5.72531">
        <ele>594.20001220703</ele>
        <time>2021-09-16T04:04:36.000Z</time>
      </trkpt>
      <trkpt lat="45.20409" lon="5.7253">
        <ele>594.59997558594</ele>
        <time>2021-09-16T04:04:38.000Z</time>
      </trkpt>
      <trkpt lat="45.2041" lon="5.72528">
        <ele>595.20001220703</ele>
        <time>2021-09-16T04:04:41.000Z</time>
      </trkpt>
      <trkpt lat="45.20411" lon="5.72527">
        <ele>596</ele>
        <time>2021-09-16T04:04:43.000Z</time>
      </trkpt>
      <trkpt lat="45.20411" lon="5.72526">
        <ele>596.20001220703</ele>
        <time>2021-09-16T04:04:44.000Z</time>
      </trkpt>
      <trkpt lat="45.20413" lon="5.72527">
        <ele>596.79998779297</ele>
        <time>2021-09-16T04:04:47.000Z</time>
      </trkpt>
      <trkpt lat="45.20413" lon="5.72528">
        <ele>597</ele>
        <time>2021-09-16T04:04:48.000Z</time>
      </trkpt>
      <trkpt lat="45.20413" lon="5.72528">
        <ele>597.20001220703</ele>
        <time>2021-09-16T04:04:49.000Z</time>
      </trkpt>
      <trkpt lat="45.20413" lon="5.72528">
        <ele>598.40002441406</ele>
        <time>2021-09-16T04:04:52.000Z</time>
      </trkpt>
      <trkpt lat="45.20414" lon="5.72527">
        <ele>598.79998779297</ele>
        <time>2021-09-16T04:04:53.000Z</time>
      </trkpt>
      <trkpt lat="45.20416" lon="5.72525">
        <ele>599.20001220703</ele>
        <time>2021-09-16T04:04:55.000Z</time>
      </trkpt>
      <trkpt lat="45.20418" lon="5.72524">
        <ele>599.59997558594</ele>
        <time>2021-09-16T04:04:58.000Z</time>
      </trkpt>
      <trkpt lat="45.20418" lon="5.72523">
        <ele>600.20001220703</ele>
        <time>2021-09-16T04:05:00.000Z</time>
      </trkpt>
      <trkpt lat="45.20418" lon="5.72521">
        <ele>600.79998779297</ele>
        <time>2021-09-16T04:05:02.000Z</time>
      </trkpt>
      <trkpt lat="45.2042" lon="5.7252">
        <ele>602</ele>
        <time>2021-09-16T04:05:05.000Z</time>
      </trkpt>
      <trkpt lat="45.20421" lon="5.72519">
        <ele>602.59997558594</ele>
        <time>2021-09-16T04:05:07.000Z</time>
      </trkpt>
      <trkpt lat="45.20424" lon="5.72518">
        <ele>603.20001220703</ele>
        <time>2021-09-16T04:05:09.000Z</time>
      </trkpt>
      <trkpt lat="45.20425" lon="5.72517">
        <ele>604</ele>
        <time>2021-09-16T04:05:11.000Z</time>
      </trkpt>
      <trkpt lat="45.20426" lon="5.72517">
        <ele>604.40002441406</ele>
        <time>2021-09-16T04:05:12.000Z</time>
      </trkpt>
      <trkpt lat="45.2043" lon="5.72513">
        <ele>605.20001220703</ele>
        <time>2021-09-16T04:05:15.000Z</time>
      </trkpt>
      <trkpt lat="45.20432" lon="5.72512">
        <ele>605.59997558594</ele>
        <time>2021-09-16T04:05:16.000Z</time>
      </trkpt>
      <trkpt lat="45.20435" lon="5.72511">
        <ele>606.79998779297</ele>
        <time>2021-09-16T04:05:19.000Z</time>
      </trkpt>
      <trkpt lat="45.20439" lon="5.72511">
        <ele>607.79998779297</ele>
        <time>2021-09-16T04:05:22.000Z</time>
      </trkpt>
      <trkpt lat="45.20441" lon="5.72511">
        <ele>608</ele>
        <time>2021-09-16T04:05:23.000Z</time>
      </trkpt>
      <trkpt lat="45.20448" lon="5.72512">
        <ele>608.79998779297</ele>
        <time>2021-09-16T04:05:28.000Z</time>
      </trkpt>
      <trkpt lat="45.20451" lon="5.72516">
        <ele>609.40002441406</ele>
        <time>2021-09-16T04:05:30.000Z</time>
      </trkpt>
      <trkpt lat="45.20453" lon="5.72519">
        <ele>610</ele>
        <time>2021-09-16T04:05:32.000Z</time>
      </trkpt>
      <trkpt lat="45.20453" lon="5.72519">
        <ele>610</ele>
        <time>2021-09-16T04:05:33.000Z</time>
      </trkpt>
      <trkpt lat="45.20456" lon="5.72522">
        <ele>610.40002441406</ele>
        <time>2021-09-16T04:05:35.000Z</time>
      </trkpt>
      <trkpt lat="45.20461" lon="5.72526">
        <ele>611</ele>
        <time>2021-09-16T04:05:39.000Z</time>
      </trkpt>
      <trkpt lat="45.20465" lon="5.72532">
        <ele>611.59997558594</ele>
        <time>2021-09-16T04:05:42.000Z</time>
      </trkpt>
      <trkpt lat="45.20467" lon="5.72533">
        <ele>611.79998779297</ele>
        <time>2021-09-16T04:05:43.000Z</time>
      </trkpt>
      <trkpt lat="45.20469" lon="5.72535">
        <ele>612.20001220703</ele>
        <time>2021-09-16T04:05:45.000Z</time>
      </trkpt>
      <trkpt lat="45.20473" lon="5.7254">
        <ele>612.79998779297</ele>
        <time>2021-09-16T04:05:48.000Z</time>
      </trkpt>
      <trkpt lat="45.20475" lon="5.72544">
        <ele>613.20001220703</ele>
        <time>2021-09-16T04:05:50.000Z</time>
      </trkpt>
      <trkpt lat="45.20477" lon="5.72545">
        <ele>613.59997558594</ele>
        <time>2021-09-16T04:05:51.000Z</time>
      </trkpt>
      <trkpt lat="45.20479" lon="5.72548">
        <ele>613.79998779297</ele>
        <time>2021-09-16T04:05:53.000Z</time>
      </trkpt>
      <trkpt lat="45.20487" lon="5.72551">
        <ele>614.59997558594</ele>
        <time>2021-09-16T04:05:57.000Z</time>
      </trkpt>
      <trkpt lat="45.20503" lon="5.7256">
        <ele>615.20001220703</ele>
        <time>2021-09-16T04:06:03.000Z</time>
      </trkpt>
      <trkpt lat="45.20509" lon="5.72564">
        <ele>615.79998779297</ele>
        <time>2021-09-16T04:06:06.000Z</time>
      </trkpt>
      <trkpt lat="45.20519" lon="5.72565">
        <ele>616.59997558594</ele>
        <time>2021-09-16T04:06:12.000Z</time>
      </trkpt>
      <trkpt lat="45.20523" lon="5.72564">
        <ele>616.79998779297</ele>
        <time>2021-09-16T04:06:15.000Z</time>
      </trkpt>
      <trkpt lat="45.2053" lon="5.72561">
        <ele>617.79998779297</ele>
        <time>2021-09-16T04:06:19.000Z</time>
      </trkpt>
      <trkpt lat="45.20531" lon="5.72561">
        <ele>618</ele>
        <time>2021-09-16T04:06:20.000Z</time>
      </trkpt>
      <trkpt lat="45.20539" lon="5.72558">
        <ele>619</ele>
        <time>2021-09-16T04:06:25.000Z</time>
      </trkpt>
      <trkpt lat="45.20547" lon="5.72555">
        <ele>619.40002441406</ele>
        <time>2021-09-16T04:06:29.000Z</time>
      </trkpt>
      <trkpt lat="45.20548" lon="5.72555">
        <ele>619.59997558594</ele>
        <time>2021-09-16T04:06:30.000Z</time>
      </trkpt>
      <trkpt lat="45.20551" lon="5.72555">
        <ele>620</ele>
        <time>2021-09-16T04:06:32.000Z</time>
      </trkpt>
      <trkpt lat="45.20555" lon="5.72555">
        <ele>620.40002441406</ele>
        <time>2021-09-16T04:06:34.000Z</time>
      </trkpt>
      <trkpt lat="45.20557" lon="5.72556">
        <ele>620.40002441406</ele>
        <time>2021-09-16T04:06:35.000Z</time>
      </trkpt>
      <trkpt lat="45.2057" lon="5.72553">
        <ele>621</ele>
        <time>2021-09-16T04:06:41.000Z</time>
      </trkpt>
      <trkpt lat="45.20572" lon="5.72553">
        <ele>621</ele>
        <time>2021-09-16T04:06:42.000Z</time>
      </trkpt>
      <trkpt lat="45.20573" lon="5.72554">
        <ele>621.20001220703</ele>
        <time>2021-09-16T04:06:43.000Z</time>
      </trkpt>
      <trkpt lat="45.20576" lon="5.72557">
        <ele>622</ele>
        <time>2021-09-16T04:06:46.000Z</time>
      </trkpt>
      <trkpt lat="45.20579" lon="5.72559">
        <ele>622.40002441406</ele>
        <time>2021-09-16T04:06:47.000Z</time>
      </trkpt>
      <trkpt lat="45.20581" lon="5.72559">
        <ele>622.40002441406</ele>
        <time>2021-09-16T04:06:48.000Z</time>
      </trkpt>
      <trkpt lat="45.20592" lon="5.72568">
        <ele>623.40002441406</ele>
        <time>2021-09-16T04:06:54.000Z</time>
      </trkpt>
      <trkpt lat="45.20594" lon="5.7257">
        <ele>623.40002441406</ele>
        <time>2021-09-16T04:06:55.000Z</time>
      </trkpt>
      <trkpt lat="45.206" lon="5.72573">
        <ele>624.20001220703</ele>
        <time>2021-09-16T04:06:59.000Z</time>
      </trkpt>
      <trkpt lat="45.20605" lon="5.72575">
        <ele>624.40002441406</ele>
        <time>2021-09-16T04:07:01.000Z</time>
      </trkpt>
      <trkpt lat="45.20615" lon="5.72583">
        <ele>625.40002441406</ele>
        <time>2021-09-16T04:07:07.000Z</time>
      </trkpt>
      <trkpt lat="45.20617" lon="5.72584">
        <ele>625.79998779297</ele>
        <time>2021-09-16T04:07:09.000Z</time>
      </trkpt>
      <trkpt lat="45.2062" lon="5.72584">
        <ele>626.59997558594</ele>
        <time>2021-09-16T04:07:11.000Z</time>
      </trkpt>
      <trkpt lat="45.20629" lon="5.72587">
        <ele>627.59997558594</ele>
        <time>2021-09-16T04:07:16.000Z</time>
      </trkpt>
      <trkpt lat="45.2063" lon="5.72588">
        <ele>627.59997558594</ele>
        <time>2021-09-16T04:07:17.000Z</time>
      </trkpt>
      <trkpt lat="45.20642" lon="5.72588">
        <ele>628.59997558594</ele>
        <time>2021-09-16T04:07:22.000Z</time>
      </trkpt>
      <trkpt lat="45.20651" lon="5.72589">
        <ele>629</ele>
        <time>2021-09-16T04:07:26.000Z</time>
      </trkpt>
      <trkpt lat="45.20655" lon="5.72586">
        <ele>629.59997558594</ele>
        <time>2021-09-16T04:07:28.000Z</time>
      </trkpt>
      <trkpt lat="45.20657" lon="5.72585">
        <ele>629.59997558594</ele>
        <time>2021-09-16T04:07:29.000Z</time>
      </trkpt>
      <trkpt lat="45.20667" lon="5.7258">
        <ele>630.40002441406</ele>
        <time>2021-09-16T04:07:35.000Z</time>
      </trkpt>
      <trkpt lat="45.20669" lon="5.72579">
        <ele>630.79998779297</ele>
        <time>2021-09-16T04:07:36.000Z</time>
      </trkpt>
      <trkpt lat="45.20675" lon="5.72572">
        <ele>631.79998779297</ele>
        <time>2021-09-16T04:07:41.000Z</time>
      </trkpt>
      <trkpt lat="45.20683" lon="5.7257">
        <ele>633.20001220703</ele>
        <time>2021-09-16T04:07:46.000Z</time>
      </trkpt>
      <trkpt lat="45.20686" lon="5.7257">
        <ele>633.59997558594</ele>
        <time>2021-09-16T04:07:48.000Z</time>
      </trkpt>
      <trkpt lat="45.20687" lon="5.72569">
        <ele>633.79998779297</ele>
        <time>2021-09-16T04:07:49.000Z</time>
      </trkpt>
      <trkpt lat="45.20688" lon="5.72569">
        <ele>634.40002441406</ele>
        <time>2021-09-16T04:07:50.000Z</time>
      </trkpt>
      <trkpt lat="45.20692" lon="5.72567">
        <ele>635.40002441406</ele>
        <time>2021-09-16T04:07:53.000Z</time>
      </trkpt>
      <trkpt lat="45.20693" lon="5.72567">
        <ele>635.59997558594</ele>
        <time>2021-09-16T04:07:54.000Z</time>
      </trkpt>
      <trkpt lat="45.20698" lon="5.72566">
        <ele>636.59997558594</ele>
        <time>2021-09-16T04:07:58.000Z</time>
      </trkpt>
      <trkpt lat="45.20699" lon="5.72566">
        <ele>636.79998779297</ele>
        <time>2021-09-16T04:07:59.000Z</time>
      </trkpt>
      <trkpt lat="45.20701" lon="5.72567">
        <ele>637</ele>
        <time>2021-09-16T04:08:00.000Z</time>
      </trkpt>
      <trkpt lat="45.20704" lon="5.72567">
        <ele>637.79998779297</ele>
        <time>2021-09-16T04:08:03.000Z</time>
      </trkpt>
      <trkpt lat="45.20705" lon="5.72567">
        <ele>638</ele>
        <time>2021-09-16T04:08:04.000Z</time>
      </trkpt>
      <trkpt lat="45.20708" lon="5.72569">
        <ele>638.59997558594</ele>
        <time>2021-09-16T04:08:06.000Z</time>
      </trkpt>
      <trkpt lat="45.20709" lon="5.7257">
        <ele>639</ele>
        <time>2021-09-16T04:08:07.000Z</time>
      </trkpt>
      <trkpt lat="45.20711" lon="5.72572">
        <ele>640</ele>
        <time>2021-09-16T04:08:11.000Z</time>
      </trkpt>
      <trkpt lat="45.20713" lon="5.72572">
        <ele>641</ele>
        <time>2021-09-16T04:08:13.000Z</time>
      </trkpt>
      <trkpt lat="45.20714" lon="5.72573">
        <ele>641.20001220703</ele>
        <time>2021-09-16T04:08:14.000Z</time>
      </trkpt>
      <trkpt lat="45.20716" lon="5.72573">
        <ele>641.40002441406</ele>
        <time>2021-09-16T04:08:16.000Z</time>
      </trkpt>
      <trkpt lat="45.20719" lon="5.72574">
        <ele>642.20001220703</ele>
        <time>2021-09-16T04:08:19.000Z</time>
      </trkpt>
      <trkpt lat="45.20725" lon="5.72578">
        <ele>643.59997558594</ele>
        <time>2021-09-16T04:08:24.000Z</time>
      </trkpt>
      <trkpt lat="45.20725" lon="5.72578">
        <ele>643.79998779297</ele>
        <time>2021-09-16T04:08:25.000Z</time>
      </trkpt>
      <trkpt lat="45.20728" lon="5.72579">
        <ele>644.20001220703</ele>
        <time>2021-09-16T04:08:27.000Z</time>
      </trkpt>
      <trkpt lat="45.2073" lon="5.7258">
        <ele>644.79998779297</ele>
        <time>2021-09-16T04:08:28.000Z</time>
      </trkpt>
      <trkpt lat="45.20734" lon="5.72581">
        <ele>645.79998779297</ele>
        <time>2021-09-16T04:08:32.000Z</time>
      </trkpt>
      <trkpt lat="45.20739" lon="5.72582">
        <ele>646.79998779297</ele>
        <time>2021-09-16T04:08:35.000Z</time>
      </trkpt>
      <trkpt lat="45.2074" lon="5.72584">
        <ele>647</ele>
        <time>2021-09-16T04:08:36.000Z</time>
      </trkpt>
      <trkpt lat="45.2074" lon="5.7259">
        <ele>648</ele>
        <time>2021-09-16T04:08:39.000Z</time>
      </trkpt>
      <trkpt lat="45.2074" lon="5.72591">
        <ele>648.20001220703</ele>
        <time>2021-09-16T04:08:40.000Z</time>
      </trkpt>
      <trkpt lat="45.20739" lon="5.72596">
        <ele>648.79998779297</ele>
        <time>2021-09-16T04:08:43.000Z</time>
      </trkpt>
      <trkpt lat="45.2074" lon="5.72599">
        <ele>649.59997558594</ele>
        <time>2021-09-16T04:08:45.000Z</time>
      </trkpt>
      <trkpt lat="45.20742" lon="5.72602">
        <ele>650.59997558594</ele>
        <time>2021-09-16T04:08:48.000Z</time>
      </trkpt>
      <trkpt lat="45.20742" lon="5.72604">
        <ele>651</ele>
        <time>2021-09-16T04:08:50.000Z</time>
      </trkpt>
      <trkpt lat="45.20741" lon="5.72604">
        <ele>651.79998779297</ele>
        <time>2021-09-16T04:08:52.000Z</time>
      </trkpt>
      <trkpt lat="45.20742" lon="5.72604">
        <ele>652.20001220703</ele>
        <time>2021-09-16T04:08:54.000Z</time>
      </trkpt>
      <trkpt lat="45.20744" lon="5.72605">
        <ele>652.59997558594</ele>
        <time>2021-09-16T04:08:55.000Z</time>
      </trkpt>
      <trkpt lat="45.20745" lon="5.72605">
        <ele>653</ele>
        <time>2021-09-16T04:08:56.000Z</time>
      </trkpt>
      <trkpt lat="45.20752" lon="5.72606">
        <ele>654.40002441406</ele>
        <time>2021-09-16T04:09:01.000Z</time>
      </trkpt>
      <trkpt lat="45.20755" lon="5.72606">
        <ele>655</ele>
        <time>2021-09-16T04:09:03.000Z</time>
      </trkpt>
      <trkpt lat="45.20758" lon="5.72606">
        <ele>655.59997558594</ele>
        <time>2021-09-16T04:09:05.000Z</time>
      </trkpt>
      <trkpt lat="45.20764" lon="5.72606">
        <ele>656.59997558594</ele>
        <time>2021-09-16T04:09:09.000Z</time>
      </trkpt>
      <trkpt lat="45.20765" lon="5.72605">
        <ele>657</ele>
        <time>2021-09-16T04:09:10.000Z</time>
      </trkpt>
      <trkpt lat="45.20767" lon="5.72605">
        <ele>657.40002441406</ele>
        <time>2021-09-16T04:09:11.000Z</time>
      </trkpt>
      <trkpt lat="45.20768" lon="5.72604">
        <ele>657.79998779297</ele>
        <time>2021-09-16T04:09:12.000Z</time>
      </trkpt>
      <trkpt lat="45.20771" lon="5.72606">
        <ele>658.79998779297</ele>
        <time>2021-09-16T04:09:15.000Z</time>
      </trkpt>
      <trkpt lat="45.20772" lon="5.72608">
        <ele>659.40002441406</ele>
        <time>2021-09-16T04:09:17.000Z</time>
      </trkpt>
      <trkpt lat="45.20772" lon="5.7261">
        <ele>660</ele>
        <time>2021-09-16T04:09:19.000Z</time>
      </trkpt>
      <trkpt lat="45.20773" lon="5.72615">
        <ele>660.79998779297</ele>
        <time>2021-09-16T04:09:22.000Z</time>
      </trkpt>
      <trkpt lat="45.20773" lon="5.72616">
        <ele>661</ele>
        <time>2021-09-16T04:09:23.000Z</time>
      </trkpt>
      <trkpt lat="45.20773" lon="5.72618">
        <ele>661.20001220703</ele>
        <time>2021-09-16T04:09:25.000Z</time>
      </trkpt>
      <trkpt lat="45.20771" lon="5.72619">
        <ele>662</ele>
        <time>2021-09-16T04:09:27.000Z</time>
      </trkpt>
      <trkpt lat="45.2077" lon="5.72619">
        <ele>662.20001220703</ele>
        <time>2021-09-16T04:09:28.000Z</time>
      </trkpt>
      <trkpt lat="45.20769" lon="5.7262">
        <ele>662.20001220703</ele>
        <time>2021-09-16T04:09:29.000Z</time>
      </trkpt>
      <trkpt lat="45.20767" lon="5.72624">
        <ele>663.40002441406</ele>
        <time>2021-09-16T04:09:33.000Z</time>
      </trkpt>
      <trkpt lat="45.20769" lon="5.72631">
        <ele>664.79998779297</ele>
        <time>2021-09-16T04:09:38.000Z</time>
      </trkpt>
      <trkpt lat="45.20772" lon="5.72635">
        <ele>666</ele>
        <time>2021-09-16T04:09:42.000Z</time>
      </trkpt>
      <trkpt lat="45.20775" lon="5.72635">
        <ele>666.59997558594</ele>
        <time>2021-09-16T04:09:44.000Z</time>
      </trkpt>
      <trkpt lat="45.20776" lon="5.72635">
        <ele>667</ele>
        <time>2021-09-16T04:09:45.000Z</time>
      </trkpt>
      <trkpt lat="45.20776" lon="5.72635">
        <ele>667.20001220703</ele>
        <time>2021-09-16T04:09:46.000Z</time>
      </trkpt>
      <trkpt lat="45.20779" lon="5.72636">
        <ele>667.79998779297</ele>
        <time>2021-09-16T04:09:48.000Z</time>
      </trkpt>
      <trkpt lat="45.2078" lon="5.72635">
        <ele>667.79998779297</ele>
        <time>2021-09-16T04:09:49.000Z</time>
      </trkpt>
      <trkpt lat="45.20783" lon="5.72635">
        <ele>668.59997558594</ele>
        <time>2021-09-16T04:09:52.000Z</time>
      </trkpt>
      <trkpt lat="45.20783" lon="5.72635">
        <ele>668.79998779297</ele>
        <time>2021-09-16T04:09:53.000Z</time>
      </trkpt>
      <trkpt lat="45.20784" lon="5.72634">
        <ele>669.59997558594</ele>
        <time>2021-09-16T04:09:56.000Z</time>
      </trkpt>
      <trkpt lat="45.20785" lon="5.72633">
        <ele>670.20001220703</ele>
        <time>2021-09-16T04:09:57.000Z</time>
      </trkpt>
      <trkpt lat="45.20786" lon="5.72631">
        <ele>670.79998779297</ele>
        <time>2021-09-16T04:09:59.000Z</time>
      </trkpt>
      <trkpt lat="45.20788" lon="5.72626">
        <ele>671.20001220703</ele>
        <time>2021-09-16T04:10:02.000Z</time>
      </trkpt>
      <trkpt lat="45.20788" lon="5.72625">
        <ele>671.40002441406</ele>
        <time>2021-09-16T04:10:03.000Z</time>
      </trkpt>
      <trkpt lat="45.20788" lon="5.72624">
        <ele>671.79998779297</ele>
        <time>2021-09-16T04:10:05.000Z</time>
      </trkpt>
      <trkpt lat="45.20791" lon="5.72621">
        <ele>672.59997558594</ele>
        <time>2021-09-16T04:10:08.000Z</time>
      </trkpt>
      <trkpt lat="45.20792" lon="5.7262">
        <ele>672.79998779297</ele>
        <time>2021-09-16T04:10:09.000Z</time>
      </trkpt>
      <trkpt lat="45.20794" lon="5.7262">
        <ele>673.40002441406</ele>
        <time>2021-09-16T04:10:11.000Z</time>
      </trkpt>
      <trkpt lat="45.20795" lon="5.72622">
        <ele>674.20001220703</ele>
        <time>2021-09-16T04:10:13.000Z</time>
      </trkpt>
      <trkpt lat="45.20796" lon="5.72624">
        <ele>674.59997558594</ele>
        <time>2021-09-16T04:10:14.000Z</time>
      </trkpt>
      <trkpt lat="45.20797" lon="5.72626">
        <ele>674.79998779297</ele>
        <time>2021-09-16T04:10:16.000Z</time>
      </trkpt>
      <trkpt lat="45.20799" lon="5.72627">
        <ele>675.20001220703</ele>
        <time>2021-09-16T04:10:18.000Z</time>
      </trkpt>
      <trkpt lat="45.20799" lon="5.72628">
        <ele>675.20001220703</ele>
        <time>2021-09-16T04:10:19.000Z</time>
      </trkpt>
      <trkpt lat="45.208" lon="5.7263">
        <ele>676</ele>
        <time>2021-09-16T04:10:21.000Z</time>
      </trkpt>
      <trkpt lat="45.20801" lon="5.72631">
        <ele>676.20001220703</ele>
        <time>2021-09-16T04:10:22.000Z</time>
      </trkpt>
      <trkpt lat="45.20802" lon="5.72633">
        <ele>676.79998779297</ele>
        <time>2021-09-16T04:10:24.000Z</time>
      </trkpt>
      <trkpt lat="45.20803" lon="5.72634">
        <ele>677.20001220703</ele>
        <time>2021-09-16T04:10:25.000Z</time>
      </trkpt>
      <trkpt lat="45.20804" lon="5.72635">
        <ele>677.59997558594</ele>
        <time>2021-09-16T04:10:26.000Z</time>
      </trkpt>
      <trkpt lat="45.20803" lon="5.72637">
        <ele>678</ele>
        <time>2021-09-16T04:10:28.000Z</time>
      </trkpt>
      <trkpt lat="45.20803" lon="5.72637">
        <ele>678.20001220703</ele>
        <time>2021-09-16T04:10:29.000Z</time>
      </trkpt>
      <trkpt lat="45.20803" lon="5.72638">
        <ele>678.40002441406</ele>
        <time>2021-09-16T04:10:30.000Z</time>
      </trkpt>
      <trkpt lat="45.20803" lon="5.7264">
        <ele>679.20001220703</ele>
        <time>2021-09-16T04:10:33.000Z</time>
      </trkpt>
      <trkpt lat="45.20803" lon="5.72641">
        <ele>679.59997558594</ele>
        <time>2021-09-16T04:10:34.000Z</time>
      </trkpt>
      <trkpt lat="45.20803" lon="5.72642">
        <ele>679.79998779297</ele>
        <time>2021-09-16T04:10:35.000Z</time>
      </trkpt>
      <trkpt lat="45.20804" lon="5.72646">
        <ele>680.59997558594</ele>
        <time>2021-09-16T04:10:39.000Z</time>
      </trkpt>
      <trkpt lat="45.20803" lon="5.72648">
        <ele>681</ele>
        <time>2021-09-16T04:10:40.000Z</time>
      </trkpt>
      <trkpt lat="45.20803" lon="5.72651">
        <ele>681.40002441406</ele>
        <time>2021-09-16T04:10:41.000Z</time>
      </trkpt>
      <trkpt lat="45.20803" lon="5.72654">
        <ele>681.59997558594</ele>
        <time>2021-09-16T04:10:42.000Z</time>
      </trkpt>
      <trkpt lat="45.20804" lon="5.72659">
        <ele>682.20001220703</ele>
        <time>2021-09-16T04:10:44.000Z</time>
      </trkpt>
      <trkpt lat="45.20806" lon="5.72661">
        <ele>682.59997558594</ele>
        <time>2021-09-16T04:10:45.000Z</time>
      </trkpt>
      <trkpt lat="45.20807" lon="5.72661">
        <ele>683</ele>
        <time>2021-09-16T04:10:46.000Z</time>
      </trkpt>
      <trkpt lat="45.20814" lon="5.72663">
        <ele>684.20001220703</ele>
        <time>2021-09-16T04:10:50.000Z</time>
      </trkpt>
      <trkpt lat="45.20815" lon="5.72663">
        <ele>684.40002441406</ele>
        <time>2021-09-16T04:10:51.000Z</time>
      </trkpt>
      <trkpt lat="45.20817" lon="5.7266">
        <ele>685.20001220703</ele>
        <time>2021-09-16T04:10:54.000Z</time>
      </trkpt>
      <trkpt lat="45.2082" lon="5.72658">
        <ele>686.20001220703</ele>
        <time>2021-09-16T04:10:57.000Z</time>
      </trkpt>
      <trkpt lat="45.20821" lon="5.72657">
        <ele>686.40002441406</ele>
        <time>2021-09-16T04:10:58.000Z</time>
      </trkpt>
      <trkpt lat="45.20821" lon="5.72657">
        <ele>686.59997558594</ele>
        <time>2021-09-16T04:10:59.000Z</time>
      </trkpt>
      <trkpt lat="45.20824" lon="5.72653">
        <ele>687.59997558594</ele>
        <time>2021-09-16T04:11:02.000Z</time>
      </trkpt>
      <trkpt lat="45.20826" lon="5.72654">
        <ele>687.79998779297</ele>
        <time>2021-09-16T04:11:03.000Z</time>
      </trkpt>
      <trkpt lat="45.20828" lon="5.72655">
        <ele>688.40002441406</ele>
        <time>2021-09-16T04:11:06.000Z</time>
      </trkpt>
      <trkpt lat="45.20828" lon="5.72656">
        <ele>688.59997558594</ele>
        <time>2021-09-16T04:11:07.000Z</time>
      </trkpt>
      <trkpt lat="45.20829" lon="5.72657">
        <ele>688.79998779297</ele>
        <time>2021-09-16T04:11:08.000Z</time>
      </trkpt>
      <trkpt lat="45.20829" lon="5.72658">
        <ele>689.20001220703</ele>
        <time>2021-09-16T04:11:09.000Z</time>
      </trkpt>
      <trkpt lat="45.20829" lon="5.72658">
        <ele>689.79998779297</ele>
        <time>2021-09-16T04:11:10.000Z</time>
      </trkpt>
      <trkpt lat="45.20831" lon="5.72659">
        <ele>690.20001220703</ele>
        <time>2021-09-16T04:11:12.000Z</time>
      </trkpt>
      <trkpt lat="45.20831" lon="5.7266">
        <ele>690.79998779297</ele>
        <time>2021-09-16T04:11:14.000Z</time>
      </trkpt>
      <trkpt lat="45.20831" lon="5.72661">
        <ele>691.20001220703</ele>
        <time>2021-09-16T04:11:15.000Z</time>
      </trkpt>
      <trkpt lat="45.20831" lon="5.72663">
        <ele>691.79998779297</ele>
        <time>2021-09-16T04:11:17.000Z</time>
      </trkpt>
      <trkpt lat="45.20831" lon="5.72665">
        <ele>692.20001220703</ele>
        <time>2021-09-16T04:11:19.000Z</time>
      </trkpt>
      <trkpt lat="45.20831" lon="5.72666">
        <ele>692.40002441406</ele>
        <time>2021-09-16T04:11:20.000Z</time>
      </trkpt>
      <trkpt lat="45.20831" lon="5.72671">
        <ele>693.20001220703</ele>
        <time>2021-09-16T04:11:22.000Z</time>
      </trkpt>
      <trkpt lat="45.20832" lon="5.72675">
        <ele>694.20001220703</ele>
        <time>2021-09-16T04:11:26.000Z</time>
      </trkpt>
      <trkpt lat="45.20832" lon="5.72677">
        <ele>694.40002441406</ele>
        <time>2021-09-16T04:11:27.000Z</time>
      </trkpt>
      <trkpt lat="45.2083" lon="5.72678">
        <ele>695.40002441406</ele>
        <time>2021-09-16T04:11:30.000Z</time>
      </trkpt>
      <trkpt lat="45.20829" lon="5.72679">
        <ele>695.79998779297</ele>
        <time>2021-09-16T04:11:31.000Z</time>
      </trkpt>
      <trkpt lat="45.20829" lon="5.72682">
        <ele>696</ele>
        <time>2021-09-16T04:11:32.000Z</time>
      </trkpt>
      <trkpt lat="45.20832" lon="5.72689">
        <ele>696.59997558594</ele>
        <time>2021-09-16T04:11:35.000Z</time>
      </trkpt>
      <trkpt lat="45.20833" lon="5.72692">
        <ele>697.40002441406</ele>
        <time>2021-09-16T04:11:37.000Z</time>
      </trkpt>
      <trkpt lat="45.20833" lon="5.72693">
        <ele>697.59997558594</ele>
        <time>2021-09-16T04:11:38.000Z</time>
      </trkpt>
      <trkpt lat="45.20832" lon="5.72695">
        <ele>698.79998779297</ele>
        <time>2021-09-16T04:11:41.000Z</time>
      </trkpt>
      <trkpt lat="45.2083" lon="5.72697">
        <ele>700</ele>
        <time>2021-09-16T04:11:45.000Z</time>
      </trkpt>
      <trkpt lat="45.20829" lon="5.72698">
        <ele>700.59997558594</ele>
        <time>2021-09-16T04:11:46.000Z</time>
      </trkpt>
      <trkpt lat="45.2083" lon="5.72701">
        <ele>701.40002441406</ele>
        <time>2021-09-16T04:11:48.000Z</time>
      </trkpt>
      <trkpt lat="45.20828" lon="5.72703">
        <ele>702.40002441406</ele>
        <time>2021-09-16T04:11:51.000Z</time>
      </trkpt>
      <trkpt lat="45.20827" lon="5.72704">
        <ele>702.59997558594</ele>
        <time>2021-09-16T04:11:52.000Z</time>
      </trkpt>
      <trkpt lat="45.20827" lon="5.72713">
        <ele>703.79998779297</ele>
        <time>2021-09-16T04:11:56.000Z</time>
      </trkpt>
      <trkpt lat="45.20827" lon="5.72714">
        <ele>704</ele>
        <time>2021-09-16T04:11:57.000Z</time>
      </trkpt>
      <trkpt lat="45.20825" lon="5.72716">
        <ele>704.20001220703</ele>
        <time>2021-09-16T04:12:01.000Z</time>
      </trkpt>
      <trkpt lat="45.20823" lon="5.7272">
        <ele>704</ele>
        <time>2021-09-16T04:12:05.000Z</time>
      </trkpt>
      <trkpt lat="45.20823" lon="5.72721">
        <ele>704</ele>
        <time>2021-09-16T04:12:06.000Z</time>
      </trkpt>
      <trkpt lat="45.20822" lon="5.72722">
        <ele>704</ele>
        <time>2021-09-16T04:12:07.000Z</time>
      </trkpt>
      <trkpt lat="45.20818" lon="5.72725">
        <ele>702.79998779297</ele>
        <time>2021-09-16T04:12:13.000Z</time>
      </trkpt>
      <trkpt lat="45.20818" lon="5.72726">
        <ele>702.20001220703</ele>
        <time>2021-09-16T04:12:14.000Z</time>
      </trkpt>
      <trkpt lat="45.20815" lon="5.72727">
        <ele>701.79998779297</ele>
        <time>2021-09-16T04:12:16.000Z</time>
      </trkpt>
      <trkpt lat="45.20813" lon="5.72728">
        <ele>701.79998779297</ele>
        <time>2021-09-16T04:12:17.000Z</time>
      </trkpt>
      <trkpt lat="45.20809" lon="5.72731">
        <ele>701.20001220703</ele>
        <time>2021-09-16T04:12:21.000Z</time>
      </trkpt>
      <trkpt lat="45.20806" lon="5.72733">
        <ele>701</ele>
        <time>2021-09-16T04:12:26.000Z</time>
      </trkpt>
      <trkpt lat="45.20802" lon="5.72731">
        <ele>701.40002441406</ele>
        <time>2021-09-16T04:12:30.000Z</time>
      </trkpt>
      <trkpt lat="45.20801" lon="5.7273">
        <ele>701.79998779297</ele>
        <time>2021-09-16T04:12:32.000Z</time>
      </trkpt>
      <trkpt lat="45.208" lon="5.7273">
        <ele>702</ele>
        <time>2021-09-16T04:12:33.000Z</time>
      </trkpt>
      <trkpt lat="45.208" lon="5.72729">
        <ele>702.20001220703</ele>
        <time>2021-09-16T04:12:34.000Z</time>
      </trkpt>
      <trkpt lat="45.20799" lon="5.72729">
        <ele>703</ele>
        <time>2021-09-16T04:12:37.000Z</time>
      </trkpt>
      <trkpt lat="45.20798" lon="5.7273">
        <ele>703.59997558594</ele>
        <time>2021-09-16T04:12:40.000Z</time>
      </trkpt>
      <trkpt lat="45.20798" lon="5.72729">
        <ele>703.59997558594</ele>
        <time>2021-09-16T04:12:45.000Z</time>
      </trkpt>
      <trkpt lat="45.20798" lon="5.72729">
        <ele>703.59997558594</ele>
        <time>2021-09-16T04:12:48.000Z</time>
      </trkpt>
      <trkpt lat="45.20798" lon="5.72729">
        <ele>703.59997558594</ele>
        <time>2021-09-16T04:12:51.000Z</time>
      </trkpt>
      <trkpt lat="45.20798" lon="5.72729">
        <ele>703.40002441406</ele>
        <time>2021-09-16T04:13:00.000Z</time>
      </trkpt>
      <trkpt lat="45.20798" lon="5.72729">
        <ele>703.59997558594</ele>
        <time>2021-09-16T04:13:03.000Z</time>
      </trkpt>
      <trkpt lat="45.20798" lon="5.72729">
        <ele>703.59997558594</ele>
        <time>2021-09-16T04:13:05.000Z</time>
      </trkpt>
      <trkpt lat="45.20797" lon="5.72729">
        <ele>702.79998779297</ele>
        <time>2021-09-16T04:13:12.000Z</time>
      </trkpt>
      <trkpt lat="45.20797" lon="5.72729">
        <ele>702.40002441406</ele>
        <time>2021-09-16T04:13:14.000Z</time>
      </trkpt>
      <trkpt lat="45.20797" lon="5.72729">
        <ele>702.20001220703</ele>
        <time>2021-09-16T04:13:16.000Z</time>
      </trkpt>
      <trkpt lat="45.20797" lon="5.72729">
        <ele>702</ele>
        <time>2021-09-16T04:13:18.000Z</time>
      </trkpt>
      <trkpt lat="45.20798" lon="5.72729">
        <ele>701</ele>
        <time>2021-09-16T04:13:22.000Z</time>
      </trkpt>
      <trkpt lat="45.20802" lon="5.72728">
        <ele>700.79998779297</ele>
        <time>2021-09-16T04:13:24.000Z</time>
      </trkpt>
      <trkpt lat="45.20804" lon="5.72729">
        <ele>700.79998779297</ele>
        <time>2021-09-16T04:13:25.000Z</time>
      </trkpt>
      <trkpt lat="45.20806" lon="5.72729">
        <ele>700.79998779297</ele>
        <time>2021-09-16T04:13:26.000Z</time>
      </trkpt>
      <trkpt lat="45.20817" lon="5.72732">
        <ele>701.20001220703</ele>
        <time>2021-09-16T04:13:31.000Z</time>
      </trkpt>
      <trkpt lat="45.20818" lon="5.72733">
        <ele>701.79998779297</ele>
        <time>2021-09-16T04:13:33.000Z</time>
      </trkpt>
      <trkpt lat="45.2082" lon="5.72733">
        <ele>702.20001220703</ele>
        <time>2021-09-16T04:13:35.000Z</time>
      </trkpt>
      <trkpt lat="45.2082" lon="5.72733">
        <ele>702.59997558594</ele>
        <time>2021-09-16T04:13:36.000Z</time>
      </trkpt>
      <trkpt lat="45.20821" lon="5.72732">
        <ele>703</ele>
        <time>2021-09-16T04:13:37.000Z</time>
      </trkpt>
      <trkpt lat="45.20821" lon="5.72731">
        <ele>703.20001220703</ele>
        <time>2021-09-16T04:13:38.000Z</time>
      </trkpt>
      <trkpt lat="45.20823" lon="5.72727">
        <ele>704</ele>
        <time>2021-09-16T04:13:44.000Z</time>
      </trkpt>
      <trkpt lat="45.20825" lon="5.72724">
        <ele>704</ele>
        <time>2021-09-16T04:13:49.000Z</time>
      </trkpt>
      <trkpt lat="45.20826" lon="5.72719">
        <ele>703.79998779297</ele>
        <time>2021-09-16T04:13:54.000Z</time>
      </trkpt>
      <trkpt lat="45.20826" lon="5.72717">
        <ele>703.40002441406</ele>
        <time>2021-09-16T04:13:56.000Z</time>
      </trkpt>
      <trkpt lat="45.20826" lon="5.72715">
        <ele>702.59997558594</ele>
        <time>2021-09-16T04:13:58.000Z</time>
      </trkpt>
      <trkpt lat="45.20826" lon="5.72714">
        <ele>702</ele>
        <time>2021-09-16T04:14:00.000Z</time>
      </trkpt>
      <trkpt lat="45.20826" lon="5.72712">
        <ele>701.79998779297</ele>
        <time>2021-09-16T04:14:01.000Z</time>
      </trkpt>
      <trkpt lat="45.20827" lon="5.72709">
        <ele>701.20001220703</ele>
        <time>2021-09-16T04:14:03.000Z</time>
      </trkpt>
      <trkpt lat="45.20826" lon="5.72708">
        <ele>700.59997558594</ele>
        <time>2021-09-16T04:14:04.000Z</time>
      </trkpt>
      <trkpt lat="45.20826" lon="5.72703">
        <ele>699.40002441406</ele>
        <time>2021-09-16T04:14:07.000Z</time>
      </trkpt>
      <trkpt lat="45.20827" lon="5.72702">
        <ele>699</ele>
        <time>2021-09-16T04:14:08.000Z</time>
      </trkpt>
      <trkpt lat="45.20827" lon="5.72699">
        <ele>698.40002441406</ele>
        <time>2021-09-16T04:14:10.000Z</time>
      </trkpt>
      <trkpt lat="45.20828" lon="5.72698">
        <ele>697.59997558594</ele>
        <time>2021-09-16T04:14:12.000Z</time>
      </trkpt>
      <trkpt lat="45.20828" lon="5.72696">
        <ele>697.40002441406</ele>
        <time>2021-09-16T04:14:13.000Z</time>
      </trkpt>
      <trkpt lat="45.20829" lon="5.72691">
        <ele>696.20001220703</ele>
        <time>2021-09-16T04:14:16.000Z</time>
      </trkpt>
      <trkpt lat="45.20829" lon="5.72687">
        <ele>695</ele>
        <time>2021-09-16T04:14:19.000Z</time>
      </trkpt>
      <trkpt lat="45.20828" lon="5.72681">
        <ele>694.20001220703</ele>
        <time>2021-09-16T04:14:22.000Z</time>
      </trkpt>
      <trkpt lat="45.20828" lon="5.72679">
        <ele>693.79998779297</ele>
        <time>2021-09-16T04:14:23.000Z</time>
      </trkpt>
      <trkpt lat="45.20827" lon="5.72675">
        <ele>693</ele>
        <time>2021-09-16T04:14:25.000Z</time>
      </trkpt>
      <trkpt lat="45.20827" lon="5.72673">
        <ele>692.79998779297</ele>
        <time>2021-09-16T04:14:26.000Z</time>
      </trkpt>
      <trkpt lat="45.20826" lon="5.72668">
        <ele>691.59997558594</ele>
        <time>2021-09-16T04:14:29.000Z</time>
      </trkpt>
      <trkpt lat="45.20824" lon="5.72664">
        <ele>690.40002441406</ele>
        <time>2021-09-16T04:14:32.000Z</time>
      </trkpt>
      <trkpt lat="45.20823" lon="5.72661">
        <ele>689.79998779297</ele>
        <time>2021-09-16T04:14:35.000Z</time>
      </trkpt>
      <trkpt lat="45.20823" lon="5.72662">
        <ele>689.40002441406</ele>
        <time>2021-09-16T04:14:36.000Z</time>
      </trkpt>
      <trkpt lat="45.20822" lon="5.72663">
        <ele>688.79998779297</ele>
        <time>2021-09-16T04:14:37.000Z</time>
      </trkpt>
      <trkpt lat="45.20819" lon="5.72665">
        <ele>688</ele>
        <time>2021-09-16T04:14:39.000Z</time>
      </trkpt>
      <trkpt lat="45.20818" lon="5.72666">
        <ele>687.59997558594</ele>
        <time>2021-09-16T04:14:40.000Z</time>
      </trkpt>
      <trkpt lat="45.20818" lon="5.72668">
        <ele>687.40002441406</ele>
        <time>2021-09-16T04:14:41.000Z</time>
      </trkpt>
      <trkpt lat="45.20819" lon="5.7267">
        <ele>686.59997558594</ele>
        <time>2021-09-16T04:14:43.000Z</time>
      </trkpt>
      <trkpt lat="45.20818" lon="5.72672">
        <ele>686.20001220703</ele>
        <time>2021-09-16T04:14:45.000Z</time>
      </trkpt>
      <trkpt lat="45.20817" lon="5.72672">
        <ele>686</ele>
        <time>2021-09-16T04:14:46.000Z</time>
      </trkpt>
      <trkpt lat="45.20815" lon="5.72672">
        <ele>685.59997558594</ele>
        <time>2021-09-16T04:14:48.000Z</time>
      </trkpt>
      <trkpt lat="45.20814" lon="5.72672">
        <ele>685.40002441406</ele>
        <time>2021-09-16T04:14:49.000Z</time>
      </trkpt>
      <trkpt lat="45.20811" lon="5.72672">
        <ele>684.40002441406</ele>
        <time>2021-09-16T04:14:51.000Z</time>
      </trkpt>
      <trkpt lat="45.20809" lon="5.72672">
        <ele>684.20001220703</ele>
        <time>2021-09-16T04:14:52.000Z</time>
      </trkpt>
      <trkpt lat="45.20807" lon="5.72671">
        <ele>683.79998779297</ele>
        <time>2021-09-16T04:14:53.000Z</time>
      </trkpt>
      <trkpt lat="45.20805" lon="5.72664">
        <ele>683</ele>
        <time>2021-09-16T04:14:56.000Z</time>
      </trkpt>
      <trkpt lat="45.20805" lon="5.72659">
        <ele>681.79998779297</ele>
        <time>2021-09-16T04:14:59.000Z</time>
      </trkpt>
      <trkpt lat="45.20803" lon="5.72655">
        <ele>680.79998779297</ele>
        <time>2021-09-16T04:15:02.000Z</time>
      </trkpt>
      <trkpt lat="45.20803" lon="5.72653">
        <ele>680.59997558594</ele>
        <time>2021-09-16T04:15:03.000Z</time>
      </trkpt>
      <trkpt lat="45.20802" lon="5.72649">
        <ele>679.59997558594</ele>
        <time>2021-09-16T04:15:05.000Z</time>
      </trkpt>
      <trkpt lat="45.20802" lon="5.72644">
        <ele>678.40002441406</ele>
        <time>2021-09-16T04:15:09.000Z</time>
      </trkpt>
      <trkpt lat="45.20801" lon="5.72644">
        <ele>678.20001220703</ele>
        <time>2021-09-16T04:15:10.000Z</time>
      </trkpt>
      <trkpt lat="45.20799" lon="5.7264">
        <ele>677.40002441406</ele>
        <time>2021-09-16T04:15:12.000Z</time>
      </trkpt>
      <trkpt lat="45.20796" lon="5.72634">
        <ele>676</ele>
        <time>2021-09-16T04:15:15.000Z</time>
      </trkpt>
      <trkpt lat="45.20795" lon="5.72632">
        <ele>675.40002441406</ele>
        <time>2021-09-16T04:15:17.000Z</time>
      </trkpt>
      <trkpt lat="45.20794" lon="5.72633">
        <ele>674.79998779297</ele>
        <time>2021-09-16T04:15:19.000Z</time>
      </trkpt>
      <trkpt lat="45.20793" lon="5.72632">
        <ele>674.59997558594</ele>
        <time>2021-09-16T04:15:20.000Z</time>
      </trkpt>
      <trkpt lat="45.20792" lon="5.72633">
        <ele>674.40002441406</ele>
        <time>2021-09-16T04:15:21.000Z</time>
      </trkpt>
      <trkpt lat="45.20792" lon="5.72636">
        <ele>673.59997558594</ele>
        <time>2021-09-16T04:15:23.000Z</time>
      </trkpt>
      <trkpt lat="45.20791" lon="5.7264">
        <ele>673</ele>
        <time>2021-09-16T04:15:25.000Z</time>
      </trkpt>
      <trkpt lat="45.20789" lon="5.72641">
        <ele>672.40002441406</ele>
        <time>2021-09-16T04:15:26.000Z</time>
      </trkpt>
      <trkpt lat="45.20788" lon="5.72642">
        <ele>672</ele>
        <time>2021-09-16T04:15:28.000Z</time>
      </trkpt>
      <trkpt lat="45.20785" lon="5.72644">
        <ele>671.40002441406</ele>
        <time>2021-09-16T04:15:30.000Z</time>
      </trkpt>
      <trkpt lat="45.20783" lon="5.72647">
        <ele>671</ele>
        <time>2021-09-16T04:15:33.000Z</time>
      </trkpt>
      <trkpt lat="45.20782" lon="5.72648">
        <ele>670.40002441406</ele>
        <time>2021-09-16T04:15:34.000Z</time>
      </trkpt>
      <trkpt lat="45.20781" lon="5.72648">
        <ele>669.79998779297</ele>
        <time>2021-09-16T04:15:35.000Z</time>
      </trkpt>
      <trkpt lat="45.20778" lon="5.72647">
        <ele>669.40002441406</ele>
        <time>2021-09-16T04:15:37.000Z</time>
      </trkpt>
      <trkpt lat="45.20775" lon="5.72647">
        <ele>668.59997558594</ele>
        <time>2021-09-16T04:15:39.000Z</time>
      </trkpt>
      <trkpt lat="45.20774" lon="5.72648">
        <ele>668.20001220703</ele>
        <time>2021-09-16T04:15:40.000Z</time>
      </trkpt>
      <trkpt lat="45.20772" lon="5.72646">
        <ele>667.40002441406</ele>
        <time>2021-09-16T04:15:43.000Z</time>
      </trkpt>
      <trkpt lat="45.20772" lon="5.72645">
        <ele>666.79998779297</ele>
        <time>2021-09-16T04:15:44.000Z</time>
      </trkpt>
      <trkpt lat="45.20772" lon="5.7264">
        <ele>665.59997558594</ele>
        <time>2021-09-16T04:15:47.000Z</time>
      </trkpt>
      <trkpt lat="45.20773" lon="5.72636">
        <ele>664.79998779297</ele>
        <time>2021-09-16T04:15:49.000Z</time>
      </trkpt>
      <trkpt lat="45.20773" lon="5.72634">
        <ele>664.59997558594</ele>
        <time>2021-09-16T04:15:50.000Z</time>
      </trkpt>
      <trkpt lat="45.20774" lon="5.72631">
        <ele>664.40002441406</ele>
        <time>2021-09-16T04:15:51.000Z</time>
      </trkpt>
      <trkpt lat="45.20773" lon="5.72627">
        <ele>663.40002441406</ele>
        <time>2021-09-16T04:15:53.000Z</time>
      </trkpt>
      <trkpt lat="45.20772" lon="5.72622">
        <ele>662.20001220703</ele>
        <time>2021-09-16T04:15:56.000Z</time>
      </trkpt>
      <trkpt lat="45.20772" lon="5.72621">
        <ele>661.79998779297</ele>
        <time>2021-09-16T04:15:57.000Z</time>
      </trkpt>
      <trkpt lat="45.20771" lon="5.72619">
        <ele>661.20001220703</ele>
        <time>2021-09-16T04:15:59.000Z</time>
      </trkpt>
      <trkpt lat="45.2077" lon="5.72619">
        <ele>660.79998779297</ele>
        <time>2021-09-16T04:16:00.000Z</time>
      </trkpt>
      <trkpt lat="45.20767" lon="5.72619">
        <ele>660.20001220703</ele>
        <time>2021-09-16T04:16:02.000Z</time>
      </trkpt>
      <trkpt lat="45.20766" lon="5.7262">
        <ele>659.79998779297</ele>
        <time>2021-09-16T04:16:03.000Z</time>
      </trkpt>
      <trkpt lat="45.20763" lon="5.7262">
        <ele>658.59997558594</ele>
        <time>2021-09-16T04:16:05.000Z</time>
      </trkpt>
      <trkpt lat="45.20759" lon="5.72622">
        <ele>657.59997558594</ele>
        <time>2021-09-16T04:16:08.000Z</time>
      </trkpt>
      <trkpt lat="45.20758" lon="5.72623">
        <ele>657.40002441406</ele>
        <time>2021-09-16T04:16:09.000Z</time>
      </trkpt>
      <trkpt lat="45.20756" lon="5.72623">
        <ele>657</ele>
        <time>2021-09-16T04:16:10.000Z</time>
      </trkpt>
      <trkpt lat="45.20752" lon="5.72621">
        <ele>656.20001220703</ele>
        <time>2021-09-16T04:16:13.000Z</time>
      </trkpt>
      <trkpt lat="45.2075" lon="5.72622">
        <ele>655.20001220703</ele>
        <time>2021-09-16T04:16:15.000Z</time>
      </trkpt>
      <trkpt lat="45.20748" lon="5.72622">
        <ele>655</ele>
        <time>2021-09-16T04:16:16.000Z</time>
      </trkpt>
      <trkpt lat="45.20746" lon="5.7262">
        <ele>654.59997558594</ele>
        <time>2021-09-16T04:16:17.000Z</time>
      </trkpt>
      <trkpt lat="45.20745" lon="5.72619">
        <ele>654.40002441406</ele>
        <time>2021-09-16T04:16:18.000Z</time>
      </trkpt>
      <trkpt lat="45.20744" lon="5.72615">
        <ele>653.79998779297</ele>
        <time>2021-09-16T04:16:20.000Z</time>
      </trkpt>
      <trkpt lat="45.20742" lon="5.7261">
        <ele>652.59997558594</ele>
        <time>2021-09-16T04:16:23.000Z</time>
      </trkpt>
      <trkpt lat="45.20741" lon="5.72607">
        <ele>652</ele>
        <time>2021-09-16T04:16:25.000Z</time>
      </trkpt>
      <trkpt lat="45.2074" lon="5.72605">
        <ele>651.79998779297</ele>
        <time>2021-09-16T04:16:26.000Z</time>
      </trkpt>
      <trkpt lat="45.20739" lon="5.72603">
        <ele>651.40002441406</ele>
        <time>2021-09-16T04:16:27.000Z</time>
      </trkpt>
      <trkpt lat="45.20738" lon="5.72598">
        <ele>650.40002441406</ele>
        <time>2021-09-16T04:16:30.000Z</time>
      </trkpt>
      <trkpt lat="45.20738" lon="5.72598">
        <ele>650</ele>
        <time>2021-09-16T04:16:31.000Z</time>
      </trkpt>
      <trkpt lat="45.20737" lon="5.72599">
        <ele>649.79998779297</ele>
        <time>2021-09-16T04:16:32.000Z</time>
      </trkpt>
      <trkpt lat="45.20735" lon="5.72597">
        <ele>648.59997558594</ele>
        <time>2021-09-16T04:16:34.000Z</time>
      </trkpt>
      <trkpt lat="45.20734" lon="5.72597">
        <ele>648.20001220703</ele>
        <time>2021-09-16T04:16:35.000Z</time>
      </trkpt>
      <trkpt lat="45.20729" lon="5.72593">
        <ele>647.20001220703</ele>
        <time>2021-09-16T04:16:37.000Z</time>
      </trkpt>
      <trkpt lat="45.20725" lon="5.72589">
        <ele>646.20001220703</ele>
        <time>2021-09-16T04:16:39.000Z</time>
      </trkpt>
      <trkpt lat="45.20721" lon="5.72587">
        <ele>645.59997558594</ele>
        <time>2021-09-16T04:16:41.000Z</time>
      </trkpt>
      <trkpt lat="45.20719" lon="5.72586">
        <ele>645</ele>
        <time>2021-09-16T04:16:42.000Z</time>
      </trkpt>
      <trkpt lat="45.20717" lon="5.72586">
        <ele>644.79998779297</ele>
        <time>2021-09-16T04:16:43.000Z</time>
      </trkpt>
      <trkpt lat="45.20715" lon="5.72586">
        <ele>644.40002441406</ele>
        <time>2021-09-16T04:16:45.000Z</time>
      </trkpt>
      <trkpt lat="45.20713" lon="5.72586">
        <ele>644</ele>
        <time>2021-09-16T04:16:46.000Z</time>
      </trkpt>
      <trkpt lat="45.2071" lon="5.72582">
        <ele>643</ele>
        <time>2021-09-16T04:16:49.000Z</time>
      </trkpt>
      <trkpt lat="45.2071" lon="5.72581">
        <ele>642.79998779297</ele>
        <time>2021-09-16T04:16:50.000Z</time>
      </trkpt>
      <trkpt lat="45.20706" lon="5.7258">
        <ele>642.59997558594</ele>
        <time>2021-09-16T04:16:52.000Z</time>
      </trkpt>
      <trkpt lat="45.20706" lon="5.72579">
        <ele>641.79998779297</ele>
        <time>2021-09-16T04:16:53.000Z</time>
      </trkpt>
      <trkpt lat="45.20704" lon="5.72576">
        <ele>639.20001220703</ele>
        <time>2021-09-16T04:16:55.000Z</time>
      </trkpt>
      <trkpt lat="45.20698" lon="5.72571">
        <ele>638.20001220703</ele>
        <time>2021-09-16T04:17:00.000Z</time>
      </trkpt>
      <trkpt lat="45.20697" lon="5.72571">
        <ele>637.79998779297</ele>
        <time>2021-09-16T04:17:01.000Z</time>
      </trkpt>
      <trkpt lat="45.20695" lon="5.72573">
        <ele>637.20001220703</ele>
        <time>2021-09-16T04:17:03.000Z</time>
      </trkpt>
      <trkpt lat="45.20694" lon="5.72573">
        <ele>636.79998779297</ele>
        <time>2021-09-16T04:17:04.000Z</time>
      </trkpt>
      <trkpt lat="45.20693" lon="5.72573">
        <ele>636.59997558594</ele>
        <time>2021-09-16T04:17:05.000Z</time>
      </trkpt>
      <trkpt lat="45.20691" lon="5.72573">
        <ele>636</ele>
        <time>2021-09-16T04:17:06.000Z</time>
      </trkpt>
      <trkpt lat="45.20683" lon="5.72574">
        <ele>635</ele>
        <time>2021-09-16T04:17:10.000Z</time>
      </trkpt>
      <trkpt lat="45.20681" lon="5.72575">
        <ele>634.79998779297</ele>
        <time>2021-09-16T04:17:11.000Z</time>
      </trkpt>
      <trkpt lat="45.20676" lon="5.7258">
        <ele>633.79998779297</ele>
        <time>2021-09-16T04:17:14.000Z</time>
      </trkpt>
      <trkpt lat="45.20671" lon="5.72585">
        <ele>633.20001220703</ele>
        <time>2021-09-16T04:17:17.000Z</time>
      </trkpt>
      <trkpt lat="45.20667" lon="5.72588">
        <ele>632.59997558594</ele>
        <time>2021-09-16T04:17:19.000Z</time>
      </trkpt>
      <trkpt lat="45.20659" lon="5.72598">
        <ele>631.40002441406</ele>
        <time>2021-09-16T04:17:24.000Z</time>
      </trkpt>
      <trkpt lat="45.20646" lon="5.72605">
        <ele>630.59997558594</ele>
        <time>2021-09-16T04:17:29.000Z</time>
      </trkpt>
      <trkpt lat="45.20644" lon="5.72605">
        <ele>630.40002441406</ele>
        <time>2021-09-16T04:17:30.000Z</time>
      </trkpt>
      <trkpt lat="45.20642" lon="5.72606">
        <ele>630.40002441406</ele>
        <time>2021-09-16T04:17:31.000Z</time>
      </trkpt>
      <trkpt lat="45.20631" lon="5.72604">
        <ele>629.79998779297</ele>
        <time>2021-09-16T04:17:36.000Z</time>
      </trkpt>
      <trkpt lat="45.20628" lon="5.72601">
        <ele>629.40002441406</ele>
        <time>2021-09-16T04:17:38.000Z</time>
      </trkpt>
      <trkpt lat="45.20625" lon="5.72601">
        <ele>629.20001220703</ele>
        <time>2021-09-16T04:17:39.000Z</time>
      </trkpt>
      <trkpt lat="45.20621" lon="5.726">
        <ele>628.79998779297</ele>
        <time>2021-09-16T04:17:41.000Z</time>
      </trkpt>
      <trkpt lat="45.20617" lon="5.72598">
        <ele>628</ele>
        <time>2021-09-16T04:17:43.000Z</time>
      </trkpt>
      <trkpt lat="45.20608" lon="5.72591">
        <ele>626.79998779297</ele>
        <time>2021-09-16T04:17:47.000Z</time>
      </trkpt>
      <trkpt lat="45.20603" lon="5.72588">
        <ele>626.40002441406</ele>
        <time>2021-09-16T04:17:49.000Z</time>
      </trkpt>
      <trkpt lat="45.20599" lon="5.72585">
        <ele>626.20001220703</ele>
        <time>2021-09-16T04:17:51.000Z</time>
      </trkpt>
      <trkpt lat="45.20591" lon="5.72577">
        <ele>625.79998779297</ele>
        <time>2021-09-16T04:17:55.000Z</time>
      </trkpt>
      <trkpt lat="45.20588" lon="5.72574">
        <ele>625.59997558594</ele>
        <time>2021-09-16T04:17:57.000Z</time>
      </trkpt>
      <trkpt lat="45.20582" lon="5.72571">
        <ele>624.79998779297</ele>
        <time>2021-09-16T04:18:00.000Z</time>
      </trkpt>
      <trkpt lat="45.20579" lon="5.7257">
        <ele>624.59997558594</ele>
        <time>2021-09-16T04:18:01.000Z</time>
      </trkpt>
      <trkpt lat="45.20564" lon="5.72565">
        <ele>623.59997558594</ele>
        <time>2021-09-16T04:18:06.000Z</time>
      </trkpt>
      <trkpt lat="45.20559" lon="5.72563">
        <ele>623.20001220703</ele>
        <time>2021-09-16T04:18:08.000Z</time>
      </trkpt>
      <trkpt lat="45.20546" lon="5.7256">
        <ele>622.59997558594</ele>
        <time>2021-09-16T04:18:13.000Z</time>
      </trkpt>
      <trkpt lat="45.20542" lon="5.72562">
        <ele>622</ele>
        <time>2021-09-16T04:18:15.000Z</time>
      </trkpt>
      <trkpt lat="45.20529" lon="5.72566">
        <ele>622</ele>
        <time>2021-09-16T04:18:21.000Z</time>
      </trkpt>
      <trkpt lat="45.2052" lon="5.72565">
        <ele>623</ele>
        <time>2021-09-16T04:18:25.000Z</time>
      </trkpt>
      <trkpt lat="45.20517" lon="5.72565">
        <ele>623.40002441406</ele>
        <time>2021-09-16T04:18:26.000Z</time>
      </trkpt>
      <trkpt lat="45.20515" lon="5.72565">
        <ele>623.59997558594</ele>
        <time>2021-09-16T04:18:27.000Z</time>
      </trkpt>
      <trkpt lat="45.20513" lon="5.72564">
        <ele>623.79998779297</ele>
        <time>2021-09-16T04:18:28.000Z</time>
      </trkpt>
      <trkpt lat="45.20506" lon="5.72554">
        <ele>624</ele>
        <time>2021-09-16T04:18:32.000Z</time>
      </trkpt>
      <trkpt lat="45.20492" lon="5.72535">
        <ele>624.20001220703</ele>
        <time>2021-09-16T04:18:39.000Z</time>
      </trkpt>
      <trkpt lat="45.2049" lon="5.72533">
        <ele>624</ele>
        <time>2021-09-16T04:18:40.000Z</time>
      </trkpt>
      <trkpt lat="45.20484" lon="5.72515">
        <ele>623.20001220703</ele>
        <time>2021-09-16T04:18:45.000Z</time>
      </trkpt>
      <trkpt lat="45.20479" lon="5.72501">
        <ele>622.79998779297</ele>
        <time>2021-09-16T04:18:49.000Z</time>
      </trkpt>
      <trkpt lat="45.20478" lon="5.72497">
        <ele>622.59997558594</ele>
        <time>2021-09-16T04:18:50.000Z</time>
      </trkpt>
      <trkpt lat="45.20476" lon="5.72481">
        <ele>623</ele>
        <time>2021-09-16T04:18:55.000Z</time>
      </trkpt>
      <trkpt lat="45.20475" lon="5.72471">
        <ele>624.40002441406</ele>
        <time>2021-09-16T04:18:58.000Z</time>
      </trkpt>
      <trkpt lat="45.20475" lon="5.72464">
        <ele>625.40002441406</ele>
        <time>2021-09-16T04:19:01.000Z</time>
      </trkpt>
      <trkpt lat="45.20474" lon="5.72461">
        <ele>625.59997558594</ele>
        <time>2021-09-16T04:19:02.000Z</time>
      </trkpt>
      <trkpt lat="45.20471" lon="5.7245">
        <ele>626.79998779297</ele>
        <time>2021-09-16T04:19:06.000Z</time>
      </trkpt>
      <trkpt lat="45.20471" lon="5.72447">
        <ele>627</ele>
        <time>2021-09-16T04:19:07.000Z</time>
      </trkpt>
      <trkpt lat="45.20467" lon="5.72437">
        <ele>627.59997558594</ele>
        <time>2021-09-16T04:19:10.000Z</time>
      </trkpt>
      <trkpt lat="45.20464" lon="5.7243">
        <ele>627.59997558594</ele>
        <time>2021-09-16T04:19:12.000Z</time>
      </trkpt>
      <trkpt lat="45.20454" lon="5.72416">
        <ele>626.59997558594</ele>
        <time>2021-09-16T04:19:17.000Z</time>
      </trkpt>
      <trkpt lat="45.20444" lon="5.7241">
        <ele>625.59997558594</ele>
        <time>2021-09-16T04:19:22.000Z</time>
      </trkpt>
      <trkpt lat="45.20436" lon="5.72405">
        <ele>624.40002441406</ele>
        <time>2021-09-16T04:19:26.000Z</time>
      </trkpt>
      <trkpt lat="45.20426" lon="5.72399">
        <ele>623.40002441406</ele>
        <time>2021-09-16T04:19:31.000Z</time>
      </trkpt>
      <trkpt lat="45.20423" lon="5.72398">
        <ele>623.20001220703</ele>
        <time>2021-09-16T04:19:32.000Z</time>
      </trkpt>
      <trkpt lat="45.20421" lon="5.72398">
        <ele>623.20001220703</ele>
        <time>2021-09-16T04:19:33.000Z</time>
      </trkpt>
      <trkpt lat="45.20411" lon="5.72395">
        <ele>623</ele>
        <time>2021-09-16T04:19:37.000Z</time>
      </trkpt>
      <trkpt lat="45.20408" lon="5.72394">
        <ele>623</ele>
        <time>2021-09-16T04:19:38.000Z</time>
      </trkpt>
      <trkpt lat="45.20406" lon="5.72394">
        <ele>622.79998779297</ele>
        <time>2021-09-16T04:19:39.000Z</time>
      </trkpt>
      <trkpt lat="45.20387" lon="5.72395">
        <ele>623</ele>
        <time>2021-09-16T04:19:46.000Z</time>
      </trkpt>
      <trkpt lat="45.20382" lon="5.72398">
        <ele>622.59997558594</ele>
        <time>2021-09-16T04:19:48.000Z</time>
      </trkpt>
      <trkpt lat="45.20369" lon="5.72415">
        <ele>622.79998779297</ele>
        <time>2021-09-16T04:19:55.000Z</time>
      </trkpt>
      <trkpt lat="45.20368" lon="5.72426">
        <ele>622.59997558594</ele>
        <time>2021-09-16T04:20:00.000Z</time>
      </trkpt>
      <trkpt lat="45.20375" lon="5.72424">
        <ele>623</ele>
        <time>2021-09-16T04:20:05.000Z</time>
      </trkpt>
      <trkpt lat="45.20378" lon="5.72424">
        <ele>624</ele>
        <time>2021-09-16T04:20:09.000Z</time>
      </trkpt>
      <trkpt lat="45.20381" lon="5.72423">
        <ele>624.40002441406</ele>
        <time>2021-09-16T04:20:11.000Z</time>
      </trkpt>
      <trkpt lat="45.20389" lon="5.72424">
        <ele>625.59997558594</ele>
        <time>2021-09-16T04:20:16.000Z</time>
      </trkpt>
      <trkpt lat="45.20391" lon="5.72422">
        <ele>626.40002441406</ele>
        <time>2021-09-16T04:20:18.000Z</time>
      </trkpt>
      <trkpt lat="45.20392" lon="5.7242">
        <ele>626.59997558594</ele>
        <time>2021-09-16T04:20:19.000Z</time>
      </trkpt>
      <trkpt lat="45.20399" lon="5.72415">
        <ele>627.79998779297</ele>
        <time>2021-09-16T04:20:24.000Z</time>
      </trkpt>
      <trkpt lat="45.20401" lon="5.72416">
        <ele>627.79998779297</ele>
        <time>2021-09-16T04:20:25.000Z</time>
      </trkpt>
      <trkpt lat="45.20406" lon="5.72418">
        <ele>628</ele>
        <time>2021-09-16T04:20:31.000Z</time>
      </trkpt>
      <trkpt lat="45.20406" lon="5.72417">
        <ele>627.79998779297</ele>
        <time>2021-09-16T04:20:46.000Z</time>
      </trkpt>
      <trkpt lat="45.20406" lon="5.72417">
        <ele>627.79998779297</ele>
        <time>2021-09-16T04:20:52.000Z</time>
      </trkpt>
      <trkpt lat="45.20403" lon="5.72423">
        <ele>628</ele>
        <time>2021-09-16T04:20:56.000Z</time>
      </trkpt>
      <trkpt lat="45.20399" lon="5.72428">
        <ele>628</ele>
        <time>2021-09-16T04:20:58.000Z</time>
      </trkpt>
      <trkpt lat="45.20395" lon="5.7243">
        <ele>627.79998779297</ele>
        <time>2021-09-16T04:21:00.000Z</time>
      </trkpt>
      <trkpt lat="45.20388" lon="5.72435">
        <ele>626.59997558594</ele>
        <time>2021-09-16T04:21:04.000Z</time>
      </trkpt>
      <trkpt lat="45.20386" lon="5.72438">
        <ele>626.20001220703</ele>
        <time>2021-09-16T04:21:06.000Z</time>
      </trkpt>
      <trkpt lat="45.20387" lon="5.72439">
        <ele>626.20001220703</ele>
        <time>2021-09-16T04:21:07.000Z</time>
      </trkpt>
      <trkpt lat="45.20389" lon="5.72439">
        <ele>626</ele>
        <time>2021-09-16T04:21:09.000Z</time>
      </trkpt>
      <trkpt lat="45.20391" lon="5.72438">
        <ele>626</ele>
        <time>2021-09-16T04:21:11.000Z</time>
      </trkpt>
      <trkpt lat="45.20396" lon="5.72435">
        <ele>625.59997558594</ele>
        <time>2021-09-16T04:21:15.000Z</time>
      </trkpt>
      <trkpt lat="45.204" lon="5.72437">
        <ele>625</ele>
        <time>2021-09-16T04:21:18.000Z</time>
      </trkpt>
      <trkpt lat="45.20401" lon="5.7244">
        <ele>624.79998779297</ele>
        <time>2021-09-16T04:21:20.000Z</time>
      </trkpt>
      <trkpt lat="45.20402" lon="5.72443">
        <ele>624.20001220703</ele>
        <time>2021-09-16T04:21:22.000Z</time>
      </trkpt>
      <trkpt lat="45.20405" lon="5.72444">
        <ele>623.59997558594</ele>
        <time>2021-09-16T04:21:24.000Z</time>
      </trkpt>
      <trkpt lat="45.2041" lon="5.72447">
        <ele>623</ele>
        <time>2021-09-16T04:21:26.000Z</time>
      </trkpt>
      <trkpt lat="45.20415" lon="5.72451">
        <ele>622.59997558594</ele>
        <time>2021-09-16T04:21:28.000Z</time>
      </trkpt>
      <trkpt lat="45.20422" lon="5.72459">
        <ele>622</ele>
        <time>2021-09-16T04:21:31.000Z</time>
      </trkpt>
      <trkpt lat="45.20431" lon="5.72467">
        <ele>621.40002441406</ele>
        <time>2021-09-16T04:21:35.000Z</time>
      </trkpt>
      <trkpt lat="45.2044" lon="5.72471">
        <ele>621.79998779297</ele>
        <time>2021-09-16T04:21:40.000Z</time>
      </trkpt>
      <trkpt lat="45.20459" lon="5.72479">
        <ele>622.20001220703</ele>
        <time>2021-09-16T04:21:50.000Z</time>
      </trkpt>
      <trkpt lat="45.20476" lon="5.72486">
        <ele>622.20001220703</ele>
        <time>2021-09-16T04:21:58.000Z</time>
      </trkpt>
      <trkpt lat="45.20477" lon="5.72488">
        <ele>622.20001220703</ele>
        <time>2021-09-16T04:21:59.000Z</time>
      </trkpt>
      <trkpt lat="45.20481" lon="5.72499">
        <ele>622.59997558594</ele>
        <time>2021-09-16T04:22:02.000Z</time>
      </trkpt>
      <trkpt lat="45.20484" lon="5.72521">
        <ele>623</ele>
        <time>2021-09-16T04:22:07.000Z</time>
      </trkpt>
      <trkpt lat="45.20485" lon="5.72536">
        <ele>622.20001220703</ele>
        <time>2021-09-16T04:22:12.000Z</time>
      </trkpt>
      <trkpt lat="45.20486" lon="5.72538">
        <ele>622</ele>
        <time>2021-09-16T04:22:13.000Z</time>
      </trkpt>
      <trkpt lat="45.20488" lon="5.72548">
        <ele>620.79998779297</ele>
        <time>2021-09-16T04:22:17.000Z</time>
      </trkpt>
      <trkpt lat="45.2049" lon="5.72555">
        <ele>619.79998779297</ele>
        <time>2021-09-16T04:22:20.000Z</time>
      </trkpt>
      <trkpt lat="45.2049" lon="5.72558">
        <ele>619.40002441406</ele>
        <time>2021-09-16T04:22:21.000Z</time>
      </trkpt>
      <trkpt lat="45.20489" lon="5.7256">
        <ele>618.79998779297</ele>
        <time>2021-09-16T04:22:22.000Z</time>
      </trkpt>
      <trkpt lat="45.20488" lon="5.72562">
        <ele>618.40002441406</ele>
        <time>2021-09-16T04:22:23.000Z</time>
      </trkpt>
      <trkpt lat="45.20486" lon="5.72563">
        <ele>618.20001220703</ele>
        <time>2021-09-16T04:22:24.000Z</time>
      </trkpt>
      <trkpt lat="45.20479" lon="5.72558">
        <ele>617.40002441406</ele>
        <time>2021-09-16T04:22:27.000Z</time>
      </trkpt>
      <trkpt lat="45.20478" lon="5.72556">
        <ele>617.20001220703</ele>
        <time>2021-09-16T04:22:28.000Z</time>
      </trkpt>
      <trkpt lat="45.20476" lon="5.72554">
        <ele>614.40002441406</ele>
        <time>2021-09-16T04:22:29.000Z</time>
      </trkpt>
      <trkpt lat="45.20469" lon="5.72546">
        <ele>614</ele>
        <time>2021-09-16T04:22:33.000Z</time>
      </trkpt>
      <trkpt lat="45.20465" lon="5.72539">
        <ele>613.20001220703</ele>
        <time>2021-09-16T04:22:36.000Z</time>
      </trkpt>
      <trkpt lat="45.20462" lon="5.72535">
        <ele>612.40002441406</ele>
        <time>2021-09-16T04:22:38.000Z</time>
      </trkpt>
      <trkpt lat="45.20461" lon="5.72533">
        <ele>612.20001220703</ele>
        <time>2021-09-16T04:22:39.000Z</time>
      </trkpt>
      <trkpt lat="45.2046" lon="5.72532">
        <ele>612</ele>
        <time>2021-09-16T04:22:40.000Z</time>
      </trkpt>
      <trkpt lat="45.20452" lon="5.72524">
        <ele>611.20001220703</ele>
        <time>2021-09-16T04:22:45.000Z</time>
      </trkpt>
      <trkpt lat="45.2045" lon="5.72523">
        <ele>611</ele>
        <time>2021-09-16T04:22:46.000Z</time>
      </trkpt>
      <trkpt lat="45.20447" lon="5.72522">
        <ele>610.79998779297</ele>
        <time>2021-09-16T04:22:47.000Z</time>
      </trkpt>
      <trkpt lat="45.20444" lon="5.72522">
        <ele>610.20001220703</ele>
        <time>2021-09-16T04:22:49.000Z</time>
      </trkpt>
      <trkpt lat="45.20442" lon="5.72524">
        <ele>610</ele>
        <time>2021-09-16T04:22:50.000Z</time>
      </trkpt>
      <trkpt lat="45.20441" lon="5.72526">
        <ele>609.79998779297</ele>
        <time>2021-09-16T04:22:51.000Z</time>
      </trkpt>
      <trkpt lat="45.20441" lon="5.72528">
        <ele>609.40002441406</ele>
        <time>2021-09-16T04:22:52.000Z</time>
      </trkpt>
      <trkpt lat="45.20442" lon="5.72534">
        <ele>608.59997558594</ele>
        <time>2021-09-16T04:22:54.000Z</time>
      </trkpt>
      <trkpt lat="45.20446" lon="5.72549">
        <ele>608</ele>
        <time>2021-09-16T04:23:00.000Z</time>
      </trkpt>
      <trkpt lat="45.20447" lon="5.72552">
        <ele>607.59997558594</ele>
        <time>2021-09-16T04:23:01.000Z</time>
      </trkpt>
      <trkpt lat="45.20452" lon="5.72566">
        <ele>606.20001220703</ele>
        <time>2021-09-16T04:23:06.000Z</time>
      </trkpt>
      <trkpt lat="45.20456" lon="5.72572">
        <ele>605.59997558594</ele>
        <time>2021-09-16T04:23:09.000Z</time>
      </trkpt>
      <trkpt lat="45.20457" lon="5.72574">
        <ele>605.20001220703</ele>
        <time>2021-09-16T04:23:10.000Z</time>
      </trkpt>
      <trkpt lat="45.20459" lon="5.72577">
        <ele>604.79998779297</ele>
        <time>2021-09-16T04:23:11.000Z</time>
      </trkpt>
      <trkpt lat="45.20466" lon="5.72588">
        <ele>604.40002441406</ele>
        <time>2021-09-16T04:23:14.000Z</time>
      </trkpt>
      <trkpt lat="45.20471" lon="5.72593">
        <ele>603.79998779297</ele>
        <time>2021-09-16T04:23:16.000Z</time>
      </trkpt>
      <trkpt lat="45.20472" lon="5.72595">
        <ele>603.59997558594</ele>
        <time>2021-09-16T04:23:17.000Z</time>
      </trkpt>
      <trkpt lat="45.20477" lon="5.72602">
        <ele>602.79998779297</ele>
        <time>2021-09-16T04:23:21.000Z</time>
      </trkpt>
      <trkpt lat="45.20481" lon="5.72608">
        <ele>602</ele>
        <time>2021-09-16T04:23:24.000Z</time>
      </trkpt>
      <trkpt lat="45.20483" lon="5.7261">
        <ele>601.59997558594</ele>
        <time>2021-09-16T04:23:25.000Z</time>
      </trkpt>
      <trkpt lat="45.20492" lon="5.72618">
        <ele>600.40002441406</ele>
        <time>2021-09-16T04:23:29.000Z</time>
      </trkpt>
      <trkpt lat="45.20498" lon="5.72621">
        <ele>599.79998779297</ele>
        <time>2021-09-16T04:23:31.000Z</time>
      </trkpt>
      <trkpt lat="45.20502" lon="5.72624">
        <ele>599.20001220703</ele>
        <time>2021-09-16T04:23:33.000Z</time>
      </trkpt>
      <trkpt lat="45.20508" lon="5.72627">
        <ele>598.40002441406</ele>
        <time>2021-09-16T04:23:36.000Z</time>
      </trkpt>
      <trkpt lat="45.2051" lon="5.72628">
        <ele>598</ele>
        <time>2021-09-16T04:23:37.000Z</time>
      </trkpt>
      <trkpt lat="45.20523" lon="5.72639">
        <ele>596.79998779297</ele>
        <time>2021-09-16T04:23:42.000Z</time>
      </trkpt>
      <trkpt lat="45.20524" lon="5.72643">
        <ele>596.79998779297</ele>
        <time>2021-09-16T04:23:43.000Z</time>
      </trkpt>
      <trkpt lat="45.20531" lon="5.72655">
        <ele>595.59997558594</ele>
        <time>2021-09-16T04:23:47.000Z</time>
      </trkpt>
      <trkpt lat="45.20539" lon="5.72668">
        <ele>594.20001220703</ele>
        <time>2021-09-16T04:23:52.000Z</time>
      </trkpt>
      <trkpt lat="45.2055" lon="5.7268">
        <ele>592.79998779297</ele>
        <time>2021-09-16T04:23:57.000Z</time>
      </trkpt>
      <trkpt lat="45.20553" lon="5.72682">
        <ele>592.40002441406</ele>
        <time>2021-09-16T04:23:58.000Z</time>
      </trkpt>
      <trkpt lat="45.20564" lon="5.72693">
        <ele>591.40002441406</ele>
        <time>2021-09-16T04:24:03.000Z</time>
      </trkpt>
      <trkpt lat="45.20571" lon="5.72698">
        <ele>591</ele>
        <time>2021-09-16T04:24:06.000Z</time>
      </trkpt>
      <trkpt lat="45.20573" lon="5.72701">
        <ele>591</ele>
        <time>2021-09-16T04:24:07.000Z</time>
      </trkpt>
      <trkpt lat="45.20573" lon="5.72705">
        <ele>591</ele>
        <time>2021-09-16T04:24:08.000Z</time>
      </trkpt>
      <trkpt lat="45.20572" lon="5.72711">
        <ele>590.79998779297</ele>
        <time>2021-09-16T04:24:10.000Z</time>
      </trkpt>
      <trkpt lat="45.20568" lon="5.72712">
        <ele>590.59997558594</ele>
        <time>2021-09-16T04:24:12.000Z</time>
      </trkpt>
      <trkpt lat="45.20566" lon="5.72712">
        <ele>590.40002441406</ele>
        <time>2021-09-16T04:24:13.000Z</time>
      </trkpt>
      <trkpt lat="45.20564" lon="5.72711">
        <ele>590</ele>
        <time>2021-09-16T04:24:14.000Z</time>
      </trkpt>
      <trkpt lat="45.20559" lon="5.72708">
        <ele>589.40002441406</ele>
        <time>2021-09-16T04:24:16.000Z</time>
      </trkpt>
      <trkpt lat="45.20557" lon="5.72707">
        <ele>589.20001220703</ele>
        <time>2021-09-16T04:24:17.000Z</time>
      </trkpt>
      <trkpt lat="45.20553" lon="5.72706">
        <ele>588.40002441406</ele>
        <time>2021-09-16T04:24:19.000Z</time>
      </trkpt>
      <trkpt lat="45.20546" lon="5.72701">
        <ele>587</ele>
        <time>2021-09-16T04:24:23.000Z</time>
      </trkpt>
      <trkpt lat="45.20543" lon="5.72699">
        <ele>586.59997558594</ele>
        <time>2021-09-16T04:24:25.000Z</time>
      </trkpt>
      <trkpt lat="45.20539" lon="5.72696">
        <ele>586</ele>
        <time>2021-09-16T04:24:27.000Z</time>
      </trkpt>
      <trkpt lat="45.20531" lon="5.72691">
        <ele>585</ele>
        <time>2021-09-16T04:24:31.000Z</time>
      </trkpt>
      <trkpt lat="45.20529" lon="5.72691">
        <ele>585</ele>
        <time>2021-09-16T04:24:32.000Z</time>
      </trkpt>
      <trkpt lat="45.20523" lon="5.72687">
        <ele>583.79998779297</ele>
        <time>2021-09-16T04:24:35.000Z</time>
      </trkpt>
      <trkpt lat="45.20515" lon="5.72682">
        <ele>582.59997558594</ele>
        <time>2021-09-16T04:24:39.000Z</time>
      </trkpt>
      <trkpt lat="45.20512" lon="5.72682">
        <ele>582.40002441406</ele>
        <time>2021-09-16T04:24:40.000Z</time>
      </trkpt>
      <trkpt lat="45.2051" lon="5.72681">
        <ele>582.20001220703</ele>
        <time>2021-09-16T04:24:41.000Z</time>
      </trkpt>
      <trkpt lat="45.20506" lon="5.7268">
        <ele>581.40002441406</ele>
        <time>2021-09-16T04:24:43.000Z</time>
      </trkpt>
      <trkpt lat="45.20499" lon="5.72676">
        <ele>581</ele>
        <time>2021-09-16T04:24:46.000Z</time>
      </trkpt>
      <trkpt lat="45.20495" lon="5.72674">
        <ele>580.40002441406</ele>
        <time>2021-09-16T04:24:48.000Z</time>
      </trkpt>
      <trkpt lat="45.20486" lon="5.72672">
        <ele>579.20001220703</ele>
        <time>2021-09-16T04:24:52.000Z</time>
      </trkpt>
      <trkpt lat="45.20484" lon="5.72671">
        <ele>579</ele>
        <time>2021-09-16T04:24:53.000Z</time>
      </trkpt>
      <trkpt lat="45.20478" lon="5.72666">
        <ele>578</ele>
        <time>2021-09-16T04:24:56.000Z</time>
      </trkpt>
      <trkpt lat="45.20473" lon="5.72664">
        <ele>577.40002441406</ele>
        <time>2021-09-16T04:24:58.000Z</time>
      </trkpt>
      <trkpt lat="45.20471" lon="5.72663">
        <ele>577.20001220703</ele>
        <time>2021-09-16T04:24:59.000Z</time>
      </trkpt>
      <trkpt lat="45.20468" lon="5.72663">
        <ele>577</ele>
        <time>2021-09-16T04:25:00.000Z</time>
      </trkpt>
      <trkpt lat="45.20466" lon="5.72662">
        <ele>576.59997558594</ele>
        <time>2021-09-16T04:25:01.000Z</time>
      </trkpt>
      <trkpt lat="45.2046" lon="5.72658">
        <ele>575.79998779297</ele>
        <time>2021-09-16T04:25:04.000Z</time>
      </trkpt>
      <trkpt lat="45.2045" lon="5.72657">
        <ele>574.59997558594</ele>
        <time>2021-09-16T04:25:08.000Z</time>
      </trkpt>
      <trkpt lat="45.20445" lon="5.72658">
        <ele>574</ele>
        <time>2021-09-16T04:25:10.000Z</time>
      </trkpt>
      <trkpt lat="45.20437" lon="5.72655">
        <ele>573.59997558594</ele>
        <time>2021-09-16T04:25:13.000Z</time>
      </trkpt>
      <trkpt lat="45.20435" lon="5.72652">
        <ele>573.40002441406</ele>
        <time>2021-09-16T04:25:14.000Z</time>
      </trkpt>
      <trkpt lat="45.2043" lon="5.72645">
        <ele>572.40002441406</ele>
        <time>2021-09-16T04:25:17.000Z</time>
      </trkpt>
      <trkpt lat="45.20424" lon="5.72636">
        <ele>572</ele>
        <time>2021-09-16T04:25:20.000Z</time>
      </trkpt>
      <trkpt lat="45.20417" lon="5.72633">
        <ele>571.40002441406</ele>
        <time>2021-09-16T04:25:23.000Z</time>
      </trkpt>
      <trkpt lat="45.20415" lon="5.72633">
        <ele>571</ele>
        <time>2021-09-16T04:25:24.000Z</time>
      </trkpt>
      <trkpt lat="45.20414" lon="5.72634">
        <ele>570.59997558594</ele>
        <time>2021-09-16T04:25:25.000Z</time>
      </trkpt>
      <trkpt lat="45.20415" lon="5.72638">
        <ele>570.20001220703</ele>
        <time>2021-09-16T04:25:28.000Z</time>
      </trkpt>
      <trkpt lat="45.20424" lon="5.72646">
        <ele>568.79998779297</ele>
        <time>2021-09-16T04:25:32.000Z</time>
      </trkpt>
      <trkpt lat="45.2043" lon="5.72652">
        <ele>567.79998779297</ele>
        <time>2021-09-16T04:25:35.000Z</time>
      </trkpt>
      <trkpt lat="45.20432" lon="5.72654">
        <ele>567.40002441406</ele>
        <time>2021-09-16T04:25:36.000Z</time>
      </trkpt>
      <trkpt lat="45.2044" lon="5.72666">
        <ele>566</ele>
        <time>2021-09-16T04:25:42.000Z</time>
      </trkpt>
      <trkpt lat="45.20442" lon="5.72668">
        <ele>565.59997558594</ele>
        <time>2021-09-16T04:25:43.000Z</time>
      </trkpt>
      <trkpt lat="45.20447" lon="5.72673">
        <ele>564.79998779297</ele>
        <time>2021-09-16T04:25:46.000Z</time>
      </trkpt>
      <trkpt lat="45.20454" lon="5.72679">
        <ele>563.79998779297</ele>
        <time>2021-09-16T04:25:50.000Z</time>
      </trkpt>
      <trkpt lat="45.20455" lon="5.7268">
        <ele>563.40002441406</ele>
        <time>2021-09-16T04:25:51.000Z</time>
      </trkpt>
      <trkpt lat="45.20464" lon="5.72685">
        <ele>562.59997558594</ele>
        <time>2021-09-16T04:25:56.000Z</time>
      </trkpt>
      <trkpt lat="45.20466" lon="5.72687">
        <ele>562.40002441406</ele>
        <time>2021-09-16T04:25:57.000Z</time>
      </trkpt>
      <trkpt lat="45.20471" lon="5.72691">
        <ele>561.59997558594</ele>
        <time>2021-09-16T04:26:00.000Z</time>
      </trkpt>
      <trkpt lat="45.20474" lon="5.72695">
        <ele>560.79998779297</ele>
        <time>2021-09-16T04:26:03.000Z</time>
      </trkpt>
      <trkpt lat="45.20476" lon="5.72697">
        <ele>560.59997558594</ele>
        <time>2021-09-16T04:26:04.000Z</time>
      </trkpt>
      <trkpt lat="45.20486" lon="5.72708">
        <ele>559.40002441406</ele>
        <time>2021-09-16T04:26:09.000Z</time>
      </trkpt>
      <trkpt lat="45.20494" lon="5.72714">
        <ele>558.40002441406</ele>
        <time>2021-09-16T04:26:13.000Z</time>
      </trkpt>
      <trkpt lat="45.20495" lon="5.72715">
        <ele>558.20001220703</ele>
        <time>2021-09-16T04:26:14.000Z</time>
      </trkpt>
      <trkpt lat="45.20497" lon="5.72717">
        <ele>558.20001220703</ele>
        <time>2021-09-16T04:26:15.000Z</time>
      </trkpt>
      <trkpt lat="45.20504" lon="5.72723">
        <ele>557.20001220703</ele>
        <time>2021-09-16T04:26:18.000Z</time>
      </trkpt>
      <trkpt lat="45.20512" lon="5.72729">
        <ele>556</ele>
        <time>2021-09-16T04:26:22.000Z</time>
      </trkpt>
      <trkpt lat="45.20514" lon="5.72731">
        <ele>555.79998779297</ele>
        <time>2021-09-16T04:26:23.000Z</time>
      </trkpt>
      <trkpt lat="45.20525" lon="5.72743">
        <ele>555</ele>
        <time>2021-09-16T04:26:27.000Z</time>
      </trkpt>
      <trkpt lat="45.20535" lon="5.72756">
        <ele>554.40002441406</ele>
        <time>2021-09-16T04:26:31.000Z</time>
      </trkpt>
      <trkpt lat="45.20542" lon="5.72768">
        <ele>553.79998779297</ele>
        <time>2021-09-16T04:26:35.000Z</time>
      </trkpt>
      <trkpt lat="45.20547" lon="5.72775">
        <ele>553.59997558594</ele>
        <time>2021-09-16T04:26:37.000Z</time>
      </trkpt>
      <trkpt lat="45.20555" lon="5.72787">
        <ele>553.40002441406</ele>
        <time>2021-09-16T04:26:41.000Z</time>
      </trkpt>
      <trkpt lat="45.20562" lon="5.72796">
        <ele>553.40002441406</ele>
        <time>2021-09-16T04:26:44.000Z</time>
      </trkpt>
      <trkpt lat="45.20573" lon="5.72811">
        <ele>553.79998779297</ele>
        <time>2021-09-16T04:26:50.000Z</time>
      </trkpt>
      <trkpt lat="45.20586" lon="5.72829">
        <ele>554.20001220703</ele>
        <time>2021-09-16T04:26:56.000Z</time>
      </trkpt>
      <trkpt lat="45.20592" lon="5.72836">
        <ele>554.20001220703</ele>
        <time>2021-09-16T04:26:59.000Z</time>
      </trkpt>
      <trkpt lat="45.20604" lon="5.72851">
        <ele>553.79998779297</ele>
        <time>2021-09-16T04:27:05.000Z</time>
      </trkpt>
      <trkpt lat="45.20615" lon="5.72862">
        <ele>552.79998779297</ele>
        <time>2021-09-16T04:27:10.000Z</time>
      </trkpt>
      <trkpt lat="45.20623" lon="5.72869">
        <ele>552.79998779297</ele>
        <time>2021-09-16T04:27:13.000Z</time>
      </trkpt>
      <trkpt lat="45.20633" lon="5.72876">
        <ele>553.40002441406</ele>
        <time>2021-09-16T04:27:18.000Z</time>
      </trkpt>
      <trkpt lat="45.20636" lon="5.72878">
        <ele>553.59997558594</ele>
        <time>2021-09-16T04:27:20.000Z</time>
      </trkpt>
      <trkpt lat="45.20643" lon="5.72885">
        <ele>553.79998779297</ele>
        <time>2021-09-16T04:27:23.000Z</time>
      </trkpt>
      <trkpt lat="45.2065" lon="5.72892">
        <ele>553.79998779297</ele>
        <time>2021-09-16T04:27:26.000Z</time>
      </trkpt>
      <trkpt lat="45.2066" lon="5.72908">
        <ele>552.79998779297</ele>
        <time>2021-09-16T04:27:32.000Z</time>
      </trkpt>
      <trkpt lat="45.20662" lon="5.7291">
        <ele>552.59997558594</ele>
        <time>2021-09-16T04:27:33.000Z</time>
      </trkpt>
      <trkpt lat="45.20664" lon="5.72915">
        <ele>551.79998779297</ele>
        <time>2021-09-16T04:27:35.000Z</time>
      </trkpt>
      <trkpt lat="45.20666" lon="5.72918">
        <ele>551.59997558594</ele>
        <time>2021-09-16T04:27:36.000Z</time>
      </trkpt>
      <trkpt lat="45.20672" lon="5.72929">
        <ele>550.40002441406</ele>
        <time>2021-09-16T04:27:40.000Z</time>
      </trkpt>
      <trkpt lat="45.20674" lon="5.72931">
        <ele>550.20001220703</ele>
        <time>2021-09-16T04:27:41.000Z</time>
      </trkpt>
      <trkpt lat="45.2068" lon="5.72942">
        <ele>549.20001220703</ele>
        <time>2021-09-16T04:27:45.000Z</time>
      </trkpt>
      <trkpt lat="45.20685" lon="5.72948">
        <ele>548.40002441406</ele>
        <time>2021-09-16T04:27:48.000Z</time>
      </trkpt>
      <trkpt lat="45.20689" lon="5.72952">
        <ele>548</ele>
        <time>2021-09-16T04:27:50.000Z</time>
      </trkpt>
      <trkpt lat="45.20698" lon="5.72958">
        <ele>547.20001220703</ele>
        <time>2021-09-16T04:27:54.000Z</time>
      </trkpt>
      <trkpt lat="45.20703" lon="5.72963">
        <ele>547</ele>
        <time>2021-09-16T04:27:56.000Z</time>
      </trkpt>
      <trkpt lat="45.20713" lon="5.72975">
        <ele>546.40002441406</ele>
        <time>2021-09-16T04:28:01.000Z</time>
      </trkpt>
      <trkpt lat="45.20714" lon="5.72977">
        <ele>546.20001220703</ele>
        <time>2021-09-16T04:28:02.000Z</time>
      </trkpt>
      <trkpt lat="45.20715" lon="5.72979">
        <ele>545.59997558594</ele>
        <time>2021-09-16T04:28:03.000Z</time>
      </trkpt>
      <trkpt lat="45.20718" lon="5.72985">
        <ele>545.20001220703</ele>
        <time>2021-09-16T04:28:06.000Z</time>
      </trkpt>
      <trkpt lat="45.2072" lon="5.7299">
        <ele>544.59997558594</ele>
        <time>2021-09-16T04:28:08.000Z</time>
      </trkpt>
      <trkpt lat="45.20725" lon="5.72998">
        <ele>543.59997558594</ele>
        <time>2021-09-16T04:28:12.000Z</time>
      </trkpt>
      <trkpt lat="45.20725" lon="5.73">
        <ele>543.40002441406</ele>
        <time>2021-09-16T04:28:13.000Z</time>
      </trkpt>
      <trkpt lat="45.20729" lon="5.73006">
        <ele>542.59997558594</ele>
        <time>2021-09-16T04:28:16.000Z</time>
      </trkpt>
      <trkpt lat="45.20732" lon="5.73011">
        <ele>541.40002441406</ele>
        <time>2021-09-16T04:28:19.000Z</time>
      </trkpt>
      <trkpt lat="45.20733" lon="5.73012">
        <ele>541.40002441406</ele>
        <time>2021-09-16T04:28:20.000Z</time>
      </trkpt>
      <trkpt lat="45.20734" lon="5.73013">
        <ele>541.40002441406</ele>
        <time>2021-09-16T04:28:21.000Z</time>
      </trkpt>
      <trkpt lat="45.20741" lon="5.73018">
        <ele>540.79998779297</ele>
        <time>2021-09-16T04:28:25.000Z</time>
      </trkpt>
      <trkpt lat="45.20744" lon="5.73022">
        <ele>540.40002441406</ele>
        <time>2021-09-16T04:28:27.000Z</time>
      </trkpt>
      <trkpt lat="45.2075" lon="5.73029">
        <ele>540.20001220703</ele>
        <time>2021-09-16T04:28:30.000Z</time>
      </trkpt>
      <trkpt lat="45.20758" lon="5.73041">
        <ele>539.59997558594</ele>
        <time>2021-09-16T04:28:34.000Z</time>
      </trkpt>
      <trkpt lat="45.20759" lon="5.73043">
        <ele>539.40002441406</ele>
        <time>2021-09-16T04:28:35.000Z</time>
      </trkpt>
      <trkpt lat="45.2076" lon="5.73044">
        <ele>539.40002441406</ele>
        <time>2021-09-16T04:28:36.000Z</time>
      </trkpt>
      <trkpt lat="45.20763" lon="5.73046">
        <ele>539.20001220703</ele>
        <time>2021-09-16T04:28:38.000Z</time>
      </trkpt>
      <trkpt lat="45.20765" lon="5.73048">
        <ele>538.79998779297</ele>
        <time>2021-09-16T04:28:39.000Z</time>
      </trkpt>
      <trkpt lat="45.20769" lon="5.73052">
        <ele>537.79998779297</ele>
        <time>2021-09-16T04:28:42.000Z</time>
      </trkpt>
      <trkpt lat="45.20775" lon="5.73058">
        <ele>537.20001220703</ele>
        <time>2021-09-16T04:28:46.000Z</time>
      </trkpt>
      <trkpt lat="45.20776" lon="5.7306">
        <ele>536.79998779297</ele>
        <time>2021-09-16T04:28:47.000Z</time>
      </trkpt>
      <trkpt lat="45.20781" lon="5.73067">
        <ele>535.40002441406</ele>
        <time>2021-09-16T04:28:51.000Z</time>
      </trkpt>
      <trkpt lat="45.20783" lon="5.73069">
        <ele>535.20001220703</ele>
        <time>2021-09-16T04:28:52.000Z</time>
      </trkpt>
      <trkpt lat="45.20785" lon="5.73074">
        <ele>534.20001220703</ele>
        <time>2021-09-16T04:28:55.000Z</time>
      </trkpt>
      <trkpt lat="45.2079" lon="5.73083">
        <ele>533.59997558594</ele>
        <time>2021-09-16T04:28:59.000Z</time>
      </trkpt>
      <trkpt lat="45.20792" lon="5.73086">
        <ele>532.79998779297</ele>
        <time>2021-09-16T04:29:01.000Z</time>
      </trkpt>
      <trkpt lat="45.20795" lon="5.73089">
        <ele>532.40002441406</ele>
        <time>2021-09-16T04:29:03.000Z</time>
      </trkpt>
      <trkpt lat="45.20797" lon="5.73095">
        <ele>531.59997558594</ele>
        <time>2021-09-16T04:29:06.000Z</time>
      </trkpt>
      <trkpt lat="45.20801" lon="5.73106">
        <ele>530.20001220703</ele>
        <time>2021-09-16T04:29:10.000Z</time>
      </trkpt>
      <trkpt lat="45.20804" lon="5.73113">
        <ele>529.20001220703</ele>
        <time>2021-09-16T04:29:14.000Z</time>
      </trkpt>
      <trkpt lat="45.20807" lon="5.73118">
        <ele>528.40002441406</ele>
        <time>2021-09-16T04:29:17.000Z</time>
      </trkpt>
      <trkpt lat="45.20807" lon="5.7312">
        <ele>528.20001220703</ele>
        <time>2021-09-16T04:29:18.000Z</time>
      </trkpt>
      <trkpt lat="45.20808" lon="5.73123">
        <ele>528</ele>
        <time>2021-09-16T04:29:19.000Z</time>
      </trkpt>
      <trkpt lat="45.20808" lon="5.73124">
        <ele>527.59997558594</ele>
        <time>2021-09-16T04:29:20.000Z</time>
      </trkpt>
      <trkpt lat="45.2081" lon="5.73127">
        <ele>527</ele>
        <time>2021-09-16T04:29:22.000Z</time>
      </trkpt>
      <trkpt lat="45.20812" lon="5.73129">
        <ele>526.59997558594</ele>
        <time>2021-09-16T04:29:23.000Z</time>
      </trkpt>
      <trkpt lat="45.20814" lon="5.73133">
        <ele>526</ele>
        <time>2021-09-16T04:29:26.000Z</time>
      </trkpt>
      <trkpt lat="45.20816" lon="5.73134">
        <ele>525.79998779297</ele>
        <time>2021-09-16T04:29:27.000Z</time>
      </trkpt>
      <trkpt lat="45.20823" lon="5.73145">
        <ele>524.59997558594</ele>
        <time>2021-09-16T04:29:32.000Z</time>
      </trkpt>
      <trkpt lat="45.20824" lon="5.73147">
        <ele>524.20001220703</ele>
        <time>2021-09-16T04:29:33.000Z</time>
      </trkpt>
      <trkpt lat="45.20825" lon="5.73152">
        <ele>523.79998779297</ele>
        <time>2021-09-16T04:29:35.000Z</time>
      </trkpt>
      <trkpt lat="45.20826" lon="5.73155">
        <ele>523.59997558594</ele>
        <time>2021-09-16T04:29:36.000Z</time>
      </trkpt>
      <trkpt lat="45.20829" lon="5.7316">
        <ele>523</ele>
        <time>2021-09-16T04:29:39.000Z</time>
      </trkpt>
      <trkpt lat="45.20829" lon="5.73162">
        <ele>522.59997558594</ele>
        <time>2021-09-16T04:29:40.000Z</time>
      </trkpt>
      <trkpt lat="45.2083" lon="5.73163">
        <ele>522.20001220703</ele>
        <time>2021-09-16T04:29:41.000Z</time>
      </trkpt>
      <trkpt lat="45.20832" lon="5.73166">
        <ele>521.59997558594</ele>
        <time>2021-09-16T04:29:43.000Z</time>
      </trkpt>
      <trkpt lat="45.20833" lon="5.73169">
        <ele>521.40002441406</ele>
        <time>2021-09-16T04:29:44.000Z</time>
      </trkpt>
      <trkpt lat="45.20833" lon="5.73171">
        <ele>521.20001220703</ele>
        <time>2021-09-16T04:29:45.000Z</time>
      </trkpt>
      <trkpt lat="45.20836" lon="5.73178">
        <ele>520.40002441406</ele>
        <time>2021-09-16T04:29:48.000Z</time>
      </trkpt>
      <trkpt lat="45.20837" lon="5.73179">
        <ele>520</ele>
        <time>2021-09-16T04:29:49.000Z</time>
      </trkpt>
      <trkpt lat="45.20839" lon="5.73182">
        <ele>519.40002441406</ele>
        <time>2021-09-16T04:29:51.000Z</time>
      </trkpt>
      <trkpt lat="45.20841" lon="5.73185">
        <ele>518.79998779297</ele>
        <time>2021-09-16T04:29:53.000Z</time>
      </trkpt>
      <trkpt lat="45.20845" lon="5.73192">
        <ele>517.40002441406</ele>
        <time>2021-09-16T04:29:56.000Z</time>
      </trkpt>
      <trkpt lat="45.20847" lon="5.73199">
        <ele>516.20001220703</ele>
        <time>2021-09-16T04:29:59.000Z</time>
      </trkpt>
      <trkpt lat="45.20849" lon="5.732">
        <ele>516</ele>
        <time>2021-09-16T04:30:00.000Z</time>
      </trkpt>
      <trkpt lat="45.2085" lon="5.73205">
        <ele>515.79998779297</ele>
        <time>2021-09-16T04:30:02.000Z</time>
      </trkpt>
      <trkpt lat="45.20855" lon="5.73216">
        <ele>515.20001220703</ele>
        <time>2021-09-16T04:30:05.000Z</time>
      </trkpt>
      <trkpt lat="45.20856" lon="5.73218">
        <ele>515.20001220703</ele>
        <time>2021-09-16T04:30:06.000Z</time>
      </trkpt>
      <trkpt lat="45.20861" lon="5.73229">
        <ele>514.20001220703</ele>
        <time>2021-09-16T04:30:11.000Z</time>
      </trkpt>
      <trkpt lat="45.20864" lon="5.73232">
        <ele>513.79998779297</ele>
        <time>2021-09-16T04:30:13.000Z</time>
      </trkpt>
      <trkpt lat="45.20871" lon="5.73248">
        <ele>513.20001220703</ele>
        <time>2021-09-16T04:30:19.000Z</time>
      </trkpt>
      <trkpt lat="45.20877" lon="5.73256">
        <ele>513.59997558594</ele>
        <time>2021-09-16T04:30:24.000Z</time>
      </trkpt>
      <trkpt lat="45.20878" lon="5.7326">
        <ele>513.79998779297</ele>
        <time>2021-09-16T04:30:26.000Z</time>
      </trkpt>
      <trkpt lat="45.20881" lon="5.73264">
        <ele>514.40002441406</ele>
        <time>2021-09-16T04:30:29.000Z</time>
      </trkpt>
      <trkpt lat="45.20882" lon="5.73267">
        <ele>514.79998779297</ele>
        <time>2021-09-16T04:30:32.000Z</time>
      </trkpt>
      <trkpt lat="45.20882" lon="5.73268">
        <ele>515</ele>
        <time>2021-09-16T04:30:33.000Z</time>
      </trkpt>
      <trkpt lat="45.20883" lon="5.73269">
        <ele>515</ele>
        <time>2021-09-16T04:30:34.000Z</time>
      </trkpt>
      <trkpt lat="45.20886" lon="5.7327">
        <ele>515.20001220703</ele>
        <time>2021-09-16T04:30:37.000Z</time>
      </trkpt>
      <trkpt lat="45.20886" lon="5.73271">
        <ele>515.40002441406</ele>
        <time>2021-09-16T04:30:38.000Z</time>
      </trkpt>
      <trkpt lat="45.2089" lon="5.73273">
        <ele>516.40002441406</ele>
        <time>2021-09-16T04:30:43.000Z</time>
      </trkpt>
      <trkpt lat="45.20893" lon="5.73275">
        <ele>517.59997558594</ele>
        <time>2021-09-16T04:30:46.000Z</time>
      </trkpt>
      <trkpt lat="45.20893" lon="5.73275">
        <ele>518</ele>
        <time>2021-09-16T04:30:47.000Z</time>
      </trkpt>
      <trkpt lat="45.20893" lon="5.73274">
        <ele>518.20001220703</ele>
        <time>2021-09-16T04:30:48.000Z</time>
      </trkpt>
      <trkpt lat="45.20892" lon="5.73274">
        <ele>518.59997558594</ele>
        <time>2021-09-16T04:30:49.000Z</time>
      </trkpt>
      <trkpt lat="45.20893" lon="5.73273">
        <ele>518.79998779297</ele>
        <time>2021-09-16T04:30:50.000Z</time>
      </trkpt>
      <trkpt lat="45.20893" lon="5.73272">
        <ele>519.20001220703</ele>
        <time>2021-09-16T04:30:51.000Z</time>
      </trkpt>
      <trkpt lat="45.20893" lon="5.73271">
        <ele>519.79998779297</ele>
        <time>2021-09-16T04:30:53.000Z</time>
      </trkpt>
      <trkpt lat="45.20893" lon="5.7327">
        <ele>519.79998779297</ele>
        <time>2021-09-16T04:30:54.000Z</time>
      </trkpt>
      <trkpt lat="45.20894" lon="5.73268">
        <ele>520.40002441406</ele>
        <time>2021-09-16T04:30:56.000Z</time>
      </trkpt>
      <trkpt lat="45.20895" lon="5.73267">
        <ele>521.20001220703</ele>
        <time>2021-09-16T04:30:58.000Z</time>
      </trkpt>
      <trkpt lat="45.20895" lon="5.73266">
        <ele>522</ele>
        <time>2021-09-16T04:31:01.000Z</time>
      </trkpt>
      <trkpt lat="45.20895" lon="5.73266">
        <ele>522.40002441406</ele>
        <time>2021-09-16T04:31:02.000Z</time>
      </trkpt>
      <trkpt lat="45.20895" lon="5.73266">
        <ele>522.40002441406</ele>
        <time>2021-09-16T04:31:03.000Z</time>
      </trkpt>
      <trkpt lat="45.20896" lon="5.73265">
        <ele>522.59997558594</ele>
        <time>2021-09-16T04:31:04.000Z</time>
      </trkpt>
      <trkpt lat="45.20896" lon="5.73264">
        <ele>523</ele>
        <time>2021-09-16T04:31:06.000Z</time>
      </trkpt>
      <trkpt lat="45.20897" lon="5.73264">
        <ele>523.59997558594</ele>
        <time>2021-09-16T04:31:07.000Z</time>
      </trkpt>
      <trkpt lat="45.20897" lon="5.73263">
        <ele>524.40002441406</ele>
        <time>2021-09-16T04:31:09.000Z</time>
      </trkpt>
      <trkpt lat="45.20898" lon="5.73263">
        <ele>524.59997558594</ele>
        <time>2021-09-16T04:31:10.000Z</time>
      </trkpt>
      <trkpt lat="45.20899" lon="5.7326">
        <ele>525.20001220703</ele>
        <time>2021-09-16T04:31:13.000Z</time>
      </trkpt>
      <trkpt lat="45.20899" lon="5.73259">
        <ele>525.79998779297</ele>
        <time>2021-09-16T04:31:14.000Z</time>
      </trkpt>
      <trkpt lat="45.20901" lon="5.73257">
        <ele>526.79998779297</ele>
        <time>2021-09-16T04:31:17.000Z</time>
      </trkpt>
      <trkpt lat="45.20901" lon="5.73256">
        <ele>527.20001220703</ele>
        <time>2021-09-16T04:31:19.000Z</time>
      </trkpt>
      <trkpt lat="45.20903" lon="5.73257">
        <ele>528</ele>
        <time>2021-09-16T04:31:21.000Z</time>
      </trkpt>
      <trkpt lat="45.20905" lon="5.73258">
        <ele>528.40002441406</ele>
        <time>2021-09-16T04:31:23.000Z</time>
      </trkpt>
      <trkpt lat="45.20906" lon="5.73255">
        <ele>529.20001220703</ele>
        <time>2021-09-16T04:31:26.000Z</time>
      </trkpt>
      <trkpt lat="45.20907" lon="5.73255">
        <ele>529.79998779297</ele>
        <time>2021-09-16T04:31:28.000Z</time>
      </trkpt>
      <trkpt lat="45.20909" lon="5.73256">
        <ele>530</ele>
        <time>2021-09-16T04:31:29.000Z</time>
      </trkpt>
      <trkpt lat="45.20916" lon="5.73261">
        <ele>529.20001220703</ele>
        <time>2021-09-16T04:31:36.000Z</time>
      </trkpt>
      <trkpt lat="45.2092" lon="5.73262">
        <ele>528</ele>
        <time>2021-09-16T04:31:39.000Z</time>
      </trkpt>
      <trkpt lat="45.20921" lon="5.73263">
        <ele>527.79998779297</ele>
        <time>2021-09-16T04:31:40.000Z</time>
      </trkpt>
      <trkpt lat="45.20927" lon="5.73267">
        <ele>527</ele>
        <time>2021-09-16T04:31:43.000Z</time>
      </trkpt>
      <trkpt lat="45.20933" lon="5.73271">
        <ele>525.59997558594</ele>
        <time>2021-09-16T04:31:47.000Z</time>
      </trkpt>
      <trkpt lat="45.20939" lon="5.7328">
        <ele>524.40002441406</ele>
        <time>2021-09-16T04:31:51.000Z</time>
      </trkpt>
      <trkpt lat="45.20941" lon="5.73282">
        <ele>524.20001220703</ele>
        <time>2021-09-16T04:31:53.000Z</time>
      </trkpt>
      <trkpt lat="45.20943" lon="5.73284">
        <ele>523.59997558594</ele>
        <time>2021-09-16T04:31:55.000Z</time>
      </trkpt>
      <trkpt lat="45.20944" lon="5.73283">
        <ele>523.20001220703</ele>
        <time>2021-09-16T04:31:56.000Z</time>
      </trkpt>
      <trkpt lat="45.20945" lon="5.73283">
        <ele>523</ele>
        <time>2021-09-16T04:31:57.000Z</time>
      </trkpt>
      <trkpt lat="45.20951" lon="5.73283">
        <ele>522.20001220703</ele>
        <time>2021-09-16T04:32:00.000Z</time>
      </trkpt>
      <trkpt lat="45.20955" lon="5.73281">
        <ele>521</ele>
        <time>2021-09-16T04:32:03.000Z</time>
      </trkpt>
      <trkpt lat="45.20957" lon="5.73281">
        <ele>520.59997558594</ele>
        <time>2021-09-16T04:32:04.000Z</time>
      </trkpt>
      <trkpt lat="45.20962" lon="5.73282">
        <ele>519.79998779297</ele>
        <time>2021-09-16T04:32:07.000Z</time>
      </trkpt>
      <trkpt lat="45.20967" lon="5.73285">
        <ele>519.40002441406</ele>
        <time>2021-09-16T04:32:09.000Z</time>
      </trkpt>
      <trkpt lat="45.2097" lon="5.73287">
        <ele>518.59997558594</ele>
        <time>2021-09-16T04:32:11.000Z</time>
      </trkpt>
      <trkpt lat="45.20974" lon="5.73288">
        <ele>517.59997558594</ele>
        <time>2021-09-16T04:32:14.000Z</time>
      </trkpt>
      <trkpt lat="45.20975" lon="5.73289">
        <ele>517.59997558594</ele>
        <time>2021-09-16T04:32:15.000Z</time>
      </trkpt>
      <trkpt lat="45.20978" lon="5.73291">
        <ele>517</ele>
        <time>2021-09-16T04:32:17.000Z</time>
      </trkpt>
      <trkpt lat="45.20982" lon="5.73292">
        <ele>516.59997558594</ele>
        <time>2021-09-16T04:32:19.000Z</time>
      </trkpt>
      <trkpt lat="45.20983" lon="5.73294">
        <ele>516.20001220703</ele>
        <time>2021-09-16T04:32:20.000Z</time>
      </trkpt>
      <trkpt lat="45.20983" lon="5.73296">
        <ele>515.59997558594</ele>
        <time>2021-09-16T04:32:22.000Z</time>
      </trkpt>
      <trkpt lat="45.20981" lon="5.73297">
        <ele>515.20001220703</ele>
        <time>2021-09-16T04:32:23.000Z</time>
      </trkpt>
      <trkpt lat="45.20979" lon="5.73299">
        <ele>514.79998779297</ele>
        <time>2021-09-16T04:32:25.000Z</time>
      </trkpt>
      <trkpt lat="45.20977" lon="5.73299">
        <ele>514.20001220703</ele>
        <time>2021-09-16T04:32:27.000Z</time>
      </trkpt>
      <trkpt lat="45.20976" lon="5.73299">
        <ele>513.79998779297</ele>
        <time>2021-09-16T04:32:28.000Z</time>
      </trkpt>
      <trkpt lat="45.20975" lon="5.73299">
        <ele>513.59997558594</ele>
        <time>2021-09-16T04:32:29.000Z</time>
      </trkpt>
      <trkpt lat="45.20974" lon="5.73299">
        <ele>513.40002441406</ele>
        <time>2021-09-16T04:32:30.000Z</time>
      </trkpt>
      <trkpt lat="45.20972" lon="5.73298">
        <ele>512.79998779297</ele>
        <time>2021-09-16T04:32:31.000Z</time>
      </trkpt>
      <trkpt lat="45.20971" lon="5.73299">
        <ele>512.59997558594</ele>
        <time>2021-09-16T04:32:32.000Z</time>
      </trkpt>
      <trkpt lat="45.20967" lon="5.73302">
        <ele>511.60000610352</ele>
        <time>2021-09-16T04:32:34.000Z</time>
      </trkpt>
      <trkpt lat="45.20962" lon="5.73312">
        <ele>510.39999389648</ele>
        <time>2021-09-16T04:32:38.000Z</time>
      </trkpt>
      <trkpt lat="45.2096" lon="5.73313">
        <ele>510</ele>
        <time>2021-09-16T04:32:39.000Z</time>
      </trkpt>
      <trkpt lat="45.20957" lon="5.73315">
        <ele>509.20001220703</ele>
        <time>2021-09-16T04:32:42.000Z</time>
      </trkpt>
      <trkpt lat="45.20951" lon="5.73316">
        <ele>508.20001220703</ele>
        <time>2021-09-16T04:32:45.000Z</time>
      </trkpt>
      <trkpt lat="45.20948" lon="5.73317">
        <ele>507.79998779297</ele>
        <time>2021-09-16T04:32:47.000Z</time>
      </trkpt>
      <trkpt lat="45.20943" lon="5.73316">
        <ele>507.20001220703</ele>
        <time>2021-09-16T04:32:49.000Z</time>
      </trkpt>
      <trkpt lat="45.20941" lon="5.73316">
        <ele>507</ele>
        <time>2021-09-16T04:32:50.000Z</time>
      </trkpt>
      <trkpt lat="45.20938" lon="5.73316">
        <ele>506.79998779297</ele>
        <time>2021-09-16T04:32:51.000Z</time>
      </trkpt>
      <trkpt lat="45.20934" lon="5.73316">
        <ele>506</ele>
        <time>2021-09-16T04:32:53.000Z</time>
      </trkpt>
      <trkpt lat="45.20927" lon="5.73314">
        <ele>505.20001220703</ele>
        <time>2021-09-16T04:32:56.000Z</time>
      </trkpt>
      <trkpt lat="45.20925" lon="5.73314">
        <ele>504.79998779297</ele>
        <time>2021-09-16T04:32:57.000Z</time>
      </trkpt>
      <trkpt lat="45.20919" lon="5.73316">
        <ele>503.60000610352</ele>
        <time>2021-09-16T04:33:00.000Z</time>
      </trkpt>
      <trkpt lat="45.20916" lon="5.73316">
        <ele>503</ele>
        <time>2021-09-16T04:33:02.000Z</time>
      </trkpt>
      <trkpt lat="45.20915" lon="5.73315">
        <ele>502.60000610352</ele>
        <time>2021-09-16T04:33:03.000Z</time>
      </trkpt>
      <trkpt lat="45.20907" lon="5.73314">
        <ele>501.39999389648</ele>
        <time>2021-09-16T04:33:07.000Z</time>
      </trkpt>
      <trkpt lat="45.20905" lon="5.73315">
        <ele>501.20001220703</ele>
        <time>2021-09-16T04:33:08.000Z</time>
      </trkpt>
      <trkpt lat="45.20897" lon="5.73317">
        <ele>500</ele>
        <time>2021-09-16T04:33:11.000Z</time>
      </trkpt>
      <trkpt lat="45.20892" lon="5.73318">
        <ele>499.20001220703</ele>
        <time>2021-09-16T04:33:13.000Z</time>
      </trkpt>
      <trkpt lat="45.20891" lon="5.73319">
        <ele>498.79998779297</ele>
        <time>2021-09-16T04:33:14.000Z</time>
      </trkpt>
      <trkpt lat="45.20887" lon="5.7332">
        <ele>498.20001220703</ele>
        <time>2021-09-16T04:33:16.000Z</time>
      </trkpt>
      <trkpt lat="45.20883" lon="5.7332">
        <ele>497.60000610352</ele>
        <time>2021-09-16T04:33:18.000Z</time>
      </trkpt>
      <trkpt lat="45.20881" lon="5.73319">
        <ele>497.39999389648</ele>
        <time>2021-09-16T04:33:19.000Z</time>
      </trkpt>
      <trkpt lat="45.20875" lon="5.73317">
        <ele>496.39999389648</ele>
        <time>2021-09-16T04:33:22.000Z</time>
      </trkpt>
      <trkpt lat="45.2087" lon="5.73317">
        <ele>495.60000610352</ele>
        <time>2021-09-16T04:33:24.000Z</time>
      </trkpt>
      <trkpt lat="45.20868" lon="5.73317">
        <ele>495.39999389648</ele>
        <time>2021-09-16T04:33:25.000Z</time>
      </trkpt>
      <trkpt lat="45.20864" lon="5.73317">
        <ele>494.60000610352</ele>
        <time>2021-09-16T04:33:27.000Z</time>
      </trkpt>
      <trkpt lat="45.20863" lon="5.73315">
        <ele>494</ele>
        <time>2021-09-16T04:33:28.000Z</time>
      </trkpt>
      <trkpt lat="45.20857" lon="5.73309">
        <ele>492.79998779297</ele>
        <time>2021-09-16T04:33:32.000Z</time>
      </trkpt>
      <trkpt lat="45.20856" lon="5.73307">
        <ele>492.60000610352</ele>
        <time>2021-09-16T04:33:33.000Z</time>
      </trkpt>
      <trkpt lat="45.20854" lon="5.73303">
        <ele>492.39999389648</ele>
        <time>2021-09-16T04:33:34.000Z</time>
      </trkpt>
      <trkpt lat="45.2085" lon="5.73288">
        <ele>492.79998779297</ele>
        <time>2021-09-16T04:33:40.000Z</time>
      </trkpt>
      <trkpt lat="45.20843" lon="5.7327">
        <ele>493</ele>
        <time>2021-09-16T04:33:47.000Z</time>
      </trkpt>
      <trkpt lat="45.20837" lon="5.73256">
        <ele>493.20001220703</ele>
        <time>2021-09-16T04:33:52.000Z</time>
      </trkpt>
      <trkpt lat="45.20831" lon="5.73244">
        <ele>493.79998779297</ele>
        <time>2021-09-16T04:33:56.000Z</time>
      </trkpt>
      <trkpt lat="45.20828" lon="5.73241">
        <ele>494</ele>
        <time>2021-09-16T04:33:58.000Z</time>
      </trkpt>
      <trkpt lat="45.20825" lon="5.73238">
        <ele>495</ele>
        <time>2021-09-16T04:34:01.000Z</time>
      </trkpt>
      <trkpt lat="45.20822" lon="5.73234">
        <ele>495.60000610352</ele>
        <time>2021-09-16T04:34:03.000Z</time>
      </trkpt>
      <trkpt lat="45.20821" lon="5.73233">
        <ele>495.79998779297</ele>
        <time>2021-09-16T04:34:04.000Z</time>
      </trkpt>
      <trkpt lat="45.2082" lon="5.73231">
        <ele>496</ele>
        <time>2021-09-16T04:34:05.000Z</time>
      </trkpt>
      <trkpt lat="45.20816" lon="5.73223">
        <ele>496.79998779297</ele>
        <time>2021-09-16T04:34:09.000Z</time>
      </trkpt>
      <trkpt lat="45.20815" lon="5.73222">
        <ele>497</ele>
        <time>2021-09-16T04:34:10.000Z</time>
      </trkpt>
      <trkpt lat="45.20814" lon="5.7322">
        <ele>497.20001220703</ele>
        <time>2021-09-16T04:34:11.000Z</time>
      </trkpt>
      <trkpt lat="45.2081" lon="5.73214">
        <ele>497.60000610352</ele>
        <time>2021-09-16T04:34:15.000Z</time>
      </trkpt>
      <trkpt lat="45.20808" lon="5.7321">
        <ele>498.20001220703</ele>
        <time>2021-09-16T04:34:18.000Z</time>
      </trkpt>
      <trkpt lat="45.20805" lon="5.73203">
        <ele>498.39999389648</ele>
        <time>2021-09-16T04:34:20.000Z</time>
      </trkpt>
      <trkpt lat="45.20804" lon="5.732">
        <ele>498.60000610352</ele>
        <time>2021-09-16T04:34:21.000Z</time>
      </trkpt>
      <trkpt lat="45.20799" lon="5.73189">
        <ele>499.39999389648</ele>
        <time>2021-09-16T04:34:25.000Z</time>
      </trkpt>
      <trkpt lat="45.20797" lon="5.73184">
        <ele>499.79998779297</ele>
        <time>2021-09-16T04:34:28.000Z</time>
      </trkpt>
      <trkpt lat="45.20796" lon="5.73181">
        <ele>500</ele>
        <time>2021-09-16T04:34:29.000Z</time>
      </trkpt>
      <trkpt lat="45.20795" lon="5.7318">
        <ele>500.39999389648</ele>
        <time>2021-09-16T04:34:30.000Z</time>
      </trkpt>
      <trkpt lat="45.20792" lon="5.73173">
        <ele>501.20001220703</ele>
        <time>2021-09-16T04:34:33.000Z</time>
      </trkpt>
      <trkpt lat="45.20792" lon="5.73171">
        <ele>501.39999389648</ele>
        <time>2021-09-16T04:34:34.000Z</time>
      </trkpt>
      <trkpt lat="45.20788" lon="5.73162">
        <ele>502.60000610352</ele>
        <time>2021-09-16T04:34:38.000Z</time>
      </trkpt>
      <trkpt lat="45.20788" lon="5.7316">
        <ele>502.79998779297</ele>
        <time>2021-09-16T04:34:39.000Z</time>
      </trkpt>
      <trkpt lat="45.20789" lon="5.73159">
        <ele>503.20001220703</ele>
        <time>2021-09-16T04:34:40.000Z</time>
      </trkpt>
      <trkpt lat="45.20788" lon="5.73158">
        <ele>503.60000610352</ele>
        <time>2021-09-16T04:34:41.000Z</time>
      </trkpt>
      <trkpt lat="45.20788" lon="5.73157">
        <ele>504</ele>
        <time>2021-09-16T04:34:42.000Z</time>
      </trkpt>
      <trkpt lat="45.20787" lon="5.7315">
        <ele>505.39999389648</ele>
        <time>2021-09-16T04:34:46.000Z</time>
      </trkpt>
      <trkpt lat="45.20785" lon="5.73148">
        <ele>506</ele>
        <time>2021-09-16T04:34:48.000Z</time>
      </trkpt>
      <trkpt lat="45.20784" lon="5.73147">
        <ele>506.60000610352</ele>
        <time>2021-09-16T04:34:50.000Z</time>
      </trkpt>
      <trkpt lat="45.20784" lon="5.73146">
        <ele>507.20001220703</ele>
        <time>2021-09-16T04:34:51.000Z</time>
      </trkpt>
      <trkpt lat="45.20782" lon="5.73141">
        <ele>507.79998779297</ele>
        <time>2021-09-16T04:34:53.000Z</time>
      </trkpt>
      <trkpt lat="45.20781" lon="5.73138">
        <ele>508</ele>
        <time>2021-09-16T04:34:55.000Z</time>
      </trkpt>
      <trkpt lat="45.20779" lon="5.73137">
        <ele>508.20001220703</ele>
        <time>2021-09-16T04:34:56.000Z</time>
      </trkpt>
      <trkpt lat="45.20775" lon="5.73133">
        <ele>508.79998779297</ele>
        <time>2021-09-16T04:35:00.000Z</time>
      </trkpt>
      <trkpt lat="45.20772" lon="5.73129">
        <ele>509.79998779297</ele>
        <time>2021-09-16T04:35:03.000Z</time>
      </trkpt>
      <trkpt lat="45.20771" lon="5.73128">
        <ele>510</ele>
        <time>2021-09-16T04:35:04.000Z</time>
      </trkpt>
      <trkpt lat="45.20766" lon="5.73125">
        <ele>510.39999389648</ele>
        <time>2021-09-16T04:35:08.000Z</time>
      </trkpt>
      <trkpt lat="45.20764" lon="5.7312">
        <ele>510.60000610352</ele>
        <time>2021-09-16T04:35:10.000Z</time>
      </trkpt>
      <trkpt lat="45.20757" lon="5.73114">
        <ele>511</ele>
        <time>2021-09-16T04:35:16.000Z</time>
      </trkpt>
      <trkpt lat="45.20754" lon="5.73109">
        <ele>511.20001220703</ele>
        <time>2021-09-16T04:35:19.000Z</time>
      </trkpt>
      <trkpt lat="45.20745" lon="5.73102">
        <ele>511.20001220703</ele>
        <time>2021-09-16T04:35:23.000Z</time>
      </trkpt>
      <trkpt lat="45.20742" lon="5.731">
        <ele>511</ele>
        <time>2021-09-16T04:35:25.000Z</time>
      </trkpt>
      <trkpt lat="45.20737" lon="5.73093">
        <ele>510.39999389648</ele>
        <time>2021-09-16T04:35:29.000Z</time>
      </trkpt>
      <trkpt lat="45.20729" lon="5.73086">
        <ele>510.60000610352</ele>
        <time>2021-09-16T04:35:34.000Z</time>
      </trkpt>
      <trkpt lat="45.20719" lon="5.73077">
        <ele>511</ele>
        <time>2021-09-16T04:35:40.000Z</time>
      </trkpt>
      <trkpt lat="45.20717" lon="5.73075">
        <ele>511</ele>
        <time>2021-09-16T04:35:41.000Z</time>
      </trkpt>
      <trkpt lat="45.20713" lon="5.73071">
        <ele>511</ele>
        <time>2021-09-16T04:35:44.000Z</time>
      </trkpt>
      <trkpt lat="45.20705" lon="5.73064">
        <ele>511</ele>
        <time>2021-09-16T04:35:49.000Z</time>
      </trkpt>
      <trkpt lat="45.20702" lon="5.73061">
        <ele>510.60000610352</ele>
        <time>2021-09-16T04:35:51.000Z</time>
      </trkpt>
      <trkpt lat="45.20698" lon="5.73056">
        <ele>510.20001220703</ele>
        <time>2021-09-16T04:35:53.000Z</time>
      </trkpt>
      <trkpt lat="45.20694" lon="5.73052">
        <ele>510</ele>
        <time>2021-09-16T04:35:56.000Z</time>
      </trkpt>
      <trkpt lat="45.20692" lon="5.7305">
        <ele>510</ele>
        <time>2021-09-16T04:35:57.000Z</time>
      </trkpt>
      <trkpt lat="45.2068" lon="5.7304">
        <ele>508.79998779297</ele>
        <time>2021-09-16T04:36:02.000Z</time>
      </trkpt>
      <trkpt lat="45.2067" lon="5.73029">
        <ele>508</ele>
        <time>2021-09-16T04:36:08.000Z</time>
      </trkpt>
      <trkpt lat="45.20668" lon="5.73027">
        <ele>507.79998779297</ele>
        <time>2021-09-16T04:36:09.000Z</time>
      </trkpt>
      <trkpt lat="45.20656" lon="5.73014">
        <ele>507.79998779297</ele>
        <time>2021-09-16T04:36:15.000Z</time>
      </trkpt>
      <trkpt lat="45.20644" lon="5.73002">
        <ele>507.79998779297</ele>
        <time>2021-09-16T04:36:23.000Z</time>
      </trkpt>
      <trkpt lat="45.20643" lon="5.73001">
        <ele>507.79998779297</ele>
        <time>2021-09-16T04:36:24.000Z</time>
      </trkpt>
      <trkpt lat="45.20636" lon="5.72994">
        <ele>507.39999389648</ele>
        <time>2021-09-16T04:36:29.000Z</time>
      </trkpt>
      <trkpt lat="45.20631" lon="5.72989">
        <ele>507.39999389648</ele>
        <time>2021-09-16T04:36:32.000Z</time>
      </trkpt>
      <trkpt lat="45.20629" lon="5.72986">
        <ele>507.60000610352</ele>
        <time>2021-09-16T04:36:34.000Z</time>
      </trkpt>
      <trkpt lat="45.20623" lon="5.72982">
        <ele>507.60000610352</ele>
        <time>2021-09-16T04:36:37.000Z</time>
      </trkpt>
      <trkpt lat="45.20617" lon="5.72976">
        <ele>507.79998779297</ele>
        <time>2021-09-16T04:36:42.000Z</time>
      </trkpt>
      <trkpt lat="45.20615" lon="5.72975">
        <ele>507.60000610352</ele>
        <time>2021-09-16T04:36:43.000Z</time>
      </trkpt>
      <trkpt lat="45.20601" lon="5.72967">
        <ele>507</ele>
        <time>2021-09-16T04:36:50.000Z</time>
      </trkpt>
      <trkpt lat="45.20593" lon="5.7296">
        <ele>507.20001220703</ele>
        <time>2021-09-16T04:36:55.000Z</time>
      </trkpt>
      <trkpt lat="45.20592" lon="5.72958">
        <ele>507.20001220703</ele>
        <time>2021-09-16T04:36:56.000Z</time>
      </trkpt>
      <trkpt lat="45.20577" lon="5.72949">
        <ele>507.79998779297</ele>
        <time>2021-09-16T04:37:04.000Z</time>
      </trkpt>
      <trkpt lat="45.20574" lon="5.72943">
        <ele>507.79998779297</ele>
        <time>2021-09-16T04:37:07.000Z</time>
      </trkpt>
      <trkpt lat="45.20571" lon="5.7294">
        <ele>508.20001220703</ele>
        <time>2021-09-16T04:37:09.000Z</time>
      </trkpt>
      <trkpt lat="45.20567" lon="5.72938">
        <ele>508.20001220703</ele>
        <time>2021-09-16T04:37:11.000Z</time>
      </trkpt>
      <trkpt lat="45.20563" lon="5.72934">
        <ele>508.39999389648</ele>
        <time>2021-09-16T04:37:13.000Z</time>
      </trkpt>
      <trkpt lat="45.20561" lon="5.72933">
        <ele>508.39999389648</ele>
        <time>2021-09-16T04:37:14.000Z</time>
      </trkpt>
      <trkpt lat="45.20549" lon="5.72926">
        <ele>508.79998779297</ele>
        <time>2021-09-16T04:37:20.000Z</time>
      </trkpt>
      <trkpt lat="45.20545" lon="5.72923">
        <ele>508.79998779297</ele>
        <time>2021-09-16T04:37:22.000Z</time>
      </trkpt>
      <trkpt lat="45.20532" lon="5.72914">
        <ele>509</ele>
        <time>2021-09-16T04:37:28.000Z</time>
      </trkpt>
      <trkpt lat="45.20526" lon="5.72909">
        <ele>509.20001220703</ele>
        <time>2021-09-16T04:37:30.000Z</time>
      </trkpt>
      <trkpt lat="45.2052" lon="5.729">
        <ele>509.39999389648</ele>
        <time>2021-09-16T04:37:33.000Z</time>
      </trkpt>
      <trkpt lat="45.20518" lon="5.72898">
        <ele>509.60000610352</ele>
        <time>2021-09-16T04:37:34.000Z</time>
      </trkpt>
      <trkpt lat="45.20516" lon="5.72896">
        <ele>509.79998779297</ele>
        <time>2021-09-16T04:37:35.000Z</time>
      </trkpt>
      <trkpt lat="45.20515" lon="5.72893">
        <ele>510.20001220703</ele>
        <time>2021-09-16T04:37:36.000Z</time>
      </trkpt>
      <trkpt lat="45.2051" lon="5.72887">
        <ele>511</ele>
        <time>2021-09-16T04:37:39.000Z</time>
      </trkpt>
      <trkpt lat="45.20507" lon="5.72884">
        <ele>511.79998779297</ele>
        <time>2021-09-16T04:37:42.000Z</time>
      </trkpt>
      <trkpt lat="45.20506" lon="5.72883">
        <ele>511.79998779297</ele>
        <time>2021-09-16T04:37:43.000Z</time>
      </trkpt>
      <trkpt lat="45.20504" lon="5.72882">
        <ele>512</ele>
        <time>2021-09-16T04:37:44.000Z</time>
      </trkpt>
      <trkpt lat="45.20503" lon="5.72882">
        <ele>512</ele>
        <time>2021-09-16T04:37:45.000Z</time>
      </trkpt>
      <trkpt lat="45.205" lon="5.72879">
        <ele>512.20001220703</ele>
        <time>2021-09-16T04:37:47.000Z</time>
      </trkpt>
      <trkpt lat="45.20496" lon="5.72874">
        <ele>512.59997558594</ele>
        <time>2021-09-16T04:37:49.000Z</time>
      </trkpt>
      <trkpt lat="45.20492" lon="5.72871">
        <ele>512.79998779297</ele>
        <time>2021-09-16T04:37:51.000Z</time>
      </trkpt>
      <trkpt lat="45.20487" lon="5.72867">
        <ele>512.79998779297</ele>
        <time>2021-09-16T04:37:53.000Z</time>
      </trkpt>
      <trkpt lat="45.20483" lon="5.72865">
        <ele>513.20001220703</ele>
        <time>2021-09-16T04:37:55.000Z</time>
      </trkpt>
      <trkpt lat="45.2048" lon="5.72864">
        <ele>513</ele>
        <time>2021-09-16T04:37:56.000Z</time>
      </trkpt>
      <trkpt lat="45.20473" lon="5.72857">
        <ele>513</ele>
        <time>2021-09-16T04:37:59.000Z</time>
      </trkpt>
      <trkpt lat="45.20467" lon="5.72851">
        <ele>512.59997558594</ele>
        <time>2021-09-16T04:38:02.000Z</time>
      </trkpt>
      <trkpt lat="45.20462" lon="5.72847">
        <ele>512</ele>
        <time>2021-09-16T04:38:05.000Z</time>
      </trkpt>
      <trkpt lat="45.20456" lon="5.72841">
        <ele>511.60000610352</ele>
        <time>2021-09-16T04:38:08.000Z</time>
      </trkpt>
      <trkpt lat="45.2045" lon="5.72836">
        <ele>510.79998779297</ele>
        <time>2021-09-16T04:38:11.000Z</time>
      </trkpt>
      <trkpt lat="45.20443" lon="5.72831">
        <ele>510.60000610352</ele>
        <time>2021-09-16T04:38:14.000Z</time>
      </trkpt>
      <trkpt lat="45.20439" lon="5.72827">
        <ele>510.39999389648</ele>
        <time>2021-09-16T04:38:16.000Z</time>
      </trkpt>
      <trkpt lat="45.20433" lon="5.72821">
        <ele>509.79998779297</ele>
        <time>2021-09-16T04:38:19.000Z</time>
      </trkpt>
      <trkpt lat="45.20431" lon="5.72818">
        <ele>509.79998779297</ele>
        <time>2021-09-16T04:38:20.000Z</time>
      </trkpt>
      <trkpt lat="45.20429" lon="5.72816">
        <ele>509.60000610352</ele>
        <time>2021-09-16T04:38:21.000Z</time>
      </trkpt>
      <trkpt lat="45.20423" lon="5.72807">
        <ele>508.60000610352</ele>
        <time>2021-09-16T04:38:25.000Z</time>
      </trkpt>
      <trkpt lat="45.20422" lon="5.72806">
        <ele>508.39999389648</ele>
        <time>2021-09-16T04:38:26.000Z</time>
      </trkpt>
      <trkpt lat="45.20415" lon="5.72798">
        <ele>507.39999389648</ele>
        <time>2021-09-16T04:38:29.000Z</time>
      </trkpt>
      <trkpt lat="45.20408" lon="5.72788">
        <ele>506.39999389648</ele>
        <time>2021-09-16T04:38:33.000Z</time>
      </trkpt>
      <trkpt lat="45.20404" lon="5.72785">
        <ele>505.79998779297</ele>
        <time>2021-09-16T04:38:35.000Z</time>
      </trkpt>
      <trkpt lat="45.20401" lon="5.72782">
        <ele>505.20001220703</ele>
        <time>2021-09-16T04:38:37.000Z</time>
      </trkpt>
      <trkpt lat="45.2039" lon="5.72777">
        <ele>504.20001220703</ele>
        <time>2021-09-16T04:38:42.000Z</time>
      </trkpt>
      <trkpt lat="45.20389" lon="5.72777">
        <ele>504</ele>
        <time>2021-09-16T04:38:43.000Z</time>
      </trkpt>
      <trkpt lat="45.2038" lon="5.72772">
        <ele>502.79998779297</ele>
        <time>2021-09-16T04:38:47.000Z</time>
      </trkpt>
      <trkpt lat="45.20376" lon="5.72769">
        <ele>502.60000610352</ele>
        <time>2021-09-16T04:38:48.000Z</time>
      </trkpt>
      <trkpt lat="45.20367" lon="5.72766">
        <ele>502</ele>
        <time>2021-09-16T04:38:51.000Z</time>
      </trkpt>
      <trkpt lat="45.20366" lon="5.72764">
        <ele>501.79998779297</ele>
        <time>2021-09-16T04:38:52.000Z</time>
      </trkpt>
      <trkpt lat="45.2036" lon="5.72755">
        <ele>500.60000610352</ele>
        <time>2021-09-16T04:38:56.000Z</time>
      </trkpt>
      <trkpt lat="45.20354" lon="5.72751">
        <ele>499.79998779297</ele>
        <time>2021-09-16T04:38:59.000Z</time>
      </trkpt>
      <trkpt lat="45.20352" lon="5.7275">
        <ele>499.60000610352</ele>
        <time>2021-09-16T04:39:00.000Z</time>
      </trkpt>
      <trkpt lat="45.20346" lon="5.72748">
        <ele>499</ele>
        <time>2021-09-16T04:39:03.000Z</time>
      </trkpt>
      <trkpt lat="45.20341" lon="5.72745">
        <ele>498.60000610352</ele>
        <time>2021-09-16T04:39:05.000Z</time>
      </trkpt>
      <trkpt lat="45.2033" lon="5.72738">
        <ele>498</ele>
        <time>2021-09-16T04:39:09.000Z</time>
      </trkpt>
      <trkpt lat="45.20325" lon="5.72733">
        <ele>497.79998779297</ele>
        <time>2021-09-16T04:39:11.000Z</time>
      </trkpt>
      <trkpt lat="45.20318" lon="5.72726">
        <ele>497.60000610352</ele>
        <time>2021-09-16T04:39:15.000Z</time>
      </trkpt>
      <trkpt lat="45.20313" lon="5.72721">
        <ele>497.39999389648</ele>
        <time>2021-09-16T04:39:18.000Z</time>
      </trkpt>
      <trkpt lat="45.203" lon="5.7271">
        <ele>496.60000610352</ele>
        <time>2021-09-16T04:39:24.000Z</time>
      </trkpt>
      <trkpt lat="45.20297" lon="5.72709">
        <ele>496.39999389648</ele>
        <time>2021-09-16T04:39:25.000Z</time>
      </trkpt>
      <trkpt lat="45.20293" lon="5.72705">
        <ele>495.60000610352</ele>
        <time>2021-09-16T04:39:27.000Z</time>
      </trkpt>
      <trkpt lat="45.20291" lon="5.72703">
        <ele>495.20001220703</ele>
        <time>2021-09-16T04:39:28.000Z</time>
      </trkpt>
      <trkpt lat="45.20289" lon="5.72701">
        <ele>495</ele>
        <time>2021-09-16T04:39:29.000Z</time>
      </trkpt>
      <trkpt lat="45.20285" lon="5.72695">
        <ele>494.39999389648</ele>
        <time>2021-09-16T04:39:32.000Z</time>
      </trkpt>
      <trkpt lat="45.20283" lon="5.72693">
        <ele>494</ele>
        <time>2021-09-16T04:39:33.000Z</time>
      </trkpt>
      <trkpt lat="45.20281" lon="5.72689">
        <ele>493.79998779297</ele>
        <time>2021-09-16T04:39:34.000Z</time>
      </trkpt>
      <trkpt lat="45.20276" lon="5.72682">
        <ele>493.60000610352</ele>
        <time>2021-09-16T04:39:36.000Z</time>
      </trkpt>
      <trkpt lat="45.20272" lon="5.72677">
        <ele>493.60000610352</ele>
        <time>2021-09-16T04:39:38.000Z</time>
      </trkpt>
      <trkpt lat="45.20266" lon="5.72669">
        <ele>494.79998779297</ele>
        <time>2021-09-16T04:39:43.000Z</time>
      </trkpt>
      <trkpt lat="45.20264" lon="5.72668">
        <ele>495.39999389648</ele>
        <time>2021-09-16T04:39:44.000Z</time>
      </trkpt>
      <trkpt lat="45.2026" lon="5.72663">
        <ele>496.39999389648</ele>
        <time>2021-09-16T04:39:47.000Z</time>
      </trkpt>
      <trkpt lat="45.20253" lon="5.72658">
        <ele>497.60000610352</ele>
        <time>2021-09-16T04:39:51.000Z</time>
      </trkpt>
      <trkpt lat="45.20252" lon="5.72657">
        <ele>497.79998779297</ele>
        <time>2021-09-16T04:39:52.000Z</time>
      </trkpt>
      <trkpt lat="45.20247" lon="5.72655">
        <ele>498.79998779297</ele>
        <time>2021-09-16T04:39:55.000Z</time>
      </trkpt>
      <trkpt lat="45.20241" lon="5.7265">
        <ele>499.79998779297</ele>
        <time>2021-09-16T04:39:59.000Z</time>
      </trkpt>
      <trkpt lat="45.20234" lon="5.72644">
        <ele>501.20001220703</ele>
        <time>2021-09-16T04:40:04.000Z</time>
      </trkpt>
      <trkpt lat="45.20228" lon="5.72639">
        <ele>501.60000610352</ele>
        <time>2021-09-16T04:40:09.000Z</time>
      </trkpt>
      <trkpt lat="45.2022" lon="5.72631">
        <ele>502.20001220703</ele>
        <time>2021-09-16T04:40:15.000Z</time>
      </trkpt>
      <trkpt lat="45.20215" lon="5.72624">
        <ele>503.20001220703</ele>
        <time>2021-09-16T04:40:21.000Z</time>
      </trkpt>
      <trkpt lat="45.20214" lon="5.72623">
        <ele>503.20001220703</ele>
        <time>2021-09-16T04:40:22.000Z</time>
      </trkpt>
      <trkpt lat="45.20209" lon="5.72617">
        <ele>504.39999389648</ele>
        <time>2021-09-16T04:40:27.000Z</time>
      </trkpt>
      <trkpt lat="45.20208" lon="5.72615">
        <ele>504.60000610352</ele>
        <time>2021-09-16T04:40:28.000Z</time>
      </trkpt>
      <trkpt lat="45.20205" lon="5.72614">
        <ele>504.79998779297</ele>
        <time>2021-09-16T04:40:30.000Z</time>
      </trkpt>
      <trkpt lat="45.20203" lon="5.72613">
        <ele>505.20001220703</ele>
        <time>2021-09-16T04:40:32.000Z</time>
      </trkpt>
      <trkpt lat="45.20201" lon="5.72611">
        <ele>505.39999389648</ele>
        <time>2021-09-16T04:40:34.000Z</time>
      </trkpt>
      <trkpt lat="45.202" lon="5.7261">
        <ele>505.60000610352</ele>
        <time>2021-09-16T04:40:35.000Z</time>
      </trkpt>
      <trkpt lat="45.20194" lon="5.72603">
        <ele>506</ele>
        <time>2021-09-16T04:40:40.000Z</time>
      </trkpt>
      <trkpt lat="45.20193" lon="5.72598">
        <ele>506.39999389648</ele>
        <time>2021-09-16T04:40:42.000Z</time>
      </trkpt>
      <trkpt lat="45.20192" lon="5.72596">
        <ele>506.79998779297</ele>
        <time>2021-09-16T04:40:43.000Z</time>
      </trkpt>
      <trkpt lat="45.20185" lon="5.72589">
        <ele>507.20001220703</ele>
        <time>2021-09-16T04:40:47.000Z</time>
      </trkpt>
      <trkpt lat="45.20171" lon="5.72582">
        <ele>505.39999389648</ele>
        <time>2021-09-16T04:40:53.000Z</time>
      </trkpt>
      <trkpt lat="45.20169" lon="5.7258">
        <ele>505</ele>
        <time>2021-09-16T04:40:54.000Z</time>
      </trkpt>
      <trkpt lat="45.20163" lon="5.72575">
        <ele>504.39999389648</ele>
        <time>2021-09-16T04:40:57.000Z</time>
      </trkpt>
      <trkpt lat="45.20154" lon="5.72572">
        <ele>503.39999389648</ele>
        <time>2021-09-16T04:41:01.000Z</time>
      </trkpt>
      <trkpt lat="45.20152" lon="5.72571">
        <ele>503</ele>
        <time>2021-09-16T04:41:02.000Z</time>
      </trkpt>
      <trkpt lat="45.20142" lon="5.72566">
        <ele>502</ele>
        <time>2021-09-16T04:41:06.000Z</time>
      </trkpt>
      <trkpt lat="45.20136" lon="5.72564">
        <ele>500.79998779297</ele>
        <time>2021-09-16T04:41:09.000Z</time>
      </trkpt>
      <trkpt lat="45.20129" lon="5.72562">
        <ele>499.79998779297</ele>
        <time>2021-09-16T04:41:12.000Z</time>
      </trkpt>
      <trkpt lat="45.20127" lon="5.7256">
        <ele>499.39999389648</ele>
        <time>2021-09-16T04:41:13.000Z</time>
      </trkpt>
      <trkpt lat="45.20121" lon="5.72556">
        <ele>498.39999389648</ele>
        <time>2021-09-16T04:41:17.000Z</time>
      </trkpt>
      <trkpt lat="45.20118" lon="5.72555">
        <ele>497.60000610352</ele>
        <time>2021-09-16T04:41:19.000Z</time>
      </trkpt>
      <trkpt lat="45.20116" lon="5.72555">
        <ele>497.20001220703</ele>
        <time>2021-09-16T04:41:20.000Z</time>
      </trkpt>
      <trkpt lat="45.20113" lon="5.72554">
        <ele>496.20001220703</ele>
        <time>2021-09-16T04:41:22.000Z</time>
      </trkpt>
      <trkpt lat="45.2011" lon="5.72552">
        <ele>496</ele>
        <time>2021-09-16T04:41:23.000Z</time>
      </trkpt>
      <trkpt lat="45.20106" lon="5.7255">
        <ele>495.39999389648</ele>
        <time>2021-09-16T04:41:25.000Z</time>
      </trkpt>
      <trkpt lat="45.20104" lon="5.7255">
        <ele>494.79998779297</ele>
        <time>2021-09-16T04:41:26.000Z</time>
      </trkpt>
      <trkpt lat="45.20098" lon="5.72551">
        <ele>493.60000610352</ele>
        <time>2021-09-16T04:41:29.000Z</time>
      </trkpt>
      <trkpt lat="45.20096" lon="5.72551">
        <ele>492.79998779297</ele>
        <time>2021-09-16T04:41:30.000Z</time>
      </trkpt>
      <trkpt lat="45.20093" lon="5.72551">
        <ele>492.20001220703</ele>
        <time>2021-09-16T04:41:31.000Z</time>
      </trkpt>
      <trkpt lat="45.20085" lon="5.72552">
        <ele>491</ele>
        <time>2021-09-16T04:41:34.000Z</time>
      </trkpt>
      <trkpt lat="45.20078" lon="5.72558">
        <ele>489.60000610352</ele>
        <time>2021-09-16T04:41:37.000Z</time>
      </trkpt>
      <trkpt lat="45.20076" lon="5.72559">
        <ele>489.20001220703</ele>
        <time>2021-09-16T04:41:38.000Z</time>
      </trkpt>
      <trkpt lat="45.20072" lon="5.72563">
        <ele>488.39999389648</ele>
        <time>2021-09-16T04:41:41.000Z</time>
      </trkpt>
      <trkpt lat="45.20071" lon="5.72564">
        <ele>488</ele>
        <time>2021-09-16T04:41:43.000Z</time>
      </trkpt>
      <trkpt lat="45.20071" lon="5.72564">
        <ele>487.39999389648</ele>
        <time>2021-09-16T04:41:44.000Z</time>
      </trkpt>
      <trkpt lat="45.20073" lon="5.72564">
        <ele>487</ele>
        <time>2021-09-16T04:41:51.000Z</time>
      </trkpt>
      <trkpt lat="45.20073" lon="5.72557">
        <ele>487.20001220703</ele>
        <time>2021-09-16T04:42:02.000Z</time>
      </trkpt>
      <trkpt lat="45.2007" lon="5.72545">
        <ele>487.79998779297</ele>
        <time>2021-09-16T04:42:05.000Z</time>
      </trkpt>
      <trkpt lat="45.2007" lon="5.72536">
        <ele>488.20001220703</ele>
        <time>2021-09-16T04:42:07.000Z</time>
      </trkpt>
      <trkpt lat="45.20069" lon="5.72531">
        <ele>488.60000610352</ele>
        <time>2021-09-16T04:42:08.000Z</time>
      </trkpt>
      <trkpt lat="45.2007" lon="5.72517">
        <ele>488.60000610352</ele>
        <time>2021-09-16T04:42:11.000Z</time>
      </trkpt>
      <trkpt lat="45.20071" lon="5.72512">
        <ele>488.60000610352</ele>
        <time>2021-09-16T04:42:12.000Z</time>
      </trkpt>
      <trkpt lat="45.20072" lon="5.72506">
        <ele>488.39999389648</ele>
        <time>2021-09-16T04:42:13.000Z</time>
      </trkpt>
      <trkpt lat="45.20072" lon="5.72503">
        <ele>488.39999389648</ele>
        <time>2021-09-16T04:42:14.000Z</time>
      </trkpt>
      <trkpt lat="45.20075" lon="5.7249">
        <ele>488</ele>
        <time>2021-09-16T04:42:17.000Z</time>
      </trkpt>
      <trkpt lat="45.20076" lon="5.72481">
        <ele>487.79998779297</ele>
        <time>2021-09-16T04:42:19.000Z</time>
      </trkpt>
      <trkpt lat="45.20075" lon="5.72473">
        <ele>487.39999389648</ele>
        <time>2021-09-16T04:42:21.000Z</time>
      </trkpt>
      <trkpt lat="45.20075" lon="5.72468">
        <ele>487</ele>
        <time>2021-09-16T04:42:22.000Z</time>
      </trkpt>
      <trkpt lat="45.20072" lon="5.72449">
        <ele>486.39999389648</ele>
        <time>2021-09-16T04:42:27.000Z</time>
      </trkpt>
      <trkpt lat="45.20065" lon="5.72437">
        <ele>485</ele>
        <time>2021-09-16T04:42:31.000Z</time>
      </trkpt>
      <trkpt lat="45.2006" lon="5.72435">
        <ele>484</ele>
        <time>2021-09-16T04:42:33.000Z</time>
      </trkpt>
      <trkpt lat="45.20056" lon="5.72435">
        <ele>483.60000610352</ele>
        <time>2021-09-16T04:42:34.000Z</time>
      </trkpt>
      <trkpt lat="45.20048" lon="5.72434">
        <ele>482.39999389648</ele>
        <time>2021-09-16T04:42:37.000Z</time>
      </trkpt>
      <trkpt lat="45.20044" lon="5.72434">
        <ele>482.20001220703</ele>
        <time>2021-09-16T04:42:38.000Z</time>
      </trkpt>
      <trkpt lat="45.20041" lon="5.72434">
        <ele>482.20001220703</ele>
        <time>2021-09-16T04:42:39.000Z</time>
      </trkpt>
      <trkpt lat="45.20035" lon="5.72433">
        <ele>480.79998779297</ele>
        <time>2021-09-16T04:42:41.000Z</time>
      </trkpt>
      <trkpt lat="45.20026" lon="5.72433">
        <ele>480</ele>
        <time>2021-09-16T04:42:44.000Z</time>
      </trkpt>
      <trkpt lat="45.2002" lon="5.72432">
        <ele>479.60000610352</ele>
        <time>2021-09-16T04:42:46.000Z</time>
      </trkpt>
      <trkpt lat="45.20008" lon="5.72431">
        <ele>478.60000610352</ele>
        <time>2021-09-16T04:42:50.000Z</time>
      </trkpt>
      <trkpt lat="45.2" lon="5.7243">
        <ele>477.39999389648</ele>
        <time>2021-09-16T04:42:53.000Z</time>
      </trkpt>
      <trkpt lat="45.19994" lon="5.7243">
        <ele>477</ele>
        <time>2021-09-16T04:42:55.000Z</time>
      </trkpt>
      <trkpt lat="45.19985" lon="5.7243">
        <ele>476.20001220703</ele>
        <time>2021-09-16T04:42:58.000Z</time>
      </trkpt>
      <trkpt lat="45.19977" lon="5.72429">
        <ele>475</ele>
        <time>2021-09-16T04:43:01.000Z</time>
      </trkpt>
      <trkpt lat="45.19969" lon="5.72428">
        <ele>474</ele>
        <time>2021-09-16T04:43:04.000Z</time>
      </trkpt>
      <trkpt lat="45.19955" lon="5.72426">
        <ele>472.60000610352</ele>
        <time>2021-09-16T04:43:09.000Z</time>
      </trkpt>
      <trkpt lat="45.19947" lon="5.72427">
        <ele>471.79998779297</ele>
        <time>2021-09-16T04:43:12.000Z</time>
      </trkpt>
      <trkpt lat="45.19936" lon="5.72428">
        <ele>471.39999389648</ele>
        <time>2021-09-16T04:43:16.000Z</time>
      </trkpt>
      <trkpt lat="45.19935" lon="5.72427">
        <ele>471.39999389648</ele>
        <time>2021-09-16T04:43:17.000Z</time>
      </trkpt>
      <trkpt lat="45.19932" lon="5.72426">
        <ele>471.39999389648</ele>
        <time>2021-09-16T04:43:18.000Z</time>
      </trkpt>
      <trkpt lat="45.19917" lon="5.72429">
        <ele>471.60000610352</ele>
        <time>2021-09-16T04:43:23.000Z</time>
      </trkpt>
      <trkpt lat="45.19904" lon="5.72432">
        <ele>472.79998779297</ele>
        <time>2021-09-16T04:43:28.000Z</time>
      </trkpt>
      <trkpt lat="45.19901" lon="5.72433">
        <ele>473</ele>
        <time>2021-09-16T04:43:29.000Z</time>
      </trkpt>
      <trkpt lat="45.19897" lon="5.72436">
        <ele>473.60000610352</ele>
        <time>2021-09-16T04:43:31.000Z</time>
      </trkpt>
      <trkpt lat="45.19897" lon="5.72438">
        <ele>473.60000610352</ele>
        <time>2021-09-16T04:43:32.000Z</time>
      </trkpt>
      <trkpt lat="45.19896" lon="5.72441">
        <ele>473.79998779297</ele>
        <time>2021-09-16T04:43:33.000Z</time>
      </trkpt>
      <trkpt lat="45.19895" lon="5.7245">
        <ele>474.39999389648</ele>
        <time>2021-09-16T04:43:36.000Z</time>
      </trkpt>
      <trkpt lat="45.19895" lon="5.72454">
        <ele>475</ele>
        <time>2021-09-16T04:43:38.000Z</time>
      </trkpt>
      <trkpt lat="45.19895" lon="5.72461">
        <ele>475.60000610352</ele>
        <time>2021-09-16T04:43:41.000Z</time>
      </trkpt>
      <trkpt lat="45.19894" lon="5.72465">
        <ele>475.79998779297</ele>
        <time>2021-09-16T04:43:42.000Z</time>
      </trkpt>
      <trkpt lat="45.19892" lon="5.72476">
        <ele>475.79998779297</ele>
        <time>2021-09-16T04:43:45.000Z</time>
      </trkpt>
      <trkpt lat="45.19886" lon="5.7248">
        <ele>475.60000610352</ele>
        <time>2021-09-16T04:43:47.000Z</time>
      </trkpt>
      <trkpt lat="45.19875" lon="5.72488">
        <ele>475.39999389648</ele>
        <time>2021-09-16T04:43:51.000Z</time>
      </trkpt>
      <trkpt lat="45.19874" lon="5.72488">
        <ele>475.39999389648</ele>
        <time>2021-09-16T04:43:52.000Z</time>
      </trkpt>
      <trkpt lat="45.19872" lon="5.7249">
        <ele>475.20001220703</ele>
        <time>2021-09-16T04:43:54.000Z</time>
      </trkpt>
      <trkpt lat="45.19871" lon="5.72495">
        <ele>474.60000610352</ele>
        <time>2021-09-16T04:43:57.000Z</time>
      </trkpt>
      <trkpt lat="45.19871" lon="5.72513">
        <ele>474</ele>
        <time>2021-09-16T04:44:02.000Z</time>
      </trkpt>
      <trkpt lat="45.19871" lon="5.72517">
        <ele>473.79998779297</ele>
        <time>2021-09-16T04:44:03.000Z</time>
      </trkpt>
      <trkpt lat="45.19871" lon="5.72539">
        <ele>472.60000610352</ele>
        <time>2021-09-16T04:44:09.000Z</time>
      </trkpt>
      <trkpt lat="45.19871" lon="5.72546">
        <ele>472.20001220703</ele>
        <time>2021-09-16T04:44:11.000Z</time>
      </trkpt>
      <trkpt lat="45.19867" lon="5.72546">
        <ele>471.60000610352</ele>
        <time>2021-09-16T04:44:13.000Z</time>
      </trkpt>
      <trkpt lat="45.19866" lon="5.72543">
        <ele>471.20001220703</ele>
        <time>2021-09-16T04:44:14.000Z</time>
      </trkpt>
      <trkpt lat="45.19864" lon="5.72534">
        <ele>470.39999389648</ele>
        <time>2021-09-16T04:44:17.000Z</time>
      </trkpt>
      <trkpt lat="45.19861" lon="5.72518">
        <ele>469.20001220703</ele>
        <time>2021-09-16T04:44:22.000Z</time>
      </trkpt>
      <trkpt lat="45.19859" lon="5.72511">
        <ele>468.60000610352</ele>
        <time>2021-09-16T04:44:24.000Z</time>
      </trkpt>
      <trkpt lat="45.19857" lon="5.72503">
        <ele>468</ele>
        <time>2021-09-16T04:44:26.000Z</time>
      </trkpt>
      <trkpt lat="45.19857" lon="5.725">
        <ele>467.79998779297</ele>
        <time>2021-09-16T04:44:27.000Z</time>
      </trkpt>
      <trkpt lat="45.19855" lon="5.72486">
        <ele>467.20001220703</ele>
        <time>2021-09-16T04:44:31.000Z</time>
      </trkpt>
      <trkpt lat="45.19855" lon="5.72482">
        <ele>466.79998779297</ele>
        <time>2021-09-16T04:44:32.000Z</time>
      </trkpt>
      <trkpt lat="45.19853" lon="5.72467">
        <ele>465.79998779297</ele>
        <time>2021-09-16T04:44:36.000Z</time>
      </trkpt>
      <trkpt lat="45.19852" lon="5.72463">
        <ele>465.39999389648</ele>
        <time>2021-09-16T04:44:37.000Z</time>
      </trkpt>
      <trkpt lat="45.19848" lon="5.72448">
        <ele>464.20001220703</ele>
        <time>2021-09-16T04:44:41.000Z</time>
      </trkpt>
      <trkpt lat="45.19846" lon="5.72445">
        <ele>463.60000610352</ele>
        <time>2021-09-16T04:44:43.000Z</time>
      </trkpt>
      <trkpt lat="45.19844" lon="5.72445">
        <ele>463.20001220703</ele>
        <time>2021-09-16T04:44:44.000Z</time>
      </trkpt>
      <trkpt lat="45.19843" lon="5.72446">
        <ele>463</ele>
        <time>2021-09-16T04:44:45.000Z</time>
      </trkpt>
      <trkpt lat="45.19841" lon="5.72449">
        <ele>462.79998779297</ele>
        <time>2021-09-16T04:44:46.000Z</time>
      </trkpt>
      <trkpt lat="45.19839" lon="5.72453">
        <ele>462.79998779297</ele>
        <time>2021-09-16T04:44:47.000Z</time>
      </trkpt>
      <trkpt lat="45.19836" lon="5.72464">
        <ele>461.60000610352</ele>
        <time>2021-09-16T04:44:50.000Z</time>
      </trkpt>
      <trkpt lat="45.19834" lon="5.72472">
        <ele>461</ele>
        <time>2021-09-16T04:44:52.000Z</time>
      </trkpt>
      <trkpt lat="45.19833" lon="5.72476">
        <ele>460.60000610352</ele>
        <time>2021-09-16T04:44:53.000Z</time>
      </trkpt>
      <trkpt lat="45.19833" lon="5.7248">
        <ele>460.39999389648</ele>
        <time>2021-09-16T04:44:54.000Z</time>
      </trkpt>
      <trkpt lat="45.19831" lon="5.72491">
        <ele>459.20001220703</ele>
        <time>2021-09-16T04:44:57.000Z</time>
      </trkpt>
      <trkpt lat="45.19828" lon="5.72502">
        <ele>458.39999389648</ele>
        <time>2021-09-16T04:45:00.000Z</time>
      </trkpt>
      <trkpt lat="45.19827" lon="5.72506">
        <ele>458</ele>
        <time>2021-09-16T04:45:01.000Z</time>
      </trkpt>
      <trkpt lat="45.19824" lon="5.72521">
        <ele>456.60000610352</ele>
        <time>2021-09-16T04:45:05.000Z</time>
      </trkpt>
      <trkpt lat="45.19824" lon="5.72525">
        <ele>456.39999389648</ele>
        <time>2021-09-16T04:45:06.000Z</time>
      </trkpt>
      <trkpt lat="45.19824" lon="5.72529">
        <ele>455.79998779297</ele>
        <time>2021-09-16T04:45:07.000Z</time>
      </trkpt>
      <trkpt lat="45.19824" lon="5.72533">
        <ele>455.39999389648</ele>
        <time>2021-09-16T04:45:08.000Z</time>
      </trkpt>
      <trkpt lat="45.19825" lon="5.72546">
        <ele>454.39999389648</ele>
        <time>2021-09-16T04:45:11.000Z</time>
      </trkpt>
      <trkpt lat="45.19826" lon="5.72558">
        <ele>453.39999389648</ele>
        <time>2021-09-16T04:45:14.000Z</time>
      </trkpt>
      <trkpt lat="45.19826" lon="5.72561">
        <ele>453.20001220703</ele>
        <time>2021-09-16T04:45:15.000Z</time>
      </trkpt>
      <trkpt lat="45.19828" lon="5.7258">
        <ele>452</ele>
        <time>2021-09-16T04:45:20.000Z</time>
      </trkpt>
      <trkpt lat="45.19829" lon="5.72591">
        <ele>451.20001220703</ele>
        <time>2021-09-16T04:45:23.000Z</time>
      </trkpt>
      <trkpt lat="45.1983" lon="5.72598">
        <ele>451</ele>
        <time>2021-09-16T04:45:25.000Z</time>
      </trkpt>
      <trkpt lat="45.19831" lon="5.72601">
        <ele>450.60000610352</ele>
        <time>2021-09-16T04:45:26.000Z</time>
      </trkpt>
      <trkpt lat="45.19832" lon="5.72605">
        <ele>449.79998779297</ele>
        <time>2021-09-16T04:45:27.000Z</time>
      </trkpt>
      <trkpt lat="45.19833" lon="5.72609">
        <ele>449.60000610352</ele>
        <time>2021-09-16T04:45:28.000Z</time>
      </trkpt>
      <trkpt lat="45.19834" lon="5.72621">
        <ele>448.79998779297</ele>
        <time>2021-09-16T04:45:32.000Z</time>
      </trkpt>
      <trkpt lat="45.19836" lon="5.7263">
        <ele>447.79998779297</ele>
        <time>2021-09-16T04:45:36.000Z</time>
      </trkpt>
      <trkpt lat="45.19836" lon="5.72632">
        <ele>447.39999389648</ele>
        <time>2021-09-16T04:45:37.000Z</time>
      </trkpt>
      <trkpt lat="45.19839" lon="5.72648">
        <ele>446.39999389648</ele>
        <time>2021-09-16T04:45:42.000Z</time>
      </trkpt>
      <trkpt lat="45.19843" lon="5.72654">
        <ele>446</ele>
        <time>2021-09-16T04:45:44.000Z</time>
      </trkpt>
      <trkpt lat="45.19849" lon="5.72665">
        <ele>445.20001220703</ele>
        <time>2021-09-16T04:45:47.000Z</time>
      </trkpt>
      <trkpt lat="45.19854" lon="5.72672">
        <ele>444.60000610352</ele>
        <time>2021-09-16T04:45:49.000Z</time>
      </trkpt>
      <trkpt lat="45.19859" lon="5.7268">
        <ele>444.20001220703</ele>
        <time>2021-09-16T04:45:51.000Z</time>
      </trkpt>
      <trkpt lat="45.19859" lon="5.72683">
        <ele>443.79998779297</ele>
        <time>2021-09-16T04:45:52.000Z</time>
      </trkpt>
      <trkpt lat="45.19857" lon="5.72685">
        <ele>443.39999389648</ele>
        <time>2021-09-16T04:45:53.000Z</time>
      </trkpt>
      <trkpt lat="45.19856" lon="5.72685">
        <ele>443</ele>
        <time>2021-09-16T04:45:54.000Z</time>
      </trkpt>
      <trkpt lat="45.19848" lon="5.72679">
        <ele>442.20001220703</ele>
        <time>2021-09-16T04:45:58.000Z</time>
      </trkpt>
      <trkpt lat="45.19845" lon="5.72677">
        <ele>442</ele>
        <time>2021-09-16T04:45:59.000Z</time>
      </trkpt>
      <trkpt lat="45.19836" lon="5.7267">
        <ele>441.20001220703</ele>
        <time>2021-09-16T04:46:03.000Z</time>
      </trkpt>
      <trkpt lat="45.19833" lon="5.72666">
        <ele>441</ele>
        <time>2021-09-16T04:46:05.000Z</time>
      </trkpt>
      <trkpt lat="45.19825" lon="5.72657">
        <ele>440.20001220703</ele>
        <time>2021-09-16T04:46:09.000Z</time>
      </trkpt>
      <trkpt lat="45.19821" lon="5.72653">
        <ele>439.79998779297</ele>
        <time>2021-09-16T04:46:11.000Z</time>
      </trkpt>
      <trkpt lat="45.19812" lon="5.72646">
        <ele>438.60000610352</ele>
        <time>2021-09-16T04:46:15.000Z</time>
      </trkpt>
      <trkpt lat="45.1981" lon="5.72644">
        <ele>438.20001220703</ele>
        <time>2021-09-16T04:46:16.000Z</time>
      </trkpt>
      <trkpt lat="45.19806" lon="5.72641">
        <ele>437.60000610352</ele>
        <time>2021-09-16T04:46:18.000Z</time>
      </trkpt>
      <trkpt lat="45.19796" lon="5.72631">
        <ele>436.39999389648</ele>
        <time>2021-09-16T04:46:23.000Z</time>
      </trkpt>
      <trkpt lat="45.19787" lon="5.72615">
        <ele>435.60000610352</ele>
        <time>2021-09-16T04:46:28.000Z</time>
      </trkpt>
      <trkpt lat="45.19786" lon="5.72611">
        <ele>435.20001220703</ele>
        <time>2021-09-16T04:46:29.000Z</time>
      </trkpt>
      <trkpt lat="45.19786" lon="5.72608">
        <ele>434.79998779297</ele>
        <time>2021-09-16T04:46:30.000Z</time>
      </trkpt>
      <trkpt lat="45.19786" lon="5.72592">
        <ele>434</ele>
        <time>2021-09-16T04:46:34.000Z</time>
      </trkpt>
      <trkpt lat="45.19785" lon="5.7258">
        <ele>433.39999389648</ele>
        <time>2021-09-16T04:46:37.000Z</time>
      </trkpt>
      <trkpt lat="45.19785" lon="5.72571">
        <ele>432.79998779297</ele>
        <time>2021-09-16T04:46:39.000Z</time>
      </trkpt>
      <trkpt lat="45.19785" lon="5.72554">
        <ele>431.39999389648</ele>
        <time>2021-09-16T04:46:43.000Z</time>
      </trkpt>
      <trkpt lat="45.19786" lon="5.72536">
        <ele>430.20001220703</ele>
        <time>2021-09-16T04:46:48.000Z</time>
      </trkpt>
      <trkpt lat="45.19783" lon="5.72532">
        <ele>429.39999389648</ele>
        <time>2021-09-16T04:46:51.000Z</time>
      </trkpt>
      <trkpt lat="45.1978" lon="5.72536">
        <ele>428.60000610352</ele>
        <time>2021-09-16T04:46:54.000Z</time>
      </trkpt>
      <trkpt lat="45.19779" lon="5.72539">
        <ele>428.20001220703</ele>
        <time>2021-09-16T04:46:55.000Z</time>
      </trkpt>
      <trkpt lat="45.19778" lon="5.7255">
        <ele>427.39999389648</ele>
        <time>2021-09-16T04:46:58.000Z</time>
      </trkpt>
      <trkpt lat="45.19776" lon="5.7256">
        <ele>426.20001220703</ele>
        <time>2021-09-16T04:47:01.000Z</time>
      </trkpt>
      <trkpt lat="45.19773" lon="5.72576">
        <ele>425.20001220703</ele>
        <time>2021-09-16T04:47:05.000Z</time>
      </trkpt>
      <trkpt lat="45.19771" lon="5.72582">
        <ele>424.60000610352</ele>
        <time>2021-09-16T04:47:07.000Z</time>
      </trkpt>
      <trkpt lat="45.19768" lon="5.72581">
        <ele>424.39999389648</ele>
        <time>2021-09-16T04:47:09.000Z</time>
      </trkpt>
      <trkpt lat="45.19767" lon="5.72578">
        <ele>424</ele>
        <time>2021-09-16T04:47:10.000Z</time>
      </trkpt>
      <trkpt lat="45.19765" lon="5.72562">
        <ele>423</ele>
        <time>2021-09-16T04:47:14.000Z</time>
      </trkpt>
      <trkpt lat="45.19762" lon="5.72549">
        <ele>422</ele>
        <time>2021-09-16T04:47:17.000Z</time>
      </trkpt>
      <trkpt lat="45.19762" lon="5.7254">
        <ele>421.39999389648</ele>
        <time>2021-09-16T04:47:19.000Z</time>
      </trkpt>
      <trkpt lat="45.19762" lon="5.72536">
        <ele>421</ele>
        <time>2021-09-16T04:47:20.000Z</time>
      </trkpt>
      <trkpt lat="45.19763" lon="5.72532">
        <ele>420.79998779297</ele>
        <time>2021-09-16T04:47:21.000Z</time>
      </trkpt>
      <trkpt lat="45.19767" lon="5.72519">
        <ele>419.39999389648</ele>
        <time>2021-09-16T04:47:24.000Z</time>
      </trkpt>
      <trkpt lat="45.19768" lon="5.72515">
        <ele>419.20001220703</ele>
        <time>2021-09-16T04:47:25.000Z</time>
      </trkpt>
      <trkpt lat="45.19773" lon="5.72507">
        <ele>418.39999389648</ele>
        <time>2021-09-16T04:47:28.000Z</time>
      </trkpt>
      <trkpt lat="45.19774" lon="5.72506">
        <ele>418</ele>
        <time>2021-09-16T04:47:29.000Z</time>
      </trkpt>
      <trkpt lat="45.19769" lon="5.72507">
        <ele>417.60000610352</ele>
        <time>2021-09-16T04:47:32.000Z</time>
      </trkpt>
      <trkpt lat="45.19767" lon="5.72509">
        <ele>417.20001220703</ele>
        <time>2021-09-16T04:47:33.000Z</time>
      </trkpt>
      <trkpt lat="45.19759" lon="5.7252">
        <ele>416.20001220703</ele>
        <time>2021-09-16T04:47:37.000Z</time>
      </trkpt>
      <trkpt lat="45.19755" lon="5.72528">
        <ele>415.79998779297</ele>
        <time>2021-09-16T04:47:39.000Z</time>
      </trkpt>
      <trkpt lat="45.19749" lon="5.72539">
        <ele>415.39999389648</ele>
        <time>2021-09-16T04:47:43.000Z</time>
      </trkpt>
      <trkpt lat="45.19748" lon="5.72541">
        <ele>415.39999389648</ele>
        <time>2021-09-16T04:47:44.000Z</time>
      </trkpt>
      <trkpt lat="45.19745" lon="5.72555">
        <ele>415.20001220703</ele>
        <time>2021-09-16T04:47:48.000Z</time>
      </trkpt>
      <trkpt lat="45.19745" lon="5.72559">
        <ele>415</ele>
        <time>2021-09-16T04:47:49.000Z</time>
      </trkpt>
      <trkpt lat="45.19747" lon="5.7258">
        <ele>414.79998779297</ele>
        <time>2021-09-16T04:47:54.000Z</time>
      </trkpt>
      <trkpt lat="45.19747" lon="5.72583">
        <ele>414.79998779297</ele>
        <time>2021-09-16T04:47:55.000Z</time>
      </trkpt>
      <trkpt lat="45.1975" lon="5.72596">
        <ele>414.60000610352</ele>
        <time>2021-09-16T04:47:59.000Z</time>
      </trkpt>
      <trkpt lat="45.19751" lon="5.72599">
        <ele>414.60000610352</ele>
        <time>2021-09-16T04:48:00.000Z</time>
      </trkpt>
      <trkpt lat="45.19757" lon="5.72621">
        <ele>414.60000610352</ele>
        <time>2021-09-16T04:48:06.000Z</time>
      </trkpt>
      <trkpt lat="45.19763" lon="5.7264">
        <ele>414.60000610352</ele>
        <time>2021-09-16T04:48:11.000Z</time>
      </trkpt>
      <trkpt lat="45.19771" lon="5.72652">
        <ele>414.60000610352</ele>
        <time>2021-09-16T04:48:14.000Z</time>
      </trkpt>
      <trkpt lat="45.19775" lon="5.7266">
        <ele>414.60000610352</ele>
        <time>2021-09-16T04:48:16.000Z</time>
      </trkpt>
      <trkpt lat="45.19789" lon="5.72677">
        <ele>414.79998779297</ele>
        <time>2021-09-16T04:48:22.000Z</time>
      </trkpt>
      <trkpt lat="45.19795" lon="5.72683">
        <ele>414.79998779297</ele>
        <time>2021-09-16T04:48:24.000Z</time>
      </trkpt>
      <trkpt lat="45.19808" lon="5.72698">
        <ele>415.20001220703</ele>
        <time>2021-09-16T04:48:30.000Z</time>
      </trkpt>
      <trkpt lat="45.19815" lon="5.72708">
        <ele>415.20001220703</ele>
        <time>2021-09-16T04:48:34.000Z</time>
      </trkpt>
      <trkpt lat="45.19821" lon="5.72714">
        <ele>415.20001220703</ele>
        <time>2021-09-16T04:48:36.000Z</time>
      </trkpt>
      <trkpt lat="45.19833" lon="5.72728">
        <ele>416</ele>
        <time>2021-09-16T04:48:41.000Z</time>
      </trkpt>
      <trkpt lat="45.19836" lon="5.72736">
        <ele>415.79998779297</ele>
        <time>2021-09-16T04:48:43.000Z</time>
      </trkpt>
      <trkpt lat="45.19844" lon="5.72749">
        <ele>415.79998779297</ele>
        <time>2021-09-16T04:48:48.000Z</time>
      </trkpt>
      <trkpt lat="45.19859" lon="5.72751">
        <ele>412.39999389648</ele>
        <time>2021-09-16T04:49:03.000Z</time>
      </trkpt>
      <trkpt lat="45.1986" lon="5.72762">
        <ele>412.20001220703</ele>
        <time>2021-09-16T04:49:04.000Z</time>
      </trkpt>
      <trkpt lat="45.1986" lon="5.72762">
        <ele>412</ele>
        <time>2021-09-16T04:49:05.000Z</time>
      </trkpt>
      <trkpt lat="45.19861" lon="5.72762">
        <ele>411.39999389648</ele>
        <time>2021-09-16T04:49:08.000Z</time>
      </trkpt>
      <trkpt lat="45.19859" lon="5.72767">
        <ele>411</ele>
        <time>2021-09-16T04:49:11.000Z</time>
      </trkpt>
      <trkpt lat="45.19858" lon="5.72766">
        <ele>410.79998779297</ele>
        <time>2021-09-16T04:49:12.000Z</time>
      </trkpt>
      <trkpt lat="45.19857" lon="5.72762">
        <ele>410.39999389648</ele>
        <time>2021-09-16T04:49:14.000Z</time>
      </trkpt>
      <trkpt lat="45.19856" lon="5.72758">
        <ele>409.79998779297</ele>
        <time>2021-09-16T04:49:16.000Z</time>
      </trkpt>
      <trkpt lat="45.19856" lon="5.72757">
        <ele>409</ele>
        <time>2021-09-16T04:49:17.000Z</time>
      </trkpt>
      <trkpt lat="45.19856" lon="5.72756">
        <ele>408.20001220703</ele>
        <time>2021-09-16T04:49:18.000Z</time>
      </trkpt>
      <trkpt lat="45.19855" lon="5.72757">
        <ele>407.79998779297</ele>
        <time>2021-09-16T04:49:19.000Z</time>
      </trkpt>
      <trkpt lat="45.19854" lon="5.72759">
        <ele>407.20001220703</ele>
        <time>2021-09-16T04:49:21.000Z</time>
      </trkpt>
      <trkpt lat="45.19853" lon="5.7276">
        <ele>406.79998779297</ele>
        <time>2021-09-16T04:49:22.000Z</time>
      </trkpt>
      <trkpt lat="45.19853" lon="5.72762">
        <ele>406.39999389648</ele>
        <time>2021-09-16T04:49:23.000Z</time>
      </trkpt>
      <trkpt lat="45.19853" lon="5.72763">
        <ele>406</ele>
        <time>2021-09-16T04:49:24.000Z</time>
      </trkpt>
      <trkpt lat="45.19853" lon="5.72783">
        <ele>392.79998779297</ele>
        <time>2021-09-16T04:49:57.000Z</time>
      </trkpt>
      <trkpt lat="45.19852" lon="5.72779">
        <ele>392.60000610352</ele>
        <time>2021-09-16T04:49:58.000Z</time>
      </trkpt>
      <trkpt lat="45.19849" lon="5.72776">
        <ele>391.39999389648</ele>
        <time>2021-09-16T04:50:01.000Z</time>
      </trkpt>
      <trkpt lat="45.19847" lon="5.72776">
        <ele>390</ele>
        <time>2021-09-16T04:50:04.000Z</time>
      </trkpt>
      <trkpt lat="45.19845" lon="5.72777">
        <ele>388.79998779297</ele>
        <time>2021-09-16T04:50:06.000Z</time>
      </trkpt>
      <trkpt lat="45.19843" lon="5.72776">
        <ele>388.39999389648</ele>
        <time>2021-09-16T04:50:10.000Z</time>
      </trkpt>
      <trkpt lat="45.19844" lon="5.72776">
        <ele>388.39999389648</ele>
        <time>2021-09-16T04:50:11.000Z</time>
      </trkpt>
      <trkpt lat="45.19843" lon="5.72775">
        <ele>388.39999389648</ele>
        <time>2021-09-16T04:50:14.000Z</time>
      </trkpt>
      <trkpt lat="45.19843" lon="5.72776">
        <ele>388.39999389648</ele>
        <time>2021-09-16T04:50:18.000Z</time>
      </trkpt>
      <trkpt lat="45.19843" lon="5.72777">
        <ele>388.39999389648</ele>
        <time>2021-09-16T04:50:22.000Z</time>
      </trkpt>
      <trkpt lat="45.19842" lon="5.72779">
        <ele>388.39999389648</ele>
        <time>2021-09-16T04:50:27.000Z</time>
      </trkpt>
      <trkpt lat="45.19842" lon="5.72779">
        <ele>388.39999389648</ele>
        <time>2021-09-16T04:50:28.000Z</time>
      </trkpt>
      <trkpt lat="45.19843" lon="5.72779">
        <ele>388.39999389648</ele>
        <time>2021-09-16T04:50:30.000Z</time>
      </trkpt>
      <trkpt lat="45.19847" lon="5.72784">
        <ele>388.20001220703</ele>
        <time>2021-09-16T04:50:32.000Z</time>
      </trkpt>
      <trkpt lat="45.19848" lon="5.72787">
        <ele>388</ele>
        <time>2021-09-16T04:50:33.000Z</time>
      </trkpt>
      <trkpt lat="45.19847" lon="5.72788">
        <ele>387.79998779297</ele>
        <time>2021-09-16T04:50:34.000Z</time>
      </trkpt>
      <trkpt lat="45.19846" lon="5.72787">
        <ele>387.60000610352</ele>
        <time>2021-09-16T04:50:35.000Z</time>
      </trkpt>
      <trkpt lat="45.19838" lon="5.72779">
        <ele>386.79998779297</ele>
        <time>2021-09-16T04:50:39.000Z</time>
      </trkpt>
      <trkpt lat="45.19836" lon="5.72777">
        <ele>386.60000610352</ele>
        <time>2021-09-16T04:50:40.000Z</time>
      </trkpt>
      <trkpt lat="45.19833" lon="5.72775">
        <ele>386.20001220703</ele>
        <time>2021-09-16T04:50:41.000Z</time>
      </trkpt>
      <trkpt lat="45.19829" lon="5.72772">
        <ele>385.20001220703</ele>
        <time>2021-09-16T04:50:43.000Z</time>
      </trkpt>
      <trkpt lat="45.19824" lon="5.72768">
        <ele>384.60000610352</ele>
        <time>2021-09-16T04:50:45.000Z</time>
      </trkpt>
      <trkpt lat="45.19816" lon="5.72764">
        <ele>384</ele>
        <time>2021-09-16T04:50:48.000Z</time>
      </trkpt>
      <trkpt lat="45.19812" lon="5.72758">
        <ele>383.60000610352</ele>
        <time>2021-09-16T04:50:50.000Z</time>
      </trkpt>
      <trkpt lat="45.1981" lon="5.72756">
        <ele>383.39999389648</ele>
        <time>2021-09-16T04:50:51.000Z</time>
      </trkpt>
      <trkpt lat="45.19805" lon="5.72752">
        <ele>383</ele>
        <time>2021-09-16T04:50:53.000Z</time>
      </trkpt>
      <trkpt lat="45.19803" lon="5.7275">
        <ele>382.79998779297</ele>
        <time>2021-09-16T04:50:54.000Z</time>
      </trkpt>
      <trkpt lat="45.19796" lon="5.72745">
        <ele>382</ele>
        <time>2021-09-16T04:50:57.000Z</time>
      </trkpt>
      <trkpt lat="45.19791" lon="5.7274">
        <ele>381.20001220703</ele>
        <time>2021-09-16T04:51:01.000Z</time>
      </trkpt>
      <trkpt lat="45.19791" lon="5.7274">
        <ele>380.79998779297</ele>
        <time>2021-09-16T04:51:02.000Z</time>
      </trkpt>
      <trkpt lat="45.19793" lon="5.72744">
        <ele>380.20001220703</ele>
        <time>2021-09-16T04:51:04.000Z</time>
      </trkpt>
      <trkpt lat="45.19795" lon="5.72745">
        <ele>379.79998779297</ele>
        <time>2021-09-16T04:51:05.000Z</time>
      </trkpt>
      <trkpt lat="45.19796" lon="5.72745">
        <ele>379.39999389648</ele>
        <time>2021-09-16T04:51:06.000Z</time>
      </trkpt>
      <trkpt lat="45.19801" lon="5.72749">
        <ele>378.60000610352</ele>
        <time>2021-09-16T04:51:09.000Z</time>
      </trkpt>
      <trkpt lat="45.1981" lon="5.72762">
        <ele>377.39999389648</ele>
        <time>2021-09-16T04:51:14.000Z</time>
      </trkpt>
      <trkpt lat="45.19813" lon="5.72765">
        <ele>377</ele>
        <time>2021-09-16T04:51:15.000Z</time>
      </trkpt>
      <trkpt lat="45.1982" lon="5.72774">
        <ele>376.20001220703</ele>
        <time>2021-09-16T04:51:19.000Z</time>
      </trkpt>
      <trkpt lat="45.19822" lon="5.72776">
        <ele>375.79998779297</ele>
        <time>2021-09-16T04:51:20.000Z</time>
      </trkpt>
      <trkpt lat="45.19824" lon="5.72777">
        <ele>375.39999389648</ele>
        <time>2021-09-16T04:51:21.000Z</time>
      </trkpt>
      <trkpt lat="45.19826" lon="5.72779">
        <ele>374.79998779297</ele>
        <time>2021-09-16T04:51:22.000Z</time>
      </trkpt>
      <trkpt lat="45.19834" lon="5.72789">
        <ele>373.39999389648</ele>
        <time>2021-09-16T04:51:26.000Z</time>
      </trkpt>
      <trkpt lat="45.19835" lon="5.7279">
        <ele>373.20001220703</ele>
        <time>2021-09-16T04:51:27.000Z</time>
      </trkpt>
      <trkpt lat="45.19842" lon="5.72802">
        <ele>372.20001220703</ele>
        <time>2021-09-16T04:51:31.000Z</time>
      </trkpt>
      <trkpt lat="45.19843" lon="5.72804">
        <ele>371.79998779297</ele>
        <time>2021-09-16T04:51:32.000Z</time>
      </trkpt>
      <trkpt lat="45.19839" lon="5.72803">
        <ele>370.79998779297</ele>
        <time>2021-09-16T04:51:34.000Z</time>
      </trkpt>
      <trkpt lat="45.19837" lon="5.72802">
        <ele>370.39999389648</ele>
        <time>2021-09-16T04:51:35.000Z</time>
      </trkpt>
      <trkpt lat="45.1983" lon="5.72799">
        <ele>369.60000610352</ele>
        <time>2021-09-16T04:51:38.000Z</time>
      </trkpt>
      <trkpt lat="45.19821" lon="5.72795">
        <ele>368.60000610352</ele>
        <time>2021-09-16T04:51:42.000Z</time>
      </trkpt>
      <trkpt lat="45.19819" lon="5.72793">
        <ele>368.20001220703</ele>
        <time>2021-09-16T04:51:43.000Z</time>
      </trkpt>
      <trkpt lat="45.19813" lon="5.7279">
        <ele>367.60000610352</ele>
        <time>2021-09-16T04:51:46.000Z</time>
      </trkpt>
      <trkpt lat="45.19811" lon="5.72788">
        <ele>367.39999389648</ele>
        <time>2021-09-16T04:51:47.000Z</time>
      </trkpt>
      <trkpt lat="45.19806" lon="5.72784">
        <ele>366.39999389648</ele>
        <time>2021-09-16T04:51:49.000Z</time>
      </trkpt>
      <trkpt lat="45.19802" lon="5.72783">
        <ele>365.60000610352</ele>
        <time>2021-09-16T04:51:52.000Z</time>
      </trkpt>
      <trkpt lat="45.19802" lon="5.72784">
        <ele>365.20001220703</ele>
        <time>2021-09-16T04:51:53.000Z</time>
      </trkpt>
      <trkpt lat="45.19805" lon="5.7279">
        <ele>364.20001220703</ele>
        <time>2021-09-16T04:51:56.000Z</time>
      </trkpt>
      <trkpt lat="45.19807" lon="5.72792">
        <ele>364</ele>
        <time>2021-09-16T04:51:57.000Z</time>
      </trkpt>
      <trkpt lat="45.19816" lon="5.728">
        <ele>363</ele>
        <time>2021-09-16T04:52:02.000Z</time>
      </trkpt>
      <trkpt lat="45.19819" lon="5.72801">
        <ele>362.60000610352</ele>
        <time>2021-09-16T04:52:03.000Z</time>
      </trkpt>
      <trkpt lat="45.19823" lon="5.72803">
        <ele>361.79998779297</ele>
        <time>2021-09-16T04:52:05.000Z</time>
      </trkpt>
      <trkpt lat="45.19832" lon="5.7281">
        <ele>360.79998779297</ele>
        <time>2021-09-16T04:52:09.000Z</time>
      </trkpt>
      <trkpt lat="45.19836" lon="5.72812">
        <ele>360</ele>
        <time>2021-09-16T04:52:11.000Z</time>
      </trkpt>
      <trkpt lat="45.19841" lon="5.72816">
        <ele>359.60000610352</ele>
        <time>2021-09-16T04:52:13.000Z</time>
      </trkpt>
      <trkpt lat="45.19845" lon="5.72822">
        <ele>358.39999389648</ele>
        <time>2021-09-16T04:52:16.000Z</time>
      </trkpt>
      <trkpt lat="45.19844" lon="5.72824">
        <ele>358</ele>
        <time>2021-09-16T04:52:17.000Z</time>
      </trkpt>
      <trkpt lat="45.19839" lon="5.72822">
        <ele>357.39999389648</ele>
        <time>2021-09-16T04:52:19.000Z</time>
      </trkpt>
      <trkpt lat="45.19833" lon="5.72821">
        <ele>356.79998779297</ele>
        <time>2021-09-16T04:52:21.000Z</time>
      </trkpt>
      <trkpt lat="45.1983" lon="5.7282">
        <ele>356.20001220703</ele>
        <time>2021-09-16T04:52:23.000Z</time>
      </trkpt>
      <trkpt lat="45.19821" lon="5.72816">
        <ele>355.20001220703</ele>
        <time>2021-09-16T04:52:27.000Z</time>
      </trkpt>
      <trkpt lat="45.19818" lon="5.72814">
        <ele>354.79998779297</ele>
        <time>2021-09-16T04:52:29.000Z</time>
      </trkpt>
      <trkpt lat="45.19819" lon="5.72818">
        <ele>354</ele>
        <time>2021-09-16T04:52:32.000Z</time>
      </trkpt>
      <trkpt lat="45.19828" lon="5.72823">
        <ele>352.79998779297</ele>
        <time>2021-09-16T04:52:36.000Z</time>
      </trkpt>
      <trkpt lat="45.19831" lon="5.72825">
        <ele>352.39999389648</ele>
        <time>2021-09-16T04:52:37.000Z</time>
      </trkpt>
      <trkpt lat="45.19836" lon="5.72832">
        <ele>351.60000610352</ele>
        <time>2021-09-16T04:52:40.000Z</time>
      </trkpt>
      <trkpt lat="45.19835" lon="5.72832">
        <ele>351.39999389648</ele>
        <time>2021-09-16T04:52:41.000Z</time>
      </trkpt>
      <trkpt lat="45.19824" lon="5.7283">
        <ele>350.60000610352</ele>
        <time>2021-09-16T04:52:45.000Z</time>
      </trkpt>
      <trkpt lat="45.19819" lon="5.72829">
        <ele>349.79998779297</ele>
        <time>2021-09-16T04:52:47.000Z</time>
      </trkpt>
      <trkpt lat="45.19814" lon="5.72827">
        <ele>349.20001220703</ele>
        <time>2021-09-16T04:52:49.000Z</time>
      </trkpt>
      <trkpt lat="45.19805" lon="5.72823">
        <ele>348.20001220703</ele>
        <time>2021-09-16T04:52:53.000Z</time>
      </trkpt>
      <trkpt lat="45.19802" lon="5.72822">
        <ele>347.79998779297</ele>
        <time>2021-09-16T04:52:54.000Z</time>
      </trkpt>
      <trkpt lat="45.19797" lon="5.72819">
        <ele>347.20001220703</ele>
        <time>2021-09-16T04:52:56.000Z</time>
      </trkpt>
      <trkpt lat="45.19793" lon="5.72817">
        <ele>346.20001220703</ele>
        <time>2021-09-16T04:52:59.000Z</time>
      </trkpt>
      <trkpt lat="45.19793" lon="5.72817">
        <ele>345.79998779297</ele>
        <time>2021-09-16T04:53:00.000Z</time>
      </trkpt>
      <trkpt lat="45.19795" lon="5.72819">
        <ele>345.60000610352</ele>
        <time>2021-09-16T04:53:02.000Z</time>
      </trkpt>
      <trkpt lat="45.19802" lon="5.72826">
        <ele>345</ele>
        <time>2021-09-16T04:53:06.000Z</time>
      </trkpt>
      <trkpt lat="45.19817" lon="5.72834">
        <ele>344</ele>
        <time>2021-09-16T04:53:11.000Z</time>
      </trkpt>
      <trkpt lat="45.1982" lon="5.72836">
        <ele>343.79998779297</ele>
        <time>2021-09-16T04:53:12.000Z</time>
      </trkpt>
      <trkpt lat="45.19825" lon="5.72841">
        <ele>343.20001220703</ele>
        <time>2021-09-16T04:53:15.000Z</time>
      </trkpt>
      <trkpt lat="45.19824" lon="5.72842">
        <ele>343</ele>
        <time>2021-09-16T04:53:16.000Z</time>
      </trkpt>
      <trkpt lat="45.1982" lon="5.72839">
        <ele>342.60000610352</ele>
        <time>2021-09-16T04:53:18.000Z</time>
      </trkpt>
      <trkpt lat="45.19816" lon="5.72837">
        <ele>341.79998779297</ele>
        <time>2021-09-16T04:53:20.000Z</time>
      </trkpt>
      <trkpt lat="45.19804" lon="5.72832">
        <ele>340.79998779297</ele>
        <time>2021-09-16T04:53:24.000Z</time>
      </trkpt>
      <trkpt lat="45.19801" lon="5.7283">
        <ele>340.39999389648</ele>
        <time>2021-09-16T04:53:25.000Z</time>
      </trkpt>
      <trkpt lat="45.19793" lon="5.72828">
        <ele>339.60000610352</ele>
        <time>2021-09-16T04:53:28.000Z</time>
      </trkpt>
      <trkpt lat="45.1979" lon="5.72828">
        <ele>339.20001220703</ele>
        <time>2021-09-16T04:53:29.000Z</time>
      </trkpt>
      <trkpt lat="45.19785" lon="5.72826">
        <ele>338.39999389648</ele>
        <time>2021-09-16T04:53:31.000Z</time>
      </trkpt>
      <trkpt lat="45.1978" lon="5.72824">
        <ele>337.79998779297</ele>
        <time>2021-09-16T04:53:33.000Z</time>
      </trkpt>
      <trkpt lat="45.19777" lon="5.72822">
        <ele>337.39999389648</ele>
        <time>2021-09-16T04:53:34.000Z</time>
      </trkpt>
      <trkpt lat="45.19772" lon="5.72818">
        <ele>336.79998779297</ele>
        <time>2021-09-16T04:53:37.000Z</time>
      </trkpt>
      <trkpt lat="45.1977" lon="5.72817">
        <ele>336.39999389648</ele>
        <time>2021-09-16T04:53:38.000Z</time>
      </trkpt>
      <trkpt lat="45.1976" lon="5.72811">
        <ele>335.39999389648</ele>
        <time>2021-09-16T04:53:42.000Z</time>
      </trkpt>
      <trkpt lat="45.19758" lon="5.7281">
        <ele>335</ele>
        <time>2021-09-16T04:53:43.000Z</time>
      </trkpt>
      <trkpt lat="45.19757" lon="5.7281">
        <ele>334.60000610352</ele>
        <time>2021-09-16T04:53:44.000Z</time>
      </trkpt>
      <trkpt lat="45.19757" lon="5.72811">
        <ele>334.20001220703</ele>
        <time>2021-09-16T04:53:45.000Z</time>
      </trkpt>
      <trkpt lat="45.19758" lon="5.72813">
        <ele>333.79998779297</ele>
        <time>2021-09-16T04:53:46.000Z</time>
      </trkpt>
      <trkpt lat="45.19762" lon="5.72818">
        <ele>333</ele>
        <time>2021-09-16T04:53:49.000Z</time>
      </trkpt>
      <trkpt lat="45.19764" lon="5.72822">
        <ele>332.79998779297</ele>
        <time>2021-09-16T04:53:51.000Z</time>
      </trkpt>
      <trkpt lat="45.19767" lon="5.72826">
        <ele>332</ele>
        <time>2021-09-16T04:53:53.000Z</time>
      </trkpt>
      <trkpt lat="45.19773" lon="5.72833">
        <ele>331</ele>
        <time>2021-09-16T04:53:56.000Z</time>
      </trkpt>
      <trkpt lat="45.19774" lon="5.72834">
        <ele>330.79998779297</ele>
        <time>2021-09-16T04:53:57.000Z</time>
      </trkpt>
      <trkpt lat="45.19777" lon="5.7284">
        <ele>329.60000610352</ele>
        <time>2021-09-16T04:54:00.000Z</time>
      </trkpt>
      <trkpt lat="45.19781" lon="5.72846">
        <ele>328.79998779297</ele>
        <time>2021-09-16T04:54:03.000Z</time>
      </trkpt>
      <trkpt lat="45.19783" lon="5.72849">
        <ele>328.39999389648</ele>
        <time>2021-09-16T04:54:04.000Z</time>
      </trkpt>
      <trkpt lat="45.19789" lon="5.72857">
        <ele>327.20001220703</ele>
        <time>2021-09-16T04:54:08.000Z</time>
      </trkpt>
      <trkpt lat="45.1979" lon="5.72859">
        <ele>326.60000610352</ele>
        <time>2021-09-16T04:54:09.000Z</time>
      </trkpt>
      <trkpt lat="45.19794" lon="5.72862">
        <ele>325.79998779297</ele>
        <time>2021-09-16T04:54:11.000Z</time>
      </trkpt>
      <trkpt lat="45.19802" lon="5.72872">
        <ele>325</ele>
        <time>2021-09-16T04:54:14.000Z</time>
      </trkpt>
      <trkpt lat="45.19802" lon="5.72874">
        <ele>324.39999389648</ele>
        <time>2021-09-16T04:54:15.000Z</time>
      </trkpt>
      <trkpt lat="45.19798" lon="5.72874">
        <ele>323.39999389648</ele>
        <time>2021-09-16T04:54:18.000Z</time>
      </trkpt>
      <trkpt lat="45.19796" lon="5.72874">
        <ele>323.39999389648</ele>
        <time>2021-09-16T04:54:19.000Z</time>
      </trkpt>
      <trkpt lat="45.19788" lon="5.72871">
        <ele>322.39999389648</ele>
        <time>2021-09-16T04:54:23.000Z</time>
      </trkpt>
      <trkpt lat="45.19786" lon="5.72869">
        <ele>322</ele>
        <time>2021-09-16T04:54:24.000Z</time>
      </trkpt>
      <trkpt lat="45.19784" lon="5.72868">
        <ele>321.79998779297</ele>
        <time>2021-09-16T04:54:25.000Z</time>
      </trkpt>
      <trkpt lat="45.19782" lon="5.72865">
        <ele>321.60000610352</ele>
        <time>2021-09-16T04:54:26.000Z</time>
      </trkpt>
      <trkpt lat="45.1978" lon="5.72864">
        <ele>321</ele>
        <time>2021-09-16T04:54:27.000Z</time>
      </trkpt>
      <trkpt lat="45.19775" lon="5.72862">
        <ele>320.39999389648</ele>
        <time>2021-09-16T04:54:29.000Z</time>
      </trkpt>
      <trkpt lat="45.1977" lon="5.7286">
        <ele>320</ele>
        <time>2021-09-16T04:54:31.000Z</time>
      </trkpt>
      <trkpt lat="45.19764" lon="5.72856">
        <ele>319.20001220703</ele>
        <time>2021-09-16T04:54:33.000Z</time>
      </trkpt>
      <trkpt lat="45.19763" lon="5.72854">
        <ele>318.79998779297</ele>
        <time>2021-09-16T04:54:34.000Z</time>
      </trkpt>
      <trkpt lat="45.19754" lon="5.72845">
        <ele>317.60000610352</ele>
        <time>2021-09-16T04:54:38.000Z</time>
      </trkpt>
      <trkpt lat="45.19752" lon="5.72844">
        <ele>317.20001220703</ele>
        <time>2021-09-16T04:54:39.000Z</time>
      </trkpt>
      <trkpt lat="45.19744" lon="5.7284">
        <ele>316.20001220703</ele>
        <time>2021-09-16T04:54:43.000Z</time>
      </trkpt>
      <trkpt lat="45.19743" lon="5.72841">
        <ele>315.79998779297</ele>
        <time>2021-09-16T04:54:44.000Z</time>
      </trkpt>
      <trkpt lat="45.19743" lon="5.72843">
        <ele>315.20001220703</ele>
        <time>2021-09-16T04:54:46.000Z</time>
      </trkpt>
      <trkpt lat="45.19744" lon="5.72845">
        <ele>315</ele>
        <time>2021-09-16T04:54:47.000Z</time>
      </trkpt>
      <trkpt lat="45.19746" lon="5.72846">
        <ele>314.79998779297</ele>
        <time>2021-09-16T04:54:48.000Z</time>
      </trkpt>
      <trkpt lat="45.19751" lon="5.72854">
        <ele>313.60000610352</ele>
        <time>2021-09-16T04:54:51.000Z</time>
      </trkpt>
      <trkpt lat="45.19753" lon="5.72859">
        <ele>313</ele>
        <time>2021-09-16T04:54:53.000Z</time>
      </trkpt>
      <trkpt lat="45.19757" lon="5.72866">
        <ele>312.39999389648</ele>
        <time>2021-09-16T04:54:55.000Z</time>
      </trkpt>
      <trkpt lat="45.19762" lon="5.72873">
        <ele>311.39999389648</ele>
        <time>2021-09-16T04:54:58.000Z</time>
      </trkpt>
      <trkpt lat="45.19767" lon="5.72884">
        <ele>310</ele>
        <time>2021-09-16T04:55:01.000Z</time>
      </trkpt>
      <trkpt lat="45.19771" lon="5.72889">
        <ele>309.79998779297</ele>
        <time>2021-09-16T04:55:03.000Z</time>
      </trkpt>
      <trkpt lat="45.19776" lon="5.72895">
        <ele>308.79998779297</ele>
        <time>2021-09-16T04:55:06.000Z</time>
      </trkpt>
      <trkpt lat="45.19781" lon="5.72903">
        <ele>307.60000610352</ele>
        <time>2021-09-16T04:55:09.000Z</time>
      </trkpt>
      <trkpt lat="45.19784" lon="5.72905">
        <ele>307.39999389648</ele>
        <time>2021-09-16T04:55:10.000Z</time>
      </trkpt>
      <trkpt lat="45.19788" lon="5.7291">
        <ele>306.39999389648</ele>
        <time>2021-09-16T04:55:13.000Z</time>
      </trkpt>
      <trkpt lat="45.19787" lon="5.72911">
        <ele>305.79998779297</ele>
        <time>2021-09-16T04:55:14.000Z</time>
      </trkpt>
      <trkpt lat="45.19784" lon="5.72909">
        <ele>305.20001220703</ele>
        <time>2021-09-16T04:55:16.000Z</time>
      </trkpt>
      <trkpt lat="45.19783" lon="5.72909">
        <ele>304.79998779297</ele>
        <time>2021-09-16T04:55:17.000Z</time>
      </trkpt>
      <trkpt lat="45.1978" lon="5.7291">
        <ele>304.39999389648</ele>
        <time>2021-09-16T04:55:18.000Z</time>
      </trkpt>
      <trkpt lat="45.19779" lon="5.7291">
        <ele>304</ele>
        <time>2021-09-16T04:55:19.000Z</time>
      </trkpt>
      <trkpt lat="45.19768" lon="5.72905">
        <ele>302.79998779297</ele>
        <time>2021-09-16T04:55:24.000Z</time>
      </trkpt>
      <trkpt lat="45.19763" lon="5.72904">
        <ele>301.79998779297</ele>
        <time>2021-09-16T04:55:26.000Z</time>
      </trkpt>
      <trkpt lat="45.1976" lon="5.72902">
        <ele>301.60000610352</ele>
        <time>2021-09-16T04:55:27.000Z</time>
      </trkpt>
      <trkpt lat="45.19749" lon="5.72897">
        <ele>300.20001220703</ele>
        <time>2021-09-16T04:55:32.000Z</time>
      </trkpt>
      <trkpt lat="45.19744" lon="5.72893">
        <ele>299.39999389648</ele>
        <time>2021-09-16T04:55:34.000Z</time>
      </trkpt>
      <trkpt lat="45.19742" lon="5.72892">
        <ele>299</ele>
        <time>2021-09-16T04:55:35.000Z</time>
      </trkpt>
      <trkpt lat="45.19735" lon="5.72887">
        <ele>298</ele>
        <time>2021-09-16T04:55:38.000Z</time>
      </trkpt>
      <trkpt lat="45.19731" lon="5.72885">
        <ele>297.39999389648</ele>
        <time>2021-09-16T04:55:40.000Z</time>
      </trkpt>
      <trkpt lat="45.19726" lon="5.72882">
        <ele>296.39999389648</ele>
        <time>2021-09-16T04:55:42.000Z</time>
      </trkpt>
      <trkpt lat="45.19716" lon="5.72876">
        <ele>295.20001220703</ele>
        <time>2021-09-16T04:55:46.000Z</time>
      </trkpt>
      <trkpt lat="45.1971" lon="5.72871">
        <ele>294.20001220703</ele>
        <time>2021-09-16T04:55:49.000Z</time>
      </trkpt>
      <trkpt lat="45.19708" lon="5.7287">
        <ele>294</ele>
        <time>2021-09-16T04:55:50.000Z</time>
      </trkpt>
      <trkpt lat="45.19701" lon="5.72864">
        <ele>293.20001220703</ele>
        <time>2021-09-16T04:55:53.000Z</time>
      </trkpt>
      <trkpt lat="45.19698" lon="5.72862">
        <ele>293</ele>
        <time>2021-09-16T04:55:54.000Z</time>
      </trkpt>
      <trkpt lat="45.19695" lon="5.7286">
        <ele>292</ele>
        <time>2021-09-16T04:55:57.000Z</time>
      </trkpt>
      <trkpt lat="45.19695" lon="5.72862">
        <ele>291.79998779297</ele>
        <time>2021-09-16T04:55:58.000Z</time>
      </trkpt>
      <trkpt lat="45.19695" lon="5.72864">
        <ele>291.60000610352</ele>
        <time>2021-09-16T04:55:59.000Z</time>
      </trkpt>
      <trkpt lat="45.197" lon="5.72871">
        <ele>290.79998779297</ele>
        <time>2021-09-16T04:56:03.000Z</time>
      </trkpt>
      <trkpt lat="45.19701" lon="5.72873">
        <ele>290.60000610352</ele>
        <time>2021-09-16T04:56:04.000Z</time>
      </trkpt>
      <trkpt lat="45.19709" lon="5.72881">
        <ele>289.20001220703</ele>
        <time>2021-09-16T04:56:08.000Z</time>
      </trkpt>
      <trkpt lat="45.19711" lon="5.72883">
        <ele>288.79998779297</ele>
        <time>2021-09-16T04:56:09.000Z</time>
      </trkpt>
      <trkpt lat="45.19717" lon="5.72894">
        <ele>288</ele>
        <time>2021-09-16T04:56:12.000Z</time>
      </trkpt>
      <trkpt lat="45.19722" lon="5.72902">
        <ele>287</ele>
        <time>2021-09-16T04:56:15.000Z</time>
      </trkpt>
      <trkpt lat="45.19725" lon="5.72911">
        <ele>285.79998779297</ele>
        <time>2021-09-16T04:56:18.000Z</time>
      </trkpt>
      <trkpt lat="45.19731" lon="5.72922">
        <ele>284.79998779297</ele>
        <time>2021-09-16T04:56:22.000Z</time>
      </trkpt>
      <trkpt lat="45.19732" lon="5.72924">
        <ele>284.79998779297</ele>
        <time>2021-09-16T04:56:23.000Z</time>
      </trkpt>
      <trkpt lat="45.19736" lon="5.72928">
        <ele>283.79998779297</ele>
        <time>2021-09-16T04:56:25.000Z</time>
      </trkpt>
      <trkpt lat="45.19738" lon="5.72933">
        <ele>283.20001220703</ele>
        <time>2021-09-16T04:56:27.000Z</time>
      </trkpt>
      <trkpt lat="45.19742" lon="5.72942">
        <ele>282.79998779297</ele>
        <time>2021-09-16T04:56:29.000Z</time>
      </trkpt>
      <trkpt lat="45.19746" lon="5.72947">
        <ele>281.60000610352</ele>
        <time>2021-09-16T04:56:31.000Z</time>
      </trkpt>
      <trkpt lat="45.19754" lon="5.72959">
        <ele>280.39999389648</ele>
        <time>2021-09-16T04:56:36.000Z</time>
      </trkpt>
      <trkpt lat="45.1976" lon="5.72968">
        <ele>279.39999389648</ele>
        <time>2021-09-16T04:56:39.000Z</time>
      </trkpt>
      <trkpt lat="45.19768" lon="5.72978">
        <ele>278.20001220703</ele>
        <time>2021-09-16T04:56:43.000Z</time>
      </trkpt>
      <trkpt lat="45.1977" lon="5.72981">
        <ele>278</ele>
        <time>2021-09-16T04:56:44.000Z</time>
      </trkpt>
      <trkpt lat="45.19778" lon="5.72991">
        <ele>276.79998779297</ele>
        <time>2021-09-16T04:56:48.000Z</time>
      </trkpt>
      <trkpt lat="45.19781" lon="5.72993">
        <ele>276.20001220703</ele>
        <time>2021-09-16T04:56:50.000Z</time>
      </trkpt>
      <trkpt lat="45.19783" lon="5.72995">
        <ele>276</ele>
        <time>2021-09-16T04:56:51.000Z</time>
      </trkpt>
      <trkpt lat="45.19785" lon="5.72997">
        <ele>275.79998779297</ele>
        <time>2021-09-16T04:56:52.000Z</time>
      </trkpt>
      <trkpt lat="45.19791" lon="5.73002">
        <ele>274.60000610352</ele>
        <time>2021-09-16T04:56:55.000Z</time>
      </trkpt>
      <trkpt lat="45.19796" lon="5.73003">
        <ele>274</ele>
        <time>2021-09-16T04:56:57.000Z</time>
      </trkpt>
      <trkpt lat="45.19798" lon="5.73006">
        <ele>274</ele>
        <time>2021-09-16T04:56:58.000Z</time>
      </trkpt>
      <trkpt lat="45.19796" lon="5.73008">
        <ele>273.20001220703</ele>
        <time>2021-09-16T04:57:00.000Z</time>
      </trkpt>
      <trkpt lat="45.19789" lon="5.73012">
        <ele>272.60000610352</ele>
        <time>2021-09-16T04:57:04.000Z</time>
      </trkpt>
      <trkpt lat="45.19787" lon="5.73013">
        <ele>272</ele>
        <time>2021-09-16T04:57:05.000Z</time>
      </trkpt>
      <trkpt lat="45.19777" lon="5.73015">
        <ele>270.79998779297</ele>
        <time>2021-09-16T04:57:09.000Z</time>
      </trkpt>
      <trkpt lat="45.19772" lon="5.73014">
        <ele>270.20001220703</ele>
        <time>2021-09-16T04:57:11.000Z</time>
      </trkpt>
      <trkpt lat="45.19765" lon="5.73014">
        <ele>269.39999389648</ele>
        <time>2021-09-16T04:57:14.000Z</time>
      </trkpt>
      <trkpt lat="45.19762" lon="5.73014">
        <ele>268.79998779297</ele>
        <time>2021-09-16T04:57:16.000Z</time>
      </trkpt>
      <trkpt lat="45.19763" lon="5.73014">
        <ele>268.79998779297</ele>
        <time>2021-09-16T04:57:17.000Z</time>
      </trkpt>
      <trkpt lat="45.19765" lon="5.73016">
        <ele>267.79998779297</ele>
        <time>2021-09-16T04:57:19.000Z</time>
      </trkpt>
      <trkpt lat="45.19766" lon="5.73017">
        <ele>267.60000610352</ele>
        <time>2021-09-16T04:57:20.000Z</time>
      </trkpt>
      <trkpt lat="45.19772" lon="5.73021">
        <ele>266.60000610352</ele>
        <time>2021-09-16T04:57:23.000Z</time>
      </trkpt>
      <trkpt lat="45.1978" lon="5.73025">
        <ele>265.60000610352</ele>
        <time>2021-09-16T04:57:26.000Z</time>
      </trkpt>
      <trkpt lat="45.19786" lon="5.73028">
        <ele>265</ele>
        <time>2021-09-16T04:57:28.000Z</time>
      </trkpt>
      <trkpt lat="45.19791" lon="5.73031">
        <ele>264.60000610352</ele>
        <time>2021-09-16T04:57:30.000Z</time>
      </trkpt>
      <trkpt lat="45.19801" lon="5.73038">
        <ele>263.39999389648</ele>
        <time>2021-09-16T04:57:34.000Z</time>
      </trkpt>
      <trkpt lat="45.19802" lon="5.73041">
        <ele>263.20001220703</ele>
        <time>2021-09-16T04:57:35.000Z</time>
      </trkpt>
      <trkpt lat="45.19798" lon="5.73041">
        <ele>263</ele>
        <time>2021-09-16T04:57:37.000Z</time>
      </trkpt>
      <trkpt lat="45.19792" lon="5.73041">
        <ele>262.20001220703</ele>
        <time>2021-09-16T04:57:39.000Z</time>
      </trkpt>
      <trkpt lat="45.19785" lon="5.7304">
        <ele>261.20001220703</ele>
        <time>2021-09-16T04:57:42.000Z</time>
      </trkpt>
      <trkpt lat="45.19779" lon="5.7304">
        <ele>260</ele>
        <time>2021-09-16T04:57:44.000Z</time>
      </trkpt>
      <trkpt lat="45.19769" lon="5.73041">
        <ele>258.79998779297</ele>
        <time>2021-09-16T04:57:48.000Z</time>
      </trkpt>
      <trkpt lat="45.19762" lon="5.73039">
        <ele>257.60000610352</ele>
        <time>2021-09-16T04:57:51.000Z</time>
      </trkpt>
      <trkpt lat="45.19757" lon="5.73039">
        <ele>257</ele>
        <time>2021-09-16T04:57:53.000Z</time>
      </trkpt>
      <trkpt lat="45.19754" lon="5.73038">
        <ele>256.39999389648</ele>
        <time>2021-09-16T04:57:56.000Z</time>
      </trkpt>
      <trkpt lat="45.19755" lon="5.73038">
        <ele>256.20001220703</ele>
        <time>2021-09-16T04:57:57.000Z</time>
      </trkpt>
      <trkpt lat="45.19759" lon="5.73038">
        <ele>255.80000305176</ele>
        <time>2021-09-16T04:57:59.000Z</time>
      </trkpt>
      <trkpt lat="45.19761" lon="5.73039">
        <ele>255.39999389648</ele>
        <time>2021-09-16T04:58:00.000Z</time>
      </trkpt>
      <trkpt lat="45.19766" lon="5.73042">
        <ele>254.39999389648</ele>
        <time>2021-09-16T04:58:02.000Z</time>
      </trkpt>
      <trkpt lat="45.19769" lon="5.73043">
        <ele>254.19999694824</ele>
        <time>2021-09-16T04:58:03.000Z</time>
      </trkpt>
      <trkpt lat="45.19781" lon="5.73049">
        <ele>252.80000305176</ele>
        <time>2021-09-16T04:58:07.000Z</time>
      </trkpt>
      <trkpt lat="45.19784" lon="5.7305">
        <ele>252.60000610352</ele>
        <time>2021-09-16T04:58:08.000Z</time>
      </trkpt>
      <trkpt lat="45.19788" lon="5.73054">
        <ele>252</ele>
        <time>2021-09-16T04:58:10.000Z</time>
      </trkpt>
      <trkpt lat="45.1979" lon="5.73055">
        <ele>251.60000610352</ele>
        <time>2021-09-16T04:58:11.000Z</time>
      </trkpt>
      <trkpt lat="45.19794" lon="5.7306">
        <ele>250.80000305176</ele>
        <time>2021-09-16T04:58:14.000Z</time>
      </trkpt>
      <trkpt lat="45.19792" lon="5.73061">
        <ele>250.39999389648</ele>
        <time>2021-09-16T04:58:15.000Z</time>
      </trkpt>
      <trkpt lat="45.19788" lon="5.73061">
        <ele>249.80000305176</ele>
        <time>2021-09-16T04:58:17.000Z</time>
      </trkpt>
      <trkpt lat="45.19786" lon="5.73062">
        <ele>249.60000610352</ele>
        <time>2021-09-16T04:58:18.000Z</time>
      </trkpt>
      <trkpt lat="45.19784" lon="5.73063">
        <ele>249.39999389648</ele>
        <time>2021-09-16T04:58:19.000Z</time>
      </trkpt>
      <trkpt lat="45.19778" lon="5.73062">
        <ele>248</ele>
        <time>2021-09-16T04:58:22.000Z</time>
      </trkpt>
      <trkpt lat="45.19768" lon="5.7306">
        <ele>246.80000305176</ele>
        <time>2021-09-16T04:58:26.000Z</time>
      </trkpt>
      <trkpt lat="45.19766" lon="5.73059">
        <ele>246.80000305176</ele>
        <time>2021-09-16T04:58:27.000Z</time>
      </trkpt>
      <trkpt lat="45.19757" lon="5.73057">
        <ele>245.60000610352</ele>
        <time>2021-09-16T04:58:30.000Z</time>
      </trkpt>
      <trkpt lat="45.19753" lon="5.73059">
        <ele>245</ele>
        <time>2021-09-16T04:58:33.000Z</time>
      </trkpt>
      <trkpt lat="45.19754" lon="5.73059">
        <ele>244.39999389648</ele>
        <time>2021-09-16T04:58:35.000Z</time>
      </trkpt>
      <trkpt lat="45.19759" lon="5.73062">
        <ele>243.80000305176</ele>
        <time>2021-09-16T04:58:37.000Z</time>
      </trkpt>
      <trkpt lat="45.1976" lon="5.73062">
        <ele>243.39999389648</ele>
        <time>2021-09-16T04:58:38.000Z</time>
      </trkpt>
      <trkpt lat="45.19762" lon="5.73063">
        <ele>242.80000305176</ele>
        <time>2021-09-16T04:58:39.000Z</time>
      </trkpt>
      <trkpt lat="45.19765" lon="5.73065">
        <ele>242.19999694824</ele>
        <time>2021-09-16T04:58:40.000Z</time>
      </trkpt>
      <trkpt lat="45.19767" lon="5.73067">
        <ele>242</ele>
        <time>2021-09-16T04:58:41.000Z</time>
      </trkpt>
      <trkpt lat="45.19772" lon="5.7307">
        <ele>241.60000610352</ele>
        <time>2021-09-16T04:58:43.000Z</time>
      </trkpt>
      <trkpt lat="45.19774" lon="5.73071">
        <ele>241.39999389648</ele>
        <time>2021-09-16T04:58:44.000Z</time>
      </trkpt>
      <trkpt lat="45.19778" lon="5.73073">
        <ele>240.60000610352</ele>
        <time>2021-09-16T04:58:46.000Z</time>
      </trkpt>
      <trkpt lat="45.19782" lon="5.73076">
        <ele>240.19999694824</ele>
        <time>2021-09-16T04:58:48.000Z</time>
      </trkpt>
      <trkpt lat="45.19783" lon="5.73077">
        <ele>239.60000610352</ele>
        <time>2021-09-16T04:58:49.000Z</time>
      </trkpt>
      <trkpt lat="45.19785" lon="5.73079">
        <ele>239.19999694824</ele>
        <time>2021-09-16T04:58:50.000Z</time>
      </trkpt>
      <trkpt lat="45.19795" lon="5.73088">
        <ele>238.19999694824</ele>
        <time>2021-09-16T04:58:54.000Z</time>
      </trkpt>
      <trkpt lat="45.19796" lon="5.7309">
        <ele>237.80000305176</ele>
        <time>2021-09-16T04:58:55.000Z</time>
      </trkpt>
      <trkpt lat="45.19794" lon="5.73092">
        <ele>237.19999694824</ele>
        <time>2021-09-16T04:58:57.000Z</time>
      </trkpt>
      <trkpt lat="45.19792" lon="5.73091">
        <ele>237</ele>
        <time>2021-09-16T04:58:58.000Z</time>
      </trkpt>
      <trkpt lat="45.19784" lon="5.73092">
        <ele>236</ele>
        <time>2021-09-16T04:59:02.000Z</time>
      </trkpt>
      <trkpt lat="45.19782" lon="5.73092">
        <ele>235.60000610352</ele>
        <time>2021-09-16T04:59:03.000Z</time>
      </trkpt>
      <trkpt lat="45.19774" lon="5.73091">
        <ele>234.80000305176</ele>
        <time>2021-09-16T04:59:06.000Z</time>
      </trkpt>
      <trkpt lat="45.19769" lon="5.7309">
        <ele>234.19999694824</ele>
        <time>2021-09-16T04:59:08.000Z</time>
      </trkpt>
      <trkpt lat="45.19763" lon="5.73091">
        <ele>233.39999389648</ele>
        <time>2021-09-16T04:59:11.000Z</time>
      </trkpt>
      <trkpt lat="45.1976" lon="5.73092">
        <ele>232.60000610352</ele>
        <time>2021-09-16T04:59:13.000Z</time>
      </trkpt>
      <trkpt lat="45.1976" lon="5.73094">
        <ele>232.19999694824</ele>
        <time>2021-09-16T04:59:15.000Z</time>
      </trkpt>
      <trkpt lat="45.19761" lon="5.73096">
        <ele>231.80000305176</ele>
        <time>2021-09-16T04:59:16.000Z</time>
      </trkpt>
      <trkpt lat="45.19767" lon="5.731">
        <ele>231</ele>
        <time>2021-09-16T04:59:20.000Z</time>
      </trkpt>
      <trkpt lat="45.19772" lon="5.73104">
        <ele>229.80000305176</ele>
        <time>2021-09-16T04:59:23.000Z</time>
      </trkpt>
      <trkpt lat="45.19797" lon="5.73119">
        <ele>227.80000305176</ele>
        <time>2021-09-16T04:59:31.000Z</time>
      </trkpt>
      <trkpt lat="45.19804" lon="5.7312">
        <ele>226.60000610352</ele>
        <time>2021-09-16T04:59:34.000Z</time>
      </trkpt>
      <trkpt lat="45.19803" lon="5.73125">
        <ele>226.60000610352</ele>
        <time>2021-09-16T04:59:35.000Z</time>
      </trkpt>
      <trkpt lat="45.19798" lon="5.73132">
        <ele>226</ele>
        <time>2021-09-16T04:59:37.000Z</time>
      </trkpt>
      <trkpt lat="45.19795" lon="5.73134">
        <ele>225.80000305176</ele>
        <time>2021-09-16T04:59:38.000Z</time>
      </trkpt>
      <trkpt lat="45.19793" lon="5.73136">
        <ele>225.39999389648</ele>
        <time>2021-09-16T04:59:39.000Z</time>
      </trkpt>
      <trkpt lat="45.1979" lon="5.73138">
        <ele>224.60000610352</ele>
        <time>2021-09-16T04:59:41.000Z</time>
      </trkpt>
      <trkpt lat="45.19789" lon="5.7314">
        <ele>224.39999389648</ele>
        <time>2021-09-16T04:59:42.000Z</time>
      </trkpt>
      <trkpt lat="45.19787" lon="5.73142">
        <ele>224.19999694824</ele>
        <time>2021-09-16T04:59:43.000Z</time>
      </trkpt>
      <trkpt lat="45.19784" lon="5.73152">
        <ele>223.19999694824</ele>
        <time>2021-09-16T04:59:46.000Z</time>
      </trkpt>
      <trkpt lat="45.19781" lon="5.73162">
        <ele>221.80000305176</ele>
        <time>2021-09-16T04:59:49.000Z</time>
      </trkpt>
      <trkpt lat="45.19781" lon="5.73165">
        <ele>221.39999389648</ele>
        <time>2021-09-16T04:59:50.000Z</time>
      </trkpt>
      <trkpt lat="45.1978" lon="5.73171">
        <ele>220.60000610352</ele>
        <time>2021-09-16T04:59:52.000Z</time>
      </trkpt>
      <trkpt lat="45.1978" lon="5.73181">
        <ele>219.39999389648</ele>
        <time>2021-09-16T04:59:55.000Z</time>
      </trkpt>
      <trkpt lat="45.19782" lon="5.73194">
        <ele>218.80000305176</ele>
        <time>2021-09-16T04:59:58.000Z</time>
      </trkpt>
      <trkpt lat="45.19782" lon="5.73211">
        <ele>218.80000305176</ele>
        <time>2021-09-16T05:00:03.000Z</time>
      </trkpt>
      <trkpt lat="45.19781" lon="5.73214">
        <ele>218.80000305176</ele>
        <time>2021-09-16T05:00:04.000Z</time>
      </trkpt>
      <trkpt lat="45.19775" lon="5.73241">
        <ele>218.60000610352</ele>
        <time>2021-09-16T05:00:11.000Z</time>
      </trkpt>
      <trkpt lat="45.19766" lon="5.73263">
        <ele>219.19999694824</ele>
        <time>2021-09-16T05:00:17.000Z</time>
      </trkpt>
      <trkpt lat="45.19763" lon="5.73271">
        <ele>219.60000610352</ele>
        <time>2021-09-16T05:00:19.000Z</time>
      </trkpt>
      <trkpt lat="45.1976" lon="5.73279">
        <ele>219.80000305176</ele>
        <time>2021-09-16T05:00:21.000Z</time>
      </trkpt>
      <trkpt lat="45.19757" lon="5.73286">
        <ele>220</ele>
        <time>2021-09-16T05:00:23.000Z</time>
      </trkpt>
      <trkpt lat="45.19755" lon="5.73291">
        <ele>220</ele>
        <time>2021-09-16T05:00:24.000Z</time>
      </trkpt>
      <trkpt lat="45.19749" lon="5.73315">
        <ele>220.19999694824</ele>
        <time>2021-09-16T05:00:30.000Z</time>
      </trkpt>
      <trkpt lat="45.19747" lon="5.73324">
        <ele>220.39999389648</ele>
        <time>2021-09-16T05:00:32.000Z</time>
      </trkpt>
      <trkpt lat="45.19739" lon="5.73348">
        <ele>220.39999389648</ele>
        <time>2021-09-16T05:00:39.000Z</time>
      </trkpt>
      <trkpt lat="45.19734" lon="5.73367">
        <ele>219.80000305176</ele>
        <time>2021-09-16T05:00:45.000Z</time>
      </trkpt>
      <trkpt lat="45.19735" lon="5.73368">
        <ele>219.80000305176</ele>
        <time>2021-09-16T05:00:46.000Z</time>
      </trkpt>
      <trkpt lat="45.19739" lon="5.7337">
        <ele>219.60000610352</ele>
        <time>2021-09-16T05:00:48.000Z</time>
      </trkpt>
      <trkpt lat="45.19745" lon="5.7337">
        <ele>219.39999389648</ele>
        <time>2021-09-16T05:00:50.000Z</time>
      </trkpt>
      <trkpt lat="45.19753" lon="5.73372">
        <ele>218.80000305176</ele>
        <time>2021-09-16T05:00:53.000Z</time>
      </trkpt>
      <trkpt lat="45.19762" lon="5.73374">
        <ele>218.19999694824</ele>
        <time>2021-09-16T05:00:56.000Z</time>
      </trkpt>
      <trkpt lat="45.19768" lon="5.73375">
        <ele>217.80000305176</ele>
        <time>2021-09-16T05:00:58.000Z</time>
      </trkpt>
      <trkpt lat="45.19787" lon="5.73379">
        <ele>217.39999389648</ele>
        <time>2021-09-16T05:01:04.000Z</time>
      </trkpt>
      <trkpt lat="45.19789" lon="5.7338">
        <ele>217.39999389648</ele>
        <time>2021-09-16T05:01:05.000Z</time>
      </trkpt>
      <trkpt lat="45.198" lon="5.73383">
        <ele>217.39999389648</ele>
        <time>2021-09-16T05:01:10.000Z</time>
      </trkpt>
      <trkpt lat="45.19812" lon="5.73386">
        <ele>217.19999694824</ele>
        <time>2021-09-16T05:01:15.000Z</time>
      </trkpt>
      <trkpt lat="45.19815" lon="5.73387">
        <ele>217.19999694824</ele>
        <time>2021-09-16T05:01:16.000Z</time>
      </trkpt>
      <trkpt lat="45.19831" lon="5.73391">
        <ele>217</ele>
        <time>2021-09-16T05:01:23.000Z</time>
      </trkpt>
      <trkpt lat="45.19833" lon="5.73391">
        <ele>217.19999694824</ele>
        <time>2021-09-16T05:01:24.000Z</time>
      </trkpt>
      <trkpt lat="45.19848" lon="5.73396">
        <ele>217.39999389648</ele>
        <time>2021-09-16T05:01:30.000Z</time>
      </trkpt>
      <trkpt lat="45.19851" lon="5.73397">
        <ele>217.39999389648</ele>
        <time>2021-09-16T05:01:31.000Z</time>
      </trkpt>
      <trkpt lat="45.19869" lon="5.734">
        <ele>217.39999389648</ele>
        <time>2021-09-16T05:01:37.000Z</time>
      </trkpt>
      <trkpt lat="45.19872" lon="5.734">
        <ele>217.39999389648</ele>
        <time>2021-09-16T05:01:38.000Z</time>
      </trkpt>
      <trkpt lat="45.19893" lon="5.73405">
        <ele>217.39999389648</ele>
        <time>2021-09-16T05:01:45.000Z</time>
      </trkpt>
      <trkpt lat="45.19895" lon="5.73406">
        <ele>217.19999694824</ele>
        <time>2021-09-16T05:01:46.000Z</time>
      </trkpt>
      <trkpt lat="45.19906" lon="5.73409">
        <ele>217</ele>
        <time>2021-09-16T05:01:50.000Z</time>
      </trkpt>
      <trkpt lat="45.19915" lon="5.73412">
        <ele>216.80000305176</ele>
        <time>2021-09-16T05:01:53.000Z</time>
      </trkpt>
      <trkpt lat="45.19935" lon="5.73419">
        <ele>217.60000610352</ele>
        <time>2021-09-16T05:02:00.000Z</time>
      </trkpt>
      <trkpt lat="45.19956" lon="5.73426">
        <ele>217.19999694824</ele>
        <time>2021-09-16T05:02:07.000Z</time>
      </trkpt>
      <trkpt lat="45.1997" lon="5.73428">
        <ele>217.39999389648</ele>
        <time>2021-09-16T05:02:11.000Z</time>
      </trkpt>
      <trkpt lat="45.1999" lon="5.7344">
        <ele>217.60000610352</ele>
        <time>2021-09-16T05:02:17.000Z</time>
      </trkpt>
      <trkpt lat="45.19993" lon="5.73442">
        <ele>217.60000610352</ele>
        <time>2021-09-16T05:02:18.000Z</time>
      </trkpt>
      <trkpt lat="45.20013" lon="5.73452">
        <ele>216.60000610352</ele>
        <time>2021-09-16T05:02:24.000Z</time>
      </trkpt>
      <trkpt lat="45.20018" lon="5.73455">
        <ele>216.60000610352</ele>
        <time>2021-09-16T05:02:26.000Z</time>
      </trkpt>
      <trkpt lat="45.20036" lon="5.73468">
        <ele>217</ele>
        <time>2021-09-16T05:02:33.000Z</time>
      </trkpt>
      <trkpt lat="45.20052" lon="5.73485">
        <ele>217.60000610352</ele>
        <time>2021-09-16T05:02:39.000Z</time>
      </trkpt>
      <trkpt lat="45.20067" lon="5.73501">
        <ele>217.19999694824</ele>
        <time>2021-09-16T05:02:45.000Z</time>
      </trkpt>
      <trkpt lat="45.2007" lon="5.73503">
        <ele>217.19999694824</ele>
        <time>2021-09-16T05:02:46.000Z</time>
      </trkpt>
      <trkpt lat="45.20085" lon="5.73518">
        <ele>217.39999389648</ele>
        <time>2021-09-16T05:02:51.000Z</time>
      </trkpt>
      <trkpt lat="45.20088" lon="5.73521">
        <ele>217.39999389648</ele>
        <time>2021-09-16T05:02:52.000Z</time>
      </trkpt>
      <trkpt lat="45.20099" lon="5.73539">
        <ele>217</ele>
        <time>2021-09-16T05:02:58.000Z</time>
      </trkpt>
      <trkpt lat="45.20103" lon="5.73545">
        <ele>217</ele>
        <time>2021-09-16T05:03:01.000Z</time>
      </trkpt>
      <trkpt lat="45.20107" lon="5.7355">
        <ele>217.19999694824</ele>
        <time>2021-09-16T05:03:04.000Z</time>
      </trkpt>
      <trkpt lat="45.20116" lon="5.73562">
        <ele>217.19999694824</ele>
        <time>2021-09-16T05:03:09.000Z</time>
      </trkpt>
      <trkpt lat="45.20117" lon="5.73565">
        <ele>217.19999694824</ele>
        <time>2021-09-16T05:03:10.000Z</time>
      </trkpt>
      <trkpt lat="45.20128" lon="5.73579">
        <ele>217</ele>
        <time>2021-09-16T05:03:15.000Z</time>
      </trkpt>
      <trkpt lat="45.2014" lon="5.73604">
        <ele>217</ele>
        <time>2021-09-16T05:03:22.000Z</time>
      </trkpt>
      <trkpt lat="45.2015" lon="5.73626">
        <ele>217.19999694824</ele>
        <time>2021-09-16T05:03:27.000Z</time>
      </trkpt>
      <trkpt lat="45.20152" lon="5.73631">
        <ele>217.39999389648</ele>
        <time>2021-09-16T05:03:28.000Z</time>
      </trkpt>
      <trkpt lat="45.20162" lon="5.73659">
        <ele>217</ele>
        <time>2021-09-16T05:03:34.000Z</time>
      </trkpt>
      <trkpt lat="45.20167" lon="5.73682">
        <ele>217</ele>
        <time>2021-09-16T05:03:39.000Z</time>
      </trkpt>
      <trkpt lat="45.2017" lon="5.73692">
        <ele>217</ele>
        <time>2021-09-16T05:03:41.000Z</time>
      </trkpt>
      <trkpt lat="45.20172" lon="5.73698">
        <ele>217</ele>
        <time>2021-09-16T05:03:42.000Z</time>
      </trkpt>
      <trkpt lat="45.20174" lon="5.73706">
        <ele>217.19999694824</ele>
        <time>2021-09-16T05:03:44.000Z</time>
      </trkpt>
      <trkpt lat="45.20176" lon="5.7372">
        <ele>217.39999389648</ele>
        <time>2021-09-16T05:03:47.000Z</time>
      </trkpt>
      <trkpt lat="45.20179" lon="5.73728">
        <ele>217.19999694824</ele>
        <time>2021-09-16T05:03:49.000Z</time>
      </trkpt>
      <trkpt lat="45.20179" lon="5.73732">
        <ele>217.19999694824</ele>
        <time>2021-09-16T05:03:50.000Z</time>
      </trkpt>
      <trkpt lat="45.2018" lon="5.73741">
        <ele>217.19999694824</ele>
        <time>2021-09-16T05:03:52.000Z</time>
      </trkpt>
      <trkpt lat="45.20178" lon="5.73761">
        <ele>216.80000305176</ele>
        <time>2021-09-16T05:03:56.000Z</time>
      </trkpt>
      <trkpt lat="45.2018" lon="5.73771">
        <ele>216.60000610352</ele>
        <time>2021-09-16T05:03:58.000Z</time>
      </trkpt>
      <trkpt lat="45.20181" lon="5.73785">
        <ele>216.60000610352</ele>
        <time>2021-09-16T05:04:01.000Z</time>
      </trkpt>
      <trkpt lat="45.20181" lon="5.7379">
        <ele>216.60000610352</ele>
        <time>2021-09-16T05:04:02.000Z</time>
      </trkpt>
      <trkpt lat="45.20181" lon="5.73818">
        <ele>217</ele>
        <time>2021-09-16T05:04:08.000Z</time>
      </trkpt>
      <trkpt lat="45.2018" lon="5.73823">
        <ele>217</ele>
        <time>2021-09-16T05:04:09.000Z</time>
      </trkpt>
      <trkpt lat="45.20179" lon="5.73827">
        <ele>217</ele>
        <time>2021-09-16T05:04:10.000Z</time>
      </trkpt>
      <trkpt lat="45.20175" lon="5.73838">
        <ele>217</ele>
        <time>2021-09-16T05:04:13.000Z</time>
      </trkpt>
      <trkpt lat="45.20174" lon="5.73842">
        <ele>217</ele>
        <time>2021-09-16T05:04:14.000Z</time>
      </trkpt>
      <trkpt lat="45.20171" lon="5.73851">
        <ele>217</ele>
        <time>2021-09-16T05:04:16.000Z</time>
      </trkpt>
      <trkpt lat="45.20168" lon="5.7387">
        <ele>217</ele>
        <time>2021-09-16T05:04:20.000Z</time>
      </trkpt>
      <trkpt lat="45.20159" lon="5.73887">
        <ele>217</ele>
        <time>2021-09-16T05:04:26.000Z</time>
      </trkpt>
      <trkpt lat="45.20149" lon="5.73904">
        <ele>217</ele>
        <time>2021-09-16T05:04:31.000Z</time>
      </trkpt>
      <trkpt lat="45.2014" lon="5.7392">
        <ele>217</ele>
        <time>2021-09-16T05:04:35.000Z</time>
      </trkpt>
      <trkpt lat="45.20136" lon="5.73926">
        <ele>216.80000305176</ele>
        <time>2021-09-16T05:04:37.000Z</time>
      </trkpt>
      <trkpt lat="45.20125" lon="5.73942">
        <ele>216.60000610352</ele>
        <time>2021-09-16T05:04:43.000Z</time>
      </trkpt>
      <trkpt lat="45.20121" lon="5.73948">
        <ele>216.60000610352</ele>
        <time>2021-09-16T05:04:45.000Z</time>
      </trkpt>
      <trkpt lat="45.20113" lon="5.73959">
        <ele>216.39999389648</ele>
        <time>2021-09-16T05:04:49.000Z</time>
      </trkpt>
      <trkpt lat="45.20106" lon="5.73965">
        <ele>216.19999694824</ele>
        <time>2021-09-16T05:04:52.000Z</time>
      </trkpt>
      <trkpt lat="45.201" lon="5.73976">
        <ele>216.60000610352</ele>
        <time>2021-09-16T05:04:56.000Z</time>
      </trkpt>
      <trkpt lat="45.20093" lon="5.73983">
        <ele>217.19999694824</ele>
        <time>2021-09-16T05:05:00.000Z</time>
      </trkpt>
      <trkpt lat="45.20088" lon="5.73986">
        <ele>217</ele>
        <time>2021-09-16T05:05:02.000Z</time>
      </trkpt>
      <trkpt lat="45.20076" lon="5.73995">
        <ele>217</ele>
        <time>2021-09-16T05:05:06.000Z</time>
      </trkpt>
      <trkpt lat="45.20067" lon="5.74">
        <ele>217.39999389648</ele>
        <time>2021-09-16T05:05:09.000Z</time>
      </trkpt>
      <trkpt lat="45.20062" lon="5.74008">
        <ele>217.60000610352</ele>
        <time>2021-09-16T05:05:12.000Z</time>
      </trkpt>
      <trkpt lat="45.20058" lon="5.74013">
        <ele>217.19999694824</ele>
        <time>2021-09-16T05:05:14.000Z</time>
      </trkpt>
      <trkpt lat="45.20056" lon="5.74016">
        <ele>217.19999694824</ele>
        <time>2021-09-16T05:05:15.000Z</time>
      </trkpt>
      <trkpt lat="45.20049" lon="5.74027">
        <ele>216.80000305176</ele>
        <time>2021-09-16T05:05:18.000Z</time>
      </trkpt>
      <trkpt lat="45.20046" lon="5.74034">
        <ele>216.19999694824</ele>
        <time>2021-09-16T05:05:20.000Z</time>
      </trkpt>
      <trkpt lat="45.20044" lon="5.74044">
        <ele>215.39999389648</ele>
        <time>2021-09-16T05:05:23.000Z</time>
      </trkpt>
      <trkpt lat="45.20044" lon="5.74048">
        <ele>215.19999694824</ele>
        <time>2021-09-16T05:05:24.000Z</time>
      </trkpt>
      <trkpt lat="45.20044" lon="5.74052">
        <ele>215</ele>
        <time>2021-09-16T05:05:25.000Z</time>
      </trkpt>
      <trkpt lat="45.20043" lon="5.7406">
        <ele>214.80000305176</ele>
        <time>2021-09-16T05:05:27.000Z</time>
      </trkpt>
      <trkpt lat="45.20038" lon="5.74062">
        <ele>214.80000305176</ele>
        <time>2021-09-16T05:05:29.000Z</time>
      </trkpt>
      <trkpt lat="45.20035" lon="5.74064">
        <ele>214.80000305176</ele>
        <time>2021-09-16T05:05:30.000Z</time>
      </trkpt>
      <trkpt lat="45.20032" lon="5.74068">
        <ele>214.80000305176</ele>
        <time>2021-09-16T05:05:32.000Z</time>
      </trkpt>
      <trkpt lat="45.2003" lon="5.7407">
        <ele>214.60000610352</ele>
        <time>2021-09-16T05:05:33.000Z</time>
      </trkpt>
      <trkpt lat="45.20025" lon="5.74078">
        <ele>214.60000610352</ele>
        <time>2021-09-16T05:05:36.000Z</time>
      </trkpt>
      <trkpt lat="45.20011" lon="5.74095">
        <ele>215.60000610352</ele>
        <time>2021-09-16T05:05:41.000Z</time>
      </trkpt>
      <trkpt lat="45.19993" lon="5.74117">
        <ele>216.39999389648</ele>
        <time>2021-09-16T05:05:45.000Z</time>
      </trkpt>
      <trkpt lat="45.19981" lon="5.74128">
        <ele>217</ele>
        <time>2021-09-16T05:05:48.000Z</time>
      </trkpt>
      <trkpt lat="45.19975" lon="5.74134">
        <ele>217.39999389648</ele>
        <time>2021-09-16T05:05:50.000Z</time>
      </trkpt>
      <trkpt lat="45.19966" lon="5.74146">
        <ele>217.60000610352</ele>
        <time>2021-09-16T05:05:53.000Z</time>
      </trkpt>
      <trkpt lat="45.19949" lon="5.74162">
        <ele>217.19999694824</ele>
        <time>2021-09-16T05:05:59.000Z</time>
      </trkpt>
      <trkpt lat="45.19945" lon="5.74166">
        <ele>217.19999694824</ele>
        <time>2021-09-16T05:06:01.000Z</time>
      </trkpt>
      <trkpt lat="45.19928" lon="5.74178">
        <ele>217.39999389648</ele>
        <time>2021-09-16T05:06:07.000Z</time>
      </trkpt>
      <trkpt lat="45.19917" lon="5.74186">
        <ele>217.60000610352</ele>
        <time>2021-09-16T05:06:11.000Z</time>
      </trkpt>
      <trkpt lat="45.19899" lon="5.74196">
        <ele>217.19999694824</ele>
        <time>2021-09-16T05:06:17.000Z</time>
      </trkpt>
      <trkpt lat="45.19897" lon="5.74198">
        <ele>217.19999694824</ele>
        <time>2021-09-16T05:06:18.000Z</time>
      </trkpt>
      <trkpt lat="45.19878" lon="5.74207">
        <ele>217.19999694824</ele>
        <time>2021-09-16T05:06:24.000Z</time>
      </trkpt>
      <trkpt lat="45.19867" lon="5.74211">
        <ele>217.19999694824</ele>
        <time>2021-09-16T05:06:28.000Z</time>
      </trkpt>
      <trkpt lat="45.19847" lon="5.74217">
        <ele>217</ele>
        <time>2021-09-16T05:06:34.000Z</time>
      </trkpt>
      <trkpt lat="45.19845" lon="5.74219">
        <ele>217</ele>
        <time>2021-09-16T05:06:35.000Z</time>
      </trkpt>
      <trkpt lat="45.19826" lon="5.74225">
        <ele>217.19999694824</ele>
        <time>2021-09-16T05:06:41.000Z</time>
      </trkpt>
      <trkpt lat="45.19823" lon="5.74226">
        <ele>217.19999694824</ele>
        <time>2021-09-16T05:06:42.000Z</time>
      </trkpt>
      <trkpt lat="45.19805" lon="5.74233">
        <ele>216.80000305176</ele>
        <time>2021-09-16T05:06:48.000Z</time>
      </trkpt>
      <trkpt lat="45.19801" lon="5.74235">
        <ele>216.60000610352</ele>
        <time>2021-09-16T05:06:49.000Z</time>
      </trkpt>
      <trkpt lat="45.19781" lon="5.74243">
        <ele>217</ele>
        <time>2021-09-16T05:06:55.000Z</time>
      </trkpt>
      <trkpt lat="45.19775" lon="5.74244">
        <ele>217</ele>
        <time>2021-09-16T05:06:57.000Z</time>
      </trkpt>
      <trkpt lat="45.19756" lon="5.74247">
        <ele>217</ele>
        <time>2021-09-16T05:07:03.000Z</time>
      </trkpt>
      <trkpt lat="45.19753" lon="5.74247">
        <ele>217</ele>
        <time>2021-09-16T05:07:04.000Z</time>
      </trkpt>
      <trkpt lat="45.19751" lon="5.74247">
        <ele>217</ele>
        <time>2021-09-16T05:07:05.000Z</time>
      </trkpt>
      <trkpt lat="45.19732" lon="5.74248">
        <ele>217</ele>
        <time>2021-09-16T05:07:12.000Z</time>
      </trkpt>
      <trkpt lat="45.19731" lon="5.74246">
        <ele>216.80000305176</ele>
        <time>2021-09-16T05:07:13.000Z</time>
      </trkpt>
      <trkpt lat="45.19729" lon="5.7424">
        <ele>216.19999694824</ele>
        <time>2021-09-16T05:07:16.000Z</time>
      </trkpt>
      <trkpt lat="45.19724" lon="5.74222">
        <ele>215.39999389648</ele>
        <time>2021-09-16T05:07:21.000Z</time>
      </trkpt>
      <trkpt lat="45.19724" lon="5.74213">
        <ele>215.19999694824</ele>
        <time>2021-09-16T05:07:23.000Z</time>
      </trkpt>
      <trkpt lat="45.19722" lon="5.74202">
        <ele>215.39999389648</ele>
        <time>2021-09-16T05:07:26.000Z</time>
      </trkpt>
      <trkpt lat="45.19715" lon="5.74184">
        <ele>215.39999389648</ele>
        <time>2021-09-16T05:07:31.000Z</time>
      </trkpt>
      <trkpt lat="45.19714" lon="5.74179">
        <ele>215.19999694824</ele>
        <time>2021-09-16T05:07:33.000Z</time>
      </trkpt>
      <trkpt lat="45.19712" lon="5.74167">
        <ele>215.19999694824</ele>
        <time>2021-09-16T05:07:36.000Z</time>
      </trkpt>
      <trkpt lat="45.19708" lon="5.74141">
        <ele>215.19999694824</ele>
        <time>2021-09-16T05:07:42.000Z</time>
      </trkpt>
      <trkpt lat="45.19706" lon="5.7413">
        <ele>215.39999389648</ele>
        <time>2021-09-16T05:07:45.000Z</time>
      </trkpt>
      <trkpt lat="45.197" lon="5.74103">
        <ele>215.19999694824</ele>
        <time>2021-09-16T05:07:51.000Z</time>
      </trkpt>
      <trkpt lat="45.19698" lon="5.74083">
        <ele>215.39999389648</ele>
        <time>2021-09-16T05:07:56.000Z</time>
      </trkpt>
      <trkpt lat="45.19694" lon="5.74057">
        <ele>215.39999389648</ele>
        <time>2021-09-16T05:08:02.000Z</time>
      </trkpt>
      <trkpt lat="45.19693" lon="5.74054">
        <ele>215.39999389648</ele>
        <time>2021-09-16T05:08:03.000Z</time>
      </trkpt>
      <trkpt lat="45.19691" lon="5.74044">
        <ele>215.39999389648</ele>
        <time>2021-09-16T05:08:06.000Z</time>
      </trkpt>
      <trkpt lat="45.19689" lon="5.74031">
        <ele>215.39999389648</ele>
        <time>2021-09-16T05:08:09.000Z</time>
      </trkpt>
      <trkpt lat="45.19687" lon="5.74013">
        <ele>215</ele>
        <time>2021-09-16T05:08:14.000Z</time>
      </trkpt>
      <trkpt lat="45.19685" lon="5.74012">
        <ele>215</ele>
        <time>2021-09-16T05:08:15.000Z</time>
      </trkpt>
      <trkpt lat="45.19667" lon="5.74009">
        <ele>215.39999389648</ele>
        <time>2021-09-16T05:08:21.000Z</time>
      </trkpt>
      <trkpt lat="45.1965" lon="5.74007">
        <ele>215</ele>
        <time>2021-09-16T05:08:26.000Z</time>
      </trkpt>
      <trkpt lat="45.19637" lon="5.74004">
        <ele>215.19999694824</ele>
        <time>2021-09-16T05:08:30.000Z</time>
      </trkpt>
      <trkpt lat="45.19618" lon="5.73998">
        <ele>215.19999694824</ele>
        <time>2021-09-16T05:08:36.000Z</time>
      </trkpt>
      <trkpt lat="45.19616" lon="5.73995">
        <ele>215.19999694824</ele>
        <time>2021-09-16T05:08:37.000Z</time>
      </trkpt>
      <trkpt lat="45.19616" lon="5.73988">
        <ele>215.19999694824</ele>
        <time>2021-09-16T05:08:39.000Z</time>
      </trkpt>
      <trkpt lat="45.19616" lon="5.7398">
        <ele>215.19999694824</ele>
        <time>2021-09-16T05:08:41.000Z</time>
      </trkpt>
      <trkpt lat="45.19617" lon="5.73977">
        <ele>215</ele>
        <time>2021-09-16T05:08:42.000Z</time>
      </trkpt>
      <trkpt lat="45.19618" lon="5.73973">
        <ele>215.19999694824</ele>
        <time>2021-09-16T05:08:43.000Z</time>
      </trkpt>
      <trkpt lat="45.1962" lon="5.73971">
        <ele>215.19999694824</ele>
        <time>2021-09-16T05:08:44.000Z</time>
      </trkpt>
      <trkpt lat="45.19629" lon="5.73967">
        <ele>215</ele>
        <time>2021-09-16T05:08:48.000Z</time>
      </trkpt>
      <trkpt lat="45.1963" lon="5.73968">
        <ele>215</ele>
        <time>2021-09-16T05:08:49.000Z</time>
      </trkpt>
      <trkpt lat="45.19635" lon="5.73968">
        <ele>215</ele>
        <time>2021-09-16T05:08:51.000Z</time>
      </trkpt>
      <trkpt lat="45.19637" lon="5.7397">
        <ele>215</ele>
        <time>2021-09-16T05:08:53.000Z</time>
      </trkpt>
      <trkpt lat="45.19636" lon="5.73968">
        <ele>215</ele>
        <time>2021-09-16T05:08:55.000Z</time>
      </trkpt>
      <trkpt lat="45.19636" lon="5.73968">
        <ele>215</ele>
        <time>2021-09-16T05:08:56.000Z</time>
      </trkpt>
      <trkpt lat="45.19637" lon="5.7397">
        <ele>215</ele>
        <time>2021-09-16T05:08:58.000Z</time>
      </trkpt>
      <trkpt lat="45.19643" lon="5.73975">
        <ele>218.19999694824</ele>
        <time>2021-09-16T05:09:19.000Z</time>
      </trkpt>
      <trkpt lat="45.19639" lon="5.73971">
        <ele>218.60000610352</ele>
        <time>2021-09-16T05:09:20.000Z</time>
      </trkpt>
      <trkpt lat="45.19643" lon="5.73971">
        <ele>218.80000305176</ele>
        <time>2021-09-16T05:09:21.000Z</time>
      </trkpt>
      <trkpt lat="45.19639" lon="5.73981">
        <ele>219.39999389648</ele>
        <time>2021-09-16T05:09:23.000Z</time>
      </trkpt>
      <trkpt lat="45.19637" lon="5.73983">
        <ele>220</ele>
        <time>2021-09-16T05:09:24.000Z</time>
      </trkpt>
      <trkpt lat="45.19638" lon="5.73984">
        <ele>220.19999694824</ele>
        <time>2021-09-16T05:09:26.000Z</time>
      </trkpt>
      <trkpt lat="45.19639" lon="5.73984">
        <ele>220.39999389648</ele>
        <time>2021-09-16T05:09:27.000Z</time>
      </trkpt>
      <trkpt lat="45.1964" lon="5.73984">
        <ele>220.39999389648</ele>
        <time>2021-09-16T05:09:28.000Z</time>
      </trkpt>
      <trkpt lat="45.1964" lon="5.73985">
        <ele>221</ele>
        <time>2021-09-16T05:09:30.000Z</time>
      </trkpt>
      <trkpt lat="45.19639" lon="5.73983">
        <ele>221.60000610352</ele>
        <time>2021-09-16T05:09:32.000Z</time>
      </trkpt>
      <trkpt lat="45.19638" lon="5.73977">
        <ele>222.19999694824</ele>
        <time>2021-09-16T05:09:34.000Z</time>
      </trkpt>
      <trkpt lat="45.19639" lon="5.7397">
        <ele>223</ele>
        <time>2021-09-16T05:09:38.000Z</time>
      </trkpt>
      <trkpt lat="45.19639" lon="5.73969">
        <ele>223</ele>
        <time>2021-09-16T05:09:39.000Z</time>
      </trkpt>
      <trkpt lat="45.19641" lon="5.73967">
        <ele>223.19999694824</ele>
        <time>2021-09-16T05:09:41.000Z</time>
      </trkpt>
      <trkpt lat="45.19642" lon="5.73964">
        <ele>223.19999694824</ele>
        <time>2021-09-16T05:09:43.000Z</time>
      </trkpt>
      <trkpt lat="45.19643" lon="5.73964">
        <ele>223.19999694824</ele>
        <time>2021-09-16T05:09:44.000Z</time>
      </trkpt>
      <trkpt lat="45.19646" lon="5.73964">
        <ele>223</ele>
        <time>2021-09-16T05:09:47.000Z</time>
      </trkpt>
    </trkseg>
  </trk>
</gpx>